<?xml version="1.0" encoding="UTF-8" standalone="no" ?>
<gpx xmlns="http://www.topografix.com/GPX/1/1" xmlns:xsi="http://www.w3.org/2001/XMLSchema-instance" xsi:schemaLocation="http://www.topografix.com/GPX/1/1 http://www.topografix.com/GPX/1/1/gpx.xsd" version="1.1" creator="VisuGPX - https://www.visugpx.com">
  <metadata>
    <name>[18/04/2017] Tour de la forêt de Dreux</name>
    <desc><![CDATA[Tour de la forêt de Dreux au départ de Marcilly-sur-Eure]]></desc>
  </metadata>
  <trk>
    <name><![CDATA[[18/04/2017] Tour de la forêt de Dreux_1]]></name>
    <trkseg>
      <trkpt lat="48.8276" lon="1.34614">
        <ele>73.454468</ele>
        <time>2017-04-18T11:52:36Z</time>
      </trkpt>
      <trkpt lat="48.8276" lon="1.34614">
        <ele>73.454468</ele>
        <time>2017-04-18T11:52:37Z</time>
      </trkpt>
      <trkpt lat="48.82758" lon="1.346">
        <ele>72.5</ele>
        <time>2017-04-18T11:53:01Z</time>
      </trkpt>
      <trkpt lat="48.82748" lon="1.34593">
        <ele>72.5</ele>
        <time>2017-04-18T11:53:05Z</time>
      </trkpt>
      <trkpt lat="48.82739" lon="1.34592">
        <ele>72.5</ele>
        <time>2017-04-18T11:53:08Z</time>
      </trkpt>
      <trkpt lat="48.82729" lon="1.3459">
        <ele>72.5</ele>
        <time>2017-04-18T11:53:11Z</time>
      </trkpt>
      <trkpt lat="48.8272" lon="1.34585">
        <ele>72.5</ele>
        <time>2017-04-18T11:53:14Z</time>
      </trkpt>
      <trkpt lat="48.82709" lon="1.34581">
        <ele>72.400002</ele>
        <time>2017-04-18T11:53:17Z</time>
      </trkpt>
      <trkpt lat="48.82699" lon="1.34575">
        <ele>72.400002</ele>
        <time>2017-04-18T11:53:20Z</time>
      </trkpt>
      <trkpt lat="48.82688" lon="1.34573">
        <ele>72.400002</ele>
        <time>2017-04-18T11:53:23Z</time>
      </trkpt>
      <trkpt lat="48.82678" lon="1.34571">
        <ele>72.400002</ele>
        <time>2017-04-18T11:53:26Z</time>
      </trkpt>
      <trkpt lat="48.82669" lon="1.34569">
        <ele>72.400002</ele>
        <time>2017-04-18T11:53:29Z</time>
      </trkpt>
      <trkpt lat="48.82658" lon="1.34567">
        <ele>72.400002</ele>
        <time>2017-04-18T11:53:33Z</time>
      </trkpt>
      <trkpt lat="48.82647" lon="1.34566">
        <ele>72.5</ele>
        <time>2017-04-18T11:53:37Z</time>
      </trkpt>
      <trkpt lat="48.82636" lon="1.34562">
        <ele>72.599998</ele>
        <time>2017-04-18T11:53:41Z</time>
      </trkpt>
      <trkpt lat="48.82625" lon="1.3456">
        <ele>72.599998</ele>
        <time>2017-04-18T11:53:44Z</time>
      </trkpt>
      <trkpt lat="48.82614" lon="1.34557">
        <ele>72.599998</ele>
        <time>2017-04-18T11:53:47Z</time>
      </trkpt>
      <trkpt lat="48.82601" lon="1.34556">
        <ele>72.699997</ele>
        <time>2017-04-18T11:53:50Z</time>
      </trkpt>
      <trkpt lat="48.8259" lon="1.34554">
        <ele>72.699997</ele>
        <time>2017-04-18T11:53:53Z</time>
      </trkpt>
      <trkpt lat="48.8258" lon="1.34563">
        <ele>72.699997</ele>
        <time>2017-04-18T11:53:56Z</time>
      </trkpt>
      <trkpt lat="48.82576" lon="1.3458">
        <ele>72.800003</ele>
        <time>2017-04-18T11:53:59Z</time>
      </trkpt>
      <trkpt lat="48.8257" lon="1.34596">
        <ele>72.800003</ele>
        <time>2017-04-18T11:54:02Z</time>
      </trkpt>
      <trkpt lat="48.8256" lon="1.34605">
        <ele>72.699997</ele>
        <time>2017-04-18T11:54:14Z</time>
      </trkpt>
      <trkpt lat="48.82554" lon="1.34615">
        <ele>72.599998</ele>
        <time>2017-04-18T11:54:18Z</time>
      </trkpt>
      <trkpt lat="48.82553" lon="1.34632">
        <ele>72.400002</ele>
        <time>2017-04-18T11:54:21Z</time>
      </trkpt>
      <trkpt lat="48.82553" lon="1.34646">
        <ele>72.300003</ele>
        <time>2017-04-18T11:54:23Z</time>
      </trkpt>
      <trkpt lat="48.82554" lon="1.34661">
        <ele>72.199997</ele>
        <time>2017-04-18T11:54:25Z</time>
      </trkpt>
      <trkpt lat="48.82555" lon="1.34677">
        <ele>72.099998</ele>
        <time>2017-04-18T11:54:27Z</time>
      </trkpt>
      <trkpt lat="48.82557" lon="1.34692">
        <ele>72</ele>
        <time>2017-04-18T11:54:29Z</time>
      </trkpt>
      <trkpt lat="48.82555" lon="1.34707">
        <ele>71.900002</ele>
        <time>2017-04-18T11:54:31Z</time>
      </trkpt>
      <trkpt lat="48.82547" lon="1.34717">
        <ele>71.800003</ele>
        <time>2017-04-18T11:54:33Z</time>
      </trkpt>
      <trkpt lat="48.82537" lon="1.34724">
        <ele>71.800003</ele>
        <time>2017-04-18T11:54:35Z</time>
      </trkpt>
      <trkpt lat="48.82527" lon="1.34731">
        <ele>71.699997</ele>
        <time>2017-04-18T11:54:37Z</time>
      </trkpt>
      <trkpt lat="48.82517" lon="1.34739">
        <ele>71.599998</ele>
        <time>2017-04-18T11:54:39Z</time>
      </trkpt>
      <trkpt lat="48.82506" lon="1.34746">
        <ele>71.5</ele>
        <time>2017-04-18T11:54:41Z</time>
      </trkpt>
      <trkpt lat="48.82496" lon="1.34753">
        <ele>71.5</ele>
        <time>2017-04-18T11:54:43Z</time>
      </trkpt>
      <trkpt lat="48.82485" lon="1.34761">
        <ele>71.400002</ele>
        <time>2017-04-18T11:54:45Z</time>
      </trkpt>
      <trkpt lat="48.82475" lon="1.3477">
        <ele>71.400002</ele>
        <time>2017-04-18T11:54:47Z</time>
      </trkpt>
      <trkpt lat="48.82466" lon="1.3478">
        <ele>71.300003</ele>
        <time>2017-04-18T11:54:49Z</time>
      </trkpt>
      <trkpt lat="48.82456" lon="1.34789">
        <ele>71.300003</ele>
        <time>2017-04-18T11:54:51Z</time>
      </trkpt>
      <trkpt lat="48.82446" lon="1.34799">
        <ele>71.300003</ele>
        <time>2017-04-18T11:54:53Z</time>
      </trkpt>
      <trkpt lat="48.82436" lon="1.34809">
        <ele>71.300003</ele>
        <time>2017-04-18T11:54:55Z</time>
      </trkpt>
      <trkpt lat="48.82425" lon="1.34819">
        <ele>71.199997</ele>
        <time>2017-04-18T11:54:57Z</time>
      </trkpt>
      <trkpt lat="48.82416" lon="1.3483">
        <ele>71.099998</ele>
        <time>2017-04-18T11:54:59Z</time>
      </trkpt>
      <trkpt lat="48.82406" lon="1.3484">
        <ele>71</ele>
        <time>2017-04-18T11:55:01Z</time>
      </trkpt>
      <trkpt lat="48.82397" lon="1.34852">
        <ele>71</ele>
        <time>2017-04-18T11:55:03Z</time>
      </trkpt>
      <trkpt lat="48.82388" lon="1.34864">
        <ele>70.900002</ele>
        <time>2017-04-18T11:55:05Z</time>
      </trkpt>
      <trkpt lat="48.82379" lon="1.34876">
        <ele>70.800003</ele>
        <time>2017-04-18T11:55:07Z</time>
      </trkpt>
      <trkpt lat="48.82371" lon="1.3489">
        <ele>70.699997</ele>
        <time>2017-04-18T11:55:09Z</time>
      </trkpt>
      <trkpt lat="48.82363" lon="1.34904">
        <ele>70.599998</ele>
        <time>2017-04-18T11:55:11Z</time>
      </trkpt>
      <trkpt lat="48.82355" lon="1.34918">
        <ele>70.5</ele>
        <time>2017-04-18T11:55:13Z</time>
      </trkpt>
      <trkpt lat="48.82347" lon="1.34931">
        <ele>70.400002</ele>
        <time>2017-04-18T11:55:15Z</time>
      </trkpt>
      <trkpt lat="48.82339" lon="1.34944">
        <ele>70.300003</ele>
        <time>2017-04-18T11:55:17Z</time>
      </trkpt>
      <trkpt lat="48.8233" lon="1.34957">
        <ele>70.300003</ele>
        <time>2017-04-18T11:55:19Z</time>
      </trkpt>
      <trkpt lat="48.82321" lon="1.34968">
        <ele>70.199997</ele>
        <time>2017-04-18T11:55:21Z</time>
      </trkpt>
      <trkpt lat="48.82312" lon="1.3498">
        <ele>70.199997</ele>
        <time>2017-04-18T11:55:23Z</time>
      </trkpt>
      <trkpt lat="48.82304" lon="1.34992">
        <ele>70.099998</ele>
        <time>2017-04-18T11:55:25Z</time>
      </trkpt>
      <trkpt lat="48.82296" lon="1.35008">
        <ele>70.099998</ele>
        <time>2017-04-18T11:55:27Z</time>
      </trkpt>
      <trkpt lat="48.82289" lon="1.35024">
        <ele>70</ele>
        <time>2017-04-18T11:55:29Z</time>
      </trkpt>
      <trkpt lat="48.82283" lon="1.3504">
        <ele>70</ele>
        <time>2017-04-18T11:55:31Z</time>
      </trkpt>
      <trkpt lat="48.82279" lon="1.35057">
        <ele>70</ele>
        <time>2017-04-18T11:55:33Z</time>
      </trkpt>
      <trkpt lat="48.82274" lon="1.35074">
        <ele>69.900002</ele>
        <time>2017-04-18T11:55:35Z</time>
      </trkpt>
      <trkpt lat="48.8227" lon="1.35091">
        <ele>69.900002</ele>
        <time>2017-04-18T11:55:37Z</time>
      </trkpt>
      <trkpt lat="48.82266" lon="1.35107">
        <ele>69.900002</ele>
        <time>2017-04-18T11:55:39Z</time>
      </trkpt>
      <trkpt lat="48.82261" lon="1.35124">
        <ele>69.900002</ele>
        <time>2017-04-18T11:55:41Z</time>
      </trkpt>
      <trkpt lat="48.82257" lon="1.3514">
        <ele>69.800003</ele>
        <time>2017-04-18T11:55:43Z</time>
      </trkpt>
      <trkpt lat="48.82253" lon="1.35155">
        <ele>69.699997</ele>
        <time>2017-04-18T11:55:45Z</time>
      </trkpt>
      <trkpt lat="48.82249" lon="1.35171">
        <ele>69.599998</ele>
        <time>2017-04-18T11:55:47Z</time>
      </trkpt>
      <trkpt lat="48.82245" lon="1.35187">
        <ele>69.5</ele>
        <time>2017-04-18T11:55:49Z</time>
      </trkpt>
      <trkpt lat="48.8224" lon="1.35202">
        <ele>69.400002</ele>
        <time>2017-04-18T11:55:51Z</time>
      </trkpt>
      <trkpt lat="48.82236" lon="1.35217">
        <ele>69.300003</ele>
        <time>2017-04-18T11:55:53Z</time>
      </trkpt>
      <trkpt lat="48.82231" lon="1.35233">
        <ele>69.300003</ele>
        <time>2017-04-18T11:55:55Z</time>
      </trkpt>
      <trkpt lat="48.82226" lon="1.35248">
        <ele>69.199997</ele>
        <time>2017-04-18T11:55:57Z</time>
      </trkpt>
      <trkpt lat="48.82221" lon="1.35263">
        <ele>69.199997</ele>
        <time>2017-04-18T11:55:59Z</time>
      </trkpt>
      <trkpt lat="48.82217" lon="1.35279">
        <ele>69.199997</ele>
        <time>2017-04-18T11:56:01Z</time>
      </trkpt>
      <trkpt lat="48.82212" lon="1.35293">
        <ele>69.199997</ele>
        <time>2017-04-18T11:56:03Z</time>
      </trkpt>
      <trkpt lat="48.82218" lon="1.35282">
        <ele>69.199997</ele>
        <time>2017-04-18T11:56:13Z</time>
      </trkpt>
      <trkpt lat="48.82215" lon="1.35266">
        <ele>69.199997</ele>
        <time>2017-04-18T11:56:16Z</time>
      </trkpt>
      <trkpt lat="48.82202" lon="1.35262">
        <ele>69.199997</ele>
        <time>2017-04-18T11:56:19Z</time>
      </trkpt>
      <trkpt lat="48.82192" lon="1.35261">
        <ele>69.199997</ele>
        <time>2017-04-18T11:56:21Z</time>
      </trkpt>
      <trkpt lat="48.82182" lon="1.35263">
        <ele>69.199997</ele>
        <time>2017-04-18T11:56:24Z</time>
      </trkpt>
      <trkpt lat="48.82177" lon="1.35279">
        <ele>69.300003</ele>
        <time>2017-04-18T11:56:29Z</time>
      </trkpt>
      <trkpt lat="48.82169" lon="1.35296">
        <ele>69.5</ele>
        <time>2017-04-18T11:56:32Z</time>
      </trkpt>
      <trkpt lat="48.82161" lon="1.35308">
        <ele>69.5</ele>
        <time>2017-04-18T11:56:34Z</time>
      </trkpt>
      <trkpt lat="48.82153" lon="1.3532">
        <ele>69.5</ele>
        <time>2017-04-18T11:56:36Z</time>
      </trkpt>
      <trkpt lat="48.82145" lon="1.35331">
        <ele>69.5</ele>
        <time>2017-04-18T11:56:38Z</time>
      </trkpt>
      <trkpt lat="48.82137" lon="1.35343">
        <ele>69.5</ele>
        <time>2017-04-18T11:56:40Z</time>
      </trkpt>
      <trkpt lat="48.82129" lon="1.35354">
        <ele>69.5</ele>
        <time>2017-04-18T11:56:42Z</time>
      </trkpt>
      <trkpt lat="48.82121" lon="1.35367">
        <ele>69.599998</ele>
        <time>2017-04-18T11:56:44Z</time>
      </trkpt>
      <trkpt lat="48.82113" lon="1.35381">
        <ele>69.599998</ele>
        <time>2017-04-18T11:56:46Z</time>
      </trkpt>
      <trkpt lat="48.82106" lon="1.35394">
        <ele>69.599998</ele>
        <time>2017-04-18T11:56:48Z</time>
      </trkpt>
      <trkpt lat="48.821" lon="1.35408">
        <ele>69.599998</ele>
        <time>2017-04-18T11:56:50Z</time>
      </trkpt>
      <trkpt lat="48.82094" lon="1.3542">
        <ele>69.599998</ele>
        <time>2017-04-18T11:56:52Z</time>
      </trkpt>
      <trkpt lat="48.82087" lon="1.35432">
        <ele>69.599998</ele>
        <time>2017-04-18T11:56:54Z</time>
      </trkpt>
      <trkpt lat="48.82085" lon="1.35446">
        <ele>69.699997</ele>
        <time>2017-04-18T11:56:56Z</time>
      </trkpt>
      <trkpt lat="48.82091" lon="1.35456">
        <ele>69.699997</ele>
        <time>2017-04-18T11:56:58Z</time>
      </trkpt>
      <trkpt lat="48.821" lon="1.35464">
        <ele>69.800003</ele>
        <time>2017-04-18T11:57:00Z</time>
      </trkpt>
      <trkpt lat="48.82109" lon="1.35471">
        <ele>69.800003</ele>
        <time>2017-04-18T11:57:02Z</time>
      </trkpt>
      <trkpt lat="48.82118" lon="1.35479">
        <ele>69.800003</ele>
        <time>2017-04-18T11:57:04Z</time>
      </trkpt>
      <trkpt lat="48.82127" lon="1.35487">
        <ele>69.900002</ele>
        <time>2017-04-18T11:57:06Z</time>
      </trkpt>
      <trkpt lat="48.82136" lon="1.35495">
        <ele>69.900002</ele>
        <time>2017-04-18T11:57:08Z</time>
      </trkpt>
      <trkpt lat="48.82142" lon="1.35507">
        <ele>69.900002</ele>
        <time>2017-04-18T11:57:11Z</time>
      </trkpt>
      <trkpt lat="48.82139" lon="1.35524">
        <ele>69.900002</ele>
        <time>2017-04-18T11:57:14Z</time>
      </trkpt>
      <trkpt lat="48.82133" lon="1.35542">
        <ele>70</ele>
        <time>2017-04-18T11:57:17Z</time>
      </trkpt>
      <trkpt lat="48.82129" lon="1.35555">
        <ele>70</ele>
        <time>2017-04-18T11:57:19Z</time>
      </trkpt>
      <trkpt lat="48.82124" lon="1.35569">
        <ele>70</ele>
        <time>2017-04-18T11:57:21Z</time>
      </trkpt>
      <trkpt lat="48.8212" lon="1.35584">
        <ele>70</ele>
        <time>2017-04-18T11:57:23Z</time>
      </trkpt>
      <trkpt lat="48.82115" lon="1.35599">
        <ele>70</ele>
        <time>2017-04-18T11:57:25Z</time>
      </trkpt>
      <trkpt lat="48.8211" lon="1.35614">
        <ele>70</ele>
        <time>2017-04-18T11:57:27Z</time>
      </trkpt>
      <trkpt lat="48.82105" lon="1.35629">
        <ele>70</ele>
        <time>2017-04-18T11:57:29Z</time>
      </trkpt>
      <trkpt lat="48.821" lon="1.35645">
        <ele>70</ele>
        <time>2017-04-18T11:57:31Z</time>
      </trkpt>
      <trkpt lat="48.82095" lon="1.35661">
        <ele>70</ele>
        <time>2017-04-18T11:57:33Z</time>
      </trkpt>
      <trkpt lat="48.8209" lon="1.35677">
        <ele>70</ele>
        <time>2017-04-18T11:57:35Z</time>
      </trkpt>
      <trkpt lat="48.82085" lon="1.35693">
        <ele>70</ele>
        <time>2017-04-18T11:57:37Z</time>
      </trkpt>
      <trkpt lat="48.8208" lon="1.35709">
        <ele>70</ele>
        <time>2017-04-18T11:57:39Z</time>
      </trkpt>
      <trkpt lat="48.82075" lon="1.35725">
        <ele>70</ele>
        <time>2017-04-18T11:57:41Z</time>
      </trkpt>
      <trkpt lat="48.8207" lon="1.35741">
        <ele>70.099998</ele>
        <time>2017-04-18T11:57:43Z</time>
      </trkpt>
      <trkpt lat="48.82065" lon="1.35757">
        <ele>70.099998</ele>
        <time>2017-04-18T11:57:45Z</time>
      </trkpt>
      <trkpt lat="48.8206" lon="1.35773">
        <ele>70.099998</ele>
        <time>2017-04-18T11:57:47Z</time>
      </trkpt>
      <trkpt lat="48.82055" lon="1.35789">
        <ele>70.099998</ele>
        <time>2017-04-18T11:57:49Z</time>
      </trkpt>
      <trkpt lat="48.82049" lon="1.35805">
        <ele>70.099998</ele>
        <time>2017-04-18T11:57:51Z</time>
      </trkpt>
      <trkpt lat="48.82045" lon="1.3582">
        <ele>70.099998</ele>
        <time>2017-04-18T11:57:53Z</time>
      </trkpt>
      <trkpt lat="48.8204" lon="1.35834">
        <ele>70.099998</ele>
        <time>2017-04-18T11:57:55Z</time>
      </trkpt>
      <trkpt lat="48.82035" lon="1.35849">
        <ele>70.199997</ele>
        <time>2017-04-18T11:57:57Z</time>
      </trkpt>
      <trkpt lat="48.82031" lon="1.35865">
        <ele>70.400002</ele>
        <time>2017-04-18T11:57:59Z</time>
      </trkpt>
      <trkpt lat="48.82027" lon="1.3588">
        <ele>70.5</ele>
        <time>2017-04-18T11:58:01Z</time>
      </trkpt>
      <trkpt lat="48.82025" lon="1.35893">
        <ele>70.699997</ele>
        <time>2017-04-18T11:58:03Z</time>
      </trkpt>
      <trkpt lat="48.82022" lon="1.35907">
        <ele>71</ele>
        <time>2017-04-18T11:58:05Z</time>
      </trkpt>
      <trkpt lat="48.82018" lon="1.35922">
        <ele>71.099998</ele>
        <time>2017-04-18T11:58:07Z</time>
      </trkpt>
      <trkpt lat="48.82015" lon="1.35937">
        <ele>71.300003</ele>
        <time>2017-04-18T11:58:09Z</time>
      </trkpt>
      <trkpt lat="48.82012" lon="1.35953">
        <ele>71.400002</ele>
        <time>2017-04-18T11:58:11Z</time>
      </trkpt>
      <trkpt lat="48.82009" lon="1.35968">
        <ele>71.599998</ele>
        <time>2017-04-18T11:58:13Z</time>
      </trkpt>
      <trkpt lat="48.82006" lon="1.35983">
        <ele>71.699997</ele>
        <time>2017-04-18T11:58:15Z</time>
      </trkpt>
      <trkpt lat="48.81996" lon="1.35997">
        <ele>72</ele>
        <time>2017-04-18T11:58:18Z</time>
      </trkpt>
      <trkpt lat="48.81984" lon="1.36001">
        <ele>72.199997</ele>
        <time>2017-04-18T11:58:21Z</time>
      </trkpt>
      <trkpt lat="48.81972" lon="1.36004">
        <ele>72.599998</ele>
        <time>2017-04-18T11:58:24Z</time>
      </trkpt>
      <trkpt lat="48.81965" lon="1.36014">
        <ele>73</ele>
        <time>2017-04-18T11:58:27Z</time>
      </trkpt>
      <trkpt lat="48.8196" lon="1.36026">
        <ele>73.5</ele>
        <time>2017-04-18T11:58:30Z</time>
      </trkpt>
      <trkpt lat="48.81952" lon="1.36038">
        <ele>74</ele>
        <time>2017-04-18T11:58:33Z</time>
      </trkpt>
      <trkpt lat="48.81944" lon="1.36046">
        <ele>74.400002</ele>
        <time>2017-04-18T11:58:36Z</time>
      </trkpt>
      <trkpt lat="48.81936" lon="1.36053">
        <ele>74.900002</ele>
        <time>2017-04-18T11:58:39Z</time>
      </trkpt>
      <trkpt lat="48.81927" lon="1.36061">
        <ele>75.699997</ele>
        <time>2017-04-18T11:58:43Z</time>
      </trkpt>
      <trkpt lat="48.81918" lon="1.36067">
        <ele>76.900002</ele>
        <time>2017-04-18T11:58:48Z</time>
      </trkpt>
      <trkpt lat="48.81911" lon="1.36077">
        <ele>78.300003</ele>
        <time>2017-04-18T11:58:53Z</time>
      </trkpt>
      <trkpt lat="48.81904" lon="1.36088">
        <ele>79.800003</ele>
        <time>2017-04-18T11:58:58Z</time>
      </trkpt>
      <trkpt lat="48.81898" lon="1.36101">
        <ele>81.599998</ele>
        <time>2017-04-18T11:59:04Z</time>
      </trkpt>
      <trkpt lat="48.81891" lon="1.36113">
        <ele>83.699997</ele>
        <time>2017-04-18T11:59:10Z</time>
      </trkpt>
      <trkpt lat="48.81884" lon="1.36124">
        <ele>85.800003</ele>
        <time>2017-04-18T11:59:16Z</time>
      </trkpt>
      <trkpt lat="48.81879" lon="1.36137">
        <ele>88.099998</ele>
        <time>2017-04-18T11:59:22Z</time>
      </trkpt>
      <trkpt lat="48.81879" lon="1.36152">
        <ele>90.400002</ele>
        <time>2017-04-18T11:59:29Z</time>
      </trkpt>
      <trkpt lat="48.81879" lon="1.36165">
        <ele>92.099998</ele>
        <time>2017-04-18T11:59:35Z</time>
      </trkpt>
      <trkpt lat="48.81882" lon="1.3618">
        <ele>93.699997</ele>
        <time>2017-04-18T11:59:41Z</time>
      </trkpt>
      <trkpt lat="48.81887" lon="1.36193">
        <ele>94.800003</ele>
        <time>2017-04-18T11:59:46Z</time>
      </trkpt>
      <trkpt lat="48.81891" lon="1.36207">
        <ele>95.5</ele>
        <time>2017-04-18T11:59:50Z</time>
      </trkpt>
      <trkpt lat="48.8189" lon="1.36222">
        <ele>96.199997</ele>
        <time>2017-04-18T11:59:54Z</time>
      </trkpt>
      <trkpt lat="48.81897" lon="1.36234">
        <ele>96.599998</ele>
        <time>2017-04-18T11:59:58Z</time>
      </trkpt>
      <trkpt lat="48.81903" lon="1.36249">
        <ele>96.900002</ele>
        <time>2017-04-18T12:00:02Z</time>
      </trkpt>
      <trkpt lat="48.8191" lon="1.36262">
        <ele>97.199997</ele>
        <time>2017-04-18T12:00:05Z</time>
      </trkpt>
      <trkpt lat="48.81912" lon="1.36276">
        <ele>97.900002</ele>
        <time>2017-04-18T12:00:11Z</time>
      </trkpt>
      <trkpt lat="48.81911" lon="1.3629">
        <ele>99</ele>
        <time>2017-04-18T12:00:16Z</time>
      </trkpt>
      <trkpt lat="48.81912" lon="1.36305">
        <ele>100.800003</ele>
        <time>2017-04-18T12:00:23Z</time>
      </trkpt>
      <trkpt lat="48.81913" lon="1.36321">
        <ele>102.800003</ele>
        <time>2017-04-18T12:00:31Z</time>
      </trkpt>
      <trkpt lat="48.81911" lon="1.36336">
        <ele>104.099998</ele>
        <time>2017-04-18T12:00:36Z</time>
      </trkpt>
      <trkpt lat="48.8191" lon="1.36352">
        <ele>105.699997</ele>
        <time>2017-04-18T12:00:42Z</time>
      </trkpt>
      <trkpt lat="48.8191" lon="1.36366">
        <ele>107.099998</ele>
        <time>2017-04-18T12:00:48Z</time>
      </trkpt>
      <trkpt lat="48.81909" lon="1.36381">
        <ele>108.699997</ele>
        <time>2017-04-18T12:00:54Z</time>
      </trkpt>
      <trkpt lat="48.81907" lon="1.36397">
        <ele>110.300003</ele>
        <time>2017-04-18T12:01:00Z</time>
      </trkpt>
      <trkpt lat="48.81908" lon="1.36411">
        <ele>112</ele>
        <time>2017-04-18T12:01:06Z</time>
      </trkpt>
      <trkpt lat="48.81907" lon="1.36426">
        <ele>114</ele>
        <time>2017-04-18T12:01:12Z</time>
      </trkpt>
      <trkpt lat="48.81906" lon="1.3644">
        <ele>116.5</ele>
        <time>2017-04-18T12:01:19Z</time>
      </trkpt>
      <trkpt lat="48.81905" lon="1.36454">
        <ele>118.800003</ele>
        <time>2017-04-18T12:01:26Z</time>
      </trkpt>
      <trkpt lat="48.81905" lon="1.3647">
        <ele>121.199997</ele>
        <time>2017-04-18T12:01:33Z</time>
      </trkpt>
      <trkpt lat="48.81903" lon="1.36485">
        <ele>123.699997</ele>
        <time>2017-04-18T12:01:40Z</time>
      </trkpt>
      <trkpt lat="48.81901" lon="1.36498">
        <ele>125.599998</ele>
        <time>2017-04-18T12:01:46Z</time>
      </trkpt>
      <trkpt lat="48.81898" lon="1.36514">
        <ele>127.400002</ele>
        <time>2017-04-18T12:01:52Z</time>
      </trkpt>
      <trkpt lat="48.81897" lon="1.36528">
        <ele>128.800003</ele>
        <time>2017-04-18T12:01:57Z</time>
      </trkpt>
      <trkpt lat="48.81897" lon="1.36544">
        <ele>130.100006</ele>
        <time>2017-04-18T12:02:03Z</time>
      </trkpt>
      <trkpt lat="48.81905" lon="1.36552">
        <ele>131.199997</ele>
        <time>2017-04-18T12:02:09Z</time>
      </trkpt>
      <trkpt lat="48.81914" lon="1.36556">
        <ele>131.600006</ele>
        <time>2017-04-18T12:02:12Z</time>
      </trkpt>
      <trkpt lat="48.81922" lon="1.36565">
        <ele>131.899994</ele>
        <time>2017-04-18T12:02:15Z</time>
      </trkpt>
      <trkpt lat="48.81932" lon="1.36568">
        <ele>132.199997</ele>
        <time>2017-04-18T12:02:18Z</time>
      </trkpt>
      <trkpt lat="48.81939" lon="1.36582">
        <ele>132.399994</ele>
        <time>2017-04-18T12:02:21Z</time>
      </trkpt>
      <trkpt lat="48.81943" lon="1.36598">
        <ele>132.699997</ele>
        <time>2017-04-18T12:02:24Z</time>
      </trkpt>
      <trkpt lat="48.8195" lon="1.3661">
        <ele>132.899994</ele>
        <time>2017-04-18T12:02:27Z</time>
      </trkpt>
      <trkpt lat="48.81958" lon="1.36625">
        <ele>133.100006</ele>
        <time>2017-04-18T12:02:30Z</time>
      </trkpt>
      <trkpt lat="48.81964" lon="1.36642">
        <ele>133.199997</ele>
        <time>2017-04-18T12:02:33Z</time>
      </trkpt>
      <trkpt lat="48.81968" lon="1.36661">
        <ele>133.300003</ele>
        <time>2017-04-18T12:02:36Z</time>
      </trkpt>
      <trkpt lat="48.81972" lon="1.36675">
        <ele>133.399994</ele>
        <time>2017-04-18T12:02:38Z</time>
      </trkpt>
      <trkpt lat="48.81978" lon="1.36688">
        <ele>133.5</ele>
        <time>2017-04-18T12:02:40Z</time>
      </trkpt>
      <trkpt lat="48.81987" lon="1.36704">
        <ele>133.600006</ele>
        <time>2017-04-18T12:02:43Z</time>
      </trkpt>
      <trkpt lat="48.81995" lon="1.36713">
        <ele>133.600006</ele>
        <time>2017-04-18T12:02:45Z</time>
      </trkpt>
      <trkpt lat="48.82001" lon="1.36724">
        <ele>133.600006</ele>
        <time>2017-04-18T12:02:47Z</time>
      </trkpt>
      <trkpt lat="48.82008" lon="1.36734">
        <ele>133.699997</ele>
        <time>2017-04-18T12:02:49Z</time>
      </trkpt>
      <trkpt lat="48.82012" lon="1.36746">
        <ele>133.699997</ele>
        <time>2017-04-18T12:02:51Z</time>
      </trkpt>
      <trkpt lat="48.82018" lon="1.36763">
        <ele>133.800003</ele>
        <time>2017-04-18T12:02:54Z</time>
      </trkpt>
      <trkpt lat="48.82023" lon="1.36774">
        <ele>133.800003</ele>
        <time>2017-04-18T12:02:56Z</time>
      </trkpt>
      <trkpt lat="48.82032" lon="1.36788">
        <ele>133.800003</ele>
        <time>2017-04-18T12:02:59Z</time>
      </trkpt>
      <trkpt lat="48.82042" lon="1.36803">
        <ele>133.800003</ele>
        <time>2017-04-18T12:03:02Z</time>
      </trkpt>
      <trkpt lat="48.8205" lon="1.36814">
        <ele>133.800003</ele>
        <time>2017-04-18T12:03:04Z</time>
      </trkpt>
      <trkpt lat="48.82059" lon="1.36824">
        <ele>133.899994</ele>
        <time>2017-04-18T12:03:06Z</time>
      </trkpt>
      <trkpt lat="48.82067" lon="1.36835">
        <ele>133.899994</ele>
        <time>2017-04-18T12:03:08Z</time>
      </trkpt>
      <trkpt lat="48.82076" lon="1.36847">
        <ele>133.899994</ele>
        <time>2017-04-18T12:03:10Z</time>
      </trkpt>
      <trkpt lat="48.82084" lon="1.36859">
        <ele>133.800003</ele>
        <time>2017-04-18T12:03:12Z</time>
      </trkpt>
      <trkpt lat="48.82092" lon="1.36871">
        <ele>133.800003</ele>
        <time>2017-04-18T12:03:14Z</time>
      </trkpt>
      <trkpt lat="48.821" lon="1.36883">
        <ele>133.600006</ele>
        <time>2017-04-18T12:03:16Z</time>
      </trkpt>
      <trkpt lat="48.82109" lon="1.36893">
        <ele>133.399994</ele>
        <time>2017-04-18T12:03:18Z</time>
      </trkpt>
      <trkpt lat="48.82119" lon="1.36906">
        <ele>133.199997</ele>
        <time>2017-04-18T12:03:20Z</time>
      </trkpt>
      <trkpt lat="48.82129" lon="1.36915">
        <ele>133</ele>
        <time>2017-04-18T12:03:22Z</time>
      </trkpt>
      <trkpt lat="48.82138" lon="1.36923">
        <ele>132.899994</ele>
        <time>2017-04-18T12:03:24Z</time>
      </trkpt>
      <trkpt lat="48.8215" lon="1.36934">
        <ele>132.699997</ele>
        <time>2017-04-18T12:03:27Z</time>
      </trkpt>
      <trkpt lat="48.82159" lon="1.36939">
        <ele>132.600006</ele>
        <time>2017-04-18T12:03:29Z</time>
      </trkpt>
      <trkpt lat="48.82167" lon="1.36951">
        <ele>132.399994</ele>
        <time>2017-04-18T12:03:32Z</time>
      </trkpt>
      <trkpt lat="48.82178" lon="1.36961">
        <ele>132.300003</ele>
        <time>2017-04-18T12:03:35Z</time>
      </trkpt>
      <trkpt lat="48.82189" lon="1.36968">
        <ele>132.300003</ele>
        <time>2017-04-18T12:03:37Z</time>
      </trkpt>
      <trkpt lat="48.82199" lon="1.36975">
        <ele>132.199997</ele>
        <time>2017-04-18T12:03:39Z</time>
      </trkpt>
      <trkpt lat="48.82213" lon="1.36983">
        <ele>132.100006</ele>
        <time>2017-04-18T12:03:42Z</time>
      </trkpt>
      <trkpt lat="48.82222" lon="1.36989">
        <ele>132.100006</ele>
        <time>2017-04-18T12:03:44Z</time>
      </trkpt>
      <trkpt lat="48.82231" lon="1.36998">
        <ele>132</ele>
        <time>2017-04-18T12:03:46Z</time>
      </trkpt>
      <trkpt lat="48.82238" lon="1.37009">
        <ele>132</ele>
        <time>2017-04-18T12:03:48Z</time>
      </trkpt>
      <trkpt lat="48.82247" lon="1.37023">
        <ele>131.899994</ele>
        <time>2017-04-18T12:03:51Z</time>
      </trkpt>
      <trkpt lat="48.82251" lon="1.37039">
        <ele>131.800003</ele>
        <time>2017-04-18T12:03:55Z</time>
      </trkpt>
      <trkpt lat="48.8225" lon="1.37055">
        <ele>131.800003</ele>
        <time>2017-04-18T12:03:57Z</time>
      </trkpt>
      <trkpt lat="48.82249" lon="1.37074">
        <ele>131.699997</ele>
        <time>2017-04-18T12:04:00Z</time>
      </trkpt>
      <trkpt lat="48.82249" lon="1.37092">
        <ele>131.699997</ele>
        <time>2017-04-18T12:04:03Z</time>
      </trkpt>
      <trkpt lat="48.82248" lon="1.37106">
        <ele>131.699997</ele>
        <time>2017-04-18T12:04:05Z</time>
      </trkpt>
      <trkpt lat="48.82247" lon="1.37121">
        <ele>131.699997</ele>
        <time>2017-04-18T12:04:07Z</time>
      </trkpt>
      <trkpt lat="48.8225" lon="1.37136">
        <ele>131.699997</ele>
        <time>2017-04-18T12:04:09Z</time>
      </trkpt>
      <trkpt lat="48.82257" lon="1.37155">
        <ele>131.699997</ele>
        <time>2017-04-18T12:04:12Z</time>
      </trkpt>
      <trkpt lat="48.82262" lon="1.37166">
        <ele>131.800003</ele>
        <time>2017-04-18T12:04:14Z</time>
      </trkpt>
      <trkpt lat="48.82267" lon="1.37178">
        <ele>132</ele>
        <time>2017-04-18T12:04:16Z</time>
      </trkpt>
      <trkpt lat="48.82274" lon="1.37194">
        <ele>132.199997</ele>
        <time>2017-04-18T12:04:19Z</time>
      </trkpt>
      <trkpt lat="48.82279" lon="1.3721">
        <ele>132.600006</ele>
        <time>2017-04-18T12:04:23Z</time>
      </trkpt>
      <trkpt lat="48.82288" lon="1.37223">
        <ele>132.800003</ele>
        <time>2017-04-18T12:04:26Z</time>
      </trkpt>
      <trkpt lat="48.82294" lon="1.3724">
        <ele>133</ele>
        <time>2017-04-18T12:04:29Z</time>
      </trkpt>
      <trkpt lat="48.82294" lon="1.37255">
        <ele>133.399994</ele>
        <time>2017-04-18T12:04:32Z</time>
      </trkpt>
      <trkpt lat="48.82289" lon="1.37267">
        <ele>133.5</ele>
        <time>2017-04-18T12:04:34Z</time>
      </trkpt>
      <trkpt lat="48.82283" lon="1.37278">
        <ele>133.699997</ele>
        <time>2017-04-18T12:04:36Z</time>
      </trkpt>
      <trkpt lat="48.82273" lon="1.37293">
        <ele>133.899994</ele>
        <time>2017-04-18T12:04:39Z</time>
      </trkpt>
      <trkpt lat="48.82267" lon="1.37304">
        <ele>134.100006</ele>
        <time>2017-04-18T12:04:41Z</time>
      </trkpt>
      <trkpt lat="48.82258" lon="1.37318">
        <ele>134.399994</ele>
        <time>2017-04-18T12:04:44Z</time>
      </trkpt>
      <trkpt lat="48.8225" lon="1.3733">
        <ele>134.600006</ele>
        <time>2017-04-18T12:04:46Z</time>
      </trkpt>
      <trkpt lat="48.82243" lon="1.37342">
        <ele>134.699997</ele>
        <time>2017-04-18T12:04:48Z</time>
      </trkpt>
      <trkpt lat="48.82235" lon="1.37353">
        <ele>134.899994</ele>
        <time>2017-04-18T12:04:50Z</time>
      </trkpt>
      <trkpt lat="48.82229" lon="1.37363">
        <ele>135</ele>
        <time>2017-04-18T12:04:52Z</time>
      </trkpt>
      <trkpt lat="48.82222" lon="1.37373">
        <ele>135.100006</ele>
        <time>2017-04-18T12:04:54Z</time>
      </trkpt>
      <trkpt lat="48.82213" lon="1.37387">
        <ele>135.199997</ele>
        <time>2017-04-18T12:04:57Z</time>
      </trkpt>
      <trkpt lat="48.82218" lon="1.37401">
        <ele>135.399994</ele>
        <time>2017-04-18T12:05:01Z</time>
      </trkpt>
      <trkpt lat="48.82223" lon="1.37415">
        <ele>135.399994</ele>
        <time>2017-04-18T12:05:04Z</time>
      </trkpt>
      <trkpt lat="48.82227" lon="1.3743">
        <ele>135.699997</ele>
        <time>2017-04-18T12:05:07Z</time>
      </trkpt>
      <trkpt lat="48.82237" lon="1.37434">
        <ele>135.800003</ele>
        <time>2017-04-18T12:05:10Z</time>
      </trkpt>
      <trkpt lat="48.82248" lon="1.37436">
        <ele>136</ele>
        <time>2017-04-18T12:05:13Z</time>
      </trkpt>
      <trkpt lat="48.82261" lon="1.37442">
        <ele>136.100006</ele>
        <time>2017-04-18T12:05:16Z</time>
      </trkpt>
      <trkpt lat="48.8227" lon="1.3745">
        <ele>136.100006</ele>
        <time>2017-04-18T12:05:18Z</time>
      </trkpt>
      <trkpt lat="48.82278" lon="1.37462">
        <ele>136.199997</ele>
        <time>2017-04-18T12:05:20Z</time>
      </trkpt>
      <trkpt lat="48.82282" lon="1.37477">
        <ele>136.300003</ele>
        <time>2017-04-18T12:05:22Z</time>
      </trkpt>
      <trkpt lat="48.82288" lon="1.37489">
        <ele>136.399994</ele>
        <time>2017-04-18T12:05:24Z</time>
      </trkpt>
      <trkpt lat="48.82296" lon="1.37499">
        <ele>136.5</ele>
        <time>2017-04-18T12:05:26Z</time>
      </trkpt>
      <trkpt lat="48.82302" lon="1.3751">
        <ele>136.5</ele>
        <time>2017-04-18T12:05:28Z</time>
      </trkpt>
      <trkpt lat="48.82295" lon="1.37524">
        <ele>136.699997</ele>
        <time>2017-04-18T12:05:32Z</time>
      </trkpt>
      <trkpt lat="48.82286" lon="1.37525">
        <ele>136.699997</ele>
        <time>2017-04-18T12:05:35Z</time>
      </trkpt>
      <trkpt lat="48.82274" lon="1.37526">
        <ele>136.800003</ele>
        <time>2017-04-18T12:05:38Z</time>
      </trkpt>
      <trkpt lat="48.82265" lon="1.37528">
        <ele>136.899994</ele>
        <time>2017-04-18T12:05:40Z</time>
      </trkpt>
      <trkpt lat="48.82255" lon="1.37529">
        <ele>136.899994</ele>
        <time>2017-04-18T12:05:42Z</time>
      </trkpt>
      <trkpt lat="48.82246" lon="1.37529">
        <ele>136.899994</ele>
        <time>2017-04-18T12:05:44Z</time>
      </trkpt>
      <trkpt lat="48.82236" lon="1.37531">
        <ele>137</ele>
        <time>2017-04-18T12:05:46Z</time>
      </trkpt>
      <trkpt lat="48.82227" lon="1.37533">
        <ele>137</ele>
        <time>2017-04-18T12:05:48Z</time>
      </trkpt>
      <trkpt lat="48.82217" lon="1.37536">
        <ele>137.100006</ele>
        <time>2017-04-18T12:05:50Z</time>
      </trkpt>
      <trkpt lat="48.82207" lon="1.37537">
        <ele>137.100006</ele>
        <time>2017-04-18T12:05:52Z</time>
      </trkpt>
      <trkpt lat="48.82197" lon="1.37537">
        <ele>137.199997</ele>
        <time>2017-04-18T12:05:54Z</time>
      </trkpt>
      <trkpt lat="48.82187" lon="1.37536">
        <ele>137.199997</ele>
        <time>2017-04-18T12:05:56Z</time>
      </trkpt>
      <trkpt lat="48.82176" lon="1.37537">
        <ele>137.199997</ele>
        <time>2017-04-18T12:05:58Z</time>
      </trkpt>
      <trkpt lat="48.82166" lon="1.37538">
        <ele>137.300003</ele>
        <time>2017-04-18T12:06:00Z</time>
      </trkpt>
      <trkpt lat="48.82156" lon="1.37539">
        <ele>137.300003</ele>
        <time>2017-04-18T12:06:02Z</time>
      </trkpt>
      <trkpt lat="48.82145" lon="1.37539">
        <ele>137.300003</ele>
        <time>2017-04-18T12:06:04Z</time>
      </trkpt>
      <trkpt lat="48.82133" lon="1.3754">
        <ele>137.399994</ele>
        <time>2017-04-18T12:06:06Z</time>
      </trkpt>
      <trkpt lat="48.82122" lon="1.37541">
        <ele>137.399994</ele>
        <time>2017-04-18T12:06:08Z</time>
      </trkpt>
      <trkpt lat="48.82112" lon="1.37541">
        <ele>137.399994</ele>
        <time>2017-04-18T12:06:10Z</time>
      </trkpt>
      <trkpt lat="48.821" lon="1.37542">
        <ele>137.399994</ele>
        <time>2017-04-18T12:06:12Z</time>
      </trkpt>
      <trkpt lat="48.82089" lon="1.37544">
        <ele>137.399994</ele>
        <time>2017-04-18T12:06:14Z</time>
      </trkpt>
      <trkpt lat="48.82077" lon="1.37545">
        <ele>137.399994</ele>
        <time>2017-04-18T12:06:16Z</time>
      </trkpt>
      <trkpt lat="48.82065" lon="1.37547">
        <ele>137.399994</ele>
        <time>2017-04-18T12:06:18Z</time>
      </trkpt>
      <trkpt lat="48.82054" lon="1.3755">
        <ele>137.399994</ele>
        <time>2017-04-18T12:06:20Z</time>
      </trkpt>
      <trkpt lat="48.82042" lon="1.3755">
        <ele>137.399994</ele>
        <time>2017-04-18T12:06:22Z</time>
      </trkpt>
      <trkpt lat="48.82031" lon="1.37551">
        <ele>137.399994</ele>
        <time>2017-04-18T12:06:24Z</time>
      </trkpt>
      <trkpt lat="48.8202" lon="1.37551">
        <ele>137.399994</ele>
        <time>2017-04-18T12:06:26Z</time>
      </trkpt>
      <trkpt lat="48.82008" lon="1.3755">
        <ele>137.5</ele>
        <time>2017-04-18T12:06:28Z</time>
      </trkpt>
      <trkpt lat="48.81997" lon="1.3755">
        <ele>137.5</ele>
        <time>2017-04-18T12:06:30Z</time>
      </trkpt>
      <trkpt lat="48.81986" lon="1.37552">
        <ele>137.5</ele>
        <time>2017-04-18T12:06:32Z</time>
      </trkpt>
      <trkpt lat="48.81975" lon="1.37553">
        <ele>137.5</ele>
        <time>2017-04-18T12:06:34Z</time>
      </trkpt>
      <trkpt lat="48.81962" lon="1.37554">
        <ele>137.5</ele>
        <time>2017-04-18T12:06:36Z</time>
      </trkpt>
      <trkpt lat="48.8195" lon="1.37554">
        <ele>137.5</ele>
        <time>2017-04-18T12:06:38Z</time>
      </trkpt>
      <trkpt lat="48.81938" lon="1.37555">
        <ele>137.5</ele>
        <time>2017-04-18T12:06:40Z</time>
      </trkpt>
      <trkpt lat="48.81924" lon="1.37559">
        <ele>137.5</ele>
        <time>2017-04-18T12:06:42Z</time>
      </trkpt>
      <trkpt lat="48.81912" lon="1.3756">
        <ele>137.5</ele>
        <time>2017-04-18T12:06:44Z</time>
      </trkpt>
      <trkpt lat="48.81899" lon="1.37561">
        <ele>137.399994</ele>
        <time>2017-04-18T12:06:46Z</time>
      </trkpt>
      <trkpt lat="48.81887" lon="1.37562">
        <ele>137.399994</ele>
        <time>2017-04-18T12:06:48Z</time>
      </trkpt>
      <trkpt lat="48.81875" lon="1.37564">
        <ele>137.5</ele>
        <time>2017-04-18T12:06:50Z</time>
      </trkpt>
      <trkpt lat="48.81865" lon="1.37564">
        <ele>137.5</ele>
        <time>2017-04-18T12:06:52Z</time>
      </trkpt>
      <trkpt lat="48.81853" lon="1.37566">
        <ele>137.600006</ele>
        <time>2017-04-18T12:06:54Z</time>
      </trkpt>
      <trkpt lat="48.81841" lon="1.37569">
        <ele>137.600006</ele>
        <time>2017-04-18T12:06:56Z</time>
      </trkpt>
      <trkpt lat="48.81828" lon="1.37571">
        <ele>137.699997</ele>
        <time>2017-04-18T12:06:58Z</time>
      </trkpt>
      <trkpt lat="48.81815" lon="1.37572">
        <ele>137.699997</ele>
        <time>2017-04-18T12:07:00Z</time>
      </trkpt>
      <trkpt lat="48.81802" lon="1.37572">
        <ele>137.800003</ele>
        <time>2017-04-18T12:07:02Z</time>
      </trkpt>
      <trkpt lat="48.81792" lon="1.37578">
        <ele>137.800003</ele>
        <time>2017-04-18T12:07:04Z</time>
      </trkpt>
      <trkpt lat="48.81783" lon="1.37591">
        <ele>137.899994</ele>
        <time>2017-04-18T12:07:07Z</time>
      </trkpt>
      <trkpt lat="48.81775" lon="1.37605">
        <ele>138</ele>
        <time>2017-04-18T12:07:10Z</time>
      </trkpt>
      <trkpt lat="48.81768" lon="1.37621">
        <ele>138</ele>
        <time>2017-04-18T12:07:13Z</time>
      </trkpt>
      <trkpt lat="48.81763" lon="1.37634">
        <ele>138</ele>
        <time>2017-04-18T12:07:15Z</time>
      </trkpt>
      <trkpt lat="48.81758" lon="1.37645">
        <ele>138.100006</ele>
        <time>2017-04-18T12:07:17Z</time>
      </trkpt>
      <trkpt lat="48.81747" lon="1.37658">
        <ele>138.199997</ele>
        <time>2017-04-18T12:07:20Z</time>
      </trkpt>
      <trkpt lat="48.81739" lon="1.37669">
        <ele>138.300003</ele>
        <time>2017-04-18T12:07:22Z</time>
      </trkpt>
      <trkpt lat="48.8173" lon="1.37677">
        <ele>138.399994</ele>
        <time>2017-04-18T12:07:24Z</time>
      </trkpt>
      <trkpt lat="48.81722" lon="1.37683">
        <ele>138.399994</ele>
        <time>2017-04-18T12:07:26Z</time>
      </trkpt>
      <trkpt lat="48.8171" lon="1.37688">
        <ele>138.399994</ele>
        <time>2017-04-18T12:07:28Z</time>
      </trkpt>
      <trkpt lat="48.81699" lon="1.37694">
        <ele>138.5</ele>
        <time>2017-04-18T12:07:30Z</time>
      </trkpt>
      <trkpt lat="48.81688" lon="1.377">
        <ele>138.5</ele>
        <time>2017-04-18T12:07:32Z</time>
      </trkpt>
      <trkpt lat="48.81679" lon="1.37709">
        <ele>138.5</ele>
        <time>2017-04-18T12:07:34Z</time>
      </trkpt>
      <trkpt lat="48.81669" lon="1.37718">
        <ele>138.600006</ele>
        <time>2017-04-18T12:07:36Z</time>
      </trkpt>
      <trkpt lat="48.81659" lon="1.37724">
        <ele>138.600006</ele>
        <time>2017-04-18T12:07:38Z</time>
      </trkpt>
      <trkpt lat="48.81649" lon="1.37733">
        <ele>138.600006</ele>
        <time>2017-04-18T12:07:40Z</time>
      </trkpt>
      <trkpt lat="48.81639" lon="1.37743">
        <ele>138.600006</ele>
        <time>2017-04-18T12:07:42Z</time>
      </trkpt>
      <trkpt lat="48.81629" lon="1.37752">
        <ele>138.600006</ele>
        <time>2017-04-18T12:07:44Z</time>
      </trkpt>
      <trkpt lat="48.8162" lon="1.37761">
        <ele>138.699997</ele>
        <time>2017-04-18T12:07:46Z</time>
      </trkpt>
      <trkpt lat="48.81609" lon="1.37773">
        <ele>138.600006</ele>
        <time>2017-04-18T12:07:48Z</time>
      </trkpt>
      <trkpt lat="48.81597" lon="1.37782">
        <ele>138.600006</ele>
        <time>2017-04-18T12:07:50Z</time>
      </trkpt>
      <trkpt lat="48.81587" lon="1.3779">
        <ele>138.600006</ele>
        <time>2017-04-18T12:07:52Z</time>
      </trkpt>
      <trkpt lat="48.81579" lon="1.37798">
        <ele>138.600006</ele>
        <time>2017-04-18T12:07:54Z</time>
      </trkpt>
      <trkpt lat="48.81567" lon="1.37811">
        <ele>138.5</ele>
        <time>2017-04-18T12:07:56Z</time>
      </trkpt>
      <trkpt lat="48.81556" lon="1.37818">
        <ele>138.199997</ele>
        <time>2017-04-18T12:07:58Z</time>
      </trkpt>
      <trkpt lat="48.81545" lon="1.37824">
        <ele>138.100006</ele>
        <time>2017-04-18T12:08:00Z</time>
      </trkpt>
      <trkpt lat="48.81538" lon="1.37839">
        <ele>137.899994</ele>
        <time>2017-04-18T12:08:02Z</time>
      </trkpt>
      <trkpt lat="48.81531" lon="1.37852">
        <ele>137.800003</ele>
        <time>2017-04-18T12:08:04Z</time>
      </trkpt>
      <trkpt lat="48.81526" lon="1.37866">
        <ele>137.600006</ele>
        <time>2017-04-18T12:08:06Z</time>
      </trkpt>
      <trkpt lat="48.8152" lon="1.37881">
        <ele>137.5</ele>
        <time>2017-04-18T12:08:08Z</time>
      </trkpt>
      <trkpt lat="48.81514" lon="1.37895">
        <ele>137.399994</ele>
        <time>2017-04-18T12:08:10Z</time>
      </trkpt>
      <trkpt lat="48.81511" lon="1.37908">
        <ele>137.300003</ele>
        <time>2017-04-18T12:08:12Z</time>
      </trkpt>
      <trkpt lat="48.81508" lon="1.37923">
        <ele>137.100006</ele>
        <time>2017-04-18T12:08:14Z</time>
      </trkpt>
      <trkpt lat="48.81503" lon="1.37935">
        <ele>137</ele>
        <time>2017-04-18T12:08:16Z</time>
      </trkpt>
      <trkpt lat="48.81494" lon="1.37947">
        <ele>136.899994</ele>
        <time>2017-04-18T12:08:18Z</time>
      </trkpt>
      <trkpt lat="48.8148" lon="1.37956">
        <ele>136.800003</ele>
        <time>2017-04-18T12:08:21Z</time>
      </trkpt>
      <trkpt lat="48.81469" lon="1.37958">
        <ele>136.699997</ele>
        <time>2017-04-18T12:08:23Z</time>
      </trkpt>
      <trkpt lat="48.8146" lon="1.37965">
        <ele>136.5</ele>
        <time>2017-04-18T12:08:25Z</time>
      </trkpt>
      <trkpt lat="48.81451" lon="1.37982">
        <ele>136.399994</ele>
        <time>2017-04-18T12:08:28Z</time>
      </trkpt>
      <trkpt lat="48.81444" lon="1.37994">
        <ele>136.300003</ele>
        <time>2017-04-18T12:08:30Z</time>
      </trkpt>
      <trkpt lat="48.81435" lon="1.38004">
        <ele>136.300003</ele>
        <time>2017-04-18T12:08:32Z</time>
      </trkpt>
      <trkpt lat="48.81426" lon="1.38012">
        <ele>136.199997</ele>
        <time>2017-04-18T12:08:34Z</time>
      </trkpt>
      <trkpt lat="48.81424" lon="1.38026">
        <ele>136.100006</ele>
        <time>2017-04-18T12:08:37Z</time>
      </trkpt>
      <trkpt lat="48.81426" lon="1.38042">
        <ele>136.100006</ele>
        <time>2017-04-18T12:08:40Z</time>
      </trkpt>
      <trkpt lat="48.81432" lon="1.38059">
        <ele>136</ele>
        <time>2017-04-18T12:08:43Z</time>
      </trkpt>
      <trkpt lat="48.81436" lon="1.38071">
        <ele>135.899994</ele>
        <time>2017-04-18T12:08:45Z</time>
      </trkpt>
      <trkpt lat="48.81439" lon="1.38086">
        <ele>135.899994</ele>
        <time>2017-04-18T12:08:47Z</time>
      </trkpt>
      <trkpt lat="48.81439" lon="1.38101">
        <ele>135.899994</ele>
        <time>2017-04-18T12:08:50Z</time>
      </trkpt>
      <trkpt lat="48.81434" lon="1.38115">
        <ele>135.899994</ele>
        <time>2017-04-18T12:08:53Z</time>
      </trkpt>
      <trkpt lat="48.81429" lon="1.38135">
        <ele>135.800003</ele>
        <time>2017-04-18T12:08:56Z</time>
      </trkpt>
      <trkpt lat="48.81427" lon="1.3815">
        <ele>135.800003</ele>
        <time>2017-04-18T12:08:58Z</time>
      </trkpt>
      <trkpt lat="48.81425" lon="1.38165">
        <ele>135.800003</ele>
        <time>2017-04-18T12:09:00Z</time>
      </trkpt>
      <trkpt lat="48.81417" lon="1.38183">
        <ele>135.800003</ele>
        <time>2017-04-18T12:09:03Z</time>
      </trkpt>
      <trkpt lat="48.8141" lon="1.38199">
        <ele>135.800003</ele>
        <time>2017-04-18T12:09:06Z</time>
      </trkpt>
      <trkpt lat="48.81405" lon="1.38214">
        <ele>135.899994</ele>
        <time>2017-04-18T12:09:09Z</time>
      </trkpt>
      <trkpt lat="48.81398" lon="1.38224">
        <ele>135.899994</ele>
        <time>2017-04-18T12:09:11Z</time>
      </trkpt>
      <trkpt lat="48.81393" lon="1.38241">
        <ele>135.899994</ele>
        <time>2017-04-18T12:09:14Z</time>
      </trkpt>
      <trkpt lat="48.81392" lon="1.38256">
        <ele>135.899994</ele>
        <time>2017-04-18T12:09:16Z</time>
      </trkpt>
      <trkpt lat="48.81392" lon="1.38272">
        <ele>136</ele>
        <time>2017-04-18T12:09:18Z</time>
      </trkpt>
      <trkpt lat="48.81395" lon="1.38288">
        <ele>136</ele>
        <time>2017-04-18T12:09:20Z</time>
      </trkpt>
      <trkpt lat="48.81395" lon="1.38304">
        <ele>136</ele>
        <time>2017-04-18T12:09:22Z</time>
      </trkpt>
      <trkpt lat="48.81391" lon="1.3832">
        <ele>136</ele>
        <time>2017-04-18T12:09:24Z</time>
      </trkpt>
      <trkpt lat="48.81386" lon="1.38332">
        <ele>136.100006</ele>
        <time>2017-04-18T12:09:26Z</time>
      </trkpt>
      <trkpt lat="48.81378" lon="1.38345">
        <ele>136.100006</ele>
        <time>2017-04-18T12:09:29Z</time>
      </trkpt>
      <trkpt lat="48.81372" lon="1.38358">
        <ele>136.199997</ele>
        <time>2017-04-18T12:09:31Z</time>
      </trkpt>
      <trkpt lat="48.81367" lon="1.3837">
        <ele>136.300003</ele>
        <time>2017-04-18T12:09:33Z</time>
      </trkpt>
      <trkpt lat="48.81359" lon="1.38383">
        <ele>136.399994</ele>
        <time>2017-04-18T12:09:35Z</time>
      </trkpt>
      <trkpt lat="48.81353" lon="1.38394">
        <ele>136.5</ele>
        <time>2017-04-18T12:09:37Z</time>
      </trkpt>
      <trkpt lat="48.81345" lon="1.38407">
        <ele>136.600006</ele>
        <time>2017-04-18T12:09:39Z</time>
      </trkpt>
      <trkpt lat="48.81337" lon="1.38422">
        <ele>136.699997</ele>
        <time>2017-04-18T12:09:42Z</time>
      </trkpt>
      <trkpt lat="48.81332" lon="1.38434">
        <ele>136.899994</ele>
        <time>2017-04-18T12:09:44Z</time>
      </trkpt>
      <trkpt lat="48.81323" lon="1.3845">
        <ele>137</ele>
        <time>2017-04-18T12:09:47Z</time>
      </trkpt>
      <trkpt lat="48.81313" lon="1.3846">
        <ele>137.100006</ele>
        <time>2017-04-18T12:09:49Z</time>
      </trkpt>
      <trkpt lat="48.81306" lon="1.38468">
        <ele>137.199997</ele>
        <time>2017-04-18T12:09:51Z</time>
      </trkpt>
      <trkpt lat="48.81296" lon="1.38478">
        <ele>137.199997</ele>
        <time>2017-04-18T12:09:53Z</time>
      </trkpt>
      <trkpt lat="48.81286" lon="1.38487">
        <ele>137.300003</ele>
        <time>2017-04-18T12:09:55Z</time>
      </trkpt>
      <trkpt lat="48.81278" lon="1.38495">
        <ele>137.300003</ele>
        <time>2017-04-18T12:09:57Z</time>
      </trkpt>
      <trkpt lat="48.8127" lon="1.38502">
        <ele>137.399994</ele>
        <time>2017-04-18T12:09:59Z</time>
      </trkpt>
      <trkpt lat="48.81262" lon="1.38511">
        <ele>137.399994</ele>
        <time>2017-04-18T12:10:01Z</time>
      </trkpt>
      <trkpt lat="48.81252" lon="1.38521">
        <ele>137.399994</ele>
        <time>2017-04-18T12:10:03Z</time>
      </trkpt>
      <trkpt lat="48.81241" lon="1.38532">
        <ele>137.600006</ele>
        <time>2017-04-18T12:10:06Z</time>
      </trkpt>
      <trkpt lat="48.8123" lon="1.38544">
        <ele>137.699997</ele>
        <time>2017-04-18T12:10:09Z</time>
      </trkpt>
      <trkpt lat="48.8122" lon="1.38553">
        <ele>137.699997</ele>
        <time>2017-04-18T12:10:11Z</time>
      </trkpt>
      <trkpt lat="48.81211" lon="1.38562">
        <ele>137.800003</ele>
        <time>2017-04-18T12:10:13Z</time>
      </trkpt>
      <trkpt lat="48.81198" lon="1.38572">
        <ele>137.899994</ele>
        <time>2017-04-18T12:10:16Z</time>
      </trkpt>
      <trkpt lat="48.81188" lon="1.3858">
        <ele>137.899994</ele>
        <time>2017-04-18T12:10:18Z</time>
      </trkpt>
      <trkpt lat="48.81179" lon="1.38592">
        <ele>138</ele>
        <time>2017-04-18T12:10:21Z</time>
      </trkpt>
      <trkpt lat="48.8117" lon="1.38606">
        <ele>138</ele>
        <time>2017-04-18T12:10:23Z</time>
      </trkpt>
      <trkpt lat="48.81163" lon="1.38619">
        <ele>138.100006</ele>
        <time>2017-04-18T12:10:25Z</time>
      </trkpt>
      <trkpt lat="48.81162" lon="1.38633">
        <ele>138.100006</ele>
        <time>2017-04-18T12:10:27Z</time>
      </trkpt>
      <trkpt lat="48.81158" lon="1.38648">
        <ele>138.199997</ele>
        <time>2017-04-18T12:10:29Z</time>
      </trkpt>
      <trkpt lat="48.81156" lon="1.38664">
        <ele>138.300003</ele>
        <time>2017-04-18T12:10:31Z</time>
      </trkpt>
      <trkpt lat="48.81152" lon="1.38679">
        <ele>138.300003</ele>
        <time>2017-04-18T12:10:33Z</time>
      </trkpt>
      <trkpt lat="48.81148" lon="1.38694">
        <ele>138.199997</ele>
        <time>2017-04-18T12:10:35Z</time>
      </trkpt>
      <trkpt lat="48.81146" lon="1.38711">
        <ele>138.300003</ele>
        <time>2017-04-18T12:10:37Z</time>
      </trkpt>
      <trkpt lat="48.81144" lon="1.38727">
        <ele>138.300003</ele>
        <time>2017-04-18T12:10:39Z</time>
      </trkpt>
      <trkpt lat="48.81142" lon="1.38744">
        <ele>138.300003</ele>
        <time>2017-04-18T12:10:41Z</time>
      </trkpt>
      <trkpt lat="48.81141" lon="1.38763">
        <ele>138.399994</ele>
        <time>2017-04-18T12:10:43Z</time>
      </trkpt>
      <trkpt lat="48.81135" lon="1.38779">
        <ele>138.399994</ele>
        <time>2017-04-18T12:10:45Z</time>
      </trkpt>
      <trkpt lat="48.81131" lon="1.38794">
        <ele>138.399994</ele>
        <time>2017-04-18T12:10:47Z</time>
      </trkpt>
      <trkpt lat="48.81129" lon="1.38809">
        <ele>138.399994</ele>
        <time>2017-04-18T12:10:49Z</time>
      </trkpt>
      <trkpt lat="48.81129" lon="1.38827">
        <ele>138</ele>
        <time>2017-04-18T12:10:52Z</time>
      </trkpt>
      <trkpt lat="48.81128" lon="1.38841">
        <ele>137.899994</ele>
        <time>2017-04-18T12:10:54Z</time>
      </trkpt>
      <trkpt lat="48.81125" lon="1.38861">
        <ele>137.899994</ele>
        <time>2017-04-18T12:10:57Z</time>
      </trkpt>
      <trkpt lat="48.81123" lon="1.38883">
        <ele>137.899994</ele>
        <time>2017-04-18T12:10:59Z</time>
      </trkpt>
      <trkpt lat="48.81122" lon="1.38902">
        <ele>137.899994</ele>
        <time>2017-04-18T12:11:01Z</time>
      </trkpt>
      <trkpt lat="48.81121" lon="1.38919">
        <ele>137.899994</ele>
        <time>2017-04-18T12:11:03Z</time>
      </trkpt>
      <trkpt lat="48.81126" lon="1.38934">
        <ele>137.899994</ele>
        <time>2017-04-18T12:11:05Z</time>
      </trkpt>
      <trkpt lat="48.81128" lon="1.38949">
        <ele>137.800003</ele>
        <time>2017-04-18T12:11:07Z</time>
      </trkpt>
      <trkpt lat="48.81129" lon="1.38965">
        <ele>137.600006</ele>
        <time>2017-04-18T12:11:09Z</time>
      </trkpt>
      <trkpt lat="48.81131" lon="1.38979">
        <ele>137.5</ele>
        <time>2017-04-18T12:11:11Z</time>
      </trkpt>
      <trkpt lat="48.81133" lon="1.38997">
        <ele>137.5</ele>
        <time>2017-04-18T12:11:13Z</time>
      </trkpt>
      <trkpt lat="48.81133" lon="1.39014">
        <ele>137.5</ele>
        <time>2017-04-18T12:11:15Z</time>
      </trkpt>
      <trkpt lat="48.81135" lon="1.39028">
        <ele>137.600006</ele>
        <time>2017-04-18T12:11:17Z</time>
      </trkpt>
      <trkpt lat="48.81136" lon="1.39044">
        <ele>137.5</ele>
        <time>2017-04-18T12:11:19Z</time>
      </trkpt>
      <trkpt lat="48.81135" lon="1.3906">
        <ele>137.399994</ele>
        <time>2017-04-18T12:11:21Z</time>
      </trkpt>
      <trkpt lat="48.81138" lon="1.39077">
        <ele>137.300003</ele>
        <time>2017-04-18T12:11:23Z</time>
      </trkpt>
      <trkpt lat="48.81137" lon="1.39091">
        <ele>137.300003</ele>
        <time>2017-04-18T12:11:25Z</time>
      </trkpt>
      <trkpt lat="48.81136" lon="1.39106">
        <ele>137.300003</ele>
        <time>2017-04-18T12:11:27Z</time>
      </trkpt>
      <trkpt lat="48.81136" lon="1.39124">
        <ele>137.300003</ele>
        <time>2017-04-18T12:11:30Z</time>
      </trkpt>
      <trkpt lat="48.81139" lon="1.39142">
        <ele>137.199997</ele>
        <time>2017-04-18T12:11:33Z</time>
      </trkpt>
      <trkpt lat="48.81142" lon="1.39156">
        <ele>137.100006</ele>
        <time>2017-04-18T12:11:35Z</time>
      </trkpt>
      <trkpt lat="48.81144" lon="1.39173">
        <ele>137</ele>
        <time>2017-04-18T12:11:39Z</time>
      </trkpt>
      <trkpt lat="48.81145" lon="1.39192">
        <ele>137</ele>
        <time>2017-04-18T12:11:42Z</time>
      </trkpt>
      <trkpt lat="48.81145" lon="1.39206">
        <ele>136.899994</ele>
        <time>2017-04-18T12:11:44Z</time>
      </trkpt>
      <trkpt lat="48.81147" lon="1.39227">
        <ele>136.800003</ele>
        <time>2017-04-18T12:11:47Z</time>
      </trkpt>
      <trkpt lat="48.81151" lon="1.39239">
        <ele>136.699997</ele>
        <time>2017-04-18T12:11:49Z</time>
      </trkpt>
      <trkpt lat="48.81156" lon="1.39252">
        <ele>136.699997</ele>
        <time>2017-04-18T12:11:51Z</time>
      </trkpt>
      <trkpt lat="48.81158" lon="1.39267">
        <ele>136.600006</ele>
        <time>2017-04-18T12:11:53Z</time>
      </trkpt>
      <trkpt lat="48.81165" lon="1.39279">
        <ele>136.600006</ele>
        <time>2017-04-18T12:11:56Z</time>
      </trkpt>
      <trkpt lat="48.81176" lon="1.39279">
        <ele>136.5</ele>
        <time>2017-04-18T12:11:59Z</time>
      </trkpt>
      <trkpt lat="48.81187" lon="1.39286">
        <ele>136.5</ele>
        <time>2017-04-18T12:12:02Z</time>
      </trkpt>
      <trkpt lat="48.81199" lon="1.3929">
        <ele>136.600006</ele>
        <time>2017-04-18T12:12:05Z</time>
      </trkpt>
      <trkpt lat="48.81208" lon="1.39291">
        <ele>136.699997</ele>
        <time>2017-04-18T12:12:07Z</time>
      </trkpt>
      <trkpt lat="48.81222" lon="1.39292">
        <ele>136.699997</ele>
        <time>2017-04-18T12:12:10Z</time>
      </trkpt>
      <trkpt lat="48.81234" lon="1.39293">
        <ele>136.800003</ele>
        <time>2017-04-18T12:12:13Z</time>
      </trkpt>
      <trkpt lat="48.81246" lon="1.39294">
        <ele>136.800003</ele>
        <time>2017-04-18T12:12:15Z</time>
      </trkpt>
      <trkpt lat="48.81256" lon="1.39295">
        <ele>136.800003</ele>
        <time>2017-04-18T12:12:17Z</time>
      </trkpt>
      <trkpt lat="48.81268" lon="1.39296">
        <ele>136.800003</ele>
        <time>2017-04-18T12:12:20Z</time>
      </trkpt>
      <trkpt lat="48.81279" lon="1.39299">
        <ele>136.699997</ele>
        <time>2017-04-18T12:12:23Z</time>
      </trkpt>
      <trkpt lat="48.81293" lon="1.39298">
        <ele>136.699997</ele>
        <time>2017-04-18T12:12:26Z</time>
      </trkpt>
      <trkpt lat="48.81305" lon="1.39295">
        <ele>136.600006</ele>
        <time>2017-04-18T12:12:28Z</time>
      </trkpt>
      <trkpt lat="48.81316" lon="1.39297">
        <ele>136.5</ele>
        <time>2017-04-18T12:12:30Z</time>
      </trkpt>
      <trkpt lat="48.81328" lon="1.39296">
        <ele>136.399994</ele>
        <time>2017-04-18T12:12:32Z</time>
      </trkpt>
      <trkpt lat="48.81339" lon="1.39297">
        <ele>136.399994</ele>
        <time>2017-04-18T12:12:34Z</time>
      </trkpt>
      <trkpt lat="48.81348" lon="1.39304">
        <ele>136.300003</ele>
        <time>2017-04-18T12:12:36Z</time>
      </trkpt>
      <trkpt lat="48.8136" lon="1.39314">
        <ele>136.300003</ele>
        <time>2017-04-18T12:12:39Z</time>
      </trkpt>
      <trkpt lat="48.81371" lon="1.39325">
        <ele>136.199997</ele>
        <time>2017-04-18T12:12:42Z</time>
      </trkpt>
      <trkpt lat="48.81383" lon="1.39326">
        <ele>136.199997</ele>
        <time>2017-04-18T12:12:44Z</time>
      </trkpt>
      <trkpt lat="48.81392" lon="1.39328">
        <ele>136.199997</ele>
        <time>2017-04-18T12:12:46Z</time>
      </trkpt>
      <trkpt lat="48.81406" lon="1.39334">
        <ele>136.199997</ele>
        <time>2017-04-18T12:12:48Z</time>
      </trkpt>
      <trkpt lat="48.81418" lon="1.39339">
        <ele>136.100006</ele>
        <time>2017-04-18T12:12:50Z</time>
      </trkpt>
      <trkpt lat="48.8143" lon="1.39344">
        <ele>136.100006</ele>
        <time>2017-04-18T12:12:52Z</time>
      </trkpt>
      <trkpt lat="48.8144" lon="1.39348">
        <ele>136.100006</ele>
        <time>2017-04-18T12:12:54Z</time>
      </trkpt>
      <trkpt lat="48.81446" lon="1.3936">
        <ele>136.100006</ele>
        <time>2017-04-18T12:12:56Z</time>
      </trkpt>
      <trkpt lat="48.81457" lon="1.39373">
        <ele>136</ele>
        <time>2017-04-18T12:12:59Z</time>
      </trkpt>
      <trkpt lat="48.81468" lon="1.39379">
        <ele>136</ele>
        <time>2017-04-18T12:13:01Z</time>
      </trkpt>
      <trkpt lat="48.81476" lon="1.39391">
        <ele>136</ele>
        <time>2017-04-18T12:13:03Z</time>
      </trkpt>
      <trkpt lat="48.81483" lon="1.39404">
        <ele>136</ele>
        <time>2017-04-18T12:13:05Z</time>
      </trkpt>
      <trkpt lat="48.81489" lon="1.39417">
        <ele>136</ele>
        <time>2017-04-18T12:13:07Z</time>
      </trkpt>
      <trkpt lat="48.81498" lon="1.39426">
        <ele>136.100006</ele>
        <time>2017-04-18T12:13:09Z</time>
      </trkpt>
      <trkpt lat="48.81509" lon="1.39439">
        <ele>136.199997</ele>
        <time>2017-04-18T12:13:12Z</time>
      </trkpt>
      <trkpt lat="48.81519" lon="1.39448">
        <ele>136.399994</ele>
        <time>2017-04-18T12:13:14Z</time>
      </trkpt>
      <trkpt lat="48.8153" lon="1.39459">
        <ele>136.5</ele>
        <time>2017-04-18T12:13:16Z</time>
      </trkpt>
      <trkpt lat="48.81539" lon="1.3947">
        <ele>136.699997</ele>
        <time>2017-04-18T12:13:18Z</time>
      </trkpt>
      <trkpt lat="48.81552" lon="1.39477">
        <ele>136.800003</ele>
        <time>2017-04-18T12:13:20Z</time>
      </trkpt>
      <trkpt lat="48.81563" lon="1.39483">
        <ele>136.899994</ele>
        <time>2017-04-18T12:13:22Z</time>
      </trkpt>
      <trkpt lat="48.81572" lon="1.39488">
        <ele>137</ele>
        <time>2017-04-18T12:13:24Z</time>
      </trkpt>
      <trkpt lat="48.81582" lon="1.39495">
        <ele>137</ele>
        <time>2017-04-18T12:13:26Z</time>
      </trkpt>
      <trkpt lat="48.81593" lon="1.39502">
        <ele>137.100006</ele>
        <time>2017-04-18T12:13:28Z</time>
      </trkpt>
      <trkpt lat="48.81606" lon="1.39507">
        <ele>137.199997</ele>
        <time>2017-04-18T12:13:30Z</time>
      </trkpt>
      <trkpt lat="48.81618" lon="1.39511">
        <ele>137.199997</ele>
        <time>2017-04-18T12:13:32Z</time>
      </trkpt>
      <trkpt lat="48.81629" lon="1.39516">
        <ele>137.300003</ele>
        <time>2017-04-18T12:13:34Z</time>
      </trkpt>
      <trkpt lat="48.81642" lon="1.39517">
        <ele>137.300003</ele>
        <time>2017-04-18T12:13:36Z</time>
      </trkpt>
      <trkpt lat="48.81653" lon="1.39522">
        <ele>137.199997</ele>
        <time>2017-04-18T12:13:38Z</time>
      </trkpt>
      <trkpt lat="48.81664" lon="1.39526">
        <ele>137.199997</ele>
        <time>2017-04-18T12:13:40Z</time>
      </trkpt>
      <trkpt lat="48.81675" lon="1.39529">
        <ele>137.199997</ele>
        <time>2017-04-18T12:13:42Z</time>
      </trkpt>
      <trkpt lat="48.81685" lon="1.39533">
        <ele>137.100006</ele>
        <time>2017-04-18T12:13:44Z</time>
      </trkpt>
      <trkpt lat="48.81695" lon="1.39538">
        <ele>137.100006</ele>
        <time>2017-04-18T12:13:46Z</time>
      </trkpt>
      <trkpt lat="48.81705" lon="1.39545">
        <ele>137.100006</ele>
        <time>2017-04-18T12:13:48Z</time>
      </trkpt>
      <trkpt lat="48.81715" lon="1.39546">
        <ele>137</ele>
        <time>2017-04-18T12:13:50Z</time>
      </trkpt>
      <trkpt lat="48.81726" lon="1.39547">
        <ele>137</ele>
        <time>2017-04-18T12:13:52Z</time>
      </trkpt>
      <trkpt lat="48.81736" lon="1.39552">
        <ele>137</ele>
        <time>2017-04-18T12:13:54Z</time>
      </trkpt>
      <trkpt lat="48.81747" lon="1.39557">
        <ele>137</ele>
        <time>2017-04-18T12:13:56Z</time>
      </trkpt>
      <trkpt lat="48.81758" lon="1.39566">
        <ele>137</ele>
        <time>2017-04-18T12:13:58Z</time>
      </trkpt>
      <trkpt lat="48.81768" lon="1.39573">
        <ele>136.899994</ele>
        <time>2017-04-18T12:14:00Z</time>
      </trkpt>
      <trkpt lat="48.81778" lon="1.39579">
        <ele>136.899994</ele>
        <time>2017-04-18T12:14:02Z</time>
      </trkpt>
      <trkpt lat="48.8179" lon="1.39583">
        <ele>136.899994</ele>
        <time>2017-04-18T12:14:04Z</time>
      </trkpt>
      <trkpt lat="48.818" lon="1.39591">
        <ele>136.899994</ele>
        <time>2017-04-18T12:14:06Z</time>
      </trkpt>
      <trkpt lat="48.8181" lon="1.39598">
        <ele>136.899994</ele>
        <time>2017-04-18T12:14:08Z</time>
      </trkpt>
      <trkpt lat="48.81818" lon="1.39611">
        <ele>136.800003</ele>
        <time>2017-04-18T12:14:10Z</time>
      </trkpt>
      <trkpt lat="48.81824" lon="1.39622">
        <ele>136.800003</ele>
        <time>2017-04-18T12:14:12Z</time>
      </trkpt>
      <trkpt lat="48.8183" lon="1.39634">
        <ele>136.699997</ele>
        <time>2017-04-18T12:14:14Z</time>
      </trkpt>
      <trkpt lat="48.81837" lon="1.39646">
        <ele>136.600006</ele>
        <time>2017-04-18T12:14:16Z</time>
      </trkpt>
      <trkpt lat="48.81846" lon="1.3965">
        <ele>136.5</ele>
        <time>2017-04-18T12:14:19Z</time>
      </trkpt>
      <trkpt lat="48.81856" lon="1.3965">
        <ele>136.399994</ele>
        <time>2017-04-18T12:14:21Z</time>
      </trkpt>
      <trkpt lat="48.81863" lon="1.39664">
        <ele>136</ele>
        <time>2017-04-18T12:14:24Z</time>
      </trkpt>
      <trkpt lat="48.81872" lon="1.39667">
        <ele>135.800003</ele>
        <time>2017-04-18T12:14:27Z</time>
      </trkpt>
      <trkpt lat="48.81882" lon="1.39667">
        <ele>135.600006</ele>
        <time>2017-04-18T12:14:29Z</time>
      </trkpt>
      <trkpt lat="48.81894" lon="1.39666">
        <ele>135.399994</ele>
        <time>2017-04-18T12:14:31Z</time>
      </trkpt>
      <trkpt lat="48.81905" lon="1.39669">
        <ele>135.199997</ele>
        <time>2017-04-18T12:14:33Z</time>
      </trkpt>
      <trkpt lat="48.81919" lon="1.39672">
        <ele>134.899994</ele>
        <time>2017-04-18T12:14:36Z</time>
      </trkpt>
      <trkpt lat="48.81929" lon="1.39676">
        <ele>134.800003</ele>
        <time>2017-04-18T12:14:38Z</time>
      </trkpt>
      <trkpt lat="48.8194" lon="1.39676">
        <ele>134.600006</ele>
        <time>2017-04-18T12:14:40Z</time>
      </trkpt>
      <trkpt lat="48.81951" lon="1.39679">
        <ele>134.5</ele>
        <time>2017-04-18T12:14:42Z</time>
      </trkpt>
      <trkpt lat="48.81962" lon="1.39681">
        <ele>134.399994</ele>
        <time>2017-04-18T12:14:44Z</time>
      </trkpt>
      <trkpt lat="48.81971" lon="1.39674">
        <ele>134.300003</ele>
        <time>2017-04-18T12:14:46Z</time>
      </trkpt>
      <trkpt lat="48.81983" lon="1.39669">
        <ele>134.199997</ele>
        <time>2017-04-18T12:14:49Z</time>
      </trkpt>
      <trkpt lat="48.81993" lon="1.39667">
        <ele>134.100006</ele>
        <time>2017-04-18T12:14:52Z</time>
      </trkpt>
      <trkpt lat="48.82005" lon="1.39669">
        <ele>134.100006</ele>
        <time>2017-04-18T12:14:55Z</time>
      </trkpt>
      <trkpt lat="48.82018" lon="1.39671">
        <ele>134.199997</ele>
        <time>2017-04-18T12:14:58Z</time>
      </trkpt>
      <trkpt lat="48.82032" lon="1.39665">
        <ele>134.199997</ele>
        <time>2017-04-18T12:15:01Z</time>
      </trkpt>
      <trkpt lat="48.82041" lon="1.39663">
        <ele>134.199997</ele>
        <time>2017-04-18T12:15:03Z</time>
      </trkpt>
      <trkpt lat="48.82051" lon="1.3966">
        <ele>134.300003</ele>
        <time>2017-04-18T12:15:05Z</time>
      </trkpt>
      <trkpt lat="48.82062" lon="1.39661">
        <ele>134.300003</ele>
        <time>2017-04-18T12:15:07Z</time>
      </trkpt>
      <trkpt lat="48.82071" lon="1.39666">
        <ele>134.300003</ele>
        <time>2017-04-18T12:15:09Z</time>
      </trkpt>
      <trkpt lat="48.82081" lon="1.39673">
        <ele>134.399994</ele>
        <time>2017-04-18T12:15:11Z</time>
      </trkpt>
      <trkpt lat="48.82088" lon="1.39682">
        <ele>134.5</ele>
        <time>2017-04-18T12:15:13Z</time>
      </trkpt>
      <trkpt lat="48.82098" lon="1.39682">
        <ele>134.5</ele>
        <time>2017-04-18T12:15:16Z</time>
      </trkpt>
      <trkpt lat="48.82109" lon="1.39684">
        <ele>134.5</ele>
        <time>2017-04-18T12:15:19Z</time>
      </trkpt>
      <trkpt lat="48.82118" lon="1.39686">
        <ele>134.5</ele>
        <time>2017-04-18T12:15:21Z</time>
      </trkpt>
      <trkpt lat="48.82128" lon="1.39683">
        <ele>134.5</ele>
        <time>2017-04-18T12:15:23Z</time>
      </trkpt>
      <trkpt lat="48.82136" lon="1.39674">
        <ele>134.399994</ele>
        <time>2017-04-18T12:15:25Z</time>
      </trkpt>
      <trkpt lat="48.82148" lon="1.39679">
        <ele>134.300003</ele>
        <time>2017-04-18T12:15:28Z</time>
      </trkpt>
      <trkpt lat="48.82156" lon="1.39686">
        <ele>134.199997</ele>
        <time>2017-04-18T12:15:30Z</time>
      </trkpt>
      <trkpt lat="48.82166" lon="1.3969">
        <ele>134</ele>
        <time>2017-04-18T12:15:32Z</time>
      </trkpt>
      <trkpt lat="48.8218" lon="1.39686">
        <ele>133.699997</ele>
        <time>2017-04-18T12:15:34Z</time>
      </trkpt>
      <trkpt lat="48.82194" lon="1.39681">
        <ele>133.199997</ele>
        <time>2017-04-18T12:15:36Z</time>
      </trkpt>
      <trkpt lat="48.82209" lon="1.39675">
        <ele>132.699997</ele>
        <time>2017-04-18T12:15:38Z</time>
      </trkpt>
      <trkpt lat="48.82223" lon="1.39669">
        <ele>132.300003</ele>
        <time>2017-04-18T12:15:40Z</time>
      </trkpt>
      <trkpt lat="48.82235" lon="1.39665">
        <ele>132</ele>
        <time>2017-04-18T12:15:42Z</time>
      </trkpt>
      <trkpt lat="48.82246" lon="1.39662">
        <ele>131.699997</ele>
        <time>2017-04-18T12:15:44Z</time>
      </trkpt>
      <trkpt lat="48.82256" lon="1.3966">
        <ele>131.399994</ele>
        <time>2017-04-18T12:15:46Z</time>
      </trkpt>
      <trkpt lat="48.82267" lon="1.39659">
        <ele>131.199997</ele>
        <time>2017-04-18T12:15:49Z</time>
      </trkpt>
      <trkpt lat="48.82273" lon="1.3967">
        <ele>131.199997</ele>
        <time>2017-04-18T12:15:53Z</time>
      </trkpt>
      <trkpt lat="48.82279" lon="1.39683">
        <ele>131.199997</ele>
        <time>2017-04-18T12:15:56Z</time>
      </trkpt>
      <trkpt lat="48.82289" lon="1.39691">
        <ele>131.199997</ele>
        <time>2017-04-18T12:15:59Z</time>
      </trkpt>
      <trkpt lat="48.82299" lon="1.39697">
        <ele>131.199997</ele>
        <time>2017-04-18T12:16:02Z</time>
      </trkpt>
      <trkpt lat="48.82307" lon="1.39704">
        <ele>131.199997</ele>
        <time>2017-04-18T12:16:05Z</time>
      </trkpt>
      <trkpt lat="48.82316" lon="1.39711">
        <ele>131.199997</ele>
        <time>2017-04-18T12:16:09Z</time>
      </trkpt>
      <trkpt lat="48.82312" lon="1.39723">
        <ele>131.199997</ele>
        <time>2017-04-18T12:16:18Z</time>
      </trkpt>
      <trkpt lat="48.82315" lon="1.39737">
        <ele>131</ele>
        <time>2017-04-18T12:16:24Z</time>
      </trkpt>
      <trkpt lat="48.82322" lon="1.39754">
        <ele>130.899994</ele>
        <time>2017-04-18T12:16:27Z</time>
      </trkpt>
      <trkpt lat="48.82327" lon="1.39768">
        <ele>130.800003</ele>
        <time>2017-04-18T12:16:29Z</time>
      </trkpt>
      <trkpt lat="48.82332" lon="1.39784">
        <ele>130.5</ele>
        <time>2017-04-18T12:16:31Z</time>
      </trkpt>
      <trkpt lat="48.82336" lon="1.398">
        <ele>130.100006</ele>
        <time>2017-04-18T12:16:33Z</time>
      </trkpt>
      <trkpt lat="48.82341" lon="1.39818">
        <ele>129.800003</ele>
        <time>2017-04-18T12:16:35Z</time>
      </trkpt>
      <trkpt lat="48.82346" lon="1.39838">
        <ele>129.300003</ele>
        <time>2017-04-18T12:16:37Z</time>
      </trkpt>
      <trkpt lat="48.8235" lon="1.39858">
        <ele>128.800003</ele>
        <time>2017-04-18T12:16:39Z</time>
      </trkpt>
      <trkpt lat="48.82352" lon="1.39878">
        <ele>128.300003</ele>
        <time>2017-04-18T12:16:41Z</time>
      </trkpt>
      <trkpt lat="48.82354" lon="1.39894">
        <ele>127.699997</ele>
        <time>2017-04-18T12:16:43Z</time>
      </trkpt>
      <trkpt lat="48.82357" lon="1.39908">
        <ele>127.300003</ele>
        <time>2017-04-18T12:16:45Z</time>
      </trkpt>
      <trkpt lat="48.82363" lon="1.39923">
        <ele>126.800003</ele>
        <time>2017-04-18T12:16:48Z</time>
      </trkpt>
      <trkpt lat="48.82368" lon="1.39936">
        <ele>126.699997</ele>
        <time>2017-04-18T12:16:51Z</time>
      </trkpt>
      <trkpt lat="48.82374" lon="1.39949">
        <ele>127</ele>
        <time>2017-04-18T12:16:55Z</time>
      </trkpt>
      <trkpt lat="48.82382" lon="1.3996">
        <ele>127.5</ele>
        <time>2017-04-18T12:16:59Z</time>
      </trkpt>
      <trkpt lat="48.82391" lon="1.39969">
        <ele>128.199997</ele>
        <time>2017-04-18T12:17:03Z</time>
      </trkpt>
      <trkpt lat="48.82399" lon="1.39979">
        <ele>129.100006</ele>
        <time>2017-04-18T12:17:07Z</time>
      </trkpt>
      <trkpt lat="48.82408" lon="1.39987">
        <ele>130.100006</ele>
        <time>2017-04-18T12:17:11Z</time>
      </trkpt>
      <trkpt lat="48.82417" lon="1.39993">
        <ele>131.100006</ele>
        <time>2017-04-18T12:17:15Z</time>
      </trkpt>
      <trkpt lat="48.82422" lon="1.40005">
        <ele>134.600006</ele>
        <time>2017-04-18T12:17:47Z</time>
      </trkpt>
      <trkpt lat="48.8243" lon="1.40013">
        <ele>134.899994</ele>
        <time>2017-04-18T12:17:53Z</time>
      </trkpt>
      <trkpt lat="48.82438" lon="1.40021">
        <ele>135.100006</ele>
        <time>2017-04-18T12:17:56Z</time>
      </trkpt>
      <trkpt lat="48.82448" lon="1.40031">
        <ele>135.399994</ele>
        <time>2017-04-18T12:18:00Z</time>
      </trkpt>
      <trkpt lat="48.82457" lon="1.40037">
        <ele>135.800003</ele>
        <time>2017-04-18T12:18:03Z</time>
      </trkpt>
      <trkpt lat="48.82466" lon="1.40042">
        <ele>136.100006</ele>
        <time>2017-04-18T12:18:06Z</time>
      </trkpt>
      <trkpt lat="48.82478" lon="1.40049">
        <ele>136.600006</ele>
        <time>2017-04-18T12:18:10Z</time>
      </trkpt>
      <trkpt lat="48.82489" lon="1.40052">
        <ele>136.899994</ele>
        <time>2017-04-18T12:18:13Z</time>
      </trkpt>
      <trkpt lat="48.82501" lon="1.40056">
        <ele>137.300003</ele>
        <time>2017-04-18T12:18:16Z</time>
      </trkpt>
      <trkpt lat="48.82513" lon="1.40061">
        <ele>137.5</ele>
        <time>2017-04-18T12:18:19Z</time>
      </trkpt>
      <trkpt lat="48.82525" lon="1.40069">
        <ele>137.800003</ele>
        <time>2017-04-18T12:18:22Z</time>
      </trkpt>
      <trkpt lat="48.82536" lon="1.4008">
        <ele>138</ele>
        <time>2017-04-18T12:18:25Z</time>
      </trkpt>
      <trkpt lat="48.82547" lon="1.40087">
        <ele>138.100006</ele>
        <time>2017-04-18T12:18:27Z</time>
      </trkpt>
      <trkpt lat="48.82555" lon="1.40097">
        <ele>138.199997</ele>
        <time>2017-04-18T12:18:29Z</time>
      </trkpt>
      <trkpt lat="48.82563" lon="1.40108">
        <ele>138.300003</ele>
        <time>2017-04-18T12:18:31Z</time>
      </trkpt>
      <trkpt lat="48.82571" lon="1.40118">
        <ele>138.399994</ele>
        <time>2017-04-18T12:18:33Z</time>
      </trkpt>
      <trkpt lat="48.82582" lon="1.40127">
        <ele>138.399994</ele>
        <time>2017-04-18T12:18:35Z</time>
      </trkpt>
      <trkpt lat="48.82588" lon="1.40138">
        <ele>138.5</ele>
        <time>2017-04-18T12:18:37Z</time>
      </trkpt>
      <trkpt lat="48.82595" lon="1.40148">
        <ele>138.5</ele>
        <time>2017-04-18T12:18:39Z</time>
      </trkpt>
      <trkpt lat="48.82605" lon="1.40155">
        <ele>138.600006</ele>
        <time>2017-04-18T12:18:42Z</time>
      </trkpt>
      <trkpt lat="48.82611" lon="1.40143">
        <ele>138.699997</ele>
        <time>2017-04-18T12:18:46Z</time>
      </trkpt>
      <trkpt lat="48.8262" lon="1.40137">
        <ele>138.800003</ele>
        <time>2017-04-18T12:18:50Z</time>
      </trkpt>
      <trkpt lat="48.8263" lon="1.4013">
        <ele>138.800003</ele>
        <time>2017-04-18T12:18:54Z</time>
      </trkpt>
      <trkpt lat="48.82642" lon="1.40123">
        <ele>139</ele>
        <time>2017-04-18T12:18:58Z</time>
      </trkpt>
      <trkpt lat="48.82653" lon="1.40116">
        <ele>139.300003</ele>
        <time>2017-04-18T12:19:01Z</time>
      </trkpt>
      <trkpt lat="48.82666" lon="1.40108">
        <ele>139.5</ele>
        <time>2017-04-18T12:19:05Z</time>
      </trkpt>
      <trkpt lat="48.82675" lon="1.40102">
        <ele>139.600006</ele>
        <time>2017-04-18T12:19:07Z</time>
      </trkpt>
      <trkpt lat="48.82683" lon="1.40095">
        <ele>139.600006</ele>
        <time>2017-04-18T12:19:09Z</time>
      </trkpt>
      <trkpt lat="48.82693" lon="1.40088">
        <ele>139.699997</ele>
        <time>2017-04-18T12:19:11Z</time>
      </trkpt>
      <trkpt lat="48.82705" lon="1.40079">
        <ele>139.800003</ele>
        <time>2017-04-18T12:19:13Z</time>
      </trkpt>
      <trkpt lat="48.82717" lon="1.4007">
        <ele>139.800003</ele>
        <time>2017-04-18T12:19:15Z</time>
      </trkpt>
      <trkpt lat="48.82726" lon="1.40065">
        <ele>139.800003</ele>
        <time>2017-04-18T12:19:17Z</time>
      </trkpt>
      <trkpt lat="48.82738" lon="1.40055">
        <ele>139.899994</ele>
        <time>2017-04-18T12:19:19Z</time>
      </trkpt>
      <trkpt lat="48.82748" lon="1.40048">
        <ele>139.899994</ele>
        <time>2017-04-18T12:19:21Z</time>
      </trkpt>
      <trkpt lat="48.82761" lon="1.40038">
        <ele>139.899994</ele>
        <time>2017-04-18T12:19:23Z</time>
      </trkpt>
      <trkpt lat="48.82772" lon="1.40029">
        <ele>139.899994</ele>
        <time>2017-04-18T12:19:25Z</time>
      </trkpt>
      <trkpt lat="48.82783" lon="1.40021">
        <ele>139.600006</ele>
        <time>2017-04-18T12:19:27Z</time>
      </trkpt>
      <trkpt lat="48.82794" lon="1.40013">
        <ele>139.399994</ele>
        <time>2017-04-18T12:19:29Z</time>
      </trkpt>
      <trkpt lat="48.82806" lon="1.40005">
        <ele>139.199997</ele>
        <time>2017-04-18T12:19:31Z</time>
      </trkpt>
      <trkpt lat="48.82818" lon="1.39996">
        <ele>138.899994</ele>
        <time>2017-04-18T12:19:33Z</time>
      </trkpt>
      <trkpt lat="48.82828" lon="1.39989">
        <ele>138.699997</ele>
        <time>2017-04-18T12:19:35Z</time>
      </trkpt>
      <trkpt lat="48.82842" lon="1.39978">
        <ele>138.399994</ele>
        <time>2017-04-18T12:19:37Z</time>
      </trkpt>
      <trkpt lat="48.82855" lon="1.39969">
        <ele>138.100006</ele>
        <time>2017-04-18T12:19:39Z</time>
      </trkpt>
      <trkpt lat="48.82867" lon="1.39959">
        <ele>137.800003</ele>
        <time>2017-04-18T12:19:41Z</time>
      </trkpt>
      <trkpt lat="48.82879" lon="1.39951">
        <ele>137.300003</ele>
        <time>2017-04-18T12:19:43Z</time>
      </trkpt>
      <trkpt lat="48.82893" lon="1.39941">
        <ele>136.800003</ele>
        <time>2017-04-18T12:19:45Z</time>
      </trkpt>
      <trkpt lat="48.82906" lon="1.39932">
        <ele>136.100006</ele>
        <time>2017-04-18T12:19:47Z</time>
      </trkpt>
      <trkpt lat="48.82918" lon="1.39923">
        <ele>135.199997</ele>
        <time>2017-04-18T12:19:49Z</time>
      </trkpt>
      <trkpt lat="48.82929" lon="1.39909">
        <ele>134</ele>
        <time>2017-04-18T12:19:51Z</time>
      </trkpt>
      <trkpt lat="48.82941" lon="1.39899">
        <ele>132.800003</ele>
        <time>2017-04-18T12:19:53Z</time>
      </trkpt>
      <trkpt lat="48.82951" lon="1.39891">
        <ele>131.600006</ele>
        <time>2017-04-18T12:19:55Z</time>
      </trkpt>
      <trkpt lat="48.8296" lon="1.39888">
        <ele>130.5</ele>
        <time>2017-04-18T12:19:57Z</time>
      </trkpt>
      <trkpt lat="48.82971" lon="1.39883">
        <ele>129.399994</ele>
        <time>2017-04-18T12:19:59Z</time>
      </trkpt>
      <trkpt lat="48.82981" lon="1.39882">
        <ele>128.300003</ele>
        <time>2017-04-18T12:20:01Z</time>
      </trkpt>
      <trkpt lat="48.82991" lon="1.39883">
        <ele>127.300003</ele>
        <time>2017-04-18T12:20:03Z</time>
      </trkpt>
      <trkpt lat="48.83002" lon="1.39884">
        <ele>125.800003</ele>
        <time>2017-04-18T12:20:06Z</time>
      </trkpt>
      <trkpt lat="48.83012" lon="1.39878">
        <ele>123.5</ele>
        <time>2017-04-18T12:20:10Z</time>
      </trkpt>
      <trkpt lat="48.83023" lon="1.39876">
        <ele>120.900002</ele>
        <time>2017-04-18T12:20:15Z</time>
      </trkpt>
      <trkpt lat="48.83032" lon="1.39881">
        <ele>116.099998</ele>
        <time>2017-04-18T12:20:33Z</time>
      </trkpt>
      <trkpt lat="48.83036" lon="1.39893">
        <ele>116</ele>
        <time>2017-04-18T12:20:39Z</time>
      </trkpt>
      <trkpt lat="48.83042" lon="1.39905">
        <ele>116.5</ele>
        <time>2017-04-18T12:20:44Z</time>
      </trkpt>
      <trkpt lat="48.83049" lon="1.39915">
        <ele>117.599998</ele>
        <time>2017-04-18T12:20:49Z</time>
      </trkpt>
      <trkpt lat="48.83055" lon="1.39929">
        <ele>118.400002</ele>
        <time>2017-04-18T12:20:53Z</time>
      </trkpt>
      <trkpt lat="48.8306" lon="1.39942">
        <ele>119.400002</ele>
        <time>2017-04-18T12:20:57Z</time>
      </trkpt>
      <trkpt lat="48.83065" lon="1.39958">
        <ele>120.400002</ele>
        <time>2017-04-18T12:21:02Z</time>
      </trkpt>
      <trkpt lat="48.83067" lon="1.39973">
        <ele>121.199997</ele>
        <time>2017-04-18T12:21:06Z</time>
      </trkpt>
      <trkpt lat="48.8307" lon="1.39989">
        <ele>122.5</ele>
        <time>2017-04-18T12:21:11Z</time>
      </trkpt>
      <trkpt lat="48.83074" lon="1.40002">
        <ele>123.400002</ele>
        <time>2017-04-18T12:21:15Z</time>
      </trkpt>
      <trkpt lat="48.83077" lon="1.40018">
        <ele>124.5</ele>
        <time>2017-04-18T12:21:20Z</time>
      </trkpt>
      <trkpt lat="48.83076" lon="1.40032">
        <ele>125.099998</ele>
        <time>2017-04-18T12:21:23Z</time>
      </trkpt>
      <trkpt lat="48.83078" lon="1.40047">
        <ele>125.800003</ele>
        <time>2017-04-18T12:21:27Z</time>
      </trkpt>
      <trkpt lat="48.8308" lon="1.40064">
        <ele>126.800003</ele>
        <time>2017-04-18T12:21:32Z</time>
      </trkpt>
      <trkpt lat="48.83081" lon="1.40081">
        <ele>127.300003</ele>
        <time>2017-04-18T12:21:35Z</time>
      </trkpt>
      <trkpt lat="48.83083" lon="1.40096">
        <ele>127.900002</ele>
        <time>2017-04-18T12:21:38Z</time>
      </trkpt>
      <trkpt lat="48.83085" lon="1.40109">
        <ele>128.300003</ele>
        <time>2017-04-18T12:21:41Z</time>
      </trkpt>
      <trkpt lat="48.83082" lon="1.40127">
        <ele>128.899994</ele>
        <time>2017-04-18T12:21:44Z</time>
      </trkpt>
      <trkpt lat="48.83081" lon="1.40144">
        <ele>129.5</ele>
        <time>2017-04-18T12:21:48Z</time>
      </trkpt>
      <trkpt lat="48.83082" lon="1.4016">
        <ele>129.899994</ele>
        <time>2017-04-18T12:21:51Z</time>
      </trkpt>
      <trkpt lat="48.83082" lon="1.40175">
        <ele>130.300003</ele>
        <time>2017-04-18T12:21:54Z</time>
      </trkpt>
      <trkpt lat="48.83081" lon="1.40192">
        <ele>130.899994</ele>
        <time>2017-04-18T12:21:58Z</time>
      </trkpt>
      <trkpt lat="48.83078" lon="1.40209">
        <ele>131.300003</ele>
        <time>2017-04-18T12:22:01Z</time>
      </trkpt>
      <trkpt lat="48.83075" lon="1.40227">
        <ele>131.800003</ele>
        <time>2017-04-18T12:22:04Z</time>
      </trkpt>
      <trkpt lat="48.83072" lon="1.40245">
        <ele>132.199997</ele>
        <time>2017-04-18T12:22:07Z</time>
      </trkpt>
      <trkpt lat="48.83069" lon="1.40261">
        <ele>132.5</ele>
        <time>2017-04-18T12:22:10Z</time>
      </trkpt>
      <trkpt lat="48.83066" lon="1.40276">
        <ele>132.800003</ele>
        <time>2017-04-18T12:22:13Z</time>
      </trkpt>
      <trkpt lat="48.83063" lon="1.40294">
        <ele>132.899994</ele>
        <time>2017-04-18T12:22:16Z</time>
      </trkpt>
      <trkpt lat="48.83059" lon="1.40309">
        <ele>132.899994</ele>
        <time>2017-04-18T12:22:18Z</time>
      </trkpt>
      <trkpt lat="48.83056" lon="1.40323">
        <ele>132.899994</ele>
        <time>2017-04-18T12:22:21Z</time>
      </trkpt>
      <trkpt lat="48.83049" lon="1.40339">
        <ele>132.899994</ele>
        <time>2017-04-18T12:22:24Z</time>
      </trkpt>
      <trkpt lat="48.83047" lon="1.40359">
        <ele>132.899994</ele>
        <time>2017-04-18T12:22:27Z</time>
      </trkpt>
      <trkpt lat="48.83045" lon="1.40378">
        <ele>133</ele>
        <time>2017-04-18T12:22:30Z</time>
      </trkpt>
      <trkpt lat="48.83044" lon="1.40397">
        <ele>133.199997</ele>
        <time>2017-04-18T12:22:33Z</time>
      </trkpt>
      <trkpt lat="48.83043" lon="1.40415">
        <ele>133.600006</ele>
        <time>2017-04-18T12:22:36Z</time>
      </trkpt>
      <trkpt lat="48.83041" lon="1.40435">
        <ele>133.899994</ele>
        <time>2017-04-18T12:22:39Z</time>
      </trkpt>
      <trkpt lat="48.83042" lon="1.40453">
        <ele>134.199997</ele>
        <time>2017-04-18T12:22:42Z</time>
      </trkpt>
      <trkpt lat="48.83039" lon="1.40467">
        <ele>134.300003</ele>
        <time>2017-04-18T12:22:44Z</time>
      </trkpt>
      <trkpt lat="48.83038" lon="1.40485">
        <ele>134.600006</ele>
        <time>2017-04-18T12:22:47Z</time>
      </trkpt>
      <trkpt lat="48.83035" lon="1.40501">
        <ele>134.699997</ele>
        <time>2017-04-18T12:22:49Z</time>
      </trkpt>
      <trkpt lat="48.83035" lon="1.40518">
        <ele>134.800003</ele>
        <time>2017-04-18T12:22:51Z</time>
      </trkpt>
      <trkpt lat="48.83037" lon="1.40534">
        <ele>134.899994</ele>
        <time>2017-04-18T12:22:53Z</time>
      </trkpt>
      <trkpt lat="48.83039" lon="1.40553">
        <ele>134.899994</ele>
        <time>2017-04-18T12:22:55Z</time>
      </trkpt>
      <trkpt lat="48.83042" lon="1.4057">
        <ele>135</ele>
        <time>2017-04-18T12:22:57Z</time>
      </trkpt>
      <trkpt lat="48.83045" lon="1.40586">
        <ele>135.100006</ele>
        <time>2017-04-18T12:22:59Z</time>
      </trkpt>
      <trkpt lat="48.83046" lon="1.40606">
        <ele>135.100006</ele>
        <time>2017-04-18T12:23:02Z</time>
      </trkpt>
      <trkpt lat="48.83046" lon="1.4062">
        <ele>135.199997</ele>
        <time>2017-04-18T12:23:04Z</time>
      </trkpt>
      <trkpt lat="48.8304" lon="1.40637">
        <ele>135.300003</ele>
        <time>2017-04-18T12:23:07Z</time>
      </trkpt>
      <trkpt lat="48.83036" lon="1.40651">
        <ele>135.300003</ele>
        <time>2017-04-18T12:23:09Z</time>
      </trkpt>
      <trkpt lat="48.83032" lon="1.40665">
        <ele>135.399994</ele>
        <time>2017-04-18T12:23:12Z</time>
      </trkpt>
      <trkpt lat="48.83033" lon="1.40685">
        <ele>135.399994</ele>
        <time>2017-04-18T12:23:15Z</time>
      </trkpt>
      <trkpt lat="48.83029" lon="1.40699">
        <ele>135.5</ele>
        <time>2017-04-18T12:23:17Z</time>
      </trkpt>
      <trkpt lat="48.83025" lon="1.40715">
        <ele>135.5</ele>
        <time>2017-04-18T12:23:19Z</time>
      </trkpt>
      <trkpt lat="48.83021" lon="1.40728">
        <ele>135.5</ele>
        <time>2017-04-18T12:23:21Z</time>
      </trkpt>
      <trkpt lat="48.83014" lon="1.40739">
        <ele>135.600006</ele>
        <time>2017-04-18T12:23:24Z</time>
      </trkpt>
      <trkpt lat="48.83005" lon="1.40745">
        <ele>135.600006</ele>
        <time>2017-04-18T12:23:27Z</time>
      </trkpt>
      <trkpt lat="48.82999" lon="1.40761">
        <ele>135.600006</ele>
        <time>2017-04-18T12:23:31Z</time>
      </trkpt>
      <trkpt lat="48.82991" lon="1.4077">
        <ele>135.699997</ele>
        <time>2017-04-18T12:23:34Z</time>
      </trkpt>
      <trkpt lat="48.8298" lon="1.40779">
        <ele>135.699997</ele>
        <time>2017-04-18T12:23:36Z</time>
      </trkpt>
      <trkpt lat="48.82971" lon="1.40789">
        <ele>135.800003</ele>
        <time>2017-04-18T12:23:38Z</time>
      </trkpt>
      <trkpt lat="48.82963" lon="1.40796">
        <ele>135.800003</ele>
        <time>2017-04-18T12:23:40Z</time>
      </trkpt>
      <trkpt lat="48.82952" lon="1.40807">
        <ele>135.899994</ele>
        <time>2017-04-18T12:23:43Z</time>
      </trkpt>
      <trkpt lat="48.82939" lon="1.40818">
        <ele>135.899994</ele>
        <time>2017-04-18T12:23:46Z</time>
      </trkpt>
      <trkpt lat="48.82926" lon="1.40829">
        <ele>136</ele>
        <time>2017-04-18T12:23:49Z</time>
      </trkpt>
      <trkpt lat="48.82916" lon="1.40838">
        <ele>136</ele>
        <time>2017-04-18T12:23:51Z</time>
      </trkpt>
      <trkpt lat="48.82903" lon="1.40849">
        <ele>136.100006</ele>
        <time>2017-04-18T12:23:54Z</time>
      </trkpt>
      <trkpt lat="48.82894" lon="1.40862">
        <ele>136.100006</ele>
        <time>2017-04-18T12:23:57Z</time>
      </trkpt>
      <trkpt lat="48.82888" lon="1.40872">
        <ele>136.199997</ele>
        <time>2017-04-18T12:24:00Z</time>
      </trkpt>
      <trkpt lat="48.82882" lon="1.40883">
        <ele>136.300003</ele>
        <time>2017-04-18T12:24:09Z</time>
      </trkpt>
      <trkpt lat="48.82876" lon="1.40894">
        <ele>136.600006</ele>
        <time>2017-04-18T12:24:20Z</time>
      </trkpt>
      <trkpt lat="48.8288" lon="1.4091">
        <ele>136.699997</ele>
        <time>2017-04-18T12:24:34Z</time>
      </trkpt>
      <trkpt lat="48.82888" lon="1.40926">
        <ele>136.800003</ele>
        <time>2017-04-18T12:24:37Z</time>
      </trkpt>
      <trkpt lat="48.8289" lon="1.40942">
        <ele>136.800003</ele>
        <time>2017-04-18T12:24:39Z</time>
      </trkpt>
      <trkpt lat="48.82893" lon="1.40957">
        <ele>136.699997</ele>
        <time>2017-04-18T12:24:41Z</time>
      </trkpt>
      <trkpt lat="48.82898" lon="1.40971">
        <ele>136.699997</ele>
        <time>2017-04-18T12:24:43Z</time>
      </trkpt>
      <trkpt lat="48.82903" lon="1.40986">
        <ele>136.600006</ele>
        <time>2017-04-18T12:24:45Z</time>
      </trkpt>
      <trkpt lat="48.82907" lon="1.41002">
        <ele>136.600006</ele>
        <time>2017-04-18T12:24:47Z</time>
      </trkpt>
      <trkpt lat="48.82913" lon="1.41016">
        <ele>136.5</ele>
        <time>2017-04-18T12:24:49Z</time>
      </trkpt>
      <trkpt lat="48.82919" lon="1.4103">
        <ele>136.5</ele>
        <time>2017-04-18T12:24:51Z</time>
      </trkpt>
      <trkpt lat="48.82922" lon="1.41047">
        <ele>136.5</ele>
        <time>2017-04-18T12:24:53Z</time>
      </trkpt>
      <trkpt lat="48.82924" lon="1.41064">
        <ele>136.5</ele>
        <time>2017-04-18T12:24:55Z</time>
      </trkpt>
      <trkpt lat="48.82927" lon="1.41081">
        <ele>136.399994</ele>
        <time>2017-04-18T12:24:57Z</time>
      </trkpt>
      <trkpt lat="48.82931" lon="1.41097">
        <ele>136.399994</ele>
        <time>2017-04-18T12:24:59Z</time>
      </trkpt>
      <trkpt lat="48.82938" lon="1.41111">
        <ele>136.399994</ele>
        <time>2017-04-18T12:25:01Z</time>
      </trkpt>
      <trkpt lat="48.82942" lon="1.41127">
        <ele>136.399994</ele>
        <time>2017-04-18T12:25:03Z</time>
      </trkpt>
      <trkpt lat="48.82946" lon="1.41141">
        <ele>136.399994</ele>
        <time>2017-04-18T12:25:05Z</time>
      </trkpt>
      <trkpt lat="48.8295" lon="1.41127">
        <ele>136.300003</ele>
        <time>2017-04-18T12:25:22Z</time>
      </trkpt>
      <trkpt lat="48.82958" lon="1.41122">
        <ele>136.300003</ele>
        <time>2017-04-18T12:25:26Z</time>
      </trkpt>
      <trkpt lat="48.82967" lon="1.41115">
        <ele>136.300003</ele>
        <time>2017-04-18T12:25:29Z</time>
      </trkpt>
      <trkpt lat="48.82976" lon="1.41109">
        <ele>136.199997</ele>
        <time>2017-04-18T12:25:32Z</time>
      </trkpt>
      <trkpt lat="48.82985" lon="1.41103">
        <ele>136.199997</ele>
        <time>2017-04-18T12:25:35Z</time>
      </trkpt>
      <trkpt lat="48.82995" lon="1.41096">
        <ele>136.100006</ele>
        <time>2017-04-18T12:25:38Z</time>
      </trkpt>
      <trkpt lat="48.83005" lon="1.4109">
        <ele>136.100006</ele>
        <time>2017-04-18T12:25:41Z</time>
      </trkpt>
      <trkpt lat="48.83013" lon="1.41083">
        <ele>136.100006</ele>
        <time>2017-04-18T12:25:44Z</time>
      </trkpt>
      <trkpt lat="48.8302" lon="1.41071">
        <ele>136.100006</ele>
        <time>2017-04-18T12:25:47Z</time>
      </trkpt>
      <trkpt lat="48.83025" lon="1.41055">
        <ele>136.100006</ele>
        <time>2017-04-18T12:25:50Z</time>
      </trkpt>
      <trkpt lat="48.83028" lon="1.41042">
        <ele>136.100006</ele>
        <time>2017-04-18T12:25:52Z</time>
      </trkpt>
      <trkpt lat="48.83035" lon="1.4103">
        <ele>136</ele>
        <time>2017-04-18T12:25:54Z</time>
      </trkpt>
      <trkpt lat="48.8304" lon="1.41017">
        <ele>136</ele>
        <time>2017-04-18T12:25:56Z</time>
      </trkpt>
      <trkpt lat="48.83047" lon="1.41001">
        <ele>136</ele>
        <time>2017-04-18T12:25:58Z</time>
      </trkpt>
      <trkpt lat="48.83053" lon="1.40987">
        <ele>136</ele>
        <time>2017-04-18T12:26:00Z</time>
      </trkpt>
      <trkpt lat="48.83059" lon="1.40973">
        <ele>136</ele>
        <time>2017-04-18T12:26:02Z</time>
      </trkpt>
      <trkpt lat="48.83064" lon="1.40959">
        <ele>136.100006</ele>
        <time>2017-04-18T12:26:04Z</time>
      </trkpt>
      <trkpt lat="48.83068" lon="1.40944">
        <ele>136.100006</ele>
        <time>2017-04-18T12:26:06Z</time>
      </trkpt>
      <trkpt lat="48.83074" lon="1.40925">
        <ele>136.199997</ele>
        <time>2017-04-18T12:26:09Z</time>
      </trkpt>
      <trkpt lat="48.83079" lon="1.4091">
        <ele>136.300003</ele>
        <time>2017-04-18T12:26:11Z</time>
      </trkpt>
      <trkpt lat="48.83085" lon="1.40895">
        <ele>136.399994</ele>
        <time>2017-04-18T12:26:13Z</time>
      </trkpt>
      <trkpt lat="48.8309" lon="1.4088">
        <ele>136.399994</ele>
        <time>2017-04-18T12:26:15Z</time>
      </trkpt>
      <trkpt lat="48.83095" lon="1.40865">
        <ele>136.5</ele>
        <time>2017-04-18T12:26:17Z</time>
      </trkpt>
      <trkpt lat="48.831" lon="1.40851">
        <ele>136.5</ele>
        <time>2017-04-18T12:26:19Z</time>
      </trkpt>
      <trkpt lat="48.83104" lon="1.40836">
        <ele>136.600006</ele>
        <time>2017-04-18T12:26:21Z</time>
      </trkpt>
      <trkpt lat="48.83108" lon="1.40822">
        <ele>136.600006</ele>
        <time>2017-04-18T12:26:23Z</time>
      </trkpt>
      <trkpt lat="48.83112" lon="1.40808">
        <ele>136.600006</ele>
        <time>2017-04-18T12:26:25Z</time>
      </trkpt>
      <trkpt lat="48.83118" lon="1.40794">
        <ele>136.600006</ele>
        <time>2017-04-18T12:26:27Z</time>
      </trkpt>
      <trkpt lat="48.83123" lon="1.40779">
        <ele>136.5</ele>
        <time>2017-04-18T12:26:29Z</time>
      </trkpt>
      <trkpt lat="48.83128" lon="1.40763">
        <ele>136.399994</ele>
        <time>2017-04-18T12:26:31Z</time>
      </trkpt>
      <trkpt lat="48.83133" lon="1.40747">
        <ele>136.399994</ele>
        <time>2017-04-18T12:26:33Z</time>
      </trkpt>
      <trkpt lat="48.83139" lon="1.40731">
        <ele>136.300003</ele>
        <time>2017-04-18T12:26:35Z</time>
      </trkpt>
      <trkpt lat="48.83143" lon="1.40715">
        <ele>136.199997</ele>
        <time>2017-04-18T12:26:37Z</time>
      </trkpt>
      <trkpt lat="48.83149" lon="1.40699">
        <ele>136.100006</ele>
        <time>2017-04-18T12:26:39Z</time>
      </trkpt>
      <trkpt lat="48.83154" lon="1.40685">
        <ele>136.100006</ele>
        <time>2017-04-18T12:26:41Z</time>
      </trkpt>
      <trkpt lat="48.83158" lon="1.40665">
        <ele>136</ele>
        <time>2017-04-18T12:26:44Z</time>
      </trkpt>
      <trkpt lat="48.83161" lon="1.40649">
        <ele>135.800003</ele>
        <time>2017-04-18T12:26:47Z</time>
      </trkpt>
      <trkpt lat="48.83165" lon="1.40636">
        <ele>135.5</ele>
        <time>2017-04-18T12:26:53Z</time>
      </trkpt>
      <trkpt lat="48.83173" lon="1.40644">
        <ele>135.300003</ele>
        <time>2017-04-18T12:27:00Z</time>
      </trkpt>
      <trkpt lat="48.83181" lon="1.40655">
        <ele>135.100006</ele>
        <time>2017-04-18T12:27:03Z</time>
      </trkpt>
      <trkpt lat="48.83189" lon="1.40668">
        <ele>134.800003</ele>
        <time>2017-04-18T12:27:06Z</time>
      </trkpt>
      <trkpt lat="48.83197" lon="1.4068">
        <ele>134.600006</ele>
        <time>2017-04-18T12:27:08Z</time>
      </trkpt>
      <trkpt lat="48.83206" lon="1.4069">
        <ele>134.300003</ele>
        <time>2017-04-18T12:27:10Z</time>
      </trkpt>
      <trkpt lat="48.83213" lon="1.40701">
        <ele>134</ele>
        <time>2017-04-18T12:27:12Z</time>
      </trkpt>
      <trkpt lat="48.83224" lon="1.40709">
        <ele>133.800003</ele>
        <time>2017-04-18T12:27:14Z</time>
      </trkpt>
      <trkpt lat="48.83234" lon="1.40713">
        <ele>133.600006</ele>
        <time>2017-04-18T12:27:16Z</time>
      </trkpt>
      <trkpt lat="48.83245" lon="1.40713">
        <ele>133.399994</ele>
        <time>2017-04-18T12:27:18Z</time>
      </trkpt>
      <trkpt lat="48.83254" lon="1.40713">
        <ele>133.199997</ele>
        <time>2017-04-18T12:27:20Z</time>
      </trkpt>
      <trkpt lat="48.83265" lon="1.40711">
        <ele>133.100006</ele>
        <time>2017-04-18T12:27:22Z</time>
      </trkpt>
      <trkpt lat="48.83275" lon="1.4071">
        <ele>132.899994</ele>
        <time>2017-04-18T12:27:24Z</time>
      </trkpt>
      <trkpt lat="48.83285" lon="1.40712">
        <ele>132.800003</ele>
        <time>2017-04-18T12:27:26Z</time>
      </trkpt>
      <trkpt lat="48.83297" lon="1.4072">
        <ele>132.800003</ele>
        <time>2017-04-18T12:27:29Z</time>
      </trkpt>
      <trkpt lat="48.83304" lon="1.40728">
        <ele>132.899994</ele>
        <time>2017-04-18T12:27:31Z</time>
      </trkpt>
      <trkpt lat="48.83314" lon="1.40734">
        <ele>133</ele>
        <time>2017-04-18T12:27:33Z</time>
      </trkpt>
      <trkpt lat="48.83325" lon="1.40746">
        <ele>133.199997</ele>
        <time>2017-04-18T12:27:36Z</time>
      </trkpt>
      <trkpt lat="48.83332" lon="1.40756">
        <ele>133.300003</ele>
        <time>2017-04-18T12:27:38Z</time>
      </trkpt>
      <trkpt lat="48.83338" lon="1.40767">
        <ele>133.5</ele>
        <time>2017-04-18T12:27:40Z</time>
      </trkpt>
      <trkpt lat="48.83347" lon="1.40781">
        <ele>133.699997</ele>
        <time>2017-04-18T12:27:43Z</time>
      </trkpt>
      <trkpt lat="48.83357" lon="1.40793">
        <ele>134</ele>
        <time>2017-04-18T12:27:46Z</time>
      </trkpt>
      <trkpt lat="48.83367" lon="1.40805">
        <ele>134.399994</ele>
        <time>2017-04-18T12:27:49Z</time>
      </trkpt>
      <trkpt lat="48.83373" lon="1.40816">
        <ele>134.600006</ele>
        <time>2017-04-18T12:27:51Z</time>
      </trkpt>
      <trkpt lat="48.83382" lon="1.40823">
        <ele>134.699997</ele>
        <time>2017-04-18T12:27:53Z</time>
      </trkpt>
      <trkpt lat="48.83393" lon="1.40835">
        <ele>135</ele>
        <time>2017-04-18T12:27:56Z</time>
      </trkpt>
      <trkpt lat="48.83401" lon="1.40845">
        <ele>135.100006</ele>
        <time>2017-04-18T12:27:58Z</time>
      </trkpt>
      <trkpt lat="48.8341" lon="1.40855">
        <ele>135.199997</ele>
        <time>2017-04-18T12:28:00Z</time>
      </trkpt>
      <trkpt lat="48.83417" lon="1.40863">
        <ele>135.300003</ele>
        <time>2017-04-18T12:28:02Z</time>
      </trkpt>
      <trkpt lat="48.83426" lon="1.4087">
        <ele>135.399994</ele>
        <time>2017-04-18T12:28:04Z</time>
      </trkpt>
      <trkpt lat="48.83438" lon="1.40877">
        <ele>135.600006</ele>
        <time>2017-04-18T12:28:07Z</time>
      </trkpt>
      <trkpt lat="48.83451" lon="1.40882">
        <ele>135.800003</ele>
        <time>2017-04-18T12:28:10Z</time>
      </trkpt>
      <trkpt lat="48.83463" lon="1.40882">
        <ele>135.899994</ele>
        <time>2017-04-18T12:28:12Z</time>
      </trkpt>
      <trkpt lat="48.83475" lon="1.40882">
        <ele>136</ele>
        <time>2017-04-18T12:28:14Z</time>
      </trkpt>
      <trkpt lat="48.83486" lon="1.40883">
        <ele>136.100006</ele>
        <time>2017-04-18T12:28:16Z</time>
      </trkpt>
      <trkpt lat="48.83495" lon="1.40889">
        <ele>136.100006</ele>
        <time>2017-04-18T12:28:18Z</time>
      </trkpt>
      <trkpt lat="48.83503" lon="1.40896">
        <ele>136.199997</ele>
        <time>2017-04-18T12:28:20Z</time>
      </trkpt>
      <trkpt lat="48.83512" lon="1.40904">
        <ele>136.199997</ele>
        <time>2017-04-18T12:28:22Z</time>
      </trkpt>
      <trkpt lat="48.8352" lon="1.40912">
        <ele>136.199997</ele>
        <time>2017-04-18T12:28:24Z</time>
      </trkpt>
      <trkpt lat="48.83529" lon="1.40919">
        <ele>136.300003</ele>
        <time>2017-04-18T12:28:26Z</time>
      </trkpt>
      <trkpt lat="48.83539" lon="1.40924">
        <ele>136.300003</ele>
        <time>2017-04-18T12:28:28Z</time>
      </trkpt>
      <trkpt lat="48.8355" lon="1.40929">
        <ele>136.399994</ele>
        <time>2017-04-18T12:28:30Z</time>
      </trkpt>
      <trkpt lat="48.83562" lon="1.40933">
        <ele>136.399994</ele>
        <time>2017-04-18T12:28:32Z</time>
      </trkpt>
      <trkpt lat="48.83574" lon="1.40938">
        <ele>136.399994</ele>
        <time>2017-04-18T12:28:34Z</time>
      </trkpt>
      <trkpt lat="48.83582" lon="1.40944">
        <ele>136.399994</ele>
        <time>2017-04-18T12:28:36Z</time>
      </trkpt>
      <trkpt lat="48.83591" lon="1.40952">
        <ele>136.5</ele>
        <time>2017-04-18T12:28:38Z</time>
      </trkpt>
      <trkpt lat="48.83602" lon="1.40958">
        <ele>136.5</ele>
        <time>2017-04-18T12:28:40Z</time>
      </trkpt>
      <trkpt lat="48.83611" lon="1.40964">
        <ele>136.5</ele>
        <time>2017-04-18T12:28:42Z</time>
      </trkpt>
      <trkpt lat="48.83622" lon="1.40969">
        <ele>136.5</ele>
        <time>2017-04-18T12:28:44Z</time>
      </trkpt>
      <trkpt lat="48.83632" lon="1.40973">
        <ele>136.600006</ele>
        <time>2017-04-18T12:28:47Z</time>
      </trkpt>
      <trkpt lat="48.83637" lon="1.40987">
        <ele>136.699997</ele>
        <time>2017-04-18T12:28:55Z</time>
      </trkpt>
      <trkpt lat="48.83644" lon="1.41002">
        <ele>136.699997</ele>
        <time>2017-04-18T12:28:58Z</time>
      </trkpt>
      <trkpt lat="48.83648" lon="1.41014">
        <ele>136.699997</ele>
        <time>2017-04-18T12:29:00Z</time>
      </trkpt>
      <trkpt lat="48.83652" lon="1.41027">
        <ele>136.699997</ele>
        <time>2017-04-18T12:29:02Z</time>
      </trkpt>
      <trkpt lat="48.83658" lon="1.41045">
        <ele>136.600006</ele>
        <time>2017-04-18T12:29:05Z</time>
      </trkpt>
      <trkpt lat="48.83664" lon="1.41056">
        <ele>136.399994</ele>
        <time>2017-04-18T12:29:07Z</time>
      </trkpt>
      <trkpt lat="48.83669" lon="1.41069">
        <ele>136.300003</ele>
        <time>2017-04-18T12:29:09Z</time>
      </trkpt>
      <trkpt lat="48.83674" lon="1.4108">
        <ele>136.300003</ele>
        <time>2017-04-18T12:29:11Z</time>
      </trkpt>
      <trkpt lat="48.83678" lon="1.41094">
        <ele>136.300003</ele>
        <time>2017-04-18T12:29:13Z</time>
      </trkpt>
      <trkpt lat="48.83683" lon="1.41106">
        <ele>136.399994</ele>
        <time>2017-04-18T12:29:15Z</time>
      </trkpt>
      <trkpt lat="48.83689" lon="1.41121">
        <ele>136.399994</ele>
        <time>2017-04-18T12:29:18Z</time>
      </trkpt>
      <trkpt lat="48.83697" lon="1.41128">
        <ele>136.399994</ele>
        <time>2017-04-18T12:29:21Z</time>
      </trkpt>
      <trkpt lat="48.83712" lon="1.41135">
        <ele>136.800003</ele>
        <time>2017-04-18T12:29:52Z</time>
      </trkpt>
      <trkpt lat="48.83714" lon="1.41151">
        <ele>136.899994</ele>
        <time>2017-04-18T12:29:57Z</time>
      </trkpt>
      <trkpt lat="48.8372" lon="1.41164">
        <ele>136.899994</ele>
        <time>2017-04-18T12:30:00Z</time>
      </trkpt>
      <trkpt lat="48.83726" lon="1.41179">
        <ele>137</ele>
        <time>2017-04-18T12:30:03Z</time>
      </trkpt>
      <trkpt lat="48.83732" lon="1.41191">
        <ele>137</ele>
        <time>2017-04-18T12:30:06Z</time>
      </trkpt>
      <trkpt lat="48.83739" lon="1.41202">
        <ele>137</ele>
        <time>2017-04-18T12:30:09Z</time>
      </trkpt>
      <trkpt lat="48.83746" lon="1.41215">
        <ele>137.100006</ele>
        <time>2017-04-18T12:30:12Z</time>
      </trkpt>
      <trkpt lat="48.83753" lon="1.41231">
        <ele>137.100006</ele>
        <time>2017-04-18T12:30:15Z</time>
      </trkpt>
      <trkpt lat="48.8376" lon="1.41248">
        <ele>137.100006</ele>
        <time>2017-04-18T12:30:18Z</time>
      </trkpt>
      <trkpt lat="48.83767" lon="1.4126">
        <ele>137.100006</ele>
        <time>2017-04-18T12:30:20Z</time>
      </trkpt>
      <trkpt lat="48.83773" lon="1.41272">
        <ele>137.199997</ele>
        <time>2017-04-18T12:30:22Z</time>
      </trkpt>
      <trkpt lat="48.83779" lon="1.41285">
        <ele>137.300003</ele>
        <time>2017-04-18T12:30:24Z</time>
      </trkpt>
      <trkpt lat="48.83784" lon="1.41299">
        <ele>137.300003</ele>
        <time>2017-04-18T12:30:26Z</time>
      </trkpt>
      <trkpt lat="48.83789" lon="1.4131">
        <ele>137.399994</ele>
        <time>2017-04-18T12:30:28Z</time>
      </trkpt>
      <trkpt lat="48.83794" lon="1.41324">
        <ele>137.399994</ele>
        <time>2017-04-18T12:30:30Z</time>
      </trkpt>
      <trkpt lat="48.83799" lon="1.41337">
        <ele>137.399994</ele>
        <time>2017-04-18T12:30:32Z</time>
      </trkpt>
      <trkpt lat="48.83806" lon="1.41347">
        <ele>137.399994</ele>
        <time>2017-04-18T12:30:34Z</time>
      </trkpt>
      <trkpt lat="48.83812" lon="1.41363">
        <ele>137.5</ele>
        <time>2017-04-18T12:30:37Z</time>
      </trkpt>
      <trkpt lat="48.83818" lon="1.41376">
        <ele>137.600006</ele>
        <time>2017-04-18T12:30:40Z</time>
      </trkpt>
      <trkpt lat="48.83827" lon="1.4139">
        <ele>137.699997</ele>
        <time>2017-04-18T12:30:43Z</time>
      </trkpt>
      <trkpt lat="48.83838" lon="1.41397">
        <ele>137.699997</ele>
        <time>2017-04-18T12:30:46Z</time>
      </trkpt>
      <trkpt lat="48.83848" lon="1.41404">
        <ele>137.699997</ele>
        <time>2017-04-18T12:30:48Z</time>
      </trkpt>
      <trkpt lat="48.83855" lon="1.41412">
        <ele>137.800003</ele>
        <time>2017-04-18T12:30:50Z</time>
      </trkpt>
      <trkpt lat="48.83865" lon="1.41426">
        <ele>137.800003</ele>
        <time>2017-04-18T12:30:53Z</time>
      </trkpt>
      <trkpt lat="48.83873" lon="1.41436">
        <ele>137.800003</ele>
        <time>2017-04-18T12:30:56Z</time>
      </trkpt>
      <trkpt lat="48.83883" lon="1.4144">
        <ele>137.699997</ele>
        <time>2017-04-18T12:31:01Z</time>
      </trkpt>
      <trkpt lat="48.83894" lon="1.41443">
        <ele>137.600006</ele>
        <time>2017-04-18T12:31:04Z</time>
      </trkpt>
      <trkpt lat="48.83901" lon="1.41458">
        <ele>137.5</ele>
        <time>2017-04-18T12:31:07Z</time>
      </trkpt>
      <trkpt lat="48.83907" lon="1.41474">
        <ele>137.399994</ele>
        <time>2017-04-18T12:31:10Z</time>
      </trkpt>
      <trkpt lat="48.83911" lon="1.41492">
        <ele>137.300003</ele>
        <time>2017-04-18T12:31:13Z</time>
      </trkpt>
      <trkpt lat="48.83915" lon="1.41505">
        <ele>137.300003</ele>
        <time>2017-04-18T12:31:15Z</time>
      </trkpt>
      <trkpt lat="48.83919" lon="1.41518">
        <ele>137.199997</ele>
        <time>2017-04-18T12:31:17Z</time>
      </trkpt>
      <trkpt lat="48.83926" lon="1.41531">
        <ele>137.199997</ele>
        <time>2017-04-18T12:31:19Z</time>
      </trkpt>
      <trkpt lat="48.83932" lon="1.41544">
        <ele>137.199997</ele>
        <time>2017-04-18T12:31:21Z</time>
      </trkpt>
      <trkpt lat="48.83937" lon="1.41559">
        <ele>137.100006</ele>
        <time>2017-04-18T12:31:23Z</time>
      </trkpt>
      <trkpt lat="48.83939" lon="1.41576">
        <ele>137.100006</ele>
        <time>2017-04-18T12:31:25Z</time>
      </trkpt>
      <trkpt lat="48.8394" lon="1.41592">
        <ele>137.100006</ele>
        <time>2017-04-18T12:31:27Z</time>
      </trkpt>
      <trkpt lat="48.83942" lon="1.41606">
        <ele>137.100006</ele>
        <time>2017-04-18T12:31:29Z</time>
      </trkpt>
      <trkpt lat="48.83945" lon="1.41621">
        <ele>137.100006</ele>
        <time>2017-04-18T12:31:31Z</time>
      </trkpt>
      <trkpt lat="48.83947" lon="1.41636">
        <ele>137</ele>
        <time>2017-04-18T12:31:33Z</time>
      </trkpt>
      <trkpt lat="48.83952" lon="1.4165">
        <ele>137</ele>
        <time>2017-04-18T12:31:35Z</time>
      </trkpt>
      <trkpt lat="48.83955" lon="1.41666">
        <ele>137</ele>
        <time>2017-04-18T12:31:37Z</time>
      </trkpt>
      <trkpt lat="48.83961" lon="1.41679">
        <ele>137</ele>
        <time>2017-04-18T12:31:39Z</time>
      </trkpt>
      <trkpt lat="48.83965" lon="1.41692">
        <ele>137</ele>
        <time>2017-04-18T12:31:41Z</time>
      </trkpt>
      <trkpt lat="48.8397" lon="1.41705">
        <ele>137</ele>
        <time>2017-04-18T12:31:43Z</time>
      </trkpt>
      <trkpt lat="48.83977" lon="1.41721">
        <ele>137</ele>
        <time>2017-04-18T12:31:46Z</time>
      </trkpt>
      <trkpt lat="48.83985" lon="1.41733">
        <ele>137</ele>
        <time>2017-04-18T12:31:48Z</time>
      </trkpt>
      <trkpt lat="48.83987" lon="1.41749">
        <ele>136</ele>
        <time>2017-04-18T12:31:51Z</time>
      </trkpt>
      <trkpt lat="48.83991" lon="1.41764">
        <ele>137</ele>
        <time>2017-04-18T12:31:54Z</time>
      </trkpt>
      <trkpt lat="48.83994" lon="1.41778">
        <ele>136.899994</ele>
        <time>2017-04-18T12:31:57Z</time>
      </trkpt>
      <trkpt lat="48.84003" lon="1.41782">
        <ele>136.899994</ele>
        <time>2017-04-18T12:32:07Z</time>
      </trkpt>
      <trkpt lat="48.84012" lon="1.41787">
        <ele>136.899994</ele>
        <time>2017-04-18T12:32:12Z</time>
      </trkpt>
      <trkpt lat="48.84019" lon="1.41798">
        <ele>136.899994</ele>
        <time>2017-04-18T12:32:16Z</time>
      </trkpt>
      <trkpt lat="48.84027" lon="1.41808">
        <ele>136.800003</ele>
        <time>2017-04-18T12:32:20Z</time>
      </trkpt>
      <trkpt lat="48.84033" lon="1.41818">
        <ele>136.800003</ele>
        <time>2017-04-18T12:32:28Z</time>
      </trkpt>
      <trkpt lat="48.8404" lon="1.41829">
        <ele>136.699997</ele>
        <time>2017-04-18T12:32:35Z</time>
      </trkpt>
      <trkpt lat="48.84051" lon="1.41833">
        <ele>136.699997</ele>
        <time>2017-04-18T12:32:43Z</time>
      </trkpt>
      <trkpt lat="48.84056" lon="1.41822">
        <ele>136.699997</ele>
        <time>2017-04-18T12:32:51Z</time>
      </trkpt>
      <trkpt lat="48.84061" lon="1.41808">
        <ele>136.699997</ele>
        <time>2017-04-18T12:32:54Z</time>
      </trkpt>
      <trkpt lat="48.84067" lon="1.41797">
        <ele>136.600006</ele>
        <time>2017-04-18T12:32:56Z</time>
      </trkpt>
      <trkpt lat="48.84071" lon="1.41784">
        <ele>136.600006</ele>
        <time>2017-04-18T12:32:58Z</time>
      </trkpt>
      <trkpt lat="48.84078" lon="1.41772">
        <ele>136.5</ele>
        <time>2017-04-18T12:33:00Z</time>
      </trkpt>
      <trkpt lat="48.84085" lon="1.41759">
        <ele>136.399994</ele>
        <time>2017-04-18T12:33:02Z</time>
      </trkpt>
      <trkpt lat="48.84093" lon="1.41748">
        <ele>136.300003</ele>
        <time>2017-04-18T12:33:04Z</time>
      </trkpt>
      <trkpt lat="48.84103" lon="1.41739">
        <ele>136.100006</ele>
        <time>2017-04-18T12:33:06Z</time>
      </trkpt>
      <trkpt lat="48.84114" lon="1.41732">
        <ele>135.699997</ele>
        <time>2017-04-18T12:33:08Z</time>
      </trkpt>
      <trkpt lat="48.84127" lon="1.41733">
        <ele>135.300003</ele>
        <time>2017-04-18T12:33:10Z</time>
      </trkpt>
      <trkpt lat="48.84138" lon="1.4174">
        <ele>134.899994</ele>
        <time>2017-04-18T12:33:12Z</time>
      </trkpt>
      <trkpt lat="48.8415" lon="1.41743">
        <ele>134.399994</ele>
        <time>2017-04-18T12:33:14Z</time>
      </trkpt>
      <trkpt lat="48.8416" lon="1.41738">
        <ele>133.800003</ele>
        <time>2017-04-18T12:33:16Z</time>
      </trkpt>
      <trkpt lat="48.84173" lon="1.41731">
        <ele>133.199997</ele>
        <time>2017-04-18T12:33:18Z</time>
      </trkpt>
      <trkpt lat="48.84187" lon="1.41723">
        <ele>132.399994</ele>
        <time>2017-04-18T12:33:20Z</time>
      </trkpt>
      <trkpt lat="48.84203" lon="1.41714">
        <ele>131.699997</ele>
        <time>2017-04-18T12:33:22Z</time>
      </trkpt>
      <trkpt lat="48.84212" lon="1.4171">
        <ele>131.199997</ele>
        <time>2017-04-18T12:33:23Z</time>
      </trkpt>
      <trkpt lat="48.84227" lon="1.41702">
        <ele>130.100006</ele>
        <time>2017-04-18T12:33:25Z</time>
      </trkpt>
      <trkpt lat="48.8424" lon="1.41685">
        <ele>128</ele>
        <time>2017-04-18T12:33:28Z</time>
      </trkpt>
      <trkpt lat="48.84241" lon="1.4166">
        <ele>127</ele>
        <time>2017-04-18T12:33:31Z</time>
      </trkpt>
      <trkpt lat="48.84241" lon="1.41646">
        <ele>126.099998</ele>
        <time>2017-04-18T12:33:33Z</time>
      </trkpt>
      <trkpt lat="48.84238" lon="1.41631">
        <ele>125.300003</ele>
        <time>2017-04-18T12:33:35Z</time>
      </trkpt>
      <trkpt lat="48.84235" lon="1.41617">
        <ele>124.599998</ele>
        <time>2017-04-18T12:33:37Z</time>
      </trkpt>
      <trkpt lat="48.84233" lon="1.416">
        <ele>123.900002</ele>
        <time>2017-04-18T12:33:39Z</time>
      </trkpt>
      <trkpt lat="48.84231" lon="1.41583">
        <ele>123.300003</ele>
        <time>2017-04-18T12:33:41Z</time>
      </trkpt>
      <trkpt lat="48.84229" lon="1.41569">
        <ele>122.800003</ele>
        <time>2017-04-18T12:33:43Z</time>
      </trkpt>
      <trkpt lat="48.84225" lon="1.41551">
        <ele>122.300003</ele>
        <time>2017-04-18T12:33:45Z</time>
      </trkpt>
      <trkpt lat="48.84224" lon="1.41534">
        <ele>121.699997</ele>
        <time>2017-04-18T12:33:47Z</time>
      </trkpt>
      <trkpt lat="48.84223" lon="1.41518">
        <ele>121.199997</ele>
        <time>2017-04-18T12:33:49Z</time>
      </trkpt>
      <trkpt lat="48.84223" lon="1.41504">
        <ele>120.599998</ele>
        <time>2017-04-18T12:33:51Z</time>
      </trkpt>
      <trkpt lat="48.84225" lon="1.41484">
        <ele>119.900002</ele>
        <time>2017-04-18T12:33:53Z</time>
      </trkpt>
      <trkpt lat="48.84226" lon="1.41462">
        <ele>119.099998</ele>
        <time>2017-04-18T12:33:55Z</time>
      </trkpt>
      <trkpt lat="48.84223" lon="1.41443">
        <ele>118.300003</ele>
        <time>2017-04-18T12:33:57Z</time>
      </trkpt>
      <trkpt lat="48.84219" lon="1.41423">
        <ele>117.699997</ele>
        <time>2017-04-18T12:33:59Z</time>
      </trkpt>
      <trkpt lat="48.84214" lon="1.41405">
        <ele>117</ele>
        <time>2017-04-18T12:34:01Z</time>
      </trkpt>
      <trkpt lat="48.84209" lon="1.41385">
        <ele>116.400002</ele>
        <time>2017-04-18T12:34:03Z</time>
      </trkpt>
      <trkpt lat="48.84203" lon="1.4137">
        <ele>115.900002</ele>
        <time>2017-04-18T12:34:05Z</time>
      </trkpt>
      <trkpt lat="48.84208" lon="1.41355">
        <ele>114.5</ele>
        <time>2017-04-18T12:34:09Z</time>
      </trkpt>
      <trkpt lat="48.84215" lon="1.41346">
        <ele>113.300003</ele>
        <time>2017-04-18T12:34:12Z</time>
      </trkpt>
      <trkpt lat="48.84228" lon="1.41337">
        <ele>111.900002</ele>
        <time>2017-04-18T12:34:15Z</time>
      </trkpt>
      <trkpt lat="48.84242" lon="1.41331">
        <ele>110.599998</ele>
        <time>2017-04-18T12:34:17Z</time>
      </trkpt>
      <trkpt lat="48.84253" lon="1.41321">
        <ele>109.099998</ele>
        <time>2017-04-18T12:34:19Z</time>
      </trkpt>
      <trkpt lat="48.84267" lon="1.41311">
        <ele>107.699997</ele>
        <time>2017-04-18T12:34:21Z</time>
      </trkpt>
      <trkpt lat="48.84277" lon="1.41306">
        <ele>106.900002</ele>
        <time>2017-04-18T12:34:22Z</time>
      </trkpt>
      <trkpt lat="48.84286" lon="1.41301">
        <ele>106.199997</ele>
        <time>2017-04-18T12:34:23Z</time>
      </trkpt>
      <trkpt lat="48.84304" lon="1.41292">
        <ele>104.5</ele>
        <time>2017-04-18T12:34:25Z</time>
      </trkpt>
      <trkpt lat="48.84313" lon="1.41287">
        <ele>103.699997</ele>
        <time>2017-04-18T12:34:26Z</time>
      </trkpt>
      <trkpt lat="48.84323" lon="1.41282">
        <ele>102.800003</ele>
        <time>2017-04-18T12:34:27Z</time>
      </trkpt>
      <trkpt lat="48.84332" lon="1.41279">
        <ele>102</ele>
        <time>2017-04-18T12:34:28Z</time>
      </trkpt>
      <trkpt lat="48.84341" lon="1.41275">
        <ele>101.199997</ele>
        <time>2017-04-18T12:34:29Z</time>
      </trkpt>
      <trkpt lat="48.84351" lon="1.41272">
        <ele>100.5</ele>
        <time>2017-04-18T12:34:30Z</time>
      </trkpt>
      <trkpt lat="48.8436" lon="1.41269">
        <ele>99.699997</ele>
        <time>2017-04-18T12:34:31Z</time>
      </trkpt>
      <trkpt lat="48.84369" lon="1.41267">
        <ele>99</ele>
        <time>2017-04-18T12:34:32Z</time>
      </trkpt>
      <trkpt lat="48.84378" lon="1.41264">
        <ele>98.199997</ele>
        <time>2017-04-18T12:34:33Z</time>
      </trkpt>
      <trkpt lat="48.84387" lon="1.41262">
        <ele>97.400002</ele>
        <time>2017-04-18T12:34:34Z</time>
      </trkpt>
      <trkpt lat="48.84405" lon="1.4126">
        <ele>95.800003</ele>
        <time>2017-04-18T12:34:36Z</time>
      </trkpt>
      <trkpt lat="48.84422" lon="1.41259">
        <ele>94.300003</ele>
        <time>2017-04-18T12:34:38Z</time>
      </trkpt>
      <trkpt lat="48.84438" lon="1.41259">
        <ele>93</ele>
        <time>2017-04-18T12:34:40Z</time>
      </trkpt>
      <trkpt lat="48.84451" lon="1.41259">
        <ele>91.900002</ele>
        <time>2017-04-18T12:34:42Z</time>
      </trkpt>
      <trkpt lat="48.84462" lon="1.41263">
        <ele>90.800003</ele>
        <time>2017-04-18T12:34:44Z</time>
      </trkpt>
      <trkpt lat="48.84466" lon="1.41281">
        <ele>89.5</ele>
        <time>2017-04-18T12:34:47Z</time>
      </trkpt>
      <trkpt lat="48.84467" lon="1.41302">
        <ele>88.300003</ele>
        <time>2017-04-18T12:34:50Z</time>
      </trkpt>
      <trkpt lat="48.84468" lon="1.41316">
        <ele>87.599998</ele>
        <time>2017-04-18T12:34:52Z</time>
      </trkpt>
      <trkpt lat="48.84469" lon="1.41329">
        <ele>86.900002</ele>
        <time>2017-04-18T12:34:54Z</time>
      </trkpt>
      <trkpt lat="48.8447" lon="1.41343">
        <ele>86.5</ele>
        <time>2017-04-18T12:34:56Z</time>
      </trkpt>
      <trkpt lat="48.84472" lon="1.41358">
        <ele>86.099998</ele>
        <time>2017-04-18T12:34:58Z</time>
      </trkpt>
      <trkpt lat="48.84473" lon="1.41372">
        <ele>85.699997</ele>
        <time>2017-04-18T12:35:00Z</time>
      </trkpt>
      <trkpt lat="48.84474" lon="1.41387">
        <ele>85.400002</ele>
        <time>2017-04-18T12:35:02Z</time>
      </trkpt>
      <trkpt lat="48.84475" lon="1.41401">
        <ele>85.099998</ele>
        <time>2017-04-18T12:35:04Z</time>
      </trkpt>
      <trkpt lat="48.84477" lon="1.41416">
        <ele>84.900002</ele>
        <time>2017-04-18T12:35:06Z</time>
      </trkpt>
      <trkpt lat="48.84478" lon="1.41431">
        <ele>84.699997</ele>
        <time>2017-04-18T12:35:08Z</time>
      </trkpt>
      <trkpt lat="48.84479" lon="1.41446">
        <ele>84.5</ele>
        <time>2017-04-18T12:35:10Z</time>
      </trkpt>
      <trkpt lat="48.84481" lon="1.41461">
        <ele>84.400002</ele>
        <time>2017-04-18T12:35:12Z</time>
      </trkpt>
      <trkpt lat="48.84482" lon="1.41478">
        <ele>84.199997</ele>
        <time>2017-04-18T12:35:14Z</time>
      </trkpt>
      <trkpt lat="48.84484" lon="1.41495">
        <ele>84.099998</ele>
        <time>2017-04-18T12:35:16Z</time>
      </trkpt>
      <trkpt lat="48.84485" lon="1.41512">
        <ele>84</ele>
        <time>2017-04-18T12:35:18Z</time>
      </trkpt>
      <trkpt lat="48.84486" lon="1.41529">
        <ele>83.900002</ele>
        <time>2017-04-18T12:35:20Z</time>
      </trkpt>
      <trkpt lat="48.84488" lon="1.41546">
        <ele>83.800003</ele>
        <time>2017-04-18T12:35:22Z</time>
      </trkpt>
      <trkpt lat="48.84489" lon="1.41562">
        <ele>83.699997</ele>
        <time>2017-04-18T12:35:24Z</time>
      </trkpt>
      <trkpt lat="48.8449" lon="1.41578">
        <ele>83.599998</ele>
        <time>2017-04-18T12:35:26Z</time>
      </trkpt>
      <trkpt lat="48.84492" lon="1.41593">
        <ele>83.300003</ele>
        <time>2017-04-18T12:35:28Z</time>
      </trkpt>
      <trkpt lat="48.84493" lon="1.41608">
        <ele>83.300003</ele>
        <time>2017-04-18T12:35:30Z</time>
      </trkpt>
      <trkpt lat="48.84495" lon="1.41623">
        <ele>83.199997</ele>
        <time>2017-04-18T12:35:32Z</time>
      </trkpt>
      <trkpt lat="48.84496" lon="1.41638">
        <ele>83.199997</ele>
        <time>2017-04-18T12:35:34Z</time>
      </trkpt>
      <trkpt lat="48.84497" lon="1.41652">
        <ele>83.300003</ele>
        <time>2017-04-18T12:35:36Z</time>
      </trkpt>
      <trkpt lat="48.84499" lon="1.41667">
        <ele>83.300003</ele>
        <time>2017-04-18T12:35:38Z</time>
      </trkpt>
      <trkpt lat="48.845" lon="1.41683">
        <ele>83.300003</ele>
        <time>2017-04-18T12:35:40Z</time>
      </trkpt>
      <trkpt lat="48.84501" lon="1.41699">
        <ele>83.400002</ele>
        <time>2017-04-18T12:35:42Z</time>
      </trkpt>
      <trkpt lat="48.84503" lon="1.41715">
        <ele>83.400002</ele>
        <time>2017-04-18T12:35:44Z</time>
      </trkpt>
      <trkpt lat="48.84504" lon="1.41729">
        <ele>83.400002</ele>
        <time>2017-04-18T12:35:46Z</time>
      </trkpt>
      <trkpt lat="48.84505" lon="1.41749">
        <ele>83.400002</ele>
        <time>2017-04-18T12:35:49Z</time>
      </trkpt>
      <trkpt lat="48.84507" lon="1.41769">
        <ele>83.400002</ele>
        <time>2017-04-18T12:35:52Z</time>
      </trkpt>
      <trkpt lat="48.84509" lon="1.41785">
        <ele>83.400002</ele>
        <time>2017-04-18T12:35:54Z</time>
      </trkpt>
      <trkpt lat="48.8451" lon="1.41801">
        <ele>83.400002</ele>
        <time>2017-04-18T12:35:56Z</time>
      </trkpt>
      <trkpt lat="48.84512" lon="1.41818">
        <ele>83.400002</ele>
        <time>2017-04-18T12:35:58Z</time>
      </trkpt>
      <trkpt lat="48.84514" lon="1.41835">
        <ele>83.400002</ele>
        <time>2017-04-18T12:36:00Z</time>
      </trkpt>
      <trkpt lat="48.84515" lon="1.41852">
        <ele>83.400002</ele>
        <time>2017-04-18T12:36:02Z</time>
      </trkpt>
      <trkpt lat="48.84516" lon="1.41868">
        <ele>83.400002</ele>
        <time>2017-04-18T12:36:04Z</time>
      </trkpt>
      <trkpt lat="48.84518" lon="1.41884">
        <ele>83.400002</ele>
        <time>2017-04-18T12:36:06Z</time>
      </trkpt>
      <trkpt lat="48.84519" lon="1.419">
        <ele>83.400002</ele>
        <time>2017-04-18T12:36:08Z</time>
      </trkpt>
      <trkpt lat="48.8452" lon="1.41915">
        <ele>83.400002</ele>
        <time>2017-04-18T12:36:10Z</time>
      </trkpt>
      <trkpt lat="48.84522" lon="1.41931">
        <ele>83.400002</ele>
        <time>2017-04-18T12:36:12Z</time>
      </trkpt>
      <trkpt lat="48.84524" lon="1.41947">
        <ele>83.199997</ele>
        <time>2017-04-18T12:36:14Z</time>
      </trkpt>
      <trkpt lat="48.84525" lon="1.41963">
        <ele>83</ele>
        <time>2017-04-18T12:36:16Z</time>
      </trkpt>
      <trkpt lat="48.84527" lon="1.41978">
        <ele>82.900002</ele>
        <time>2017-04-18T12:36:18Z</time>
      </trkpt>
      <trkpt lat="48.84528" lon="1.41993">
        <ele>82.800003</ele>
        <time>2017-04-18T12:36:20Z</time>
      </trkpt>
      <trkpt lat="48.84529" lon="1.42008">
        <ele>82.699997</ele>
        <time>2017-04-18T12:36:22Z</time>
      </trkpt>
      <trkpt lat="48.84531" lon="1.42024">
        <ele>82.599998</ele>
        <time>2017-04-18T12:36:24Z</time>
      </trkpt>
      <trkpt lat="48.84532" lon="1.42039">
        <ele>82.599998</ele>
        <time>2017-04-18T12:36:26Z</time>
      </trkpt>
      <trkpt lat="48.84533" lon="1.42054">
        <ele>82.599998</ele>
        <time>2017-04-18T12:36:28Z</time>
      </trkpt>
      <trkpt lat="48.84535" lon="1.42069">
        <ele>82.599998</ele>
        <time>2017-04-18T12:36:30Z</time>
      </trkpt>
      <trkpt lat="48.84536" lon="1.42084">
        <ele>82.599998</ele>
        <time>2017-04-18T12:36:32Z</time>
      </trkpt>
      <trkpt lat="48.84537" lon="1.42098">
        <ele>82.599998</ele>
        <time>2017-04-18T12:36:34Z</time>
      </trkpt>
      <trkpt lat="48.84538" lon="1.42113">
        <ele>82.699997</ele>
        <time>2017-04-18T12:36:36Z</time>
      </trkpt>
      <trkpt lat="48.84539" lon="1.42127">
        <ele>82.699997</ele>
        <time>2017-04-18T12:36:38Z</time>
      </trkpt>
      <trkpt lat="48.84541" lon="1.42141">
        <ele>82.800003</ele>
        <time>2017-04-18T12:36:40Z</time>
      </trkpt>
      <trkpt lat="48.84543" lon="1.42155">
        <ele>82.900002</ele>
        <time>2017-04-18T12:36:42Z</time>
      </trkpt>
      <trkpt lat="48.84544" lon="1.4217">
        <ele>83</ele>
        <time>2017-04-18T12:36:44Z</time>
      </trkpt>
      <trkpt lat="48.84545" lon="1.42184">
        <ele>83.099998</ele>
        <time>2017-04-18T12:36:46Z</time>
      </trkpt>
      <trkpt lat="48.84547" lon="1.42198">
        <ele>83.199997</ele>
        <time>2017-04-18T12:36:48Z</time>
      </trkpt>
      <trkpt lat="48.84549" lon="1.42212">
        <ele>83.300003</ele>
        <time>2017-04-18T12:36:50Z</time>
      </trkpt>
      <trkpt lat="48.8455" lon="1.42226">
        <ele>83.400002</ele>
        <time>2017-04-18T12:36:52Z</time>
      </trkpt>
      <trkpt lat="48.84552" lon="1.42241">
        <ele>83.5</ele>
        <time>2017-04-18T12:36:54Z</time>
      </trkpt>
      <trkpt lat="48.84553" lon="1.42255">
        <ele>83.5</ele>
        <time>2017-04-18T12:36:56Z</time>
      </trkpt>
      <trkpt lat="48.84555" lon="1.4227">
        <ele>83.599998</ele>
        <time>2017-04-18T12:36:58Z</time>
      </trkpt>
      <trkpt lat="48.84557" lon="1.42285">
        <ele>83.699997</ele>
        <time>2017-04-18T12:37:00Z</time>
      </trkpt>
      <trkpt lat="48.84559" lon="1.423">
        <ele>83.699997</ele>
        <time>2017-04-18T12:37:02Z</time>
      </trkpt>
      <trkpt lat="48.84561" lon="1.42314">
        <ele>83.900002</ele>
        <time>2017-04-18T12:37:04Z</time>
      </trkpt>
      <trkpt lat="48.84562" lon="1.42327">
        <ele>84</ele>
        <time>2017-04-18T12:37:06Z</time>
      </trkpt>
      <trkpt lat="48.84565" lon="1.42348">
        <ele>84.199997</ele>
        <time>2017-04-18T12:37:09Z</time>
      </trkpt>
      <trkpt lat="48.84567" lon="1.42362">
        <ele>84.300003</ele>
        <time>2017-04-18T12:37:11Z</time>
      </trkpt>
      <trkpt lat="48.84569" lon="1.42376">
        <ele>84.400002</ele>
        <time>2017-04-18T12:37:13Z</time>
      </trkpt>
      <trkpt lat="48.8457" lon="1.4239">
        <ele>84.5</ele>
        <time>2017-04-18T12:37:15Z</time>
      </trkpt>
      <trkpt lat="48.84572" lon="1.4241">
        <ele>84.699997</ele>
        <time>2017-04-18T12:37:18Z</time>
      </trkpt>
      <trkpt lat="48.84575" lon="1.4243">
        <ele>84.900002</ele>
        <time>2017-04-18T12:37:21Z</time>
      </trkpt>
      <trkpt lat="48.84577" lon="1.42444">
        <ele>85.099998</ele>
        <time>2017-04-18T12:37:23Z</time>
      </trkpt>
      <trkpt lat="48.84579" lon="1.42458">
        <ele>85.199997</ele>
        <time>2017-04-18T12:37:25Z</time>
      </trkpt>
      <trkpt lat="48.84581" lon="1.42472">
        <ele>85.300003</ele>
        <time>2017-04-18T12:37:27Z</time>
      </trkpt>
      <trkpt lat="48.84583" lon="1.42486">
        <ele>85.400002</ele>
        <time>2017-04-18T12:37:29Z</time>
      </trkpt>
      <trkpt lat="48.84585" lon="1.42499">
        <ele>85.599998</ele>
        <time>2017-04-18T12:37:31Z</time>
      </trkpt>
      <trkpt lat="48.84586" lon="1.42517">
        <ele>85.800003</ele>
        <time>2017-04-18T12:37:34Z</time>
      </trkpt>
      <trkpt lat="48.84576" lon="1.4252">
        <ele>86.400002</ele>
        <time>2017-04-18T12:37:39Z</time>
      </trkpt>
      <trkpt lat="48.84568" lon="1.42513">
        <ele>86.900002</ele>
        <time>2017-04-18T12:37:43Z</time>
      </trkpt>
      <trkpt lat="48.84559" lon="1.42507">
        <ele>87.400002</ele>
        <time>2017-04-18T12:37:47Z</time>
      </trkpt>
      <trkpt lat="48.84549" lon="1.42501">
        <ele>87.900002</ele>
        <time>2017-04-18T12:37:51Z</time>
      </trkpt>
      <trkpt lat="48.84539" lon="1.42495">
        <ele>88.599998</ele>
        <time>2017-04-18T12:37:55Z</time>
      </trkpt>
      <trkpt lat="48.84529" lon="1.42489">
        <ele>89.300003</ele>
        <time>2017-04-18T12:37:59Z</time>
      </trkpt>
      <trkpt lat="48.8452" lon="1.42483">
        <ele>90.199997</ele>
        <time>2017-04-18T12:38:03Z</time>
      </trkpt>
      <trkpt lat="48.8451" lon="1.42476">
        <ele>91.199997</ele>
        <time>2017-04-18T12:38:07Z</time>
      </trkpt>
      <trkpt lat="48.84501" lon="1.42467">
        <ele>92.099998</ele>
        <time>2017-04-18T12:38:11Z</time>
      </trkpt>
      <trkpt lat="48.84494" lon="1.42457">
        <ele>93.099998</ele>
        <time>2017-04-18T12:38:15Z</time>
      </trkpt>
      <trkpt lat="48.84486" lon="1.42446">
        <ele>94.099998</ele>
        <time>2017-04-18T12:38:19Z</time>
      </trkpt>
      <trkpt lat="48.84479" lon="1.42436">
        <ele>95.099998</ele>
        <time>2017-04-18T12:38:23Z</time>
      </trkpt>
      <trkpt lat="48.84472" lon="1.42427">
        <ele>96.199997</ele>
        <time>2017-04-18T12:38:27Z</time>
      </trkpt>
      <trkpt lat="48.84465" lon="1.42418">
        <ele>97.199997</ele>
        <time>2017-04-18T12:38:31Z</time>
      </trkpt>
      <trkpt lat="48.8446" lon="1.42407">
        <ele>98.699997</ele>
        <time>2017-04-18T12:38:37Z</time>
      </trkpt>
      <trkpt lat="48.84453" lon="1.42393">
        <ele>100</ele>
        <time>2017-04-18T12:38:42Z</time>
      </trkpt>
      <trkpt lat="48.84446" lon="1.4238">
        <ele>101.400002</ele>
        <time>2017-04-18T12:38:47Z</time>
      </trkpt>
      <trkpt lat="48.84439" lon="1.42368">
        <ele>102.599998</ele>
        <time>2017-04-18T12:38:51Z</time>
      </trkpt>
      <trkpt lat="48.84433" lon="1.42356">
        <ele>103.699997</ele>
        <time>2017-04-18T12:38:55Z</time>
      </trkpt>
      <trkpt lat="48.84429" lon="1.42344">
        <ele>104.599998</ele>
        <time>2017-04-18T12:38:59Z</time>
      </trkpt>
      <trkpt lat="48.84424" lon="1.42328">
        <ele>105.800003</ele>
        <time>2017-04-18T12:39:04Z</time>
      </trkpt>
      <trkpt lat="48.8442" lon="1.42315">
        <ele>106.900002</ele>
        <time>2017-04-18T12:39:08Z</time>
      </trkpt>
      <trkpt lat="48.84413" lon="1.42302">
        <ele>108.199997</ele>
        <time>2017-04-18T12:39:13Z</time>
      </trkpt>
      <trkpt lat="48.84407" lon="1.42291">
        <ele>109.300003</ele>
        <time>2017-04-18T12:39:17Z</time>
      </trkpt>
      <trkpt lat="48.84401" lon="1.42279">
        <ele>110.400002</ele>
        <time>2017-04-18T12:39:21Z</time>
      </trkpt>
      <trkpt lat="48.84395" lon="1.42267">
        <ele>111.400002</ele>
        <time>2017-04-18T12:39:25Z</time>
      </trkpt>
      <trkpt lat="48.84385" lon="1.42256">
        <ele>112.699997</ele>
        <time>2017-04-18T12:39:30Z</time>
      </trkpt>
      <trkpt lat="48.84375" lon="1.42249">
        <ele>113.599998</ele>
        <time>2017-04-18T12:39:34Z</time>
      </trkpt>
      <trkpt lat="48.84366" lon="1.42243">
        <ele>114.699997</ele>
        <time>2017-04-18T12:39:38Z</time>
      </trkpt>
      <trkpt lat="48.84357" lon="1.42238">
        <ele>115.599998</ele>
        <time>2017-04-18T12:39:42Z</time>
      </trkpt>
      <trkpt lat="48.84348" lon="1.42234">
        <ele>116.800003</ele>
        <time>2017-04-18T12:39:46Z</time>
      </trkpt>
      <trkpt lat="48.84339" lon="1.4223">
        <ele>117.800003</ele>
        <time>2017-04-18T12:39:50Z</time>
      </trkpt>
      <trkpt lat="48.84329" lon="1.42227">
        <ele>118.900002</ele>
        <time>2017-04-18T12:39:54Z</time>
      </trkpt>
      <trkpt lat="48.84319" lon="1.42221">
        <ele>119.900002</ele>
        <time>2017-04-18T12:39:58Z</time>
      </trkpt>
      <trkpt lat="48.8431" lon="1.42214">
        <ele>120.900002</ele>
        <time>2017-04-18T12:40:02Z</time>
      </trkpt>
      <trkpt lat="48.84301" lon="1.42206">
        <ele>121.900002</ele>
        <time>2017-04-18T12:40:06Z</time>
      </trkpt>
      <trkpt lat="48.84291" lon="1.42197">
        <ele>122.800003</ele>
        <time>2017-04-18T12:40:10Z</time>
      </trkpt>
      <trkpt lat="48.84281" lon="1.42191">
        <ele>123.699997</ele>
        <time>2017-04-18T12:40:14Z</time>
      </trkpt>
      <trkpt lat="48.84271" lon="1.42185">
        <ele>124.800003</ele>
        <time>2017-04-18T12:40:18Z</time>
      </trkpt>
      <trkpt lat="48.8426" lon="1.42179">
        <ele>125.800003</ele>
        <time>2017-04-18T12:40:22Z</time>
      </trkpt>
      <trkpt lat="48.8425" lon="1.42171">
        <ele>126.699997</ele>
        <time>2017-04-18T12:40:26Z</time>
      </trkpt>
      <trkpt lat="48.84239" lon="1.42163">
        <ele>127.699997</ele>
        <time>2017-04-18T12:40:30Z</time>
      </trkpt>
      <trkpt lat="48.84229" lon="1.42155">
        <ele>128.5</ele>
        <time>2017-04-18T12:40:34Z</time>
      </trkpt>
      <trkpt lat="48.84219" lon="1.42146">
        <ele>129.300003</ele>
        <time>2017-04-18T12:40:38Z</time>
      </trkpt>
      <trkpt lat="48.84211" lon="1.4214">
        <ele>129.899994</ele>
        <time>2017-04-18T12:40:41Z</time>
      </trkpt>
      <trkpt lat="48.84202" lon="1.42134">
        <ele>130.600006</ele>
        <time>2017-04-18T12:40:44Z</time>
      </trkpt>
      <trkpt lat="48.84192" lon="1.42125">
        <ele>131.399994</ele>
        <time>2017-04-18T12:40:48Z</time>
      </trkpt>
      <trkpt lat="48.84185" lon="1.42118">
        <ele>131.899994</ele>
        <time>2017-04-18T12:40:51Z</time>
      </trkpt>
      <trkpt lat="48.84177" lon="1.42109">
        <ele>132.699997</ele>
        <time>2017-04-18T12:40:55Z</time>
      </trkpt>
      <trkpt lat="48.84171" lon="1.42098">
        <ele>133.399994</ele>
        <time>2017-04-18T12:40:59Z</time>
      </trkpt>
      <trkpt lat="48.84163" lon="1.42091">
        <ele>133.899994</ele>
        <time>2017-04-18T12:41:02Z</time>
      </trkpt>
      <trkpt lat="48.84153" lon="1.4209">
        <ele>134.300003</ele>
        <time>2017-04-18T12:41:05Z</time>
      </trkpt>
      <trkpt lat="48.84142" lon="1.42099">
        <ele>134.800003</ele>
        <time>2017-04-18T12:41:08Z</time>
      </trkpt>
      <trkpt lat="48.8413" lon="1.42103">
        <ele>135.100006</ele>
        <time>2017-04-18T12:41:10Z</time>
      </trkpt>
      <trkpt lat="48.8412" lon="1.42109">
        <ele>135.300003</ele>
        <time>2017-04-18T12:41:12Z</time>
      </trkpt>
      <trkpt lat="48.8411" lon="1.42115">
        <ele>135.5</ele>
        <time>2017-04-18T12:41:14Z</time>
      </trkpt>
      <trkpt lat="48.84102" lon="1.42121">
        <ele>135.699997</ele>
        <time>2017-04-18T12:41:16Z</time>
      </trkpt>
      <trkpt lat="48.84093" lon="1.42128">
        <ele>135.899994</ele>
        <time>2017-04-18T12:41:18Z</time>
      </trkpt>
      <trkpt lat="48.84085" lon="1.42136">
        <ele>136.100006</ele>
        <time>2017-04-18T12:41:20Z</time>
      </trkpt>
      <trkpt lat="48.84077" lon="1.42144">
        <ele>136.300003</ele>
        <time>2017-04-18T12:41:22Z</time>
      </trkpt>
      <trkpt lat="48.84068" lon="1.42153">
        <ele>136.399994</ele>
        <time>2017-04-18T12:41:24Z</time>
      </trkpt>
      <trkpt lat="48.84057" lon="1.42163">
        <ele>136.600006</ele>
        <time>2017-04-18T12:41:27Z</time>
      </trkpt>
      <trkpt lat="48.84046" lon="1.42172">
        <ele>136.800003</ele>
        <time>2017-04-18T12:41:30Z</time>
      </trkpt>
      <trkpt lat="48.84041" lon="1.42186">
        <ele>137</ele>
        <time>2017-04-18T12:41:33Z</time>
      </trkpt>
      <trkpt lat="48.84042" lon="1.42206">
        <ele>137.100006</ele>
        <time>2017-04-18T12:41:36Z</time>
      </trkpt>
      <trkpt lat="48.84041" lon="1.4222">
        <ele>137.199997</ele>
        <time>2017-04-18T12:41:38Z</time>
      </trkpt>
      <trkpt lat="48.8404" lon="1.42234">
        <ele>137.300003</ele>
        <time>2017-04-18T12:41:40Z</time>
      </trkpt>
      <trkpt lat="48.84038" lon="1.42249">
        <ele>137.300003</ele>
        <time>2017-04-18T12:41:42Z</time>
      </trkpt>
      <trkpt lat="48.84036" lon="1.42265">
        <ele>137.399994</ele>
        <time>2017-04-18T12:41:44Z</time>
      </trkpt>
      <trkpt lat="48.84035" lon="1.42281">
        <ele>137.5</ele>
        <time>2017-04-18T12:41:46Z</time>
      </trkpt>
      <trkpt lat="48.84033" lon="1.42297">
        <ele>137.5</ele>
        <time>2017-04-18T12:41:48Z</time>
      </trkpt>
      <trkpt lat="48.84032" lon="1.42314">
        <ele>137.600006</ele>
        <time>2017-04-18T12:41:50Z</time>
      </trkpt>
      <trkpt lat="48.8403" lon="1.42331">
        <ele>137.699997</ele>
        <time>2017-04-18T12:41:52Z</time>
      </trkpt>
      <trkpt lat="48.8403" lon="1.42346">
        <ele>137.699997</ele>
        <time>2017-04-18T12:41:54Z</time>
      </trkpt>
      <trkpt lat="48.84029" lon="1.4236">
        <ele>137.800003</ele>
        <time>2017-04-18T12:41:56Z</time>
      </trkpt>
      <trkpt lat="48.84029" lon="1.42379">
        <ele>137.800003</ele>
        <time>2017-04-18T12:41:59Z</time>
      </trkpt>
      <trkpt lat="48.84028" lon="1.42394">
        <ele>137.800003</ele>
        <time>2017-04-18T12:42:01Z</time>
      </trkpt>
      <trkpt lat="48.84028" lon="1.42411">
        <ele>138</ele>
        <time>2017-04-18T12:42:03Z</time>
      </trkpt>
      <trkpt lat="48.84027" lon="1.42429">
        <ele>138.100006</ele>
        <time>2017-04-18T12:42:05Z</time>
      </trkpt>
      <trkpt lat="48.84027" lon="1.42446">
        <ele>138.199997</ele>
        <time>2017-04-18T12:42:07Z</time>
      </trkpt>
      <trkpt lat="48.84028" lon="1.42463">
        <ele>138.300003</ele>
        <time>2017-04-18T12:42:09Z</time>
      </trkpt>
      <trkpt lat="48.84031" lon="1.4248">
        <ele>138.399994</ele>
        <time>2017-04-18T12:42:11Z</time>
      </trkpt>
      <trkpt lat="48.84036" lon="1.42496">
        <ele>138.399994</ele>
        <time>2017-04-18T12:42:13Z</time>
      </trkpt>
      <trkpt lat="48.84043" lon="1.42511">
        <ele>138.5</ele>
        <time>2017-04-18T12:42:15Z</time>
      </trkpt>
      <trkpt lat="48.84049" lon="1.42527">
        <ele>138.5</ele>
        <time>2017-04-18T12:42:17Z</time>
      </trkpt>
      <trkpt lat="48.84056" lon="1.42543">
        <ele>138.5</ele>
        <time>2017-04-18T12:42:19Z</time>
      </trkpt>
      <trkpt lat="48.84063" lon="1.42558">
        <ele>138.5</ele>
        <time>2017-04-18T12:42:21Z</time>
      </trkpt>
      <trkpt lat="48.84069" lon="1.42573">
        <ele>138.5</ele>
        <time>2017-04-18T12:42:23Z</time>
      </trkpt>
      <trkpt lat="48.84077" lon="1.42587">
        <ele>138.5</ele>
        <time>2017-04-18T12:42:25Z</time>
      </trkpt>
      <trkpt lat="48.84084" lon="1.42601">
        <ele>138.5</ele>
        <time>2017-04-18T12:42:27Z</time>
      </trkpt>
      <trkpt lat="48.84091" lon="1.42615">
        <ele>138.600006</ele>
        <time>2017-04-18T12:42:29Z</time>
      </trkpt>
      <trkpt lat="48.84099" lon="1.4263">
        <ele>138.600006</ele>
        <time>2017-04-18T12:42:31Z</time>
      </trkpt>
      <trkpt lat="48.84106" lon="1.42644">
        <ele>138.699997</ele>
        <time>2017-04-18T12:42:33Z</time>
      </trkpt>
      <trkpt lat="48.84113" lon="1.42658">
        <ele>138.699997</ele>
        <time>2017-04-18T12:42:35Z</time>
      </trkpt>
      <trkpt lat="48.84121" lon="1.42672">
        <ele>138.699997</ele>
        <time>2017-04-18T12:42:37Z</time>
      </trkpt>
      <trkpt lat="48.84129" lon="1.42685">
        <ele>138.699997</ele>
        <time>2017-04-18T12:42:39Z</time>
      </trkpt>
      <trkpt lat="48.84138" lon="1.42698">
        <ele>138.800003</ele>
        <time>2017-04-18T12:42:41Z</time>
      </trkpt>
      <trkpt lat="48.84146" lon="1.4271">
        <ele>138.800003</ele>
        <time>2017-04-18T12:42:43Z</time>
      </trkpt>
      <trkpt lat="48.84155" lon="1.42721">
        <ele>138.800003</ele>
        <time>2017-04-18T12:42:45Z</time>
      </trkpt>
      <trkpt lat="48.84164" lon="1.42734">
        <ele>138.800003</ele>
        <time>2017-04-18T12:42:47Z</time>
      </trkpt>
      <trkpt lat="48.84171" lon="1.42747">
        <ele>138.800003</ele>
        <time>2017-04-18T12:42:49Z</time>
      </trkpt>
      <trkpt lat="48.84178" lon="1.42761">
        <ele>138.800003</ele>
        <time>2017-04-18T12:42:51Z</time>
      </trkpt>
      <trkpt lat="48.84185" lon="1.42776">
        <ele>138.699997</ele>
        <time>2017-04-18T12:42:53Z</time>
      </trkpt>
      <trkpt lat="48.84189" lon="1.42792">
        <ele>138.699997</ele>
        <time>2017-04-18T12:42:55Z</time>
      </trkpt>
      <trkpt lat="48.84189" lon="1.4281">
        <ele>138.600006</ele>
        <time>2017-04-18T12:42:57Z</time>
      </trkpt>
      <trkpt lat="48.84191" lon="1.42825">
        <ele>138.5</ele>
        <time>2017-04-18T12:42:59Z</time>
      </trkpt>
      <trkpt lat="48.84195" lon="1.42837">
        <ele>138.5</ele>
        <time>2017-04-18T12:43:01Z</time>
      </trkpt>
      <trkpt lat="48.84202" lon="1.42848">
        <ele>138.5</ele>
        <time>2017-04-18T12:43:03Z</time>
      </trkpt>
      <trkpt lat="48.84209" lon="1.4286">
        <ele>138.5</ele>
        <time>2017-04-18T12:43:05Z</time>
      </trkpt>
      <trkpt lat="48.84215" lon="1.42872">
        <ele>138.5</ele>
        <time>2017-04-18T12:43:07Z</time>
      </trkpt>
      <trkpt lat="48.84221" lon="1.42884">
        <ele>138.600006</ele>
        <time>2017-04-18T12:43:09Z</time>
      </trkpt>
      <trkpt lat="48.84227" lon="1.42897">
        <ele>138.5</ele>
        <time>2017-04-18T12:43:11Z</time>
      </trkpt>
      <trkpt lat="48.84232" lon="1.42909">
        <ele>138.399994</ele>
        <time>2017-04-18T12:43:13Z</time>
      </trkpt>
      <trkpt lat="48.84239" lon="1.42925">
        <ele>138.199997</ele>
        <time>2017-04-18T12:43:16Z</time>
      </trkpt>
      <trkpt lat="48.84245" lon="1.42937">
        <ele>138</ele>
        <time>2017-04-18T12:43:18Z</time>
      </trkpt>
      <trkpt lat="48.84253" lon="1.42954">
        <ele>138</ele>
        <time>2017-04-18T12:43:21Z</time>
      </trkpt>
      <trkpt lat="48.84262" lon="1.4297">
        <ele>137.800003</ele>
        <time>2017-04-18T12:43:24Z</time>
      </trkpt>
      <trkpt lat="48.84269" lon="1.42982">
        <ele>137.600006</ele>
        <time>2017-04-18T12:43:26Z</time>
      </trkpt>
      <trkpt lat="48.84278" lon="1.42995">
        <ele>137.5</ele>
        <time>2017-04-18T12:43:28Z</time>
      </trkpt>
      <trkpt lat="48.84287" lon="1.43007">
        <ele>137.199997</ele>
        <time>2017-04-18T12:43:30Z</time>
      </trkpt>
      <trkpt lat="48.84301" lon="1.43018">
        <ele>137</ele>
        <time>2017-04-18T12:43:32Z</time>
      </trkpt>
      <trkpt lat="48.84312" lon="1.43024">
        <ele>136.899994</ele>
        <time>2017-04-18T12:43:33Z</time>
      </trkpt>
      <trkpt lat="48.84324" lon="1.43035">
        <ele>136.699997</ele>
        <time>2017-04-18T12:43:35Z</time>
      </trkpt>
      <trkpt lat="48.84337" lon="1.43046">
        <ele>136.300003</ele>
        <time>2017-04-18T12:43:37Z</time>
      </trkpt>
      <trkpt lat="48.84352" lon="1.43058">
        <ele>135.899994</ele>
        <time>2017-04-18T12:43:39Z</time>
      </trkpt>
      <trkpt lat="48.84363" lon="1.43071">
        <ele>135.5</ele>
        <time>2017-04-18T12:43:41Z</time>
      </trkpt>
      <trkpt lat="48.84375" lon="1.43084">
        <ele>135</ele>
        <time>2017-04-18T12:43:43Z</time>
      </trkpt>
      <trkpt lat="48.84385" lon="1.43094">
        <ele>134.5</ele>
        <time>2017-04-18T12:43:45Z</time>
      </trkpt>
      <trkpt lat="48.84393" lon="1.43104">
        <ele>134.100006</ele>
        <time>2017-04-18T12:43:47Z</time>
      </trkpt>
      <trkpt lat="48.84402" lon="1.43116">
        <ele>133.699997</ele>
        <time>2017-04-18T12:43:49Z</time>
      </trkpt>
      <trkpt lat="48.8441" lon="1.4313">
        <ele>133.100006</ele>
        <time>2017-04-18T12:43:51Z</time>
      </trkpt>
      <trkpt lat="48.84419" lon="1.43145">
        <ele>132.600006</ele>
        <time>2017-04-18T12:43:53Z</time>
      </trkpt>
      <trkpt lat="48.84428" lon="1.4316">
        <ele>132.100006</ele>
        <time>2017-04-18T12:43:55Z</time>
      </trkpt>
      <trkpt lat="48.84436" lon="1.43174">
        <ele>131.5</ele>
        <time>2017-04-18T12:43:57Z</time>
      </trkpt>
      <trkpt lat="48.84447" lon="1.43189">
        <ele>131</ele>
        <time>2017-04-18T12:43:59Z</time>
      </trkpt>
      <trkpt lat="48.84455" lon="1.43205">
        <ele>130.5</ele>
        <time>2017-04-18T12:44:01Z</time>
      </trkpt>
      <trkpt lat="48.84464" lon="1.43218">
        <ele>130</ele>
        <time>2017-04-18T12:44:03Z</time>
      </trkpt>
      <trkpt lat="48.84469" lon="1.43234">
        <ele>129.199997</ele>
        <time>2017-04-18T12:44:06Z</time>
      </trkpt>
      <trkpt lat="48.8448" lon="1.43246">
        <ele>128.399994</ele>
        <time>2017-04-18T12:44:09Z</time>
      </trkpt>
      <trkpt lat="48.84491" lon="1.43252">
        <ele>127.800003</ele>
        <time>2017-04-18T12:44:11Z</time>
      </trkpt>
      <trkpt lat="48.84501" lon="1.43258">
        <ele>127.099998</ele>
        <time>2017-04-18T12:44:13Z</time>
      </trkpt>
      <trkpt lat="48.84504" lon="1.43273">
        <ele>125.800003</ele>
        <time>2017-04-18T12:44:17Z</time>
      </trkpt>
      <trkpt lat="48.84502" lon="1.43287">
        <ele>123</ele>
        <time>2017-04-18T12:44:37Z</time>
      </trkpt>
      <trkpt lat="48.84497" lon="1.43299">
        <ele>123.400002</ele>
        <time>2017-04-18T12:44:42Z</time>
      </trkpt>
      <trkpt lat="48.84488" lon="1.43309">
        <ele>124</ele>
        <time>2017-04-18T12:44:46Z</time>
      </trkpt>
      <trkpt lat="48.8448" lon="1.43323">
        <ele>124.699997</ele>
        <time>2017-04-18T12:44:50Z</time>
      </trkpt>
      <trkpt lat="48.84474" lon="1.43334">
        <ele>125.199997</ele>
        <time>2017-04-18T12:44:53Z</time>
      </trkpt>
      <trkpt lat="48.84467" lon="1.43344">
        <ele>125.800003</ele>
        <time>2017-04-18T12:44:56Z</time>
      </trkpt>
      <trkpt lat="48.84462" lon="1.43357">
        <ele>126.599998</ele>
        <time>2017-04-18T12:45:00Z</time>
      </trkpt>
      <trkpt lat="48.84453" lon="1.43369">
        <ele>127.300003</ele>
        <time>2017-04-18T12:45:04Z</time>
      </trkpt>
      <trkpt lat="48.84446" lon="1.43381">
        <ele>128.100006</ele>
        <time>2017-04-18T12:45:08Z</time>
      </trkpt>
      <trkpt lat="48.84438" lon="1.43393">
        <ele>128.899994</ele>
        <time>2017-04-18T12:45:12Z</time>
      </trkpt>
      <trkpt lat="48.84431" lon="1.43404">
        <ele>129.699997</ele>
        <time>2017-04-18T12:45:16Z</time>
      </trkpt>
      <trkpt lat="48.84422" lon="1.43415">
        <ele>130.5</ele>
        <time>2017-04-18T12:45:20Z</time>
      </trkpt>
      <trkpt lat="48.84415" lon="1.43425">
        <ele>131.100006</ele>
        <time>2017-04-18T12:45:23Z</time>
      </trkpt>
      <trkpt lat="48.84408" lon="1.43435">
        <ele>131.699997</ele>
        <time>2017-04-18T12:45:26Z</time>
      </trkpt>
      <trkpt lat="48.844" lon="1.43443">
        <ele>132.199997</ele>
        <time>2017-04-18T12:45:29Z</time>
      </trkpt>
      <trkpt lat="48.84392" lon="1.43457">
        <ele>132.899994</ele>
        <time>2017-04-18T12:45:33Z</time>
      </trkpt>
      <trkpt lat="48.84384" lon="1.43471">
        <ele>133.399994</ele>
        <time>2017-04-18T12:45:36Z</time>
      </trkpt>
      <trkpt lat="48.84376" lon="1.43485">
        <ele>133.800003</ele>
        <time>2017-04-18T12:45:39Z</time>
      </trkpt>
      <trkpt lat="48.84367" lon="1.43499">
        <ele>134.100006</ele>
        <time>2017-04-18T12:45:42Z</time>
      </trkpt>
      <trkpt lat="48.84358" lon="1.43515">
        <ele>134</ele>
        <time>2017-04-18T12:45:45Z</time>
      </trkpt>
      <trkpt lat="48.84354" lon="1.43531">
        <ele>134.699997</ele>
        <time>2017-04-18T12:45:48Z</time>
      </trkpt>
      <trkpt lat="48.84357" lon="1.43547">
        <ele>134.899994</ele>
        <time>2017-04-18T12:45:51Z</time>
      </trkpt>
      <trkpt lat="48.84359" lon="1.43562">
        <ele>135.100006</ele>
        <time>2017-04-18T12:45:53Z</time>
      </trkpt>
      <trkpt lat="48.84362" lon="1.4358">
        <ele>135.300003</ele>
        <time>2017-04-18T12:45:56Z</time>
      </trkpt>
      <trkpt lat="48.84362" lon="1.43594">
        <ele>135.399994</ele>
        <time>2017-04-18T12:45:58Z</time>
      </trkpt>
      <trkpt lat="48.84363" lon="1.43609">
        <ele>135.399994</ele>
        <time>2017-04-18T12:46:00Z</time>
      </trkpt>
      <trkpt lat="48.84369" lon="1.43626">
        <ele>135.600006</ele>
        <time>2017-04-18T12:46:03Z</time>
      </trkpt>
      <trkpt lat="48.8437" lon="1.43647">
        <ele>135.699997</ele>
        <time>2017-04-18T12:46:06Z</time>
      </trkpt>
      <trkpt lat="48.84373" lon="1.43661">
        <ele>135.699997</ele>
        <time>2017-04-18T12:46:08Z</time>
      </trkpt>
      <trkpt lat="48.84377" lon="1.43674">
        <ele>135.800003</ele>
        <time>2017-04-18T12:46:10Z</time>
      </trkpt>
      <trkpt lat="48.84378" lon="1.43695">
        <ele>135.800003</ele>
        <time>2017-04-18T12:46:13Z</time>
      </trkpt>
      <trkpt lat="48.84384" lon="1.4371">
        <ele>135.899994</ele>
        <time>2017-04-18T12:46:15Z</time>
      </trkpt>
      <trkpt lat="48.84386" lon="1.43724">
        <ele>135.899994</ele>
        <time>2017-04-18T12:46:17Z</time>
      </trkpt>
      <trkpt lat="48.84389" lon="1.43739">
        <ele>136</ele>
        <time>2017-04-18T12:46:19Z</time>
      </trkpt>
      <trkpt lat="48.84394" lon="1.43757">
        <ele>136.100006</ele>
        <time>2017-04-18T12:46:21Z</time>
      </trkpt>
      <trkpt lat="48.84402" lon="1.43773">
        <ele>136.199997</ele>
        <time>2017-04-18T12:46:23Z</time>
      </trkpt>
      <trkpt lat="48.8441" lon="1.43784">
        <ele>136.300003</ele>
        <time>2017-04-18T12:46:25Z</time>
      </trkpt>
      <trkpt lat="48.8442" lon="1.43787">
        <ele>136.399994</ele>
        <time>2017-04-18T12:46:27Z</time>
      </trkpt>
      <trkpt lat="48.84431" lon="1.43788">
        <ele>136.399994</ele>
        <time>2017-04-18T12:46:29Z</time>
      </trkpt>
      <trkpt lat="48.84441" lon="1.43789">
        <ele>136.5</ele>
        <time>2017-04-18T12:46:31Z</time>
      </trkpt>
      <trkpt lat="48.84451" lon="1.4379">
        <ele>136.5</ele>
        <time>2017-04-18T12:46:33Z</time>
      </trkpt>
      <trkpt lat="48.84461" lon="1.43791">
        <ele>136.5</ele>
        <time>2017-04-18T12:46:35Z</time>
      </trkpt>
      <trkpt lat="48.84472" lon="1.43793">
        <ele>136.5</ele>
        <time>2017-04-18T12:46:37Z</time>
      </trkpt>
      <trkpt lat="48.84485" lon="1.43794">
        <ele>136.399994</ele>
        <time>2017-04-18T12:46:39Z</time>
      </trkpt>
      <trkpt lat="48.84497" lon="1.43793">
        <ele>136.300003</ele>
        <time>2017-04-18T12:46:41Z</time>
      </trkpt>
      <trkpt lat="48.84506" lon="1.43795">
        <ele>136.199997</ele>
        <time>2017-04-18T12:46:43Z</time>
      </trkpt>
      <trkpt lat="48.84518" lon="1.43801">
        <ele>136.100006</ele>
        <time>2017-04-18T12:46:45Z</time>
      </trkpt>
      <trkpt lat="48.84531" lon="1.43808">
        <ele>136</ele>
        <time>2017-04-18T12:46:47Z</time>
      </trkpt>
      <trkpt lat="48.84543" lon="1.43815">
        <ele>135.800003</ele>
        <time>2017-04-18T12:46:49Z</time>
      </trkpt>
      <trkpt lat="48.84554" lon="1.43821">
        <ele>135.5</ele>
        <time>2017-04-18T12:46:51Z</time>
      </trkpt>
      <trkpt lat="48.84566" lon="1.43825">
        <ele>135.199997</ele>
        <time>2017-04-18T12:46:53Z</time>
      </trkpt>
      <trkpt lat="48.84576" lon="1.43827">
        <ele>134.899994</ele>
        <time>2017-04-18T12:46:55Z</time>
      </trkpt>
      <trkpt lat="48.84587" lon="1.43831">
        <ele>134.5</ele>
        <time>2017-04-18T12:46:57Z</time>
      </trkpt>
      <trkpt lat="48.84596" lon="1.43835">
        <ele>134.100006</ele>
        <time>2017-04-18T12:46:59Z</time>
      </trkpt>
      <trkpt lat="48.84604" lon="1.43844">
        <ele>133.5</ele>
        <time>2017-04-18T12:47:02Z</time>
      </trkpt>
      <trkpt lat="48.84611" lon="1.43858">
        <ele>133</ele>
        <time>2017-04-18T12:47:05Z</time>
      </trkpt>
      <trkpt lat="48.84615" lon="1.43876">
        <ele>132.600006</ele>
        <time>2017-04-18T12:47:08Z</time>
      </trkpt>
      <trkpt lat="48.84616" lon="1.4389">
        <ele>132.300003</ele>
        <time>2017-04-18T12:47:10Z</time>
      </trkpt>
      <trkpt lat="48.84618" lon="1.43905">
        <ele>132.100006</ele>
        <time>2017-04-18T12:47:12Z</time>
      </trkpt>
      <trkpt lat="48.84619" lon="1.43922">
        <ele>131.899994</ele>
        <time>2017-04-18T12:47:14Z</time>
      </trkpt>
      <trkpt lat="48.8462" lon="1.43938">
        <ele>131.699997</ele>
        <time>2017-04-18T12:47:16Z</time>
      </trkpt>
      <trkpt lat="48.84622" lon="1.43954">
        <ele>131.600006</ele>
        <time>2017-04-18T12:47:18Z</time>
      </trkpt>
      <trkpt lat="48.84625" lon="1.4397">
        <ele>131.5</ele>
        <time>2017-04-18T12:47:20Z</time>
      </trkpt>
      <trkpt lat="48.84629" lon="1.43985">
        <ele>131.399994</ele>
        <time>2017-04-18T12:47:22Z</time>
      </trkpt>
      <trkpt lat="48.84633" lon="1.44001">
        <ele>131.300003</ele>
        <time>2017-04-18T12:47:24Z</time>
      </trkpt>
      <trkpt lat="48.84638" lon="1.44015">
        <ele>131.300003</ele>
        <time>2017-04-18T12:47:26Z</time>
      </trkpt>
      <trkpt lat="48.84644" lon="1.44028">
        <ele>131.199997</ele>
        <time>2017-04-18T12:47:28Z</time>
      </trkpt>
      <trkpt lat="48.8465" lon="1.44042">
        <ele>131.100006</ele>
        <time>2017-04-18T12:47:31Z</time>
      </trkpt>
      <trkpt lat="48.84642" lon="1.44053">
        <ele>131.199997</ele>
        <time>2017-04-18T12:47:37Z</time>
      </trkpt>
      <trkpt lat="48.84631" lon="1.4406">
        <ele>131.399994</ele>
        <time>2017-04-18T12:47:41Z</time>
      </trkpt>
      <trkpt lat="48.8462" lon="1.44064">
        <ele>131.899994</ele>
        <time>2017-04-18T12:47:45Z</time>
      </trkpt>
      <trkpt lat="48.84612" lon="1.44071">
        <ele>132.399994</ele>
        <time>2017-04-18T12:47:49Z</time>
      </trkpt>
      <trkpt lat="48.84601" lon="1.44076">
        <ele>132.800003</ele>
        <time>2017-04-18T12:47:52Z</time>
      </trkpt>
      <trkpt lat="48.84589" lon="1.44082">
        <ele>133.300003</ele>
        <time>2017-04-18T12:47:55Z</time>
      </trkpt>
      <trkpt lat="48.84577" lon="1.44088">
        <ele>133.699997</ele>
        <time>2017-04-18T12:47:58Z</time>
      </trkpt>
      <trkpt lat="48.84566" lon="1.4409">
        <ele>133.899994</ele>
        <time>2017-04-18T12:48:00Z</time>
      </trkpt>
      <trkpt lat="48.84556" lon="1.44092">
        <ele>134.199997</ele>
        <time>2017-04-18T12:48:02Z</time>
      </trkpt>
      <trkpt lat="48.84543" lon="1.44097">
        <ele>134.5</ele>
        <time>2017-04-18T12:48:05Z</time>
      </trkpt>
      <trkpt lat="48.84533" lon="1.44102">
        <ele>134.600006</ele>
        <time>2017-04-18T12:48:07Z</time>
      </trkpt>
      <trkpt lat="48.84523" lon="1.44106">
        <ele>134.800003</ele>
        <time>2017-04-18T12:48:09Z</time>
      </trkpt>
      <trkpt lat="48.84512" lon="1.44112">
        <ele>135</ele>
        <time>2017-04-18T12:48:12Z</time>
      </trkpt>
      <trkpt lat="48.84503" lon="1.44116">
        <ele>135.199997</ele>
        <time>2017-04-18T12:48:14Z</time>
      </trkpt>
      <trkpt lat="48.84492" lon="1.4412">
        <ele>135.300003</ele>
        <time>2017-04-18T12:48:16Z</time>
      </trkpt>
      <trkpt lat="48.84475" lon="1.44125">
        <ele>135</ele>
        <time>2017-04-18T12:48:19Z</time>
      </trkpt>
      <trkpt lat="48.84461" lon="1.4413">
        <ele>135.600006</ele>
        <time>2017-04-18T12:48:22Z</time>
      </trkpt>
      <trkpt lat="48.84449" lon="1.44135">
        <ele>135.699997</ele>
        <time>2017-04-18T12:48:24Z</time>
      </trkpt>
      <trkpt lat="48.84436" lon="1.44139">
        <ele>135.699997</ele>
        <time>2017-04-18T12:48:27Z</time>
      </trkpt>
      <trkpt lat="48.84422" lon="1.44146">
        <ele>135.699997</ele>
        <time>2017-04-18T12:48:30Z</time>
      </trkpt>
      <trkpt lat="48.84408" lon="1.4415">
        <ele>135.600006</ele>
        <time>2017-04-18T12:48:32Z</time>
      </trkpt>
      <trkpt lat="48.84398" lon="1.44154">
        <ele>135.600006</ele>
        <time>2017-04-18T12:48:34Z</time>
      </trkpt>
      <trkpt lat="48.84384" lon="1.44158">
        <ele>135.300003</ele>
        <time>2017-04-18T12:48:36Z</time>
      </trkpt>
      <trkpt lat="48.84373" lon="1.44161">
        <ele>135.100006</ele>
        <time>2017-04-18T12:48:38Z</time>
      </trkpt>
      <trkpt lat="48.84363" lon="1.44165">
        <ele>134.899994</ele>
        <time>2017-04-18T12:48:40Z</time>
      </trkpt>
      <trkpt lat="48.84348" lon="1.44167">
        <ele>134.699997</ele>
        <time>2017-04-18T12:48:43Z</time>
      </trkpt>
      <trkpt lat="48.84337" lon="1.44175">
        <ele>134.600006</ele>
        <time>2017-04-18T12:48:45Z</time>
      </trkpt>
      <trkpt lat="48.84326" lon="1.4418">
        <ele>134.5</ele>
        <time>2017-04-18T12:48:47Z</time>
      </trkpt>
      <trkpt lat="48.84312" lon="1.44183">
        <ele>134.399994</ele>
        <time>2017-04-18T12:48:49Z</time>
      </trkpt>
      <trkpt lat="48.84297" lon="1.44188">
        <ele>134.300003</ele>
        <time>2017-04-18T12:48:51Z</time>
      </trkpt>
      <trkpt lat="48.84285" lon="1.44194">
        <ele>134.199997</ele>
        <time>2017-04-18T12:48:53Z</time>
      </trkpt>
      <trkpt lat="48.84275" lon="1.44198">
        <ele>134.199997</ele>
        <time>2017-04-18T12:48:55Z</time>
      </trkpt>
      <trkpt lat="48.84265" lon="1.44203">
        <ele>134.100006</ele>
        <time>2017-04-18T12:48:57Z</time>
      </trkpt>
      <trkpt lat="48.84254" lon="1.44208">
        <ele>134.100006</ele>
        <time>2017-04-18T12:48:59Z</time>
      </trkpt>
      <trkpt lat="48.84244" lon="1.44216">
        <ele>134</ele>
        <time>2017-04-18T12:49:02Z</time>
      </trkpt>
      <trkpt lat="48.84241" lon="1.44231">
        <ele>134</ele>
        <time>2017-04-18T12:49:05Z</time>
      </trkpt>
      <trkpt lat="48.84239" lon="1.44245">
        <ele>134</ele>
        <time>2017-04-18T12:49:07Z</time>
      </trkpt>
      <trkpt lat="48.84236" lon="1.44261">
        <ele>134</ele>
        <time>2017-04-18T12:49:09Z</time>
      </trkpt>
      <trkpt lat="48.84235" lon="1.44275">
        <ele>134</ele>
        <time>2017-04-18T12:49:11Z</time>
      </trkpt>
      <trkpt lat="48.84236" lon="1.44291">
        <ele>134</ele>
        <time>2017-04-18T12:49:13Z</time>
      </trkpt>
      <trkpt lat="48.84237" lon="1.44308">
        <ele>134</ele>
        <time>2017-04-18T12:49:15Z</time>
      </trkpt>
      <trkpt lat="48.84237" lon="1.44325">
        <ele>133.899994</ele>
        <time>2017-04-18T12:49:17Z</time>
      </trkpt>
      <trkpt lat="48.84237" lon="1.44342">
        <ele>133.800003</ele>
        <time>2017-04-18T12:49:19Z</time>
      </trkpt>
      <trkpt lat="48.84238" lon="1.44362">
        <ele>133.699997</ele>
        <time>2017-04-18T12:49:21Z</time>
      </trkpt>
      <trkpt lat="48.84236" lon="1.4438">
        <ele>133.699997</ele>
        <time>2017-04-18T12:49:23Z</time>
      </trkpt>
      <trkpt lat="48.84234" lon="1.44399">
        <ele>133.600006</ele>
        <time>2017-04-18T12:49:25Z</time>
      </trkpt>
      <trkpt lat="48.84233" lon="1.44417">
        <ele>133.399994</ele>
        <time>2017-04-18T12:49:27Z</time>
      </trkpt>
      <trkpt lat="48.84231" lon="1.44435">
        <ele>133.199997</ele>
        <time>2017-04-18T12:49:29Z</time>
      </trkpt>
      <trkpt lat="48.84235" lon="1.44455">
        <ele>133</ele>
        <time>2017-04-18T12:49:31Z</time>
      </trkpt>
      <trkpt lat="48.84238" lon="1.44475">
        <ele>132.800003</ele>
        <time>2017-04-18T12:49:33Z</time>
      </trkpt>
      <trkpt lat="48.84239" lon="1.44495">
        <ele>132.600006</ele>
        <time>2017-04-18T12:49:35Z</time>
      </trkpt>
      <trkpt lat="48.84239" lon="1.44515">
        <ele>132.399994</ele>
        <time>2017-04-18T12:49:37Z</time>
      </trkpt>
      <trkpt lat="48.84241" lon="1.44534">
        <ele>132.300003</ele>
        <time>2017-04-18T12:49:39Z</time>
      </trkpt>
      <trkpt lat="48.84243" lon="1.44554">
        <ele>132.100006</ele>
        <time>2017-04-18T12:49:41Z</time>
      </trkpt>
      <trkpt lat="48.84245" lon="1.44572">
        <ele>132</ele>
        <time>2017-04-18T12:49:43Z</time>
      </trkpt>
      <trkpt lat="48.84247" lon="1.44589">
        <ele>131.899994</ele>
        <time>2017-04-18T12:49:45Z</time>
      </trkpt>
      <trkpt lat="48.84249" lon="1.44605">
        <ele>131.800003</ele>
        <time>2017-04-18T12:49:47Z</time>
      </trkpt>
      <trkpt lat="48.84251" lon="1.4462">
        <ele>131.699997</ele>
        <time>2017-04-18T12:49:49Z</time>
      </trkpt>
      <trkpt lat="48.84259" lon="1.44634">
        <ele>131.600006</ele>
        <time>2017-04-18T12:49:51Z</time>
      </trkpt>
      <trkpt lat="48.84269" lon="1.44643">
        <ele>131.5</ele>
        <time>2017-04-18T12:49:53Z</time>
      </trkpt>
      <trkpt lat="48.8428" lon="1.44642">
        <ele>131.399994</ele>
        <time>2017-04-18T12:49:55Z</time>
      </trkpt>
      <trkpt lat="48.8429" lon="1.44639">
        <ele>131.199997</ele>
        <time>2017-04-18T12:49:57Z</time>
      </trkpt>
      <trkpt lat="48.843" lon="1.44636">
        <ele>130.899994</ele>
        <time>2017-04-18T12:49:59Z</time>
      </trkpt>
      <trkpt lat="48.84313" lon="1.44632">
        <ele>130.699997</ele>
        <time>2017-04-18T12:50:01Z</time>
      </trkpt>
      <trkpt lat="48.84326" lon="1.44625">
        <ele>130.300003</ele>
        <time>2017-04-18T12:50:05Z</time>
      </trkpt>
      <trkpt lat="48.84337" lon="1.44618">
        <ele>130.199997</ele>
        <time>2017-04-18T12:50:07Z</time>
      </trkpt>
      <trkpt lat="48.84351" lon="1.4461">
        <ele>130.100006</ele>
        <time>2017-04-18T12:50:09Z</time>
      </trkpt>
      <trkpt lat="48.84364" lon="1.44604">
        <ele>129.899994</ele>
        <time>2017-04-18T12:50:11Z</time>
      </trkpt>
      <trkpt lat="48.84375" lon="1.44599">
        <ele>129.800003</ele>
        <time>2017-04-18T12:50:13Z</time>
      </trkpt>
      <trkpt lat="48.84385" lon="1.44594">
        <ele>129.600006</ele>
        <time>2017-04-18T12:50:15Z</time>
      </trkpt>
      <trkpt lat="48.84397" lon="1.44586">
        <ele>129.5</ele>
        <time>2017-04-18T12:50:17Z</time>
      </trkpt>
      <trkpt lat="48.84409" lon="1.4458">
        <ele>129.399994</ele>
        <time>2017-04-18T12:50:19Z</time>
      </trkpt>
      <trkpt lat="48.84421" lon="1.44576">
        <ele>129.399994</ele>
        <time>2017-04-18T12:50:21Z</time>
      </trkpt>
      <trkpt lat="48.84434" lon="1.44568">
        <ele>129.399994</ele>
        <time>2017-04-18T12:50:23Z</time>
      </trkpt>
      <trkpt lat="48.84444" lon="1.44561">
        <ele>129.5</ele>
        <time>2017-04-18T12:50:25Z</time>
      </trkpt>
      <trkpt lat="48.84454" lon="1.44555">
        <ele>129.699997</ele>
        <time>2017-04-18T12:50:27Z</time>
      </trkpt>
      <trkpt lat="48.84464" lon="1.44551">
        <ele>129.800003</ele>
        <time>2017-04-18T12:50:29Z</time>
      </trkpt>
      <trkpt lat="48.84474" lon="1.44546">
        <ele>130</ele>
        <time>2017-04-18T12:50:31Z</time>
      </trkpt>
      <trkpt lat="48.84483" lon="1.44542">
        <ele>130.100006</ele>
        <time>2017-04-18T12:50:33Z</time>
      </trkpt>
      <trkpt lat="48.84495" lon="1.44535">
        <ele>130.199997</ele>
        <time>2017-04-18T12:50:35Z</time>
      </trkpt>
      <trkpt lat="48.84504" lon="1.44529">
        <ele>130.399994</ele>
        <time>2017-04-18T12:50:37Z</time>
      </trkpt>
      <trkpt lat="48.84515" lon="1.44523">
        <ele>130.600006</ele>
        <time>2017-04-18T12:50:39Z</time>
      </trkpt>
      <trkpt lat="48.84523" lon="1.44519">
        <ele>130.699997</ele>
        <time>2017-04-18T12:50:41Z</time>
      </trkpt>
      <trkpt lat="48.84531" lon="1.44511">
        <ele>130.899994</ele>
        <time>2017-04-18T12:50:43Z</time>
      </trkpt>
      <trkpt lat="48.84542" lon="1.44502">
        <ele>131.199997</ele>
        <time>2017-04-18T12:50:46Z</time>
      </trkpt>
      <trkpt lat="48.84554" lon="1.44498">
        <ele>131.300003</ele>
        <time>2017-04-18T12:50:48Z</time>
      </trkpt>
      <trkpt lat="48.84564" lon="1.44492">
        <ele>131.5</ele>
        <time>2017-04-18T12:50:50Z</time>
      </trkpt>
      <trkpt lat="48.84574" lon="1.44486">
        <ele>131.600006</ele>
        <time>2017-04-18T12:50:52Z</time>
      </trkpt>
      <trkpt lat="48.84585" lon="1.4448">
        <ele>131.699997</ele>
        <time>2017-04-18T12:50:54Z</time>
      </trkpt>
      <trkpt lat="48.84594" lon="1.44474">
        <ele>131.800003</ele>
        <time>2017-04-18T12:50:56Z</time>
      </trkpt>
      <trkpt lat="48.84605" lon="1.44468">
        <ele>132</ele>
        <time>2017-04-18T12:50:58Z</time>
      </trkpt>
      <trkpt lat="48.84616" lon="1.44464">
        <ele>132.100006</ele>
        <time>2017-04-18T12:51:00Z</time>
      </trkpt>
      <trkpt lat="48.84627" lon="1.44457">
        <ele>132.199997</ele>
        <time>2017-04-18T12:51:02Z</time>
      </trkpt>
      <trkpt lat="48.84638" lon="1.44451">
        <ele>132.300003</ele>
        <time>2017-04-18T12:51:04Z</time>
      </trkpt>
      <trkpt lat="48.84647" lon="1.44447">
        <ele>132.399994</ele>
        <time>2017-04-18T12:51:06Z</time>
      </trkpt>
      <trkpt lat="48.8466" lon="1.44438">
        <ele>132.600006</ele>
        <time>2017-04-18T12:51:09Z</time>
      </trkpt>
      <trkpt lat="48.84669" lon="1.4443">
        <ele>132.600006</ele>
        <time>2017-04-18T12:51:11Z</time>
      </trkpt>
      <trkpt lat="48.84679" lon="1.44425">
        <ele>132.699997</ele>
        <time>2017-04-18T12:51:13Z</time>
      </trkpt>
      <trkpt lat="48.84691" lon="1.44417">
        <ele>132.800003</ele>
        <time>2017-04-18T12:51:15Z</time>
      </trkpt>
      <trkpt lat="48.847" lon="1.44413">
        <ele>132.800003</ele>
        <time>2017-04-18T12:51:17Z</time>
      </trkpt>
      <trkpt lat="48.8471" lon="1.44404">
        <ele>132.899994</ele>
        <time>2017-04-18T12:51:19Z</time>
      </trkpt>
      <trkpt lat="48.84721" lon="1.444">
        <ele>132.899994</ele>
        <time>2017-04-18T12:51:21Z</time>
      </trkpt>
      <trkpt lat="48.84735" lon="1.44392">
        <ele>132.899994</ele>
        <time>2017-04-18T12:51:24Z</time>
      </trkpt>
      <trkpt lat="48.84749" lon="1.44383">
        <ele>132.800003</ele>
        <time>2017-04-18T12:51:27Z</time>
      </trkpt>
      <trkpt lat="48.84762" lon="1.44379">
        <ele>132.600006</ele>
        <time>2017-04-18T12:51:29Z</time>
      </trkpt>
      <trkpt lat="48.84776" lon="1.44372">
        <ele>132.399994</ele>
        <time>2017-04-18T12:51:31Z</time>
      </trkpt>
      <trkpt lat="48.84789" lon="1.44365">
        <ele>132.199997</ele>
        <time>2017-04-18T12:51:33Z</time>
      </trkpt>
      <trkpt lat="48.84797" lon="1.44359">
        <ele>131.800003</ele>
        <time>2017-04-18T12:51:35Z</time>
      </trkpt>
      <trkpt lat="48.84806" lon="1.44359">
        <ele>131.399994</ele>
        <time>2017-04-18T12:51:37Z</time>
      </trkpt>
      <trkpt lat="48.84817" lon="1.44365">
        <ele>131</ele>
        <time>2017-04-18T12:51:39Z</time>
      </trkpt>
      <trkpt lat="48.84827" lon="1.44373">
        <ele>130.600006</ele>
        <time>2017-04-18T12:51:41Z</time>
      </trkpt>
      <trkpt lat="48.84835" lon="1.44383">
        <ele>130.199997</ele>
        <time>2017-04-18T12:51:43Z</time>
      </trkpt>
      <trkpt lat="48.84843" lon="1.44394">
        <ele>129.899994</ele>
        <time>2017-04-18T12:51:45Z</time>
      </trkpt>
      <trkpt lat="48.8485" lon="1.44406">
        <ele>129.600006</ele>
        <time>2017-04-18T12:51:47Z</time>
      </trkpt>
      <trkpt lat="48.84856" lon="1.4442">
        <ele>129.199997</ele>
        <time>2017-04-18T12:51:49Z</time>
      </trkpt>
      <trkpt lat="48.84862" lon="1.44433">
        <ele>128.800003</ele>
        <time>2017-04-18T12:51:51Z</time>
      </trkpt>
      <trkpt lat="48.84867" lon="1.44447">
        <ele>128.5</ele>
        <time>2017-04-18T12:51:53Z</time>
      </trkpt>
      <trkpt lat="48.84872" lon="1.44461">
        <ele>128.300003</ele>
        <time>2017-04-18T12:51:55Z</time>
      </trkpt>
      <trkpt lat="48.84877" lon="1.44475">
        <ele>128</ele>
        <time>2017-04-18T12:51:57Z</time>
      </trkpt>
      <trkpt lat="48.84883" lon="1.44489">
        <ele>127.800003</ele>
        <time>2017-04-18T12:51:59Z</time>
      </trkpt>
      <trkpt lat="48.84891" lon="1.44502">
        <ele>127.599998</ele>
        <time>2017-04-18T12:52:01Z</time>
      </trkpt>
      <trkpt lat="48.84899" lon="1.44513">
        <ele>127.400002</ele>
        <time>2017-04-18T12:52:03Z</time>
      </trkpt>
      <trkpt lat="48.84907" lon="1.44524">
        <ele>127.199997</ele>
        <time>2017-04-18T12:52:05Z</time>
      </trkpt>
      <trkpt lat="48.84918" lon="1.44536">
        <ele>127</ele>
        <time>2017-04-18T12:52:07Z</time>
      </trkpt>
      <trkpt lat="48.84929" lon="1.44546">
        <ele>126.699997</ele>
        <time>2017-04-18T12:52:09Z</time>
      </trkpt>
      <trkpt lat="48.84942" lon="1.44556">
        <ele>126.400002</ele>
        <time>2017-04-18T12:52:11Z</time>
      </trkpt>
      <trkpt lat="48.84949" lon="1.44567">
        <ele>126.099998</ele>
        <time>2017-04-18T12:52:13Z</time>
      </trkpt>
      <trkpt lat="48.84955" lon="1.44579">
        <ele>125.5</ele>
        <time>2017-04-18T12:52:16Z</time>
      </trkpt>
      <trkpt lat="48.84961" lon="1.44591">
        <ele>125</ele>
        <time>2017-04-18T12:52:19Z</time>
      </trkpt>
      <trkpt lat="48.84964" lon="1.44603">
        <ele>124.699997</ele>
        <time>2017-04-18T12:52:21Z</time>
      </trkpt>
      <trkpt lat="48.84971" lon="1.44621">
        <ele>124.300003</ele>
        <time>2017-04-18T12:52:24Z</time>
      </trkpt>
      <trkpt lat="48.84977" lon="1.44635">
        <ele>124.099998</ele>
        <time>2017-04-18T12:52:26Z</time>
      </trkpt>
      <trkpt lat="48.84982" lon="1.4465">
        <ele>123.800003</ele>
        <time>2017-04-18T12:52:28Z</time>
      </trkpt>
      <trkpt lat="48.84987" lon="1.44663">
        <ele>123.5</ele>
        <time>2017-04-18T12:52:30Z</time>
      </trkpt>
      <trkpt lat="48.84995" lon="1.4468">
        <ele>123.300003</ele>
        <time>2017-04-18T12:52:32Z</time>
      </trkpt>
      <trkpt lat="48.85004" lon="1.44697">
        <ele>123.099998</ele>
        <time>2017-04-18T12:52:34Z</time>
      </trkpt>
      <trkpt lat="48.85012" lon="1.44713">
        <ele>122.900002</ele>
        <time>2017-04-18T12:52:36Z</time>
      </trkpt>
      <trkpt lat="48.85017" lon="1.44728">
        <ele>122.599998</ele>
        <time>2017-04-18T12:52:38Z</time>
      </trkpt>
      <trkpt lat="48.85022" lon="1.44744">
        <ele>122.400002</ele>
        <time>2017-04-18T12:52:40Z</time>
      </trkpt>
      <trkpt lat="48.85027" lon="1.4476">
        <ele>122</ele>
        <time>2017-04-18T12:52:42Z</time>
      </trkpt>
      <trkpt lat="48.8503" lon="1.44777">
        <ele>121.699997</ele>
        <time>2017-04-18T12:52:44Z</time>
      </trkpt>
      <trkpt lat="48.85034" lon="1.44793">
        <ele>121.400002</ele>
        <time>2017-04-18T12:52:46Z</time>
      </trkpt>
      <trkpt lat="48.85037" lon="1.4481">
        <ele>121.199997</ele>
        <time>2017-04-18T12:52:48Z</time>
      </trkpt>
      <trkpt lat="48.85041" lon="1.44827">
        <ele>121</ele>
        <time>2017-04-18T12:52:50Z</time>
      </trkpt>
      <trkpt lat="48.85047" lon="1.44843">
        <ele>120.800003</ele>
        <time>2017-04-18T12:52:52Z</time>
      </trkpt>
      <trkpt lat="48.85054" lon="1.44858">
        <ele>120.599998</ele>
        <time>2017-04-18T12:52:54Z</time>
      </trkpt>
      <trkpt lat="48.85061" lon="1.44874">
        <ele>120.400002</ele>
        <time>2017-04-18T12:52:56Z</time>
      </trkpt>
      <trkpt lat="48.85069" lon="1.4489">
        <ele>120.099998</ele>
        <time>2017-04-18T12:52:58Z</time>
      </trkpt>
      <trkpt lat="48.85076" lon="1.44907">
        <ele>119.800003</ele>
        <time>2017-04-18T12:53:00Z</time>
      </trkpt>
      <trkpt lat="48.85084" lon="1.44924">
        <ele>119.5</ele>
        <time>2017-04-18T12:53:02Z</time>
      </trkpt>
      <trkpt lat="48.85088" lon="1.4494">
        <ele>119.199997</ele>
        <time>2017-04-18T12:53:04Z</time>
      </trkpt>
      <trkpt lat="48.85093" lon="1.44956">
        <ele>119</ele>
        <time>2017-04-18T12:53:06Z</time>
      </trkpt>
      <trkpt lat="48.85097" lon="1.44973">
        <ele>118.599998</ele>
        <time>2017-04-18T12:53:08Z</time>
      </trkpt>
      <trkpt lat="48.85097" lon="1.44989">
        <ele>118.300003</ele>
        <time>2017-04-18T12:53:10Z</time>
      </trkpt>
      <trkpt lat="48.85094" lon="1.45002">
        <ele>118.099998</ele>
        <time>2017-04-18T12:53:12Z</time>
      </trkpt>
      <trkpt lat="48.8509" lon="1.45018">
        <ele>117.900002</ele>
        <time>2017-04-18T12:53:15Z</time>
      </trkpt>
      <trkpt lat="48.85086" lon="1.45036">
        <ele>118.099998</ele>
        <time>2017-04-18T12:53:18Z</time>
      </trkpt>
      <trkpt lat="48.85082" lon="1.45049">
        <ele>118.199997</ele>
        <time>2017-04-18T12:53:20Z</time>
      </trkpt>
      <trkpt lat="48.85078" lon="1.45062">
        <ele>118.5</ele>
        <time>2017-04-18T12:53:22Z</time>
      </trkpt>
      <trkpt lat="48.85074" lon="1.45075">
        <ele>118.800003</ele>
        <time>2017-04-18T12:53:24Z</time>
      </trkpt>
      <trkpt lat="48.8507" lon="1.45088">
        <ele>119</ele>
        <time>2017-04-18T12:53:26Z</time>
      </trkpt>
      <trkpt lat="48.85064" lon="1.45106">
        <ele>119.300003</ele>
        <time>2017-04-18T12:53:29Z</time>
      </trkpt>
      <trkpt lat="48.85058" lon="1.45124">
        <ele>119.699997</ele>
        <time>2017-04-18T12:53:32Z</time>
      </trkpt>
      <trkpt lat="48.85051" lon="1.45135">
        <ele>120</ele>
        <time>2017-04-18T12:53:34Z</time>
      </trkpt>
      <trkpt lat="48.85045" lon="1.45147">
        <ele>120.300003</ele>
        <time>2017-04-18T12:53:37Z</time>
      </trkpt>
      <trkpt lat="48.85035" lon="1.45147">
        <ele>120.800003</ele>
        <time>2017-04-18T12:53:41Z</time>
      </trkpt>
      <trkpt lat="48.85027" lon="1.45137">
        <ele>121.300003</ele>
        <time>2017-04-18T12:53:45Z</time>
      </trkpt>
      <trkpt lat="48.85016" lon="1.45132">
        <ele>121.900002</ele>
        <time>2017-04-18T12:53:49Z</time>
      </trkpt>
      <trkpt lat="48.85006" lon="1.45125">
        <ele>122.300003</ele>
        <time>2017-04-18T12:53:52Z</time>
      </trkpt>
      <trkpt lat="48.84998" lon="1.45119">
        <ele>122.800003</ele>
        <time>2017-04-18T12:53:56Z</time>
      </trkpt>
      <trkpt lat="48.84986" lon="1.45113">
        <ele>123.199997</ele>
        <time>2017-04-18T12:53:59Z</time>
      </trkpt>
      <trkpt lat="48.84974" lon="1.45105">
        <ele>123.599998</ele>
        <time>2017-04-18T12:54:02Z</time>
      </trkpt>
      <trkpt lat="48.84963" lon="1.45098">
        <ele>124</ele>
        <time>2017-04-18T12:54:05Z</time>
      </trkpt>
      <trkpt lat="48.84954" lon="1.45093">
        <ele>124.300003</ele>
        <time>2017-04-18T12:54:07Z</time>
      </trkpt>
      <trkpt lat="48.8494" lon="1.45086">
        <ele>124.699997</ele>
        <time>2017-04-18T12:54:10Z</time>
      </trkpt>
      <trkpt lat="48.8493" lon="1.45092">
        <ele>125</ele>
        <time>2017-04-18T12:54:12Z</time>
      </trkpt>
      <trkpt lat="48.8492" lon="1.45097">
        <ele>125.199997</ele>
        <time>2017-04-18T12:54:14Z</time>
      </trkpt>
      <trkpt lat="48.84909" lon="1.45105">
        <ele>125.400002</ele>
        <time>2017-04-18T12:54:16Z</time>
      </trkpt>
      <trkpt lat="48.84897" lon="1.45115">
        <ele>125.699997</ele>
        <time>2017-04-18T12:54:19Z</time>
      </trkpt>
      <trkpt lat="48.84888" lon="1.4512">
        <ele>125.900002</ele>
        <time>2017-04-18T12:54:21Z</time>
      </trkpt>
      <trkpt lat="48.84875" lon="1.45127">
        <ele>126.099998</ele>
        <time>2017-04-18T12:54:24Z</time>
      </trkpt>
      <trkpt lat="48.84863" lon="1.45131">
        <ele>126.199997</ele>
        <time>2017-04-18T12:54:26Z</time>
      </trkpt>
      <trkpt lat="48.84854" lon="1.45137">
        <ele>126.300003</ele>
        <time>2017-04-18T12:54:28Z</time>
      </trkpt>
      <trkpt lat="48.84845" lon="1.45143">
        <ele>126.400002</ele>
        <time>2017-04-18T12:54:30Z</time>
      </trkpt>
      <trkpt lat="48.84834" lon="1.45147">
        <ele>126.400002</ele>
        <time>2017-04-18T12:54:32Z</time>
      </trkpt>
      <trkpt lat="48.84824" lon="1.45153">
        <ele>126.5</ele>
        <time>2017-04-18T12:54:34Z</time>
      </trkpt>
      <trkpt lat="48.84813" lon="1.45157">
        <ele>126.5</ele>
        <time>2017-04-18T12:54:36Z</time>
      </trkpt>
      <trkpt lat="48.84802" lon="1.45161">
        <ele>126.5</ele>
        <time>2017-04-18T12:54:38Z</time>
      </trkpt>
      <trkpt lat="48.84791" lon="1.45162">
        <ele>126.400002</ele>
        <time>2017-04-18T12:54:40Z</time>
      </trkpt>
      <trkpt lat="48.84778" lon="1.45169">
        <ele>126.300003</ele>
        <time>2017-04-18T12:54:42Z</time>
      </trkpt>
      <trkpt lat="48.84767" lon="1.45176">
        <ele>126.199997</ele>
        <time>2017-04-18T12:54:44Z</time>
      </trkpt>
      <trkpt lat="48.84756" lon="1.45183">
        <ele>126.099998</ele>
        <time>2017-04-18T12:54:46Z</time>
      </trkpt>
      <trkpt lat="48.84746" lon="1.45189">
        <ele>125.900002</ele>
        <time>2017-04-18T12:54:48Z</time>
      </trkpt>
      <trkpt lat="48.84736" lon="1.45194">
        <ele>125.599998</ele>
        <time>2017-04-18T12:54:51Z</time>
      </trkpt>
      <trkpt lat="48.84727" lon="1.45199">
        <ele>125.199997</ele>
        <time>2017-04-18T12:54:55Z</time>
      </trkpt>
      <trkpt lat="48.84715" lon="1.45206">
        <ele>124.800003</ele>
        <time>2017-04-18T12:54:58Z</time>
      </trkpt>
      <trkpt lat="48.84706" lon="1.45209">
        <ele>124.5</ele>
        <time>2017-04-18T12:55:00Z</time>
      </trkpt>
      <trkpt lat="48.84696" lon="1.45222">
        <ele>124</ele>
        <time>2017-04-18T12:55:02Z</time>
      </trkpt>
      <trkpt lat="48.84685" lon="1.45232">
        <ele>123.400002</ele>
        <time>2017-04-18T12:55:04Z</time>
      </trkpt>
      <trkpt lat="48.84669" lon="1.45243">
        <ele>122.5</ele>
        <time>2017-04-18T12:55:06Z</time>
      </trkpt>
      <trkpt lat="48.84655" lon="1.45256">
        <ele>121.400002</ele>
        <time>2017-04-18T12:55:08Z</time>
      </trkpt>
      <trkpt lat="48.84638" lon="1.45263">
        <ele>120.199997</ele>
        <time>2017-04-18T12:55:10Z</time>
      </trkpt>
      <trkpt lat="48.8463" lon="1.45271">
        <ele>119.300003</ele>
        <time>2017-04-18T12:55:12Z</time>
      </trkpt>
      <trkpt lat="48.84619" lon="1.45275">
        <ele>118.400002</ele>
        <time>2017-04-18T12:55:16Z</time>
      </trkpt>
      <trkpt lat="48.84608" lon="1.45278">
        <ele>118.300003</ele>
        <time>2017-04-18T12:55:19Z</time>
      </trkpt>
      <trkpt lat="48.84597" lon="1.45282">
        <ele>118.300003</ele>
        <time>2017-04-18T12:55:22Z</time>
      </trkpt>
      <trkpt lat="48.84586" lon="1.4529">
        <ele>118.400002</ele>
        <time>2017-04-18T12:55:25Z</time>
      </trkpt>
      <trkpt lat="48.84573" lon="1.45296">
        <ele>118.599998</ele>
        <time>2017-04-18T12:55:28Z</time>
      </trkpt>
      <trkpt lat="48.84564" lon="1.45302">
        <ele>118.800003</ele>
        <time>2017-04-18T12:55:31Z</time>
      </trkpt>
      <trkpt lat="48.84553" lon="1.45306">
        <ele>119</ele>
        <time>2017-04-18T12:55:34Z</time>
      </trkpt>
      <trkpt lat="48.84543" lon="1.45312">
        <ele>119.300003</ele>
        <time>2017-04-18T12:55:37Z</time>
      </trkpt>
      <trkpt lat="48.84533" lon="1.45322">
        <ele>119.599998</ele>
        <time>2017-04-18T12:55:40Z</time>
      </trkpt>
      <trkpt lat="48.84524" lon="1.45328">
        <ele>119.800003</ele>
        <time>2017-04-18T12:55:42Z</time>
      </trkpt>
      <trkpt lat="48.84512" lon="1.45336">
        <ele>120.099998</ele>
        <time>2017-04-18T12:55:45Z</time>
      </trkpt>
      <trkpt lat="48.84502" lon="1.45343">
        <ele>120.300003</ele>
        <time>2017-04-18T12:55:48Z</time>
      </trkpt>
      <trkpt lat="48.84491" lon="1.45348">
        <ele>120.599998</ele>
        <time>2017-04-18T12:55:51Z</time>
      </trkpt>
      <trkpt lat="48.84488" lon="1.45334">
        <ele>120.800003</ele>
        <time>2017-04-18T12:55:55Z</time>
      </trkpt>
      <trkpt lat="48.84482" lon="1.45316">
        <ele>121.199997</ele>
        <time>2017-04-18T12:55:59Z</time>
      </trkpt>
      <trkpt lat="48.84476" lon="1.453">
        <ele>121.5</ele>
        <time>2017-04-18T12:56:02Z</time>
      </trkpt>
      <trkpt lat="48.84469" lon="1.45284">
        <ele>121.800003</ele>
        <time>2017-04-18T12:56:05Z</time>
      </trkpt>
      <trkpt lat="48.84464" lon="1.45268">
        <ele>122.300003</ele>
        <time>2017-04-18T12:56:08Z</time>
      </trkpt>
      <trkpt lat="48.84459" lon="1.45252">
        <ele>122.599998</ele>
        <time>2017-04-18T12:56:11Z</time>
      </trkpt>
      <trkpt lat="48.84448" lon="1.45244">
        <ele>123.099998</ele>
        <time>2017-04-18T12:56:14Z</time>
      </trkpt>
      <trkpt lat="48.84435" lon="1.45253">
        <ele>123.400002</ele>
        <time>2017-04-18T12:56:17Z</time>
      </trkpt>
      <trkpt lat="48.84426" lon="1.45258">
        <ele>123.599998</ele>
        <time>2017-04-18T12:56:19Z</time>
      </trkpt>
      <trkpt lat="48.84416" lon="1.45266">
        <ele>123.800003</ele>
        <time>2017-04-18T12:56:21Z</time>
      </trkpt>
      <trkpt lat="48.84407" lon="1.45272">
        <ele>124</ele>
        <time>2017-04-18T12:56:23Z</time>
      </trkpt>
      <trkpt lat="48.84397" lon="1.45279">
        <ele>124.199997</ele>
        <time>2017-04-18T12:56:25Z</time>
      </trkpt>
      <trkpt lat="48.84388" lon="1.45287">
        <ele>124.400002</ele>
        <time>2017-04-18T12:56:27Z</time>
      </trkpt>
      <trkpt lat="48.84378" lon="1.45294">
        <ele>124.5</ele>
        <time>2017-04-18T12:56:29Z</time>
      </trkpt>
      <trkpt lat="48.84369" lon="1.45302">
        <ele>124.599998</ele>
        <time>2017-04-18T12:56:31Z</time>
      </trkpt>
      <trkpt lat="48.84358" lon="1.45308">
        <ele>124.699997</ele>
        <time>2017-04-18T12:56:33Z</time>
      </trkpt>
      <trkpt lat="48.84349" lon="1.45317">
        <ele>124.800003</ele>
        <time>2017-04-18T12:56:35Z</time>
      </trkpt>
      <trkpt lat="48.8434" lon="1.45324">
        <ele>124.900002</ele>
        <time>2017-04-18T12:56:37Z</time>
      </trkpt>
      <trkpt lat="48.8433" lon="1.45332">
        <ele>125</ele>
        <time>2017-04-18T12:56:39Z</time>
      </trkpt>
      <trkpt lat="48.84319" lon="1.4534">
        <ele>125.099998</ele>
        <time>2017-04-18T12:56:41Z</time>
      </trkpt>
      <trkpt lat="48.84308" lon="1.45347">
        <ele>125.099998</ele>
        <time>2017-04-18T12:56:43Z</time>
      </trkpt>
      <trkpt lat="48.84296" lon="1.45354">
        <ele>125.199997</ele>
        <time>2017-04-18T12:56:45Z</time>
      </trkpt>
      <trkpt lat="48.84286" lon="1.45364">
        <ele>125.199997</ele>
        <time>2017-04-18T12:56:47Z</time>
      </trkpt>
      <trkpt lat="48.84274" lon="1.45373">
        <ele>125.199997</ele>
        <time>2017-04-18T12:56:49Z</time>
      </trkpt>
      <trkpt lat="48.84263" lon="1.45382">
        <ele>125.300003</ele>
        <time>2017-04-18T12:56:51Z</time>
      </trkpt>
      <trkpt lat="48.84251" lon="1.4539">
        <ele>125.300003</ele>
        <time>2017-04-18T12:56:53Z</time>
      </trkpt>
      <trkpt lat="48.84239" lon="1.454">
        <ele>125.300003</ele>
        <time>2017-04-18T12:56:55Z</time>
      </trkpt>
      <trkpt lat="48.8423" lon="1.45409">
        <ele>125.199997</ele>
        <time>2017-04-18T12:56:57Z</time>
      </trkpt>
      <trkpt lat="48.84219" lon="1.45418">
        <ele>125</ele>
        <time>2017-04-18T12:56:59Z</time>
      </trkpt>
      <trkpt lat="48.8421" lon="1.45428">
        <ele>124.800003</ele>
        <time>2017-04-18T12:57:01Z</time>
      </trkpt>
      <trkpt lat="48.84199" lon="1.45433">
        <ele>124.699997</ele>
        <time>2017-04-18T12:57:03Z</time>
      </trkpt>
      <trkpt lat="48.84187" lon="1.45431">
        <ele>124.5</ele>
        <time>2017-04-18T12:57:06Z</time>
      </trkpt>
      <trkpt lat="48.84178" lon="1.45426">
        <ele>124.300003</ele>
        <time>2017-04-18T12:57:11Z</time>
      </trkpt>
      <trkpt lat="48.8417" lon="1.45436">
        <ele>123.900002</ele>
        <time>2017-04-18T12:57:19Z</time>
      </trkpt>
      <trkpt lat="48.84161" lon="1.45447">
        <ele>123.699997</ele>
        <time>2017-04-18T12:57:22Z</time>
      </trkpt>
      <trkpt lat="48.84153" lon="1.45458">
        <ele>123.599998</ele>
        <time>2017-04-18T12:57:25Z</time>
      </trkpt>
      <trkpt lat="48.84147" lon="1.45469">
        <ele>123.5</ele>
        <time>2017-04-18T12:57:27Z</time>
      </trkpt>
      <trkpt lat="48.84143" lon="1.45482">
        <ele>123.5</ele>
        <time>2017-04-18T12:57:29Z</time>
      </trkpt>
      <trkpt lat="48.84138" lon="1.45494">
        <ele>123.400002</ele>
        <time>2017-04-18T12:57:31Z</time>
      </trkpt>
      <trkpt lat="48.84131" lon="1.45505">
        <ele>123.400002</ele>
        <time>2017-04-18T12:57:33Z</time>
      </trkpt>
      <trkpt lat="48.84123" lon="1.45516">
        <ele>123.300003</ele>
        <time>2017-04-18T12:57:35Z</time>
      </trkpt>
      <trkpt lat="48.84116" lon="1.45527">
        <ele>123.300003</ele>
        <time>2017-04-18T12:57:37Z</time>
      </trkpt>
      <trkpt lat="48.84108" lon="1.45535">
        <ele>123.199997</ele>
        <time>2017-04-18T12:57:39Z</time>
      </trkpt>
      <trkpt lat="48.84102" lon="1.45545">
        <ele>123.199997</ele>
        <time>2017-04-18T12:57:41Z</time>
      </trkpt>
      <trkpt lat="48.84092" lon="1.45554">
        <ele>123.199997</ele>
        <time>2017-04-18T12:57:43Z</time>
      </trkpt>
      <trkpt lat="48.84082" lon="1.45561">
        <ele>123.099998</ele>
        <time>2017-04-18T12:57:45Z</time>
      </trkpt>
      <trkpt lat="48.84074" lon="1.4557">
        <ele>123.099998</ele>
        <time>2017-04-18T12:57:47Z</time>
      </trkpt>
      <trkpt lat="48.84061" lon="1.45575">
        <ele>123</ele>
        <time>2017-04-18T12:57:49Z</time>
      </trkpt>
      <trkpt lat="48.84051" lon="1.45574">
        <ele>122.800003</ele>
        <time>2017-04-18T12:57:51Z</time>
      </trkpt>
      <trkpt lat="48.84043" lon="1.45562">
        <ele>122.599998</ele>
        <time>2017-04-18T12:57:54Z</time>
      </trkpt>
      <trkpt lat="48.84039" lon="1.45546">
        <ele>122.400002</ele>
        <time>2017-04-18T12:57:57Z</time>
      </trkpt>
      <trkpt lat="48.84035" lon="1.45532">
        <ele>122.199997</ele>
        <time>2017-04-18T12:58:00Z</time>
      </trkpt>
      <trkpt lat="48.84027" lon="1.45523">
        <ele>122.099998</ele>
        <time>2017-04-18T12:58:10Z</time>
      </trkpt>
      <trkpt lat="48.84022" lon="1.45508">
        <ele>122.099998</ele>
        <time>2017-04-18T12:58:15Z</time>
      </trkpt>
      <trkpt lat="48.84017" lon="1.45494">
        <ele>122.199997</ele>
        <time>2017-04-18T12:58:18Z</time>
      </trkpt>
      <trkpt lat="48.84013" lon="1.45477">
        <ele>122.300003</ele>
        <time>2017-04-18T12:58:21Z</time>
      </trkpt>
      <trkpt lat="48.84008" lon="1.45459">
        <ele>122.599998</ele>
        <time>2017-04-18T12:58:24Z</time>
      </trkpt>
      <trkpt lat="48.84003" lon="1.45442">
        <ele>122.900002</ele>
        <time>2017-04-18T12:58:27Z</time>
      </trkpt>
      <trkpt lat="48.83996" lon="1.45426">
        <ele>123.099998</ele>
        <time>2017-04-18T12:58:30Z</time>
      </trkpt>
      <trkpt lat="48.83988" lon="1.4541">
        <ele>123.5</ele>
        <time>2017-04-18T12:58:33Z</time>
      </trkpt>
      <trkpt lat="48.83979" lon="1.45395">
        <ele>123.800003</ele>
        <time>2017-04-18T12:58:36Z</time>
      </trkpt>
      <trkpt lat="48.83973" lon="1.45385">
        <ele>124</ele>
        <time>2017-04-18T12:58:38Z</time>
      </trkpt>
      <trkpt lat="48.83966" lon="1.45375">
        <ele>124.099998</ele>
        <time>2017-04-18T12:58:40Z</time>
      </trkpt>
      <trkpt lat="48.83959" lon="1.45364">
        <ele>124.300003</ele>
        <time>2017-04-18T12:58:42Z</time>
      </trkpt>
      <trkpt lat="48.83952" lon="1.45354">
        <ele>124.400002</ele>
        <time>2017-04-18T12:58:44Z</time>
      </trkpt>
      <trkpt lat="48.83945" lon="1.45343">
        <ele>124.5</ele>
        <time>2017-04-18T12:58:46Z</time>
      </trkpt>
      <trkpt lat="48.83937" lon="1.45334">
        <ele>124.599998</ele>
        <time>2017-04-18T12:58:48Z</time>
      </trkpt>
      <trkpt lat="48.83929" lon="1.45325">
        <ele>124.599998</ele>
        <time>2017-04-18T12:58:50Z</time>
      </trkpt>
      <trkpt lat="48.8392" lon="1.45316">
        <ele>124.699997</ele>
        <time>2017-04-18T12:58:52Z</time>
      </trkpt>
      <trkpt lat="48.83911" lon="1.45308">
        <ele>124.800003</ele>
        <time>2017-04-18T12:58:54Z</time>
      </trkpt>
      <trkpt lat="48.83901" lon="1.45298">
        <ele>124.900002</ele>
        <time>2017-04-18T12:58:56Z</time>
      </trkpt>
      <trkpt lat="48.83892" lon="1.45288">
        <ele>124.900002</ele>
        <time>2017-04-18T12:58:58Z</time>
      </trkpt>
      <trkpt lat="48.83882" lon="1.45278">
        <ele>125</ele>
        <time>2017-04-18T12:59:00Z</time>
      </trkpt>
      <trkpt lat="48.83872" lon="1.45269">
        <ele>124</ele>
        <time>2017-04-18T12:59:02Z</time>
      </trkpt>
      <trkpt lat="48.83857" lon="1.45256">
        <ele>125.099998</ele>
        <time>2017-04-18T12:59:05Z</time>
      </trkpt>
      <trkpt lat="48.83848" lon="1.45247">
        <ele>125.099998</ele>
        <time>2017-04-18T12:59:07Z</time>
      </trkpt>
      <trkpt lat="48.83838" lon="1.45239">
        <ele>125.099998</ele>
        <time>2017-04-18T12:59:09Z</time>
      </trkpt>
      <trkpt lat="48.83829" lon="1.45232">
        <ele>125.099998</ele>
        <time>2017-04-18T12:59:11Z</time>
      </trkpt>
      <trkpt lat="48.83819" lon="1.45225">
        <ele>125.199997</ele>
        <time>2017-04-18T12:59:14Z</time>
      </trkpt>
      <trkpt lat="48.83809" lon="1.45218">
        <ele>125.199997</ele>
        <time>2017-04-18T12:59:16Z</time>
      </trkpt>
      <trkpt lat="48.838" lon="1.45211">
        <ele>125.300003</ele>
        <time>2017-04-18T12:59:18Z</time>
      </trkpt>
      <trkpt lat="48.83792" lon="1.45203">
        <ele>125.300003</ele>
        <time>2017-04-18T12:59:20Z</time>
      </trkpt>
      <trkpt lat="48.83783" lon="1.45196">
        <ele>125.300003</ele>
        <time>2017-04-18T12:59:22Z</time>
      </trkpt>
      <trkpt lat="48.83774" lon="1.45189">
        <ele>125.400002</ele>
        <time>2017-04-18T12:59:24Z</time>
      </trkpt>
      <trkpt lat="48.83762" lon="1.4518">
        <ele>125.400002</ele>
        <time>2017-04-18T12:59:27Z</time>
      </trkpt>
      <trkpt lat="48.83753" lon="1.45172">
        <ele>125.5</ele>
        <time>2017-04-18T12:59:29Z</time>
      </trkpt>
      <trkpt lat="48.83742" lon="1.45166">
        <ele>125.5</ele>
        <time>2017-04-18T12:59:31Z</time>
      </trkpt>
      <trkpt lat="48.83726" lon="1.45163">
        <ele>125.5</ele>
        <time>2017-04-18T12:59:33Z</time>
      </trkpt>
      <trkpt lat="48.83704" lon="1.45165">
        <ele>125</ele>
        <time>2017-04-18T12:59:36Z</time>
      </trkpt>
      <trkpt lat="48.83686" lon="1.45167">
        <ele>125.099998</ele>
        <time>2017-04-18T12:59:39Z</time>
      </trkpt>
      <trkpt lat="48.83675" lon="1.45161">
        <ele>124.900002</ele>
        <time>2017-04-18T12:59:41Z</time>
      </trkpt>
      <trkpt lat="48.83664" lon="1.45151">
        <ele>124.699997</ele>
        <time>2017-04-18T12:59:44Z</time>
      </trkpt>
      <trkpt lat="48.83654" lon="1.45141">
        <ele>124.599998</ele>
        <time>2017-04-18T12:59:47Z</time>
      </trkpt>
      <trkpt lat="48.83645" lon="1.45137">
        <ele>124.599998</ele>
        <time>2017-04-18T12:59:49Z</time>
      </trkpt>
      <trkpt lat="48.83635" lon="1.45129">
        <ele>124.699997</ele>
        <time>2017-04-18T12:59:53Z</time>
      </trkpt>
      <trkpt lat="48.83625" lon="1.45121">
        <ele>124.900002</ele>
        <time>2017-04-18T12:59:56Z</time>
      </trkpt>
      <trkpt lat="48.83618" lon="1.45111">
        <ele>124.900002</ele>
        <time>2017-04-18T12:59:58Z</time>
      </trkpt>
      <trkpt lat="48.83609" lon="1.451">
        <ele>125.199997</ele>
        <time>2017-04-18T13:00:01Z</time>
      </trkpt>
      <trkpt lat="48.83599" lon="1.451">
        <ele>125.599998</ele>
        <time>2017-04-18T13:00:05Z</time>
      </trkpt>
      <trkpt lat="48.83588" lon="1.4511">
        <ele>125.800003</ele>
        <time>2017-04-18T13:00:08Z</time>
      </trkpt>
      <trkpt lat="48.8358" lon="1.45119">
        <ele>125.900002</ele>
        <time>2017-04-18T13:00:10Z</time>
      </trkpt>
      <trkpt lat="48.83571" lon="1.45129">
        <ele>126</ele>
        <time>2017-04-18T13:00:12Z</time>
      </trkpt>
      <trkpt lat="48.8356" lon="1.45131">
        <ele>126</ele>
        <time>2017-04-18T13:00:14Z</time>
      </trkpt>
      <trkpt lat="48.8355" lon="1.45128">
        <ele>125.900002</ele>
        <time>2017-04-18T13:00:16Z</time>
      </trkpt>
      <trkpt lat="48.83539" lon="1.45123">
        <ele>125.400002</ele>
        <time>2017-04-18T13:00:18Z</time>
      </trkpt>
      <trkpt lat="48.83533" lon="1.45111">
        <ele>124.300003</ele>
        <time>2017-04-18T13:00:21Z</time>
      </trkpt>
      <trkpt lat="48.83528" lon="1.45098">
        <ele>123</ele>
        <time>2017-04-18T13:00:24Z</time>
      </trkpt>
      <trkpt lat="48.83526" lon="1.45081">
        <ele>122</ele>
        <time>2017-04-18T13:00:26Z</time>
      </trkpt>
      <trkpt lat="48.83527" lon="1.45061">
        <ele>120.800003</ele>
        <time>2017-04-18T13:00:28Z</time>
      </trkpt>
      <trkpt lat="48.8353" lon="1.45041">
        <ele>119.599998</ele>
        <time>2017-04-18T13:00:30Z</time>
      </trkpt>
      <trkpt lat="48.83532" lon="1.45023">
        <ele>118.599998</ele>
        <time>2017-04-18T13:00:32Z</time>
      </trkpt>
      <trkpt lat="48.83534" lon="1.45008">
        <ele>117.599998</ele>
        <time>2017-04-18T13:00:34Z</time>
      </trkpt>
      <trkpt lat="48.83535" lon="1.4499">
        <ele>116.400002</ele>
        <time>2017-04-18T13:00:37Z</time>
      </trkpt>
      <trkpt lat="48.83535" lon="1.44973">
        <ele>115.5</ele>
        <time>2017-04-18T13:00:40Z</time>
      </trkpt>
      <trkpt lat="48.83537" lon="1.44959">
        <ele>114</ele>
        <time>2017-04-18T13:00:43Z</time>
      </trkpt>
      <trkpt lat="48.83541" lon="1.44944">
        <ele>114.900002</ele>
        <time>2017-04-18T13:00:47Z</time>
      </trkpt>
      <trkpt lat="48.83537" lon="1.44926">
        <ele>115.400002</ele>
        <time>2017-04-18T13:00:51Z</time>
      </trkpt>
      <trkpt lat="48.83537" lon="1.44907">
        <ele>115</ele>
        <time>2017-04-18T13:00:56Z</time>
      </trkpt>
      <trkpt lat="48.83536" lon="1.44893">
        <ele>116.300003</ele>
        <time>2017-04-18T13:01:01Z</time>
      </trkpt>
      <trkpt lat="48.83534" lon="1.44878">
        <ele>118.5</ele>
        <time>2017-04-18T13:01:12Z</time>
      </trkpt>
      <trkpt lat="48.83528" lon="1.44864">
        <ele>118.800003</ele>
        <time>2017-04-18T13:01:16Z</time>
      </trkpt>
      <trkpt lat="48.83523" lon="1.44849">
        <ele>119</ele>
        <time>2017-04-18T13:01:21Z</time>
      </trkpt>
      <trkpt lat="48.83519" lon="1.44834">
        <ele>119.099998</ele>
        <time>2017-04-18T13:01:25Z</time>
      </trkpt>
      <trkpt lat="48.8351" lon="1.44826">
        <ele>119.199997</ele>
        <time>2017-04-18T13:01:29Z</time>
      </trkpt>
      <trkpt lat="48.83498" lon="1.44817">
        <ele>119.099998</ele>
        <time>2017-04-18T13:01:32Z</time>
      </trkpt>
      <trkpt lat="48.83492" lon="1.44805">
        <ele>118.599998</ele>
        <time>2017-04-18T13:01:35Z</time>
      </trkpt>
      <trkpt lat="48.83489" lon="1.44787">
        <ele>118.099998</ele>
        <time>2017-04-18T13:01:39Z</time>
      </trkpt>
      <trkpt lat="48.83487" lon="1.4477">
        <ele>117.800003</ele>
        <time>2017-04-18T13:01:43Z</time>
      </trkpt>
      <trkpt lat="48.83486" lon="1.44755">
        <ele>117.800003</ele>
        <time>2017-04-18T13:01:47Z</time>
      </trkpt>
      <trkpt lat="48.83485" lon="1.44739">
        <ele>118.199997</ele>
        <time>2017-04-18T13:01:51Z</time>
      </trkpt>
      <trkpt lat="48.83484" lon="1.44724">
        <ele>118.599998</ele>
        <time>2017-04-18T13:01:55Z</time>
      </trkpt>
      <trkpt lat="48.83485" lon="1.4471">
        <ele>119.199997</ele>
        <time>2017-04-18T13:01:59Z</time>
      </trkpt>
      <trkpt lat="48.83487" lon="1.44695">
        <ele>119.800003</ele>
        <time>2017-04-18T13:02:03Z</time>
      </trkpt>
      <trkpt lat="48.8349" lon="1.44679">
        <ele>120.400002</ele>
        <time>2017-04-18T13:02:07Z</time>
      </trkpt>
      <trkpt lat="48.83495" lon="1.44666">
        <ele>121</ele>
        <time>2017-04-18T13:02:11Z</time>
      </trkpt>
      <trkpt lat="48.835" lon="1.44653">
        <ele>121.800003</ele>
        <time>2017-04-18T13:02:15Z</time>
      </trkpt>
      <trkpt lat="48.83505" lon="1.44639">
        <ele>122.699997</ele>
        <time>2017-04-18T13:02:21Z</time>
      </trkpt>
      <trkpt lat="48.83501" lon="1.44625">
        <ele>123.699997</ele>
        <time>2017-04-18T13:02:26Z</time>
      </trkpt>
      <trkpt lat="48.83492" lon="1.44612">
        <ele>124.400002</ele>
        <time>2017-04-18T13:02:30Z</time>
      </trkpt>
      <trkpt lat="48.83485" lon="1.44599">
        <ele>124.900002</ele>
        <time>2017-04-18T13:02:34Z</time>
      </trkpt>
      <trkpt lat="48.83478" lon="1.44587">
        <ele>125.199997</ele>
        <time>2017-04-18T13:02:37Z</time>
      </trkpt>
      <trkpt lat="48.83472" lon="1.44576">
        <ele>125.400002</ele>
        <time>2017-04-18T13:02:40Z</time>
      </trkpt>
      <trkpt lat="48.83466" lon="1.44564">
        <ele>125.699997</ele>
        <time>2017-04-18T13:02:44Z</time>
      </trkpt>
      <trkpt lat="48.83458" lon="1.44552">
        <ele>125.900002</ele>
        <time>2017-04-18T13:02:47Z</time>
      </trkpt>
      <trkpt lat="48.8345" lon="1.4454">
        <ele>126</ele>
        <time>2017-04-18T13:02:50Z</time>
      </trkpt>
      <trkpt lat="48.83442" lon="1.4453">
        <ele>126</ele>
        <time>2017-04-18T13:02:52Z</time>
      </trkpt>
      <trkpt lat="48.83435" lon="1.44517">
        <ele>125.900002</ele>
        <time>2017-04-18T13:02:54Z</time>
      </trkpt>
      <trkpt lat="48.83429" lon="1.44508">
        <ele>125.800003</ele>
        <time>2017-04-18T13:02:56Z</time>
      </trkpt>
      <trkpt lat="48.83422" lon="1.44497">
        <ele>125.699997</ele>
        <time>2017-04-18T13:02:58Z</time>
      </trkpt>
      <trkpt lat="48.83414" lon="1.44486">
        <ele>125.599998</ele>
        <time>2017-04-18T13:03:00Z</time>
      </trkpt>
      <trkpt lat="48.83406" lon="1.44474">
        <ele>125.5</ele>
        <time>2017-04-18T13:03:02Z</time>
      </trkpt>
      <trkpt lat="48.83396" lon="1.4446">
        <ele>125.5</ele>
        <time>2017-04-18T13:03:05Z</time>
      </trkpt>
      <trkpt lat="48.83389" lon="1.44452">
        <ele>125.5</ele>
        <time>2017-04-18T13:03:07Z</time>
      </trkpt>
      <trkpt lat="48.8338" lon="1.4444">
        <ele>125.5</ele>
        <time>2017-04-18T13:03:09Z</time>
      </trkpt>
      <trkpt lat="48.83372" lon="1.4443">
        <ele>125.400002</ele>
        <time>2017-04-18T13:03:11Z</time>
      </trkpt>
      <trkpt lat="48.83364" lon="1.44418">
        <ele>125.400002</ele>
        <time>2017-04-18T13:03:13Z</time>
      </trkpt>
      <trkpt lat="48.83357" lon="1.44405">
        <ele>125.400002</ele>
        <time>2017-04-18T13:03:15Z</time>
      </trkpt>
      <trkpt lat="48.83349" lon="1.44395">
        <ele>125.400002</ele>
        <time>2017-04-18T13:03:17Z</time>
      </trkpt>
      <trkpt lat="48.83338" lon="1.44384">
        <ele>125.300003</ele>
        <time>2017-04-18T13:03:20Z</time>
      </trkpt>
      <trkpt lat="48.83328" lon="1.44381">
        <ele>124.900002</ele>
        <time>2017-04-18T13:03:22Z</time>
      </trkpt>
      <trkpt lat="48.83315" lon="1.44381">
        <ele>124.400002</ele>
        <time>2017-04-18T13:03:24Z</time>
      </trkpt>
      <trkpt lat="48.83297" lon="1.44381">
        <ele>123.199997</ele>
        <time>2017-04-18T13:03:26Z</time>
      </trkpt>
      <trkpt lat="48.83287" lon="1.44384">
        <ele>122.400002</ele>
        <time>2017-04-18T13:03:27Z</time>
      </trkpt>
      <trkpt lat="48.83277" lon="1.44386">
        <ele>121.699997</ele>
        <time>2017-04-18T13:03:28Z</time>
      </trkpt>
      <trkpt lat="48.83268" lon="1.4439">
        <ele>120.800003</ele>
        <time>2017-04-18T13:03:29Z</time>
      </trkpt>
      <trkpt lat="48.83255" lon="1.44391">
        <ele>120</ele>
        <time>2017-04-18T13:03:30Z</time>
      </trkpt>
      <trkpt lat="48.83245" lon="1.44393">
        <ele>119.099998</ele>
        <time>2017-04-18T13:03:31Z</time>
      </trkpt>
      <trkpt lat="48.83233" lon="1.44394">
        <ele>118</ele>
        <time>2017-04-18T13:03:32Z</time>
      </trkpt>
      <trkpt lat="48.83224" lon="1.44396">
        <ele>117</ele>
        <time>2017-04-18T13:03:33Z</time>
      </trkpt>
      <trkpt lat="48.83214" lon="1.44396">
        <ele>116.199997</ele>
        <time>2017-04-18T13:03:34Z</time>
      </trkpt>
      <trkpt lat="48.83199" lon="1.44396">
        <ele>114.800003</ele>
        <time>2017-04-18T13:03:36Z</time>
      </trkpt>
      <trkpt lat="48.83183" lon="1.44398">
        <ele>113.699997</ele>
        <time>2017-04-18T13:03:38Z</time>
      </trkpt>
      <trkpt lat="48.8317" lon="1.44399">
        <ele>112.800003</ele>
        <time>2017-04-18T13:03:40Z</time>
      </trkpt>
      <trkpt lat="48.83157" lon="1.44401">
        <ele>112.199997</ele>
        <time>2017-04-18T13:03:42Z</time>
      </trkpt>
      <trkpt lat="48.83148" lon="1.444">
        <ele>112.099998</ele>
        <time>2017-04-18T13:03:43Z</time>
      </trkpt>
      <trkpt lat="48.83137" lon="1.44401">
        <ele>112</ele>
        <time>2017-04-18T13:03:46Z</time>
      </trkpt>
      <trkpt lat="48.83127" lon="1.44401">
        <ele>112</ele>
        <time>2017-04-18T13:03:49Z</time>
      </trkpt>
      <trkpt lat="48.83115" lon="1.44402">
        <ele>112.199997</ele>
        <time>2017-04-18T13:03:52Z</time>
      </trkpt>
      <trkpt lat="48.83104" lon="1.44404">
        <ele>112.5</ele>
        <time>2017-04-18T13:03:55Z</time>
      </trkpt>
      <trkpt lat="48.83091" lon="1.44407">
        <ele>112.800003</ele>
        <time>2017-04-18T13:03:58Z</time>
      </trkpt>
      <trkpt lat="48.8308" lon="1.44408">
        <ele>112.900002</ele>
        <time>2017-04-18T13:04:00Z</time>
      </trkpt>
      <trkpt lat="48.8307" lon="1.44409">
        <ele>113.099998</ele>
        <time>2017-04-18T13:04:02Z</time>
      </trkpt>
      <trkpt lat="48.83058" lon="1.44411">
        <ele>113.400002</ele>
        <time>2017-04-18T13:04:05Z</time>
      </trkpt>
      <trkpt lat="48.83047" lon="1.44415">
        <ele>113.599998</ele>
        <time>2017-04-18T13:04:08Z</time>
      </trkpt>
      <trkpt lat="48.83034" lon="1.44418">
        <ele>113.900002</ele>
        <time>2017-04-18T13:04:11Z</time>
      </trkpt>
      <trkpt lat="48.83024" lon="1.44419">
        <ele>114.099998</ele>
        <time>2017-04-18T13:04:13Z</time>
      </trkpt>
      <trkpt lat="48.83014" lon="1.44421">
        <ele>114.300003</ele>
        <time>2017-04-18T13:04:15Z</time>
      </trkpt>
      <trkpt lat="48.83005" lon="1.44422">
        <ele>114.5</ele>
        <time>2017-04-18T13:04:17Z</time>
      </trkpt>
      <trkpt lat="48.82996" lon="1.44425">
        <ele>114.699997</ele>
        <time>2017-04-18T13:04:19Z</time>
      </trkpt>
      <trkpt lat="48.82986" lon="1.44426">
        <ele>114.900002</ele>
        <time>2017-04-18T13:04:21Z</time>
      </trkpt>
      <trkpt lat="48.82976" lon="1.44428">
        <ele>115</ele>
        <time>2017-04-18T13:04:23Z</time>
      </trkpt>
      <trkpt lat="48.82966" lon="1.4443">
        <ele>115.099998</ele>
        <time>2017-04-18T13:04:25Z</time>
      </trkpt>
      <trkpt lat="48.82957" lon="1.44433">
        <ele>115.199997</ele>
        <time>2017-04-18T13:04:27Z</time>
      </trkpt>
      <trkpt lat="48.82948" lon="1.44442">
        <ele>115.300003</ele>
        <time>2017-04-18T13:04:29Z</time>
      </trkpt>
      <trkpt lat="48.82942" lon="1.44455">
        <ele>115.400002</ele>
        <time>2017-04-18T13:04:31Z</time>
      </trkpt>
      <trkpt lat="48.82935" lon="1.4447">
        <ele>115.300003</ele>
        <time>2017-04-18T13:04:33Z</time>
      </trkpt>
      <trkpt lat="48.8293" lon="1.44489">
        <ele>115.199997</ele>
        <time>2017-04-18T13:04:35Z</time>
      </trkpt>
      <trkpt lat="48.82923" lon="1.44508">
        <ele>114.800003</ele>
        <time>2017-04-18T13:04:37Z</time>
      </trkpt>
      <trkpt lat="48.82915" lon="1.44527">
        <ele>114.300003</ele>
        <time>2017-04-18T13:04:39Z</time>
      </trkpt>
      <trkpt lat="48.82908" lon="1.44548">
        <ele>113.599998</ele>
        <time>2017-04-18T13:04:41Z</time>
      </trkpt>
      <trkpt lat="48.82901" lon="1.44567">
        <ele>112.900002</ele>
        <time>2017-04-18T13:04:43Z</time>
      </trkpt>
      <trkpt lat="48.82897" lon="1.44579">
        <ele>112</ele>
        <time>2017-04-18T13:04:45Z</time>
      </trkpt>
      <trkpt lat="48.82896" lon="1.44593">
        <ele>112.099998</ele>
        <time>2017-04-18T13:04:48Z</time>
      </trkpt>
      <trkpt lat="48.82895" lon="1.44608">
        <ele>112.099998</ele>
        <time>2017-04-18T13:04:52Z</time>
      </trkpt>
      <trkpt lat="48.82894" lon="1.44624">
        <ele>113</ele>
        <time>2017-04-18T13:04:57Z</time>
      </trkpt>
      <trkpt lat="48.82892" lon="1.44639">
        <ele>114.5</ele>
        <time>2017-04-18T13:05:03Z</time>
      </trkpt>
      <trkpt lat="48.8289" lon="1.44653">
        <ele>116.599998</ele>
        <time>2017-04-18T13:05:10Z</time>
      </trkpt>
      <trkpt lat="48.82886" lon="1.44666">
        <ele>119.099998</ele>
        <time>2017-04-18T13:05:17Z</time>
      </trkpt>
      <trkpt lat="48.82885" lon="1.4468">
        <ele>122.099998</ele>
        <time>2017-04-18T13:05:27Z</time>
      </trkpt>
      <trkpt lat="48.82882" lon="1.44695">
        <ele>124.099998</ele>
        <time>2017-04-18T13:05:35Z</time>
      </trkpt>
      <trkpt lat="48.82888" lon="1.44706">
        <ele>125.400002</ele>
        <time>2017-04-18T13:05:40Z</time>
      </trkpt>
      <trkpt lat="48.82895" lon="1.44715">
        <ele>126.400002</ele>
        <time>2017-04-18T13:05:45Z</time>
      </trkpt>
      <trkpt lat="48.82903" lon="1.44726">
        <ele>127.199997</ele>
        <time>2017-04-18T13:05:50Z</time>
      </trkpt>
      <trkpt lat="48.82911" lon="1.44737">
        <ele>127.599998</ele>
        <time>2017-04-18T13:05:53Z</time>
      </trkpt>
      <trkpt lat="48.82919" lon="1.44749">
        <ele>127.900002</ele>
        <time>2017-04-18T13:05:56Z</time>
      </trkpt>
      <trkpt lat="48.82926" lon="1.44757">
        <ele>128.100006</ele>
        <time>2017-04-18T13:05:58Z</time>
      </trkpt>
      <trkpt lat="48.82934" lon="1.44768">
        <ele>128.199997</ele>
        <time>2017-04-18T13:06:01Z</time>
      </trkpt>
      <trkpt lat="48.82943" lon="1.44779">
        <ele>128.100006</ele>
        <time>2017-04-18T13:06:04Z</time>
      </trkpt>
      <trkpt lat="48.82951" lon="1.44791">
        <ele>128.100006</ele>
        <time>2017-04-18T13:06:08Z</time>
      </trkpt>
      <trkpt lat="48.82949" lon="1.44806">
        <ele>128.100006</ele>
        <time>2017-04-18T13:06:12Z</time>
      </trkpt>
      <trkpt lat="48.82944" lon="1.44822">
        <ele>128.100006</ele>
        <time>2017-04-18T13:06:16Z</time>
      </trkpt>
      <trkpt lat="48.82938" lon="1.44834">
        <ele>128.199997</ele>
        <time>2017-04-18T13:06:18Z</time>
      </trkpt>
      <trkpt lat="48.82931" lon="1.44851">
        <ele>128.300003</ele>
        <time>2017-04-18T13:06:21Z</time>
      </trkpt>
      <trkpt lat="48.82924" lon="1.44869">
        <ele>128.399994</ele>
        <time>2017-04-18T13:06:24Z</time>
      </trkpt>
      <trkpt lat="48.82918" lon="1.44881">
        <ele>128.5</ele>
        <time>2017-04-18T13:06:26Z</time>
      </trkpt>
      <trkpt lat="48.8291" lon="1.44896">
        <ele>128.699997</ele>
        <time>2017-04-18T13:06:29Z</time>
      </trkpt>
      <trkpt lat="48.82904" lon="1.44907">
        <ele>128.899994</ele>
        <time>2017-04-18T13:06:31Z</time>
      </trkpt>
      <trkpt lat="48.82895" lon="1.44921">
        <ele>129.100006</ele>
        <time>2017-04-18T13:06:34Z</time>
      </trkpt>
      <trkpt lat="48.82886" lon="1.44934">
        <ele>129.399994</ele>
        <time>2017-04-18T13:06:37Z</time>
      </trkpt>
      <trkpt lat="48.8288" lon="1.44944">
        <ele>129.699997</ele>
        <time>2017-04-18T13:06:39Z</time>
      </trkpt>
      <trkpt lat="48.8287" lon="1.44959">
        <ele>130</ele>
        <time>2017-04-18T13:06:42Z</time>
      </trkpt>
      <trkpt lat="48.82863" lon="1.4497">
        <ele>130.199997</ele>
        <time>2017-04-18T13:06:44Z</time>
      </trkpt>
      <trkpt lat="48.82855" lon="1.44979">
        <ele>130.5</ele>
        <time>2017-04-18T13:06:46Z</time>
      </trkpt>
      <trkpt lat="48.82843" lon="1.4499">
        <ele>131.100006</ele>
        <time>2017-04-18T13:06:49Z</time>
      </trkpt>
      <trkpt lat="48.82832" lon="1.44999">
        <ele>131.5</ele>
        <time>2017-04-18T13:06:52Z</time>
      </trkpt>
      <trkpt lat="48.82821" lon="1.45008">
        <ele>131.899994</ele>
        <time>2017-04-18T13:06:55Z</time>
      </trkpt>
      <trkpt lat="48.82811" lon="1.45013">
        <ele>132.199997</ele>
        <time>2017-04-18T13:06:57Z</time>
      </trkpt>
      <trkpt lat="48.82801" lon="1.45014">
        <ele>132.5</ele>
        <time>2017-04-18T13:06:59Z</time>
      </trkpt>
      <trkpt lat="48.82791" lon="1.45017">
        <ele>132.800003</ele>
        <time>2017-04-18T13:07:01Z</time>
      </trkpt>
      <trkpt lat="48.82778" lon="1.45022">
        <ele>133.199997</ele>
        <time>2017-04-18T13:07:04Z</time>
      </trkpt>
      <trkpt lat="48.82765" lon="1.45028">
        <ele>133.800003</ele>
        <time>2017-04-18T13:07:07Z</time>
      </trkpt>
      <trkpt lat="48.82755" lon="1.45034">
        <ele>134.199997</ele>
        <time>2017-04-18T13:07:09Z</time>
      </trkpt>
      <trkpt lat="48.82745" lon="1.45041">
        <ele>134.5</ele>
        <time>2017-04-18T13:07:11Z</time>
      </trkpt>
      <trkpt lat="48.82736" lon="1.45048">
        <ele>134.699997</ele>
        <time>2017-04-18T13:07:13Z</time>
      </trkpt>
      <trkpt lat="48.82727" lon="1.45055">
        <ele>135</ele>
        <time>2017-04-18T13:07:15Z</time>
      </trkpt>
      <trkpt lat="48.82717" lon="1.45062">
        <ele>135.199997</ele>
        <time>2017-04-18T13:07:17Z</time>
      </trkpt>
      <trkpt lat="48.82708" lon="1.45069">
        <ele>135.300003</ele>
        <time>2017-04-18T13:07:19Z</time>
      </trkpt>
      <trkpt lat="48.82699" lon="1.45076">
        <ele>135.399994</ele>
        <time>2017-04-18T13:07:21Z</time>
      </trkpt>
      <trkpt lat="48.82689" lon="1.45083">
        <ele>135.600006</ele>
        <time>2017-04-18T13:07:23Z</time>
      </trkpt>
      <trkpt lat="48.82679" lon="1.4509">
        <ele>135.699997</ele>
        <time>2017-04-18T13:07:25Z</time>
      </trkpt>
      <trkpt lat="48.82668" lon="1.45098">
        <ele>135.800003</ele>
        <time>2017-04-18T13:07:27Z</time>
      </trkpt>
      <trkpt lat="48.82659" lon="1.45108">
        <ele>135.800003</ele>
        <time>2017-04-18T13:07:29Z</time>
      </trkpt>
      <trkpt lat="48.82649" lon="1.45116">
        <ele>135.899994</ele>
        <time>2017-04-18T13:07:31Z</time>
      </trkpt>
      <trkpt lat="48.8264" lon="1.45124">
        <ele>136.100006</ele>
        <time>2017-04-18T13:07:33Z</time>
      </trkpt>
      <trkpt lat="48.82633" lon="1.45134">
        <ele>136.199997</ele>
        <time>2017-04-18T13:07:35Z</time>
      </trkpt>
      <trkpt lat="48.82624" lon="1.45145">
        <ele>136.300003</ele>
        <time>2017-04-18T13:07:37Z</time>
      </trkpt>
      <trkpt lat="48.82616" lon="1.45155">
        <ele>136.399994</ele>
        <time>2017-04-18T13:07:39Z</time>
      </trkpt>
      <trkpt lat="48.82609" lon="1.45168">
        <ele>136.399994</ele>
        <time>2017-04-18T13:07:41Z</time>
      </trkpt>
      <trkpt lat="48.82602" lon="1.45181">
        <ele>136.399994</ele>
        <time>2017-04-18T13:07:43Z</time>
      </trkpt>
      <trkpt lat="48.82595" lon="1.45195">
        <ele>136.5</ele>
        <time>2017-04-18T13:07:45Z</time>
      </trkpt>
      <trkpt lat="48.82589" lon="1.45209">
        <ele>136.5</ele>
        <time>2017-04-18T13:07:47Z</time>
      </trkpt>
      <trkpt lat="48.82582" lon="1.45223">
        <ele>136.5</ele>
        <time>2017-04-18T13:07:49Z</time>
      </trkpt>
      <trkpt lat="48.82575" lon="1.45238">
        <ele>136.5</ele>
        <time>2017-04-18T13:07:51Z</time>
      </trkpt>
      <trkpt lat="48.82567" lon="1.45251">
        <ele>136.5</ele>
        <time>2017-04-18T13:07:53Z</time>
      </trkpt>
      <trkpt lat="48.82562" lon="1.45267">
        <ele>136.5</ele>
        <time>2017-04-18T13:07:55Z</time>
      </trkpt>
      <trkpt lat="48.82555" lon="1.4528">
        <ele>136.5</ele>
        <time>2017-04-18T13:07:57Z</time>
      </trkpt>
      <trkpt lat="48.82549" lon="1.45291">
        <ele>136.5</ele>
        <time>2017-04-18T13:07:59Z</time>
      </trkpt>
      <trkpt lat="48.8254" lon="1.45304">
        <ele>136.5</ele>
        <time>2017-04-18T13:08:01Z</time>
      </trkpt>
      <trkpt lat="48.82529" lon="1.45314">
        <ele>136.5</ele>
        <time>2017-04-18T13:08:03Z</time>
      </trkpt>
      <trkpt lat="48.82521" lon="1.45325">
        <ele>136.5</ele>
        <time>2017-04-18T13:08:05Z</time>
      </trkpt>
      <trkpt lat="48.8251" lon="1.45332">
        <ele>136.5</ele>
        <time>2017-04-18T13:08:07Z</time>
      </trkpt>
      <trkpt lat="48.82501" lon="1.45339">
        <ele>136.5</ele>
        <time>2017-04-18T13:08:09Z</time>
      </trkpt>
      <trkpt lat="48.82491" lon="1.45348">
        <ele>136.5</ele>
        <time>2017-04-18T13:08:11Z</time>
      </trkpt>
      <trkpt lat="48.82483" lon="1.45357">
        <ele>136.5</ele>
        <time>2017-04-18T13:08:13Z</time>
      </trkpt>
      <trkpt lat="48.82472" lon="1.45365">
        <ele>136.600006</ele>
        <time>2017-04-18T13:08:15Z</time>
      </trkpt>
      <trkpt lat="48.82463" lon="1.45373">
        <ele>136.600006</ele>
        <time>2017-04-18T13:08:17Z</time>
      </trkpt>
      <trkpt lat="48.82455" lon="1.45383">
        <ele>136.600006</ele>
        <time>2017-04-18T13:08:19Z</time>
      </trkpt>
      <trkpt lat="48.82446" lon="1.45393">
        <ele>136.699997</ele>
        <time>2017-04-18T13:08:21Z</time>
      </trkpt>
      <trkpt lat="48.82437" lon="1.45402">
        <ele>136.800003</ele>
        <time>2017-04-18T13:08:23Z</time>
      </trkpt>
      <trkpt lat="48.82429" lon="1.45413">
        <ele>136.699997</ele>
        <time>2017-04-18T13:08:25Z</time>
      </trkpt>
      <trkpt lat="48.82423" lon="1.45427">
        <ele>136.699997</ele>
        <time>2017-04-18T13:08:27Z</time>
      </trkpt>
      <trkpt lat="48.82418" lon="1.45439">
        <ele>136.800003</ele>
        <time>2017-04-18T13:08:29Z</time>
      </trkpt>
      <trkpt lat="48.82412" lon="1.45453">
        <ele>136.800003</ele>
        <time>2017-04-18T13:08:31Z</time>
      </trkpt>
      <trkpt lat="48.82406" lon="1.45463">
        <ele>136.800003</ele>
        <time>2017-04-18T13:08:33Z</time>
      </trkpt>
      <trkpt lat="48.82396" lon="1.45481">
        <ele>136.800003</ele>
        <time>2017-04-18T13:08:36Z</time>
      </trkpt>
      <trkpt lat="48.82388" lon="1.45494">
        <ele>136.899994</ele>
        <time>2017-04-18T13:08:38Z</time>
      </trkpt>
      <trkpt lat="48.82381" lon="1.45507">
        <ele>136.899994</ele>
        <time>2017-04-18T13:08:40Z</time>
      </trkpt>
      <trkpt lat="48.82376" lon="1.45519">
        <ele>136.899994</ele>
        <time>2017-04-18T13:08:42Z</time>
      </trkpt>
      <trkpt lat="48.82368" lon="1.45531">
        <ele>136.899994</ele>
        <time>2017-04-18T13:08:44Z</time>
      </trkpt>
      <trkpt lat="48.82362" lon="1.45547">
        <ele>136.899994</ele>
        <time>2017-04-18T13:08:46Z</time>
      </trkpt>
      <trkpt lat="48.82355" lon="1.45561">
        <ele>136.899994</ele>
        <time>2017-04-18T13:08:48Z</time>
      </trkpt>
      <trkpt lat="48.82349" lon="1.45575">
        <ele>137</ele>
        <time>2017-04-18T13:08:50Z</time>
      </trkpt>
      <trkpt lat="48.82342" lon="1.45588">
        <ele>137</ele>
        <time>2017-04-18T13:08:52Z</time>
      </trkpt>
      <trkpt lat="48.82337" lon="1.45603">
        <ele>136.899994</ele>
        <time>2017-04-18T13:08:54Z</time>
      </trkpt>
      <trkpt lat="48.82332" lon="1.45618">
        <ele>136.800003</ele>
        <time>2017-04-18T13:08:56Z</time>
      </trkpt>
      <trkpt lat="48.82322" lon="1.45621">
        <ele>136.699997</ele>
        <time>2017-04-18T13:08:59Z</time>
      </trkpt>
      <trkpt lat="48.82316" lon="1.45609">
        <ele>136.699997</ele>
        <time>2017-04-18T13:09:03Z</time>
      </trkpt>
      <trkpt lat="48.82309" lon="1.45595">
        <ele>136.699997</ele>
        <time>2017-04-18T13:09:06Z</time>
      </trkpt>
      <trkpt lat="48.82301" lon="1.45579">
        <ele>136.699997</ele>
        <time>2017-04-18T13:09:08Z</time>
      </trkpt>
      <trkpt lat="48.82297" lon="1.45565">
        <ele>136.800003</ele>
        <time>2017-04-18T13:09:10Z</time>
      </trkpt>
      <trkpt lat="48.82292" lon="1.4555">
        <ele>136.800003</ele>
        <time>2017-04-18T13:09:12Z</time>
      </trkpt>
      <trkpt lat="48.82287" lon="1.45536">
        <ele>136.800003</ele>
        <time>2017-04-18T13:09:14Z</time>
      </trkpt>
      <trkpt lat="48.82282" lon="1.45521">
        <ele>136.800003</ele>
        <time>2017-04-18T13:09:16Z</time>
      </trkpt>
      <trkpt lat="48.82276" lon="1.45506">
        <ele>136.800003</ele>
        <time>2017-04-18T13:09:18Z</time>
      </trkpt>
      <trkpt lat="48.82271" lon="1.45491">
        <ele>136</ele>
        <time>2017-04-18T13:09:20Z</time>
      </trkpt>
      <trkpt lat="48.82262" lon="1.45468">
        <ele>136.899994</ele>
        <time>2017-04-18T13:09:23Z</time>
      </trkpt>
      <trkpt lat="48.82258" lon="1.45452">
        <ele>137</ele>
        <time>2017-04-18T13:09:25Z</time>
      </trkpt>
      <trkpt lat="48.82252" lon="1.45435">
        <ele>136</ele>
        <time>2017-04-18T13:09:27Z</time>
      </trkpt>
      <trkpt lat="48.82243" lon="1.45409">
        <ele>137</ele>
        <time>2017-04-18T13:09:30Z</time>
      </trkpt>
      <trkpt lat="48.82236" lon="1.45392">
        <ele>137</ele>
        <time>2017-04-18T13:09:32Z</time>
      </trkpt>
      <trkpt lat="48.82227" lon="1.45366">
        <ele>137.100006</ele>
        <time>2017-04-18T13:09:35Z</time>
      </trkpt>
      <trkpt lat="48.82221" lon="1.45349">
        <ele>137.100006</ele>
        <time>2017-04-18T13:09:37Z</time>
      </trkpt>
      <trkpt lat="48.82214" lon="1.45333">
        <ele>137.100006</ele>
        <time>2017-04-18T13:09:39Z</time>
      </trkpt>
      <trkpt lat="48.82208" lon="1.45316">
        <ele>137</ele>
        <time>2017-04-18T13:09:41Z</time>
      </trkpt>
      <trkpt lat="48.82202" lon="1.453">
        <ele>137</ele>
        <time>2017-04-18T13:09:43Z</time>
      </trkpt>
      <trkpt lat="48.82196" lon="1.45284">
        <ele>136.899994</ele>
        <time>2017-04-18T13:09:45Z</time>
      </trkpt>
      <trkpt lat="48.8219" lon="1.45268">
        <ele>136.800003</ele>
        <time>2017-04-18T13:09:47Z</time>
      </trkpt>
      <trkpt lat="48.82185" lon="1.45252">
        <ele>136.800003</ele>
        <time>2017-04-18T13:09:49Z</time>
      </trkpt>
      <trkpt lat="48.8218" lon="1.45236">
        <ele>136.699997</ele>
        <time>2017-04-18T13:09:51Z</time>
      </trkpt>
      <trkpt lat="48.82174" lon="1.45225">
        <ele>136.699997</ele>
        <time>2017-04-18T13:09:54Z</time>
      </trkpt>
      <trkpt lat="48.82165" lon="1.45231">
        <ele>136.5</ele>
        <time>2017-04-18T13:09:58Z</time>
      </trkpt>
      <trkpt lat="48.82158" lon="1.45246">
        <ele>136.399994</ele>
        <time>2017-04-18T13:10:02Z</time>
      </trkpt>
      <trkpt lat="48.82151" lon="1.45256">
        <ele>136.399994</ele>
        <time>2017-04-18T13:10:04Z</time>
      </trkpt>
      <trkpt lat="48.82146" lon="1.45267">
        <ele>136.399994</ele>
        <time>2017-04-18T13:10:06Z</time>
      </trkpt>
      <trkpt lat="48.82142" lon="1.45282">
        <ele>136.300003</ele>
        <time>2017-04-18T13:10:08Z</time>
      </trkpt>
      <trkpt lat="48.8214" lon="1.45297">
        <ele>136.199997</ele>
        <time>2017-04-18T13:10:10Z</time>
      </trkpt>
      <trkpt lat="48.82136" lon="1.45311">
        <ele>136.100006</ele>
        <time>2017-04-18T13:10:12Z</time>
      </trkpt>
      <trkpt lat="48.82135" lon="1.45328">
        <ele>136.100006</ele>
        <time>2017-04-18T13:10:14Z</time>
      </trkpt>
      <trkpt lat="48.82131" lon="1.45345">
        <ele>136.100006</ele>
        <time>2017-04-18T13:10:16Z</time>
      </trkpt>
      <trkpt lat="48.82127" lon="1.4536">
        <ele>136</ele>
        <time>2017-04-18T13:10:18Z</time>
      </trkpt>
      <trkpt lat="48.82124" lon="1.45374">
        <ele>136</ele>
        <time>2017-04-18T13:10:20Z</time>
      </trkpt>
      <trkpt lat="48.82123" lon="1.45392">
        <ele>136</ele>
        <time>2017-04-18T13:10:22Z</time>
      </trkpt>
      <trkpt lat="48.8212" lon="1.45408">
        <ele>136</ele>
        <time>2017-04-18T13:10:24Z</time>
      </trkpt>
      <trkpt lat="48.82117" lon="1.45426">
        <ele>136</ele>
        <time>2017-04-18T13:10:26Z</time>
      </trkpt>
      <trkpt lat="48.82116" lon="1.45443">
        <ele>136</ele>
        <time>2017-04-18T13:10:28Z</time>
      </trkpt>
      <trkpt lat="48.82114" lon="1.45461">
        <ele>136.100006</ele>
        <time>2017-04-18T13:10:30Z</time>
      </trkpt>
      <trkpt lat="48.82112" lon="1.45478">
        <ele>136.100006</ele>
        <time>2017-04-18T13:10:32Z</time>
      </trkpt>
      <trkpt lat="48.82111" lon="1.45495">
        <ele>136.199997</ele>
        <time>2017-04-18T13:10:34Z</time>
      </trkpt>
      <trkpt lat="48.82108" lon="1.45511">
        <ele>136.199997</ele>
        <time>2017-04-18T13:10:36Z</time>
      </trkpt>
      <trkpt lat="48.82106" lon="1.45526">
        <ele>136.199997</ele>
        <time>2017-04-18T13:10:38Z</time>
      </trkpt>
      <trkpt lat="48.82105" lon="1.45544">
        <ele>136.300003</ele>
        <time>2017-04-18T13:10:40Z</time>
      </trkpt>
      <trkpt lat="48.82103" lon="1.45561">
        <ele>136.300003</ele>
        <time>2017-04-18T13:10:42Z</time>
      </trkpt>
      <trkpt lat="48.82102" lon="1.45577">
        <ele>136.300003</ele>
        <time>2017-04-18T13:10:44Z</time>
      </trkpt>
      <trkpt lat="48.82101" lon="1.45595">
        <ele>136.399994</ele>
        <time>2017-04-18T13:10:46Z</time>
      </trkpt>
      <trkpt lat="48.821" lon="1.45611">
        <ele>136.399994</ele>
        <time>2017-04-18T13:10:48Z</time>
      </trkpt>
      <trkpt lat="48.82101" lon="1.4563">
        <ele>136.5</ele>
        <time>2017-04-18T13:10:51Z</time>
      </trkpt>
      <trkpt lat="48.82092" lon="1.45637">
        <ele>136.600006</ele>
        <time>2017-04-18T13:10:57Z</time>
      </trkpt>
      <trkpt lat="48.82083" lon="1.4563">
        <ele>136.699997</ele>
        <time>2017-04-18T13:11:00Z</time>
      </trkpt>
      <trkpt lat="48.82075" lon="1.45622">
        <ele>136.699997</ele>
        <time>2017-04-18T13:11:03Z</time>
      </trkpt>
      <trkpt lat="48.82066" lon="1.45616">
        <ele>136.699997</ele>
        <time>2017-04-18T13:11:05Z</time>
      </trkpt>
      <trkpt lat="48.82056" lon="1.45607">
        <ele>136.800003</ele>
        <time>2017-04-18T13:11:08Z</time>
      </trkpt>
      <trkpt lat="48.82048" lon="1.45599">
        <ele>136.899994</ele>
        <time>2017-04-18T13:11:10Z</time>
      </trkpt>
      <trkpt lat="48.82039" lon="1.45591">
        <ele>137</ele>
        <time>2017-04-18T13:11:12Z</time>
      </trkpt>
      <trkpt lat="48.82028" lon="1.45581">
        <ele>137</ele>
        <time>2017-04-18T13:11:15Z</time>
      </trkpt>
      <trkpt lat="48.82019" lon="1.45573">
        <ele>136.899994</ele>
        <time>2017-04-18T13:11:17Z</time>
      </trkpt>
      <trkpt lat="48.8201" lon="1.45559">
        <ele>136.899994</ele>
        <time>2017-04-18T13:11:19Z</time>
      </trkpt>
      <trkpt lat="48.82002" lon="1.45546">
        <ele>136.899994</ele>
        <time>2017-04-18T13:11:21Z</time>
      </trkpt>
      <trkpt lat="48.81996" lon="1.4553">
        <ele>136.699997</ele>
        <time>2017-04-18T13:11:24Z</time>
      </trkpt>
      <trkpt lat="48.8199" lon="1.45518">
        <ele>136.699997</ele>
        <time>2017-04-18T13:11:26Z</time>
      </trkpt>
      <trkpt lat="48.81984" lon="1.45504">
        <ele>136.600006</ele>
        <time>2017-04-18T13:11:28Z</time>
      </trkpt>
      <trkpt lat="48.81979" lon="1.45488">
        <ele>136.5</ele>
        <time>2017-04-18T13:11:30Z</time>
      </trkpt>
      <trkpt lat="48.81973" lon="1.4547">
        <ele>136.100006</ele>
        <time>2017-04-18T13:11:32Z</time>
      </trkpt>
      <trkpt lat="48.81966" lon="1.45453">
        <ele>135.699997</ele>
        <time>2017-04-18T13:11:34Z</time>
      </trkpt>
      <trkpt lat="48.81959" lon="1.45436">
        <ele>135.300003</ele>
        <time>2017-04-18T13:11:36Z</time>
      </trkpt>
      <trkpt lat="48.8195" lon="1.45421">
        <ele>134.899994</ele>
        <time>2017-04-18T13:11:38Z</time>
      </trkpt>
      <trkpt lat="48.81939" lon="1.45408">
        <ele>134.600006</ele>
        <time>2017-04-18T13:11:40Z</time>
      </trkpt>
      <trkpt lat="48.8193" lon="1.45402">
        <ele>134.300003</ele>
        <time>2017-04-18T13:11:42Z</time>
      </trkpt>
      <trkpt lat="48.81918" lon="1.45395">
        <ele>134</ele>
        <time>2017-04-18T13:11:44Z</time>
      </trkpt>
      <trkpt lat="48.8191" lon="1.45379">
        <ele>133.5</ele>
        <time>2017-04-18T13:11:47Z</time>
      </trkpt>
      <trkpt lat="48.81908" lon="1.45364">
        <ele>133.199997</ele>
        <time>2017-04-18T13:11:49Z</time>
      </trkpt>
      <trkpt lat="48.81906" lon="1.45347">
        <ele>133</ele>
        <time>2017-04-18T13:11:51Z</time>
      </trkpt>
      <trkpt lat="48.81904" lon="1.45331">
        <ele>132.800003</ele>
        <time>2017-04-18T13:11:53Z</time>
      </trkpt>
      <trkpt lat="48.81902" lon="1.45313">
        <ele>132.800003</ele>
        <time>2017-04-18T13:11:55Z</time>
      </trkpt>
      <trkpt lat="48.81901" lon="1.45294">
        <ele>132.699997</ele>
        <time>2017-04-18T13:11:57Z</time>
      </trkpt>
      <trkpt lat="48.819" lon="1.45276">
        <ele>132.699997</ele>
        <time>2017-04-18T13:11:59Z</time>
      </trkpt>
      <trkpt lat="48.81901" lon="1.45257">
        <ele>132.600006</ele>
        <time>2017-04-18T13:12:01Z</time>
      </trkpt>
      <trkpt lat="48.81901" lon="1.45238">
        <ele>132.600006</ele>
        <time>2017-04-18T13:12:03Z</time>
      </trkpt>
      <trkpt lat="48.81902" lon="1.45219">
        <ele>132.5</ele>
        <time>2017-04-18T13:12:05Z</time>
      </trkpt>
      <trkpt lat="48.81903" lon="1.452">
        <ele>132.5</ele>
        <time>2017-04-18T13:12:07Z</time>
      </trkpt>
      <trkpt lat="48.81906" lon="1.45182">
        <ele>132.399994</ele>
        <time>2017-04-18T13:12:09Z</time>
      </trkpt>
      <trkpt lat="48.81904" lon="1.45166">
        <ele>132.300003</ele>
        <time>2017-04-18T13:12:11Z</time>
      </trkpt>
      <trkpt lat="48.81897" lon="1.45154">
        <ele>132.100006</ele>
        <time>2017-04-18T13:12:14Z</time>
      </trkpt>
      <trkpt lat="48.81889" lon="1.45145">
        <ele>131.899994</ele>
        <time>2017-04-18T13:12:17Z</time>
      </trkpt>
      <trkpt lat="48.81879" lon="1.45136">
        <ele>131.699997</ele>
        <time>2017-04-18T13:12:20Z</time>
      </trkpt>
      <trkpt lat="48.8187" lon="1.45134">
        <ele>131.600006</ele>
        <time>2017-04-18T13:12:23Z</time>
      </trkpt>
      <trkpt lat="48.8186" lon="1.45139">
        <ele>131.600006</ele>
        <time>2017-04-18T13:12:25Z</time>
      </trkpt>
      <trkpt lat="48.8185" lon="1.45138">
        <ele>131.600006</ele>
        <time>2017-04-18T13:12:27Z</time>
      </trkpt>
      <trkpt lat="48.81836" lon="1.45145">
        <ele>131.699997</ele>
        <time>2017-04-18T13:12:30Z</time>
      </trkpt>
      <trkpt lat="48.81828" lon="1.45153">
        <ele>131.800003</ele>
        <time>2017-04-18T13:12:32Z</time>
      </trkpt>
      <trkpt lat="48.8182" lon="1.4516">
        <ele>131.899994</ele>
        <time>2017-04-18T13:12:34Z</time>
      </trkpt>
      <trkpt lat="48.81807" lon="1.45168">
        <ele>132.100006</ele>
        <time>2017-04-18T13:12:37Z</time>
      </trkpt>
      <trkpt lat="48.81797" lon="1.4518">
        <ele>132.300003</ele>
        <time>2017-04-18T13:12:40Z</time>
      </trkpt>
      <trkpt lat="48.81788" lon="1.45193">
        <ele>132.5</ele>
        <time>2017-04-18T13:12:43Z</time>
      </trkpt>
      <trkpt lat="48.8178" lon="1.45208">
        <ele>132.800003</ele>
        <time>2017-04-18T13:12:46Z</time>
      </trkpt>
      <trkpt lat="48.8177" lon="1.45223">
        <ele>133</ele>
        <time>2017-04-18T13:12:49Z</time>
      </trkpt>
      <trkpt lat="48.81762" lon="1.45238">
        <ele>133.199997</ele>
        <time>2017-04-18T13:12:52Z</time>
      </trkpt>
      <trkpt lat="48.81758" lon="1.4525">
        <ele>133.300003</ele>
        <time>2017-04-18T13:12:54Z</time>
      </trkpt>
      <trkpt lat="48.81752" lon="1.45263">
        <ele>133.5</ele>
        <time>2017-04-18T13:12:56Z</time>
      </trkpt>
      <trkpt lat="48.81746" lon="1.45276">
        <ele>133.600006</ele>
        <time>2017-04-18T13:12:58Z</time>
      </trkpt>
      <trkpt lat="48.81741" lon="1.45289">
        <ele>133.699997</ele>
        <time>2017-04-18T13:13:00Z</time>
      </trkpt>
      <trkpt lat="48.81736" lon="1.45301">
        <ele>133.800003</ele>
        <time>2017-04-18T13:13:02Z</time>
      </trkpt>
      <trkpt lat="48.81731" lon="1.45313">
        <ele>134</ele>
        <time>2017-04-18T13:13:05Z</time>
      </trkpt>
      <trkpt lat="48.81727" lon="1.45327">
        <ele>134.100006</ele>
        <time>2017-04-18T13:13:07Z</time>
      </trkpt>
      <trkpt lat="48.8172" lon="1.4534">
        <ele>134.100006</ele>
        <time>2017-04-18T13:13:10Z</time>
      </trkpt>
      <trkpt lat="48.8171" lon="1.45352">
        <ele>134.199997</ele>
        <time>2017-04-18T13:13:13Z</time>
      </trkpt>
      <trkpt lat="48.81699" lon="1.45361">
        <ele>134.300003</ele>
        <time>2017-04-18T13:13:16Z</time>
      </trkpt>
      <trkpt lat="48.81691" lon="1.45367">
        <ele>134.300003</ele>
        <time>2017-04-18T13:13:18Z</time>
      </trkpt>
      <trkpt lat="48.81681" lon="1.45371">
        <ele>134.399994</ele>
        <time>2017-04-18T13:13:20Z</time>
      </trkpt>
      <trkpt lat="48.81671" lon="1.45376">
        <ele>134.399994</ele>
        <time>2017-04-18T13:13:22Z</time>
      </trkpt>
      <trkpt lat="48.81662" lon="1.4538">
        <ele>134.399994</ele>
        <time>2017-04-18T13:13:24Z</time>
      </trkpt>
      <trkpt lat="48.8165" lon="1.45386">
        <ele>134.5</ele>
        <time>2017-04-18T13:13:26Z</time>
      </trkpt>
      <trkpt lat="48.8164" lon="1.45392">
        <ele>134.5</ele>
        <time>2017-04-18T13:13:28Z</time>
      </trkpt>
      <trkpt lat="48.81631" lon="1.45396">
        <ele>134.5</ele>
        <time>2017-04-18T13:13:30Z</time>
      </trkpt>
      <trkpt lat="48.81619" lon="1.45402">
        <ele>134.5</ele>
        <time>2017-04-18T13:13:32Z</time>
      </trkpt>
      <trkpt lat="48.81609" lon="1.45409">
        <ele>134.600006</ele>
        <time>2017-04-18T13:13:34Z</time>
      </trkpt>
      <trkpt lat="48.81598" lon="1.45418">
        <ele>134.600006</ele>
        <time>2017-04-18T13:13:36Z</time>
      </trkpt>
      <trkpt lat="48.81588" lon="1.45424">
        <ele>134.600006</ele>
        <time>2017-04-18T13:13:38Z</time>
      </trkpt>
      <trkpt lat="48.81576" lon="1.45432">
        <ele>134.5</ele>
        <time>2017-04-18T13:13:40Z</time>
      </trkpt>
      <trkpt lat="48.81565" lon="1.45439">
        <ele>134.5</ele>
        <time>2017-04-18T13:13:42Z</time>
      </trkpt>
      <trkpt lat="48.81553" lon="1.45446">
        <ele>134.399994</ele>
        <time>2017-04-18T13:13:44Z</time>
      </trkpt>
      <trkpt lat="48.81541" lon="1.45451">
        <ele>134.399994</ele>
        <time>2017-04-18T13:13:46Z</time>
      </trkpt>
      <trkpt lat="48.81529" lon="1.45456">
        <ele>134.300003</ele>
        <time>2017-04-18T13:13:48Z</time>
      </trkpt>
      <trkpt lat="48.81519" lon="1.45464">
        <ele>134.199997</ele>
        <time>2017-04-18T13:13:50Z</time>
      </trkpt>
      <trkpt lat="48.8151" lon="1.4547">
        <ele>134.199997</ele>
        <time>2017-04-18T13:13:52Z</time>
      </trkpt>
      <trkpt lat="48.81501" lon="1.45473">
        <ele>134.199997</ele>
        <time>2017-04-18T13:13:54Z</time>
      </trkpt>
      <trkpt lat="48.81494" lon="1.45482">
        <ele>134.100006</ele>
        <time>2017-04-18T13:13:58Z</time>
      </trkpt>
      <trkpt lat="48.81484" lon="1.45477">
        <ele>134.100006</ele>
        <time>2017-04-18T13:14:03Z</time>
      </trkpt>
      <trkpt lat="48.81474" lon="1.45478">
        <ele>134.199997</ele>
        <time>2017-04-18T13:14:07Z</time>
      </trkpt>
      <trkpt lat="48.81462" lon="1.45482">
        <ele>134.199997</ele>
        <time>2017-04-18T13:14:10Z</time>
      </trkpt>
      <trkpt lat="48.81452" lon="1.45487">
        <ele>134.300003</ele>
        <time>2017-04-18T13:14:12Z</time>
      </trkpt>
      <trkpt lat="48.81444" lon="1.45493">
        <ele>134.300003</ele>
        <time>2017-04-18T13:14:14Z</time>
      </trkpt>
      <trkpt lat="48.81435" lon="1.45497">
        <ele>134.300003</ele>
        <time>2017-04-18T13:14:16Z</time>
      </trkpt>
      <trkpt lat="48.81421" lon="1.45505">
        <ele>134.399994</ele>
        <time>2017-04-18T13:14:19Z</time>
      </trkpt>
      <trkpt lat="48.81412" lon="1.45509">
        <ele>134.399994</ele>
        <time>2017-04-18T13:14:21Z</time>
      </trkpt>
      <trkpt lat="48.81402" lon="1.45513">
        <ele>134.600006</ele>
        <time>2017-04-18T13:14:23Z</time>
      </trkpt>
      <trkpt lat="48.81392" lon="1.45518">
        <ele>134.699997</ele>
        <time>2017-04-18T13:14:25Z</time>
      </trkpt>
      <trkpt lat="48.81381" lon="1.45521">
        <ele>134.800003</ele>
        <time>2017-04-18T13:14:27Z</time>
      </trkpt>
      <trkpt lat="48.81371" lon="1.45526">
        <ele>134.899994</ele>
        <time>2017-04-18T13:14:29Z</time>
      </trkpt>
      <trkpt lat="48.81362" lon="1.45532">
        <ele>135</ele>
        <time>2017-04-18T13:14:31Z</time>
      </trkpt>
      <trkpt lat="48.81353" lon="1.4554">
        <ele>135</ele>
        <time>2017-04-18T13:14:33Z</time>
      </trkpt>
      <trkpt lat="48.81343" lon="1.45544">
        <ele>135.100006</ele>
        <time>2017-04-18T13:14:35Z</time>
      </trkpt>
      <trkpt lat="48.81333" lon="1.45547">
        <ele>135.199997</ele>
        <time>2017-04-18T13:14:37Z</time>
      </trkpt>
      <trkpt lat="48.81323" lon="1.45552">
        <ele>135.199997</ele>
        <time>2017-04-18T13:14:40Z</time>
      </trkpt>
      <trkpt lat="48.81311" lon="1.45556">
        <ele>135.300003</ele>
        <time>2017-04-18T13:14:44Z</time>
      </trkpt>
      <trkpt lat="48.81299" lon="1.4556">
        <ele>135.300003</ele>
        <time>2017-04-18T13:14:47Z</time>
      </trkpt>
      <trkpt lat="48.81287" lon="1.4557">
        <ele>135.300003</ele>
        <time>2017-04-18T13:14:50Z</time>
      </trkpt>
      <trkpt lat="48.81275" lon="1.45569">
        <ele>135.300003</ele>
        <time>2017-04-18T13:14:53Z</time>
      </trkpt>
      <trkpt lat="48.81271" lon="1.45556">
        <ele>135.300003</ele>
        <time>2017-04-18T13:14:56Z</time>
      </trkpt>
      <trkpt lat="48.81257" lon="1.45537">
        <ele>135</ele>
        <time>2017-04-18T13:16:33Z</time>
      </trkpt>
      <trkpt lat="48.81254" lon="1.45542">
        <ele>136</ele>
        <time>2017-04-18T13:21:16Z</time>
      </trkpt>
      <trkpt lat="48.81253" lon="1.45528">
        <ele>136</ele>
        <time>2017-04-18T13:21:28Z</time>
      </trkpt>
      <trkpt lat="48.81245" lon="1.45519">
        <ele>136</ele>
        <time>2017-04-18T13:21:36Z</time>
      </trkpt>
      <trkpt lat="48.81237" lon="1.4551">
        <ele>136</ele>
        <time>2017-04-18T13:21:40Z</time>
      </trkpt>
      <trkpt lat="48.8123" lon="1.455">
        <ele>136</ele>
        <time>2017-04-18T13:21:43Z</time>
      </trkpt>
      <trkpt lat="48.81222" lon="1.4549">
        <ele>135.800003</ele>
        <time>2017-04-18T13:21:46Z</time>
      </trkpt>
      <trkpt lat="48.81213" lon="1.45478">
        <ele>135.800003</ele>
        <time>2017-04-18T13:21:49Z</time>
      </trkpt>
      <trkpt lat="48.81203" lon="1.45467">
        <ele>135.699997</ele>
        <time>2017-04-18T13:21:52Z</time>
      </trkpt>
      <trkpt lat="48.81193" lon="1.45455">
        <ele>135.699997</ele>
        <time>2017-04-18T13:21:55Z</time>
      </trkpt>
      <trkpt lat="48.81183" lon="1.45444">
        <ele>135.800003</ele>
        <time>2017-04-18T13:21:58Z</time>
      </trkpt>
      <trkpt lat="48.81173" lon="1.45432">
        <ele>135.800003</ele>
        <time>2017-04-18T13:22:01Z</time>
      </trkpt>
      <trkpt lat="48.81166" lon="1.45423">
        <ele>135.800003</ele>
        <time>2017-04-18T13:22:03Z</time>
      </trkpt>
      <trkpt lat="48.81156" lon="1.45412">
        <ele>135.899994</ele>
        <time>2017-04-18T13:22:06Z</time>
      </trkpt>
      <trkpt lat="48.81145" lon="1.45398">
        <ele>136</ele>
        <time>2017-04-18T13:22:09Z</time>
      </trkpt>
      <trkpt lat="48.81135" lon="1.45387">
        <ele>136</ele>
        <time>2017-04-18T13:22:12Z</time>
      </trkpt>
      <trkpt lat="48.81128" lon="1.45378">
        <ele>136.100006</ele>
        <time>2017-04-18T13:22:14Z</time>
      </trkpt>
      <trkpt lat="48.8112" lon="1.4537">
        <ele>136.100006</ele>
        <time>2017-04-18T13:22:16Z</time>
      </trkpt>
      <trkpt lat="48.8111" lon="1.45357">
        <ele>136.300003</ele>
        <time>2017-04-18T13:22:19Z</time>
      </trkpt>
      <trkpt lat="48.811" lon="1.45346">
        <ele>136.399994</ele>
        <time>2017-04-18T13:22:22Z</time>
      </trkpt>
      <trkpt lat="48.81092" lon="1.45337">
        <ele>136.5</ele>
        <time>2017-04-18T13:22:24Z</time>
      </trkpt>
      <trkpt lat="48.81084" lon="1.45328">
        <ele>136.5</ele>
        <time>2017-04-18T13:22:26Z</time>
      </trkpt>
      <trkpt lat="48.81077" lon="1.45319">
        <ele>136.600006</ele>
        <time>2017-04-18T13:22:28Z</time>
      </trkpt>
      <trkpt lat="48.81069" lon="1.4531">
        <ele>136.600006</ele>
        <time>2017-04-18T13:22:30Z</time>
      </trkpt>
      <trkpt lat="48.81062" lon="1.45302">
        <ele>136.699997</ele>
        <time>2017-04-18T13:22:32Z</time>
      </trkpt>
      <trkpt lat="48.81053" lon="1.45289">
        <ele>136.800003</ele>
        <time>2017-04-18T13:22:35Z</time>
      </trkpt>
      <trkpt lat="48.81044" lon="1.45279">
        <ele>137</ele>
        <time>2017-04-18T13:22:38Z</time>
      </trkpt>
      <trkpt lat="48.81036" lon="1.4527">
        <ele>137.100006</ele>
        <time>2017-04-18T13:22:40Z</time>
      </trkpt>
      <trkpt lat="48.81028" lon="1.45262">
        <ele>137.199997</ele>
        <time>2017-04-18T13:22:42Z</time>
      </trkpt>
      <trkpt lat="48.8102" lon="1.45251">
        <ele>137.300003</ele>
        <time>2017-04-18T13:22:44Z</time>
      </trkpt>
      <trkpt lat="48.81011" lon="1.45242">
        <ele>137.399994</ele>
        <time>2017-04-18T13:22:46Z</time>
      </trkpt>
      <trkpt lat="48.81003" lon="1.45233">
        <ele>137.399994</ele>
        <time>2017-04-18T13:22:48Z</time>
      </trkpt>
      <trkpt lat="48.80993" lon="1.4522">
        <ele>137.5</ele>
        <time>2017-04-18T13:22:51Z</time>
      </trkpt>
      <trkpt lat="48.80984" lon="1.4521">
        <ele>137.699997</ele>
        <time>2017-04-18T13:22:53Z</time>
      </trkpt>
      <trkpt lat="48.80977" lon="1.45201">
        <ele>137.899994</ele>
        <time>2017-04-18T13:22:55Z</time>
      </trkpt>
      <trkpt lat="48.80968" lon="1.45192">
        <ele>138.100006</ele>
        <time>2017-04-18T13:22:57Z</time>
      </trkpt>
      <trkpt lat="48.80961" lon="1.45183">
        <ele>138.199997</ele>
        <time>2017-04-18T13:22:59Z</time>
      </trkpt>
      <trkpt lat="48.80951" lon="1.4517">
        <ele>138.399994</ele>
        <time>2017-04-18T13:23:02Z</time>
      </trkpt>
      <trkpt lat="48.80941" lon="1.45158">
        <ele>138.600006</ele>
        <time>2017-04-18T13:23:05Z</time>
      </trkpt>
      <trkpt lat="48.80931" lon="1.45146">
        <ele>138.600006</ele>
        <time>2017-04-18T13:23:08Z</time>
      </trkpt>
      <trkpt lat="48.80922" lon="1.45134">
        <ele>138.800003</ele>
        <time>2017-04-18T13:23:11Z</time>
      </trkpt>
      <trkpt lat="48.80915" lon="1.45125">
        <ele>138.800003</ele>
        <time>2017-04-18T13:23:13Z</time>
      </trkpt>
      <trkpt lat="48.80905" lon="1.45113">
        <ele>139.100006</ele>
        <time>2017-04-18T13:23:16Z</time>
      </trkpt>
      <trkpt lat="48.80897" lon="1.45104">
        <ele>139.199997</ele>
        <time>2017-04-18T13:23:18Z</time>
      </trkpt>
      <trkpt lat="48.80889" lon="1.45094">
        <ele>139.399994</ele>
        <time>2017-04-18T13:23:20Z</time>
      </trkpt>
      <trkpt lat="48.80881" lon="1.45084">
        <ele>139.5</ele>
        <time>2017-04-18T13:23:22Z</time>
      </trkpt>
      <trkpt lat="48.8087" lon="1.45071">
        <ele>139.699997</ele>
        <time>2017-04-18T13:23:25Z</time>
      </trkpt>
      <trkpt lat="48.80861" lon="1.45059">
        <ele>139.800003</ele>
        <time>2017-04-18T13:23:28Z</time>
      </trkpt>
      <trkpt lat="48.80852" lon="1.45049">
        <ele>139.899994</ele>
        <time>2017-04-18T13:23:30Z</time>
      </trkpt>
      <trkpt lat="48.80845" lon="1.45041">
        <ele>139.899994</ele>
        <time>2017-04-18T13:23:32Z</time>
      </trkpt>
      <trkpt lat="48.80837" lon="1.45031">
        <ele>140</ele>
        <time>2017-04-18T13:23:34Z</time>
      </trkpt>
      <trkpt lat="48.80829" lon="1.45022">
        <ele>140</ele>
        <time>2017-04-18T13:23:36Z</time>
      </trkpt>
      <trkpt lat="48.80821" lon="1.45012">
        <ele>140</ele>
        <time>2017-04-18T13:23:38Z</time>
      </trkpt>
      <trkpt lat="48.80813" lon="1.45003">
        <ele>140</ele>
        <time>2017-04-18T13:23:40Z</time>
      </trkpt>
      <trkpt lat="48.80804" lon="1.44992">
        <ele>140.100006</ele>
        <time>2017-04-18T13:23:42Z</time>
      </trkpt>
      <trkpt lat="48.80795" lon="1.44983">
        <ele>140.100006</ele>
        <time>2017-04-18T13:23:44Z</time>
      </trkpt>
      <trkpt lat="48.80787" lon="1.44973">
        <ele>140.100006</ele>
        <time>2017-04-18T13:23:46Z</time>
      </trkpt>
      <trkpt lat="48.80778" lon="1.44963">
        <ele>140.199997</ele>
        <time>2017-04-18T13:23:48Z</time>
      </trkpt>
      <trkpt lat="48.80769" lon="1.44952">
        <ele>140.199997</ele>
        <time>2017-04-18T13:23:50Z</time>
      </trkpt>
      <trkpt lat="48.8076" lon="1.44942">
        <ele>140.199997</ele>
        <time>2017-04-18T13:23:52Z</time>
      </trkpt>
      <trkpt lat="48.80751" lon="1.44932">
        <ele>140.300003</ele>
        <time>2017-04-18T13:23:54Z</time>
      </trkpt>
      <trkpt lat="48.80742" lon="1.44922">
        <ele>140.300003</ele>
        <time>2017-04-18T13:23:56Z</time>
      </trkpt>
      <trkpt lat="48.80733" lon="1.44913">
        <ele>140.300003</ele>
        <time>2017-04-18T13:23:58Z</time>
      </trkpt>
      <trkpt lat="48.80725" lon="1.44902">
        <ele>140.300003</ele>
        <time>2017-04-18T13:24:00Z</time>
      </trkpt>
      <trkpt lat="48.80717" lon="1.44892">
        <ele>140.300003</ele>
        <time>2017-04-18T13:24:02Z</time>
      </trkpt>
      <trkpt lat="48.80708" lon="1.44882">
        <ele>140.300003</ele>
        <time>2017-04-18T13:24:04Z</time>
      </trkpt>
      <trkpt lat="48.80703" lon="1.44871">
        <ele>140.300003</ele>
        <time>2017-04-18T13:24:06Z</time>
      </trkpt>
      <trkpt lat="48.80693" lon="1.44864">
        <ele>140.300003</ele>
        <time>2017-04-18T13:24:09Z</time>
      </trkpt>
      <trkpt lat="48.80681" lon="1.44865">
        <ele>140.300003</ele>
        <time>2017-04-18T13:24:12Z</time>
      </trkpt>
      <trkpt lat="48.80668" lon="1.44867">
        <ele>140.300003</ele>
        <time>2017-04-18T13:24:15Z</time>
      </trkpt>
      <trkpt lat="48.80659" lon="1.44869">
        <ele>140.300003</ele>
        <time>2017-04-18T13:24:17Z</time>
      </trkpt>
      <trkpt lat="48.80649" lon="1.4487">
        <ele>140.300003</ele>
        <time>2017-04-18T13:24:19Z</time>
      </trkpt>
      <trkpt lat="48.8064" lon="1.44871">
        <ele>140.300003</ele>
        <time>2017-04-18T13:24:21Z</time>
      </trkpt>
      <trkpt lat="48.8063" lon="1.44873">
        <ele>140.300003</ele>
        <time>2017-04-18T13:24:23Z</time>
      </trkpt>
      <trkpt lat="48.8062" lon="1.44875">
        <ele>140.300003</ele>
        <time>2017-04-18T13:24:25Z</time>
      </trkpt>
      <trkpt lat="48.8061" lon="1.44876">
        <ele>140.300003</ele>
        <time>2017-04-18T13:24:27Z</time>
      </trkpt>
      <trkpt lat="48.80599" lon="1.44877">
        <ele>140.300003</ele>
        <time>2017-04-18T13:24:29Z</time>
      </trkpt>
      <trkpt lat="48.80589" lon="1.44879">
        <ele>140.300003</ele>
        <time>2017-04-18T13:24:31Z</time>
      </trkpt>
      <trkpt lat="48.80579" lon="1.4488">
        <ele>140.300003</ele>
        <time>2017-04-18T13:24:33Z</time>
      </trkpt>
      <trkpt lat="48.80569" lon="1.44882">
        <ele>140.300003</ele>
        <time>2017-04-18T13:24:35Z</time>
      </trkpt>
      <trkpt lat="48.80559" lon="1.44884">
        <ele>140.300003</ele>
        <time>2017-04-18T13:24:37Z</time>
      </trkpt>
      <trkpt lat="48.80549" lon="1.44886">
        <ele>140.300003</ele>
        <time>2017-04-18T13:24:39Z</time>
      </trkpt>
      <trkpt lat="48.8054" lon="1.44888">
        <ele>140.399994</ele>
        <time>2017-04-18T13:24:41Z</time>
      </trkpt>
      <trkpt lat="48.8053" lon="1.44891">
        <ele>140.399994</ele>
        <time>2017-04-18T13:24:43Z</time>
      </trkpt>
      <trkpt lat="48.80519" lon="1.44893">
        <ele>140.5</ele>
        <time>2017-04-18T13:24:45Z</time>
      </trkpt>
      <trkpt lat="48.80509" lon="1.44895">
        <ele>140.5</ele>
        <time>2017-04-18T13:24:47Z</time>
      </trkpt>
      <trkpt lat="48.80499" lon="1.44897">
        <ele>140.699997</ele>
        <time>2017-04-18T13:24:49Z</time>
      </trkpt>
      <trkpt lat="48.8049" lon="1.44901">
        <ele>141</ele>
        <time>2017-04-18T13:24:51Z</time>
      </trkpt>
      <trkpt lat="48.80481" lon="1.44904">
        <ele>141.100006</ele>
        <time>2017-04-18T13:24:53Z</time>
      </trkpt>
      <trkpt lat="48.80471" lon="1.44906">
        <ele>141.300003</ele>
        <time>2017-04-18T13:24:55Z</time>
      </trkpt>
      <trkpt lat="48.80461" lon="1.44909">
        <ele>141.5</ele>
        <time>2017-04-18T13:24:57Z</time>
      </trkpt>
      <trkpt lat="48.80451" lon="1.44911">
        <ele>141.600006</ele>
        <time>2017-04-18T13:24:59Z</time>
      </trkpt>
      <trkpt lat="48.8044" lon="1.44912">
        <ele>141.699997</ele>
        <time>2017-04-18T13:25:01Z</time>
      </trkpt>
      <trkpt lat="48.8043" lon="1.44913">
        <ele>141.800003</ele>
        <time>2017-04-18T13:25:03Z</time>
      </trkpt>
      <trkpt lat="48.8042" lon="1.44915">
        <ele>141.899994</ele>
        <time>2017-04-18T13:25:05Z</time>
      </trkpt>
      <trkpt lat="48.80411" lon="1.44917">
        <ele>142.100006</ele>
        <time>2017-04-18T13:25:07Z</time>
      </trkpt>
      <trkpt lat="48.80401" lon="1.44919">
        <ele>142.300003</ele>
        <time>2017-04-18T13:25:09Z</time>
      </trkpt>
      <trkpt lat="48.8039" lon="1.44919">
        <ele>142.399994</ele>
        <time>2017-04-18T13:25:11Z</time>
      </trkpt>
      <trkpt lat="48.8038" lon="1.44922">
        <ele>142.600006</ele>
        <time>2017-04-18T13:25:13Z</time>
      </trkpt>
      <trkpt lat="48.80371" lon="1.44925">
        <ele>142.800003</ele>
        <time>2017-04-18T13:25:15Z</time>
      </trkpt>
      <trkpt lat="48.80361" lon="1.44928">
        <ele>143</ele>
        <time>2017-04-18T13:25:17Z</time>
      </trkpt>
      <trkpt lat="48.80349" lon="1.44928">
        <ele>143.100006</ele>
        <time>2017-04-18T13:25:19Z</time>
      </trkpt>
      <trkpt lat="48.80337" lon="1.44925">
        <ele>143.300003</ele>
        <time>2017-04-18T13:25:21Z</time>
      </trkpt>
      <trkpt lat="48.80327" lon="1.44928">
        <ele>143.5</ele>
        <time>2017-04-18T13:25:23Z</time>
      </trkpt>
      <trkpt lat="48.80315" lon="1.44928">
        <ele>143.600006</ele>
        <time>2017-04-18T13:25:25Z</time>
      </trkpt>
      <trkpt lat="48.80305" lon="1.4493">
        <ele>143.600006</ele>
        <time>2017-04-18T13:25:27Z</time>
      </trkpt>
      <trkpt lat="48.80296" lon="1.44932">
        <ele>143.800003</ele>
        <time>2017-04-18T13:25:29Z</time>
      </trkpt>
      <trkpt lat="48.80285" lon="1.44934">
        <ele>143.899994</ele>
        <time>2017-04-18T13:25:31Z</time>
      </trkpt>
      <trkpt lat="48.80275" lon="1.44936">
        <ele>144.100006</ele>
        <time>2017-04-18T13:25:33Z</time>
      </trkpt>
      <trkpt lat="48.80264" lon="1.44936">
        <ele>144.100006</ele>
        <time>2017-04-18T13:25:35Z</time>
      </trkpt>
      <trkpt lat="48.80251" lon="1.44936">
        <ele>144.399994</ele>
        <time>2017-04-18T13:25:38Z</time>
      </trkpt>
      <trkpt lat="48.80241" lon="1.44937">
        <ele>144.5</ele>
        <time>2017-04-18T13:25:40Z</time>
      </trkpt>
      <trkpt lat="48.8023" lon="1.44939">
        <ele>144.699997</ele>
        <time>2017-04-18T13:25:42Z</time>
      </trkpt>
      <trkpt lat="48.80218" lon="1.4494">
        <ele>144.800003</ele>
        <time>2017-04-18T13:25:44Z</time>
      </trkpt>
      <trkpt lat="48.80204" lon="1.44944">
        <ele>145</ele>
        <time>2017-04-18T13:25:47Z</time>
      </trkpt>
      <trkpt lat="48.80192" lon="1.44947">
        <ele>145.100006</ele>
        <time>2017-04-18T13:25:49Z</time>
      </trkpt>
      <trkpt lat="48.8018" lon="1.44951">
        <ele>145.199997</ele>
        <time>2017-04-18T13:25:51Z</time>
      </trkpt>
      <trkpt lat="48.80169" lon="1.44955">
        <ele>145</ele>
        <time>2017-04-18T13:25:53Z</time>
      </trkpt>
      <trkpt lat="48.80151" lon="1.44959">
        <ele>145.199997</ele>
        <time>2017-04-18T13:25:56Z</time>
      </trkpt>
      <trkpt lat="48.80139" lon="1.44964">
        <ele>145.199997</ele>
        <time>2017-04-18T13:25:58Z</time>
      </trkpt>
      <trkpt lat="48.80126" lon="1.44965">
        <ele>145.100006</ele>
        <time>2017-04-18T13:26:00Z</time>
      </trkpt>
      <trkpt lat="48.80115" lon="1.4497">
        <ele>145.100006</ele>
        <time>2017-04-18T13:26:02Z</time>
      </trkpt>
      <trkpt lat="48.80105" lon="1.44974">
        <ele>145</ele>
        <time>2017-04-18T13:26:04Z</time>
      </trkpt>
      <trkpt lat="48.80096" lon="1.44969">
        <ele>144.899994</ele>
        <time>2017-04-18T13:26:07Z</time>
      </trkpt>
      <trkpt lat="48.80091" lon="1.44956">
        <ele>144.800003</ele>
        <time>2017-04-18T13:26:10Z</time>
      </trkpt>
      <trkpt lat="48.80087" lon="1.44942">
        <ele>144.699997</ele>
        <time>2017-04-18T13:26:13Z</time>
      </trkpt>
      <trkpt lat="48.80086" lon="1.44927">
        <ele>144.699997</ele>
        <time>2017-04-18T13:26:15Z</time>
      </trkpt>
      <trkpt lat="48.80085" lon="1.44913">
        <ele>144.699997</ele>
        <time>2017-04-18T13:26:17Z</time>
      </trkpt>
      <trkpt lat="48.80086" lon="1.449">
        <ele>144.600006</ele>
        <time>2017-04-18T13:26:19Z</time>
      </trkpt>
      <trkpt lat="48.80087" lon="1.44885">
        <ele>144.600006</ele>
        <time>2017-04-18T13:26:21Z</time>
      </trkpt>
      <trkpt lat="48.80089" lon="1.4487">
        <ele>144.399994</ele>
        <time>2017-04-18T13:26:23Z</time>
      </trkpt>
      <trkpt lat="48.80091" lon="1.44854">
        <ele>144.199997</ele>
        <time>2017-04-18T13:26:25Z</time>
      </trkpt>
      <trkpt lat="48.80094" lon="1.44838">
        <ele>144.100006</ele>
        <time>2017-04-18T13:26:27Z</time>
      </trkpt>
      <trkpt lat="48.80097" lon="1.44821">
        <ele>144</ele>
        <time>2017-04-18T13:26:29Z</time>
      </trkpt>
      <trkpt lat="48.80099" lon="1.44804">
        <ele>143.899994</ele>
        <time>2017-04-18T13:26:31Z</time>
      </trkpt>
      <trkpt lat="48.80101" lon="1.44789">
        <ele>143.800003</ele>
        <time>2017-04-18T13:26:33Z</time>
      </trkpt>
      <trkpt lat="48.80103" lon="1.44772">
        <ele>143.699997</ele>
        <time>2017-04-18T13:26:35Z</time>
      </trkpt>
      <trkpt lat="48.80106" lon="1.44754">
        <ele>143.5</ele>
        <time>2017-04-18T13:26:37Z</time>
      </trkpt>
      <trkpt lat="48.80108" lon="1.44738">
        <ele>143.399994</ele>
        <time>2017-04-18T13:26:39Z</time>
      </trkpt>
      <trkpt lat="48.8011" lon="1.44724">
        <ele>143.199997</ele>
        <time>2017-04-18T13:26:41Z</time>
      </trkpt>
      <trkpt lat="48.80114" lon="1.44708">
        <ele>143.100006</ele>
        <time>2017-04-18T13:26:43Z</time>
      </trkpt>
      <trkpt lat="48.80117" lon="1.4469">
        <ele>143</ele>
        <time>2017-04-18T13:26:45Z</time>
      </trkpt>
      <trkpt lat="48.80122" lon="1.44672">
        <ele>142.899994</ele>
        <time>2017-04-18T13:26:47Z</time>
      </trkpt>
      <trkpt lat="48.80125" lon="1.44655">
        <ele>142.699997</ele>
        <time>2017-04-18T13:26:49Z</time>
      </trkpt>
      <trkpt lat="48.80128" lon="1.4464">
        <ele>142.5</ele>
        <time>2017-04-18T13:26:51Z</time>
      </trkpt>
      <trkpt lat="48.8013" lon="1.44626">
        <ele>142.300003</ele>
        <time>2017-04-18T13:26:53Z</time>
      </trkpt>
      <trkpt lat="48.80132" lon="1.4461">
        <ele>142.199997</ele>
        <time>2017-04-18T13:26:55Z</time>
      </trkpt>
      <trkpt lat="48.80133" lon="1.44595">
        <ele>142</ele>
        <time>2017-04-18T13:26:57Z</time>
      </trkpt>
      <trkpt lat="48.80135" lon="1.44578">
        <ele>142</ele>
        <time>2017-04-18T13:26:59Z</time>
      </trkpt>
      <trkpt lat="48.80136" lon="1.44561">
        <ele>141.899994</ele>
        <time>2017-04-18T13:27:01Z</time>
      </trkpt>
      <trkpt lat="48.80138" lon="1.44544">
        <ele>141.899994</ele>
        <time>2017-04-18T13:27:03Z</time>
      </trkpt>
      <trkpt lat="48.80141" lon="1.44529">
        <ele>141.899994</ele>
        <time>2017-04-18T13:27:05Z</time>
      </trkpt>
      <trkpt lat="48.80141" lon="1.44513">
        <ele>141.800003</ele>
        <time>2017-04-18T13:27:07Z</time>
      </trkpt>
      <trkpt lat="48.80145" lon="1.44497">
        <ele>141.800003</ele>
        <time>2017-04-18T13:27:09Z</time>
      </trkpt>
      <trkpt lat="48.80147" lon="1.44481">
        <ele>141.800003</ele>
        <time>2017-04-18T13:27:11Z</time>
      </trkpt>
      <trkpt lat="48.80152" lon="1.44464">
        <ele>141.800003</ele>
        <time>2017-04-18T13:27:13Z</time>
      </trkpt>
      <trkpt lat="48.80156" lon="1.44449">
        <ele>141.800003</ele>
        <time>2017-04-18T13:27:15Z</time>
      </trkpt>
      <trkpt lat="48.80157" lon="1.44433">
        <ele>141.800003</ele>
        <time>2017-04-18T13:27:17Z</time>
      </trkpt>
      <trkpt lat="48.80157" lon="1.44417">
        <ele>141.699997</ele>
        <time>2017-04-18T13:27:19Z</time>
      </trkpt>
      <trkpt lat="48.8016" lon="1.44404">
        <ele>141.699997</ele>
        <time>2017-04-18T13:27:21Z</time>
      </trkpt>
      <trkpt lat="48.80169" lon="1.44398">
        <ele>141.800003</ele>
        <time>2017-04-18T13:27:24Z</time>
      </trkpt>
      <trkpt lat="48.80179" lon="1.44395">
        <ele>141.899994</ele>
        <time>2017-04-18T13:27:27Z</time>
      </trkpt>
      <trkpt lat="48.80189" lon="1.4439">
        <ele>142.100006</ele>
        <time>2017-04-18T13:27:30Z</time>
      </trkpt>
      <trkpt lat="48.80202" lon="1.44387">
        <ele>142.300003</ele>
        <time>2017-04-18T13:27:33Z</time>
      </trkpt>
      <trkpt lat="48.80212" lon="1.44385">
        <ele>142.399994</ele>
        <time>2017-04-18T13:27:36Z</time>
      </trkpt>
      <trkpt lat="48.80229" lon="1.44381">
        <ele>142.300003</ele>
        <time>2017-04-18T13:27:39Z</time>
      </trkpt>
      <trkpt lat="48.80241" lon="1.4438">
        <ele>142.399994</ele>
        <time>2017-04-18T13:27:41Z</time>
      </trkpt>
      <trkpt lat="48.80254" lon="1.44379">
        <ele>142.399994</ele>
        <time>2017-04-18T13:27:43Z</time>
      </trkpt>
      <trkpt lat="48.80265" lon="1.4438">
        <ele>142.399994</ele>
        <time>2017-04-18T13:27:45Z</time>
      </trkpt>
      <trkpt lat="48.80278" lon="1.44378">
        <ele>142.399994</ele>
        <time>2017-04-18T13:27:47Z</time>
      </trkpt>
      <trkpt lat="48.8029" lon="1.44376">
        <ele>142.5</ele>
        <time>2017-04-18T13:27:49Z</time>
      </trkpt>
      <trkpt lat="48.80301" lon="1.44374">
        <ele>142.5</ele>
        <time>2017-04-18T13:27:51Z</time>
      </trkpt>
      <trkpt lat="48.8031" lon="1.44363">
        <ele>142.600006</ele>
        <time>2017-04-18T13:27:54Z</time>
      </trkpt>
      <trkpt lat="48.80313" lon="1.44345">
        <ele>142.800003</ele>
        <time>2017-04-18T13:27:57Z</time>
      </trkpt>
      <trkpt lat="48.80315" lon="1.44323">
        <ele>142.899994</ele>
        <time>2017-04-18T13:28:00Z</time>
      </trkpt>
      <trkpt lat="48.80317" lon="1.44308">
        <ele>142.899994</ele>
        <time>2017-04-18T13:28:02Z</time>
      </trkpt>
      <trkpt lat="48.8032" lon="1.44288">
        <ele>142.899994</ele>
        <time>2017-04-18T13:28:05Z</time>
      </trkpt>
      <trkpt lat="48.80322" lon="1.44273">
        <ele>143</ele>
        <time>2017-04-18T13:28:07Z</time>
      </trkpt>
      <trkpt lat="48.80323" lon="1.44258">
        <ele>143</ele>
        <time>2017-04-18T13:28:09Z</time>
      </trkpt>
      <trkpt lat="48.80325" lon="1.44242">
        <ele>143.100006</ele>
        <time>2017-04-18T13:28:11Z</time>
      </trkpt>
      <trkpt lat="48.8033" lon="1.44226">
        <ele>143.199997</ele>
        <time>2017-04-18T13:28:13Z</time>
      </trkpt>
      <trkpt lat="48.80334" lon="1.44211">
        <ele>143.300003</ele>
        <time>2017-04-18T13:28:15Z</time>
      </trkpt>
      <trkpt lat="48.80338" lon="1.44196">
        <ele>143.399994</ele>
        <time>2017-04-18T13:28:17Z</time>
      </trkpt>
      <trkpt lat="48.8034" lon="1.44182">
        <ele>143.5</ele>
        <time>2017-04-18T13:28:19Z</time>
      </trkpt>
      <trkpt lat="48.80344" lon="1.44168">
        <ele>143.600006</ele>
        <time>2017-04-18T13:28:21Z</time>
      </trkpt>
      <trkpt lat="48.80347" lon="1.44153">
        <ele>143.699997</ele>
        <time>2017-04-18T13:28:23Z</time>
      </trkpt>
      <trkpt lat="48.80346" lon="1.44137">
        <ele>143.699997</ele>
        <time>2017-04-18T13:28:25Z</time>
      </trkpt>
      <trkpt lat="48.80346" lon="1.44122">
        <ele>143.800003</ele>
        <time>2017-04-18T13:28:27Z</time>
      </trkpt>
      <trkpt lat="48.80352" lon="1.44102">
        <ele>143.800003</ele>
        <time>2017-04-18T13:28:30Z</time>
      </trkpt>
      <trkpt lat="48.80358" lon="1.44089">
        <ele>143.800003</ele>
        <time>2017-04-18T13:28:32Z</time>
      </trkpt>
      <trkpt lat="48.80366" lon="1.44084">
        <ele>143.699997</ele>
        <time>2017-04-18T13:28:36Z</time>
      </trkpt>
      <trkpt lat="48.80374" lon="1.44092">
        <ele>143.699997</ele>
        <time>2017-04-18T13:28:40Z</time>
      </trkpt>
      <trkpt lat="48.80382" lon="1.44097">
        <ele>143.699997</ele>
        <time>2017-04-18T13:28:43Z</time>
      </trkpt>
      <trkpt lat="48.80394" lon="1.44096">
        <ele>143.600006</ele>
        <time>2017-04-18T13:28:46Z</time>
      </trkpt>
      <trkpt lat="48.80404" lon="1.44098">
        <ele>143.600006</ele>
        <time>2017-04-18T13:28:48Z</time>
      </trkpt>
      <trkpt lat="48.80414" lon="1.44097">
        <ele>143.5</ele>
        <time>2017-04-18T13:28:50Z</time>
      </trkpt>
      <trkpt lat="48.80425" lon="1.44091">
        <ele>143.399994</ele>
        <time>2017-04-18T13:28:53Z</time>
      </trkpt>
      <trkpt lat="48.80434" lon="1.44091">
        <ele>143.5</ele>
        <time>2017-04-18T13:28:55Z</time>
      </trkpt>
      <trkpt lat="48.80444" lon="1.44092">
        <ele>143.5</ele>
        <time>2017-04-18T13:28:57Z</time>
      </trkpt>
      <trkpt lat="48.80453" lon="1.44093">
        <ele>143.5</ele>
        <time>2017-04-18T13:28:59Z</time>
      </trkpt>
      <trkpt lat="48.80464" lon="1.44095">
        <ele>143.600006</ele>
        <time>2017-04-18T13:29:01Z</time>
      </trkpt>
      <trkpt lat="48.80476" lon="1.44098">
        <ele>143.5</ele>
        <time>2017-04-18T13:29:03Z</time>
      </trkpt>
      <trkpt lat="48.8049" lon="1.44098">
        <ele>143.5</ele>
        <time>2017-04-18T13:29:05Z</time>
      </trkpt>
      <trkpt lat="48.80503" lon="1.44098">
        <ele>143.5</ele>
        <time>2017-04-18T13:29:07Z</time>
      </trkpt>
      <trkpt lat="48.80516" lon="1.44099">
        <ele>143.399994</ele>
        <time>2017-04-18T13:29:09Z</time>
      </trkpt>
      <trkpt lat="48.80526" lon="1.44098">
        <ele>143.300003</ele>
        <time>2017-04-18T13:29:11Z</time>
      </trkpt>
      <trkpt lat="48.80538" lon="1.44097">
        <ele>143.300003</ele>
        <time>2017-04-18T13:29:13Z</time>
      </trkpt>
      <trkpt lat="48.80549" lon="1.44098">
        <ele>143.199997</ele>
        <time>2017-04-18T13:29:15Z</time>
      </trkpt>
      <trkpt lat="48.8056" lon="1.44092">
        <ele>143.199997</ele>
        <time>2017-04-18T13:29:18Z</time>
      </trkpt>
      <trkpt lat="48.80567" lon="1.44084">
        <ele>143.100006</ele>
        <time>2017-04-18T13:29:20Z</time>
      </trkpt>
      <trkpt lat="48.80573" lon="1.44066">
        <ele>143.100006</ele>
        <time>2017-04-18T13:29:23Z</time>
      </trkpt>
      <trkpt lat="48.80576" lon="1.44051">
        <ele>143.100006</ele>
        <time>2017-04-18T13:29:25Z</time>
      </trkpt>
      <trkpt lat="48.80581" lon="1.44037">
        <ele>143</ele>
        <time>2017-04-18T13:29:27Z</time>
      </trkpt>
      <trkpt lat="48.8058" lon="1.44019">
        <ele>143</ele>
        <time>2017-04-18T13:29:30Z</time>
      </trkpt>
      <trkpt lat="48.80575" lon="1.44002">
        <ele>143.100006</ele>
        <time>2017-04-18T13:29:33Z</time>
      </trkpt>
      <trkpt lat="48.80573" lon="1.43983">
        <ele>143.100006</ele>
        <time>2017-04-18T13:29:36Z</time>
      </trkpt>
      <trkpt lat="48.80573" lon="1.43965">
        <ele>143.100006</ele>
        <time>2017-04-18T13:29:39Z</time>
      </trkpt>
      <trkpt lat="48.8057" lon="1.43945">
        <ele>143.100006</ele>
        <time>2017-04-18T13:29:42Z</time>
      </trkpt>
      <trkpt lat="48.80567" lon="1.43927">
        <ele>143</ele>
        <time>2017-04-18T13:29:44Z</time>
      </trkpt>
      <trkpt lat="48.80566" lon="1.43913">
        <ele>143</ele>
        <time>2017-04-18T13:29:46Z</time>
      </trkpt>
      <trkpt lat="48.80563" lon="1.43896">
        <ele>143</ele>
        <time>2017-04-18T13:29:49Z</time>
      </trkpt>
      <trkpt lat="48.80563" lon="1.43882">
        <ele>142.899994</ele>
        <time>2017-04-18T13:29:53Z</time>
      </trkpt>
      <trkpt lat="48.80559" lon="1.43863">
        <ele>142.899994</ele>
        <time>2017-04-18T13:29:56Z</time>
      </trkpt>
      <trkpt lat="48.80557" lon="1.43843">
        <ele>142.899994</ele>
        <time>2017-04-18T13:29:59Z</time>
      </trkpt>
      <trkpt lat="48.80553" lon="1.43824">
        <ele>142.899994</ele>
        <time>2017-04-18T13:30:02Z</time>
      </trkpt>
      <trkpt lat="48.80551" lon="1.43805">
        <ele>142.899994</ele>
        <time>2017-04-18T13:30:05Z</time>
      </trkpt>
      <trkpt lat="48.80548" lon="1.43785">
        <ele>142.800003</ele>
        <time>2017-04-18T13:30:08Z</time>
      </trkpt>
      <trkpt lat="48.80544" lon="1.43765">
        <ele>142.800003</ele>
        <time>2017-04-18T13:30:11Z</time>
      </trkpt>
      <trkpt lat="48.8054" lon="1.43752">
        <ele>142.600006</ele>
        <time>2017-04-18T13:30:13Z</time>
      </trkpt>
      <trkpt lat="48.80538" lon="1.43734">
        <ele>142.5</ele>
        <time>2017-04-18T13:30:16Z</time>
      </trkpt>
      <trkpt lat="48.80534" lon="1.43721">
        <ele>142.5</ele>
        <time>2017-04-18T13:30:20Z</time>
      </trkpt>
      <trkpt lat="48.80523" lon="1.43717">
        <ele>142.5</ele>
        <time>2017-04-18T13:30:25Z</time>
      </trkpt>
      <trkpt lat="48.80514" lon="1.43727">
        <ele>142.5</ele>
        <time>2017-04-18T13:30:29Z</time>
      </trkpt>
      <trkpt lat="48.80503" lon="1.43731">
        <ele>142.399994</ele>
        <time>2017-04-18T13:30:32Z</time>
      </trkpt>
      <trkpt lat="48.80491" lon="1.4374">
        <ele>142.399994</ele>
        <time>2017-04-18T13:30:35Z</time>
      </trkpt>
      <trkpt lat="48.80484" lon="1.43749">
        <ele>142.399994</ele>
        <time>2017-04-18T13:30:37Z</time>
      </trkpt>
      <trkpt lat="48.80475" lon="1.43753">
        <ele>142.399994</ele>
        <time>2017-04-18T13:30:39Z</time>
      </trkpt>
      <trkpt lat="48.80465" lon="1.43759">
        <ele>142.300003</ele>
        <time>2017-04-18T13:30:42Z</time>
      </trkpt>
      <trkpt lat="48.80453" lon="1.43768">
        <ele>142.199997</ele>
        <time>2017-04-18T13:30:45Z</time>
      </trkpt>
      <trkpt lat="48.80444" lon="1.43777">
        <ele>142.199997</ele>
        <time>2017-04-18T13:30:47Z</time>
      </trkpt>
      <trkpt lat="48.80433" lon="1.43784">
        <ele>142.199997</ele>
        <time>2017-04-18T13:30:50Z</time>
      </trkpt>
      <trkpt lat="48.80422" lon="1.43788">
        <ele>142.300003</ele>
        <time>2017-04-18T13:30:53Z</time>
      </trkpt>
      <trkpt lat="48.80412" lon="1.43792">
        <ele>142.399994</ele>
        <time>2017-04-18T13:30:56Z</time>
      </trkpt>
      <trkpt lat="48.80403" lon="1.43797">
        <ele>142.399994</ele>
        <time>2017-04-18T13:30:58Z</time>
      </trkpt>
      <trkpt lat="48.80393" lon="1.43805">
        <ele>142.5</ele>
        <time>2017-04-18T13:31:01Z</time>
      </trkpt>
      <trkpt lat="48.80378" lon="1.43808">
        <ele>142.600006</ele>
        <time>2017-04-18T13:31:04Z</time>
      </trkpt>
      <trkpt lat="48.80367" lon="1.43811">
        <ele>142.699997</ele>
        <time>2017-04-18T13:31:06Z</time>
      </trkpt>
      <trkpt lat="48.80358" lon="1.43815">
        <ele>142.699997</ele>
        <time>2017-04-18T13:31:08Z</time>
      </trkpt>
      <trkpt lat="48.80347" lon="1.43821">
        <ele>142.800003</ele>
        <time>2017-04-18T13:31:10Z</time>
      </trkpt>
      <trkpt lat="48.80336" lon="1.43824">
        <ele>142.800003</ele>
        <time>2017-04-18T13:31:12Z</time>
      </trkpt>
      <trkpt lat="48.80325" lon="1.43822">
        <ele>142.899994</ele>
        <time>2017-04-18T13:31:14Z</time>
      </trkpt>
      <trkpt lat="48.80313" lon="1.43823">
        <ele>143</ele>
        <time>2017-04-18T13:31:16Z</time>
      </trkpt>
      <trkpt lat="48.80303" lon="1.4382">
        <ele>143</ele>
        <time>2017-04-18T13:31:18Z</time>
      </trkpt>
      <trkpt lat="48.80291" lon="1.43814">
        <ele>143.100006</ele>
        <time>2017-04-18T13:31:20Z</time>
      </trkpt>
      <trkpt lat="48.80284" lon="1.43803">
        <ele>143.100006</ele>
        <time>2017-04-18T13:31:22Z</time>
      </trkpt>
      <trkpt lat="48.80273" lon="1.43798">
        <ele>143.199997</ele>
        <time>2017-04-18T13:31:24Z</time>
      </trkpt>
      <trkpt lat="48.80263" lon="1.43789">
        <ele>143.300003</ele>
        <time>2017-04-18T13:31:27Z</time>
      </trkpt>
      <trkpt lat="48.80255" lon="1.43775">
        <ele>143.5</ele>
        <time>2017-04-18T13:31:30Z</time>
      </trkpt>
      <trkpt lat="48.80248" lon="1.43766">
        <ele>143.600006</ele>
        <time>2017-04-18T13:31:32Z</time>
      </trkpt>
      <trkpt lat="48.80241" lon="1.43757">
        <ele>143.399994</ele>
        <time>2017-04-18T13:31:34Z</time>
      </trkpt>
      <trkpt lat="48.80235" lon="1.43746">
        <ele>143.399994</ele>
        <time>2017-04-18T13:31:36Z</time>
      </trkpt>
      <trkpt lat="48.80232" lon="1.43733">
        <ele>143.399994</ele>
        <time>2017-04-18T13:31:38Z</time>
      </trkpt>
      <trkpt lat="48.80227" lon="1.4372">
        <ele>143.399994</ele>
        <time>2017-04-18T13:31:40Z</time>
      </trkpt>
      <trkpt lat="48.80222" lon="1.43707">
        <ele>143.399994</ele>
        <time>2017-04-18T13:31:42Z</time>
      </trkpt>
      <trkpt lat="48.80215" lon="1.43694">
        <ele>143.5</ele>
        <time>2017-04-18T13:31:44Z</time>
      </trkpt>
      <trkpt lat="48.80209" lon="1.43684">
        <ele>143.5</ele>
        <time>2017-04-18T13:31:46Z</time>
      </trkpt>
      <trkpt lat="48.802" lon="1.43673">
        <ele>143.5</ele>
        <time>2017-04-18T13:31:48Z</time>
      </trkpt>
      <trkpt lat="48.80193" lon="1.43661">
        <ele>143.5</ele>
        <time>2017-04-18T13:31:50Z</time>
      </trkpt>
      <trkpt lat="48.80186" lon="1.4365">
        <ele>143.600006</ele>
        <time>2017-04-18T13:31:52Z</time>
      </trkpt>
      <trkpt lat="48.80178" lon="1.4364">
        <ele>143.300003</ele>
        <time>2017-04-18T13:31:54Z</time>
      </trkpt>
      <trkpt lat="48.8017" lon="1.4363">
        <ele>143.300003</ele>
        <time>2017-04-18T13:31:56Z</time>
      </trkpt>
      <trkpt lat="48.80161" lon="1.43621">
        <ele>143.300003</ele>
        <time>2017-04-18T13:31:58Z</time>
      </trkpt>
      <trkpt lat="48.80152" lon="1.43615">
        <ele>143.300003</ele>
        <time>2017-04-18T13:32:00Z</time>
      </trkpt>
      <trkpt lat="48.80141" lon="1.43609">
        <ele>143.300003</ele>
        <time>2017-04-18T13:32:02Z</time>
      </trkpt>
      <trkpt lat="48.80132" lon="1.43605">
        <ele>143.300003</ele>
        <time>2017-04-18T13:32:04Z</time>
      </trkpt>
      <trkpt lat="48.80122" lon="1.43596">
        <ele>143.300003</ele>
        <time>2017-04-18T13:32:06Z</time>
      </trkpt>
      <trkpt lat="48.8011" lon="1.43585">
        <ele>143.199997</ele>
        <time>2017-04-18T13:32:09Z</time>
      </trkpt>
      <trkpt lat="48.80102" lon="1.43578">
        <ele>143.100006</ele>
        <time>2017-04-18T13:32:11Z</time>
      </trkpt>
      <trkpt lat="48.80094" lon="1.4357">
        <ele>143.100006</ele>
        <time>2017-04-18T13:32:13Z</time>
      </trkpt>
      <trkpt lat="48.80083" lon="1.43565">
        <ele>143.100006</ele>
        <time>2017-04-18T13:32:15Z</time>
      </trkpt>
      <trkpt lat="48.80074" lon="1.43559">
        <ele>143.100006</ele>
        <time>2017-04-18T13:32:17Z</time>
      </trkpt>
      <trkpt lat="48.80063" lon="1.43554">
        <ele>143.100006</ele>
        <time>2017-04-18T13:32:19Z</time>
      </trkpt>
      <trkpt lat="48.80056" lon="1.43539">
        <ele>143.100006</ele>
        <time>2017-04-18T13:32:22Z</time>
      </trkpt>
      <trkpt lat="48.80057" lon="1.43522">
        <ele>143</ele>
        <time>2017-04-18T13:32:25Z</time>
      </trkpt>
      <trkpt lat="48.80058" lon="1.43508">
        <ele>143</ele>
        <time>2017-04-18T13:32:27Z</time>
      </trkpt>
      <trkpt lat="48.80059" lon="1.43493">
        <ele>142.899994</ele>
        <time>2017-04-18T13:32:29Z</time>
      </trkpt>
      <trkpt lat="48.8006" lon="1.43479">
        <ele>142.899994</ele>
        <time>2017-04-18T13:32:31Z</time>
      </trkpt>
      <trkpt lat="48.80062" lon="1.43463">
        <ele>142.899994</ele>
        <time>2017-04-18T13:32:33Z</time>
      </trkpt>
      <trkpt lat="48.80063" lon="1.43448">
        <ele>142.899994</ele>
        <time>2017-04-18T13:32:35Z</time>
      </trkpt>
      <trkpt lat="48.80065" lon="1.43432">
        <ele>142.899994</ele>
        <time>2017-04-18T13:32:37Z</time>
      </trkpt>
      <trkpt lat="48.80067" lon="1.43415">
        <ele>142.899994</ele>
        <time>2017-04-18T13:32:39Z</time>
      </trkpt>
      <trkpt lat="48.8007" lon="1.43399">
        <ele>142.600006</ele>
        <time>2017-04-18T13:32:41Z</time>
      </trkpt>
      <trkpt lat="48.80072" lon="1.43381">
        <ele>142.5</ele>
        <time>2017-04-18T13:32:43Z</time>
      </trkpt>
      <trkpt lat="48.80074" lon="1.43365">
        <ele>142.399994</ele>
        <time>2017-04-18T13:32:45Z</time>
      </trkpt>
      <trkpt lat="48.80075" lon="1.4335">
        <ele>142.300003</ele>
        <time>2017-04-18T13:32:47Z</time>
      </trkpt>
      <trkpt lat="48.80078" lon="1.43335">
        <ele>142.300003</ele>
        <time>2017-04-18T13:32:49Z</time>
      </trkpt>
      <trkpt lat="48.80081" lon="1.4332">
        <ele>142.300003</ele>
        <time>2017-04-18T13:32:51Z</time>
      </trkpt>
      <trkpt lat="48.80085" lon="1.43304">
        <ele>142.300003</ele>
        <time>2017-04-18T13:32:53Z</time>
      </trkpt>
      <trkpt lat="48.80088" lon="1.43288">
        <ele>142.300003</ele>
        <time>2017-04-18T13:32:55Z</time>
      </trkpt>
      <trkpt lat="48.80089" lon="1.43273">
        <ele>142.300003</ele>
        <time>2017-04-18T13:32:57Z</time>
      </trkpt>
      <trkpt lat="48.80093" lon="1.43257">
        <ele>142.399994</ele>
        <time>2017-04-18T13:32:59Z</time>
      </trkpt>
      <trkpt lat="48.80095" lon="1.43241">
        <ele>142.600006</ele>
        <time>2017-04-18T13:33:01Z</time>
      </trkpt>
      <trkpt lat="48.80098" lon="1.43224">
        <ele>142.699997</ele>
        <time>2017-04-18T13:33:03Z</time>
      </trkpt>
      <trkpt lat="48.801" lon="1.43208">
        <ele>142.899994</ele>
        <time>2017-04-18T13:33:05Z</time>
      </trkpt>
      <trkpt lat="48.80103" lon="1.4319">
        <ele>143</ele>
        <time>2017-04-18T13:33:07Z</time>
      </trkpt>
      <trkpt lat="48.80105" lon="1.43174">
        <ele>143.199997</ele>
        <time>2017-04-18T13:33:09Z</time>
      </trkpt>
      <trkpt lat="48.80108" lon="1.43158">
        <ele>143.300003</ele>
        <time>2017-04-18T13:33:11Z</time>
      </trkpt>
      <trkpt lat="48.8011" lon="1.43141">
        <ele>143.399994</ele>
        <time>2017-04-18T13:33:13Z</time>
      </trkpt>
      <trkpt lat="48.80114" lon="1.43125">
        <ele>143.5</ele>
        <time>2017-04-18T13:33:15Z</time>
      </trkpt>
      <trkpt lat="48.80118" lon="1.4311">
        <ele>143.600006</ele>
        <time>2017-04-18T13:33:17Z</time>
      </trkpt>
      <trkpt lat="48.8012" lon="1.43095">
        <ele>143.699997</ele>
        <time>2017-04-18T13:33:19Z</time>
      </trkpt>
      <trkpt lat="48.80123" lon="1.43079">
        <ele>143.800003</ele>
        <time>2017-04-18T13:33:21Z</time>
      </trkpt>
      <trkpt lat="48.80126" lon="1.43063">
        <ele>143.800003</ele>
        <time>2017-04-18T13:33:23Z</time>
      </trkpt>
      <trkpt lat="48.8013" lon="1.43045">
        <ele>143.699997</ele>
        <time>2017-04-18T13:33:25Z</time>
      </trkpt>
      <trkpt lat="48.80133" lon="1.43029">
        <ele>143.699997</ele>
        <time>2017-04-18T13:33:27Z</time>
      </trkpt>
      <trkpt lat="48.80137" lon="1.43013">
        <ele>143.699997</ele>
        <time>2017-04-18T13:33:29Z</time>
      </trkpt>
      <trkpt lat="48.80138" lon="1.42999">
        <ele>143.5</ele>
        <time>2017-04-18T13:33:31Z</time>
      </trkpt>
      <trkpt lat="48.80144" lon="1.42984">
        <ele>143.399994</ele>
        <time>2017-04-18T13:33:35Z</time>
      </trkpt>
      <trkpt lat="48.80148" lon="1.4297">
        <ele>143.300003</ele>
        <time>2017-04-18T13:33:39Z</time>
      </trkpt>
      <trkpt lat="48.80149" lon="1.42955">
        <ele>143.199997</ele>
        <time>2017-04-18T13:33:42Z</time>
      </trkpt>
      <trkpt lat="48.80151" lon="1.42939">
        <ele>143.199997</ele>
        <time>2017-04-18T13:33:45Z</time>
      </trkpt>
      <trkpt lat="48.80153" lon="1.42922">
        <ele>143.199997</ele>
        <time>2017-04-18T13:33:48Z</time>
      </trkpt>
      <trkpt lat="48.80156" lon="1.42905">
        <ele>143.199997</ele>
        <time>2017-04-18T13:33:51Z</time>
      </trkpt>
      <trkpt lat="48.80161" lon="1.42885">
        <ele>143.100006</ele>
        <time>2017-04-18T13:33:54Z</time>
      </trkpt>
      <trkpt lat="48.80163" lon="1.42871">
        <ele>143.100006</ele>
        <time>2017-04-18T13:33:56Z</time>
      </trkpt>
      <trkpt lat="48.80167" lon="1.42856">
        <ele>143.100006</ele>
        <time>2017-04-18T13:33:58Z</time>
      </trkpt>
      <trkpt lat="48.8017" lon="1.42839">
        <ele>143.100006</ele>
        <time>2017-04-18T13:34:00Z</time>
      </trkpt>
      <trkpt lat="48.80172" lon="1.42823">
        <ele>143.100006</ele>
        <time>2017-04-18T13:34:02Z</time>
      </trkpt>
      <trkpt lat="48.80175" lon="1.42808">
        <ele>143.100006</ele>
        <time>2017-04-18T13:34:04Z</time>
      </trkpt>
      <trkpt lat="48.80178" lon="1.42793">
        <ele>143.100006</ele>
        <time>2017-04-18T13:34:06Z</time>
      </trkpt>
      <trkpt lat="48.8018" lon="1.4278">
        <ele>143</ele>
        <time>2017-04-18T13:34:08Z</time>
      </trkpt>
      <trkpt lat="48.80183" lon="1.4276">
        <ele>142.899994</ele>
        <time>2017-04-18T13:34:11Z</time>
      </trkpt>
      <trkpt lat="48.80186" lon="1.42739">
        <ele>142.800003</ele>
        <time>2017-04-18T13:34:14Z</time>
      </trkpt>
      <trkpt lat="48.80188" lon="1.42724">
        <ele>142.800003</ele>
        <time>2017-04-18T13:34:16Z</time>
      </trkpt>
      <trkpt lat="48.8019" lon="1.42709">
        <ele>142.699997</ele>
        <time>2017-04-18T13:34:18Z</time>
      </trkpt>
      <trkpt lat="48.80193" lon="1.42693">
        <ele>142.600006</ele>
        <time>2017-04-18T13:34:20Z</time>
      </trkpt>
      <trkpt lat="48.80197" lon="1.42675">
        <ele>142.5</ele>
        <time>2017-04-18T13:34:22Z</time>
      </trkpt>
      <trkpt lat="48.80201" lon="1.42658">
        <ele>142.300003</ele>
        <time>2017-04-18T13:34:24Z</time>
      </trkpt>
      <trkpt lat="48.80205" lon="1.42641">
        <ele>142.199997</ele>
        <time>2017-04-18T13:34:26Z</time>
      </trkpt>
      <trkpt lat="48.80208" lon="1.42625">
        <ele>142.100006</ele>
        <time>2017-04-18T13:34:28Z</time>
      </trkpt>
      <trkpt lat="48.8021" lon="1.4261">
        <ele>142</ele>
        <time>2017-04-18T13:34:30Z</time>
      </trkpt>
      <trkpt lat="48.80213" lon="1.42595">
        <ele>141.899994</ele>
        <time>2017-04-18T13:34:32Z</time>
      </trkpt>
      <trkpt lat="48.80217" lon="1.42579">
        <ele>141.800003</ele>
        <time>2017-04-18T13:34:34Z</time>
      </trkpt>
      <trkpt lat="48.8022" lon="1.42563">
        <ele>141.800003</ele>
        <time>2017-04-18T13:34:36Z</time>
      </trkpt>
      <trkpt lat="48.80223" lon="1.42547">
        <ele>141.800003</ele>
        <time>2017-04-18T13:34:38Z</time>
      </trkpt>
      <trkpt lat="48.80227" lon="1.4253">
        <ele>141.899994</ele>
        <time>2017-04-18T13:34:40Z</time>
      </trkpt>
      <trkpt lat="48.80231" lon="1.42514">
        <ele>141.899994</ele>
        <time>2017-04-18T13:34:42Z</time>
      </trkpt>
      <trkpt lat="48.80233" lon="1.42497">
        <ele>142</ele>
        <time>2017-04-18T13:34:44Z</time>
      </trkpt>
      <trkpt lat="48.80236" lon="1.42481">
        <ele>142.100006</ele>
        <time>2017-04-18T13:34:46Z</time>
      </trkpt>
      <trkpt lat="48.8024" lon="1.42465">
        <ele>142.100006</ele>
        <time>2017-04-18T13:34:48Z</time>
      </trkpt>
      <trkpt lat="48.80242" lon="1.42449">
        <ele>142.199997</ele>
        <time>2017-04-18T13:34:50Z</time>
      </trkpt>
      <trkpt lat="48.80245" lon="1.42433">
        <ele>142.199997</ele>
        <time>2017-04-18T13:34:52Z</time>
      </trkpt>
      <trkpt lat="48.80249" lon="1.42418">
        <ele>142.199997</ele>
        <time>2017-04-18T13:34:54Z</time>
      </trkpt>
      <trkpt lat="48.80253" lon="1.42403">
        <ele>142.300003</ele>
        <time>2017-04-18T13:34:56Z</time>
      </trkpt>
      <trkpt lat="48.80256" lon="1.42386">
        <ele>142.300003</ele>
        <time>2017-04-18T13:34:58Z</time>
      </trkpt>
      <trkpt lat="48.80259" lon="1.42369">
        <ele>142.300003</ele>
        <time>2017-04-18T13:35:00Z</time>
      </trkpt>
      <trkpt lat="48.80261" lon="1.42353">
        <ele>142.399994</ele>
        <time>2017-04-18T13:35:02Z</time>
      </trkpt>
      <trkpt lat="48.80264" lon="1.42336">
        <ele>142.5</ele>
        <time>2017-04-18T13:35:04Z</time>
      </trkpt>
      <trkpt lat="48.80267" lon="1.4232">
        <ele>142.600006</ele>
        <time>2017-04-18T13:35:06Z</time>
      </trkpt>
      <trkpt lat="48.8027" lon="1.42303">
        <ele>142.699997</ele>
        <time>2017-04-18T13:35:08Z</time>
      </trkpt>
      <trkpt lat="48.80273" lon="1.42286">
        <ele>142.699997</ele>
        <time>2017-04-18T13:35:10Z</time>
      </trkpt>
      <trkpt lat="48.80276" lon="1.42269">
        <ele>142.800003</ele>
        <time>2017-04-18T13:35:12Z</time>
      </trkpt>
      <trkpt lat="48.80278" lon="1.42252">
        <ele>142.800003</ele>
        <time>2017-04-18T13:35:14Z</time>
      </trkpt>
      <trkpt lat="48.80282" lon="1.42235">
        <ele>142.899994</ele>
        <time>2017-04-18T13:35:16Z</time>
      </trkpt>
      <trkpt lat="48.80286" lon="1.42218">
        <ele>143</ele>
        <time>2017-04-18T13:35:18Z</time>
      </trkpt>
      <trkpt lat="48.8029" lon="1.42202">
        <ele>143.100006</ele>
        <time>2017-04-18T13:35:20Z</time>
      </trkpt>
      <trkpt lat="48.80293" lon="1.42185">
        <ele>143.100006</ele>
        <time>2017-04-18T13:35:22Z</time>
      </trkpt>
      <trkpt lat="48.80295" lon="1.42167">
        <ele>143.199997</ele>
        <time>2017-04-18T13:35:24Z</time>
      </trkpt>
      <trkpt lat="48.80298" lon="1.4215">
        <ele>143.300003</ele>
        <time>2017-04-18T13:35:26Z</time>
      </trkpt>
      <trkpt lat="48.80301" lon="1.42133">
        <ele>143.300003</ele>
        <time>2017-04-18T13:35:28Z</time>
      </trkpt>
      <trkpt lat="48.80304" lon="1.42115">
        <ele>143.300003</ele>
        <time>2017-04-18T13:35:30Z</time>
      </trkpt>
      <trkpt lat="48.80307" lon="1.42098">
        <ele>143.399994</ele>
        <time>2017-04-18T13:35:32Z</time>
      </trkpt>
      <trkpt lat="48.80311" lon="1.4208">
        <ele>143.399994</ele>
        <time>2017-04-18T13:35:34Z</time>
      </trkpt>
      <trkpt lat="48.80314" lon="1.42063">
        <ele>143.399994</ele>
        <time>2017-04-18T13:35:36Z</time>
      </trkpt>
      <trkpt lat="48.80318" lon="1.42045">
        <ele>143.399994</ele>
        <time>2017-04-18T13:35:38Z</time>
      </trkpt>
      <trkpt lat="48.80321" lon="1.42028">
        <ele>143.399994</ele>
        <time>2017-04-18T13:35:40Z</time>
      </trkpt>
      <trkpt lat="48.80325" lon="1.4201">
        <ele>143.5</ele>
        <time>2017-04-18T13:35:42Z</time>
      </trkpt>
      <trkpt lat="48.80328" lon="1.41992">
        <ele>143.5</ele>
        <time>2017-04-18T13:35:44Z</time>
      </trkpt>
      <trkpt lat="48.80331" lon="1.41974">
        <ele>143.5</ele>
        <time>2017-04-18T13:35:46Z</time>
      </trkpt>
      <trkpt lat="48.80335" lon="1.41956">
        <ele>143.5</ele>
        <time>2017-04-18T13:35:48Z</time>
      </trkpt>
      <trkpt lat="48.80339" lon="1.41939">
        <ele>143.5</ele>
        <time>2017-04-18T13:35:50Z</time>
      </trkpt>
      <trkpt lat="48.80343" lon="1.41921">
        <ele>143.5</ele>
        <time>2017-04-18T13:35:52Z</time>
      </trkpt>
      <trkpt lat="48.80347" lon="1.41904">
        <ele>143.5</ele>
        <time>2017-04-18T13:35:54Z</time>
      </trkpt>
      <trkpt lat="48.8035" lon="1.41887">
        <ele>143.5</ele>
        <time>2017-04-18T13:35:56Z</time>
      </trkpt>
      <trkpt lat="48.80354" lon="1.4187">
        <ele>143.5</ele>
        <time>2017-04-18T13:35:58Z</time>
      </trkpt>
      <trkpt lat="48.80357" lon="1.41853">
        <ele>143.5</ele>
        <time>2017-04-18T13:36:00Z</time>
      </trkpt>
      <trkpt lat="48.80361" lon="1.41835">
        <ele>143.5</ele>
        <time>2017-04-18T13:36:02Z</time>
      </trkpt>
      <trkpt lat="48.80365" lon="1.41818">
        <ele>143.5</ele>
        <time>2017-04-18T13:36:04Z</time>
      </trkpt>
      <trkpt lat="48.80368" lon="1.41801">
        <ele>143.5</ele>
        <time>2017-04-18T13:36:06Z</time>
      </trkpt>
      <trkpt lat="48.80381" lon="1.41757">
        <ele>146.058701</ele>
        <time>2017-04-18T13:36:08Z</time>
      </trkpt>
      <trkpt lat="48.80375" lon="1.41711">
        <ele>142.300003</ele>
        <time>2017-04-18T13:38:09Z</time>
      </trkpt>
      <trkpt lat="48.80377" lon="1.41726">
        <ele>142.300003</ele>
        <time>2017-04-18T13:38:13Z</time>
      </trkpt>
      <trkpt lat="48.80373" lon="1.41739">
        <ele>142.300003</ele>
        <time>2017-04-18T13:38:17Z</time>
      </trkpt>
      <trkpt lat="48.80342" lon="1.41631">
        <ele>145.628098</ele>
        <time>2017-04-18T13:38:22Z</time>
      </trkpt>
      <trkpt lat="48.80163" lon="1.41441">
        <ele>141.643875</ele>
        <time>1999-11-30T00:00:00Z</time>
      </trkpt>
      <trkpt lat="48.79946" lon="1.41186">
        <ele>142.286102</ele>
        <time>1999-11-30T00:00:00Z</time>
      </trkpt>
      <trkpt lat="48.79334" lon="1.417">
        <ele>142.5</ele>
        <time>2017-04-18T13:50:22Z</time>
      </trkpt>
      <trkpt lat="48.79325" lon="1.4171">
        <ele>142.5</ele>
        <time>2017-04-18T13:50:25Z</time>
      </trkpt>
      <trkpt lat="48.79314" lon="1.41721">
        <ele>142.5</ele>
        <time>2017-04-18T13:50:28Z</time>
      </trkpt>
      <trkpt lat="48.79302" lon="1.41728">
        <ele>142.5</ele>
        <time>2017-04-18T13:50:31Z</time>
      </trkpt>
      <trkpt lat="48.79293" lon="1.41734">
        <ele>142.5</ele>
        <time>2017-04-18T13:50:33Z</time>
      </trkpt>
      <trkpt lat="48.79285" lon="1.41743">
        <ele>142.5</ele>
        <time>2017-04-18T13:50:35Z</time>
      </trkpt>
      <trkpt lat="48.79277" lon="1.4175">
        <ele>142.5</ele>
        <time>2017-04-18T13:50:37Z</time>
      </trkpt>
      <trkpt lat="48.79267" lon="1.41757">
        <ele>142.5</ele>
        <time>2017-04-18T13:50:39Z</time>
      </trkpt>
      <trkpt lat="48.79258" lon="1.41765">
        <ele>142.5</ele>
        <time>2017-04-18T13:50:41Z</time>
      </trkpt>
      <trkpt lat="48.79248" lon="1.41772">
        <ele>142.5</ele>
        <time>2017-04-18T13:50:43Z</time>
      </trkpt>
      <trkpt lat="48.79238" lon="1.41781">
        <ele>142.5</ele>
        <time>2017-04-18T13:50:45Z</time>
      </trkpt>
      <trkpt lat="48.79228" lon="1.41788">
        <ele>142.5</ele>
        <time>2017-04-18T13:50:47Z</time>
      </trkpt>
      <trkpt lat="48.79217" lon="1.41795">
        <ele>142.5</ele>
        <time>2017-04-18T13:50:49Z</time>
      </trkpt>
      <trkpt lat="48.79208" lon="1.41804">
        <ele>142.600006</ele>
        <time>2017-04-18T13:50:51Z</time>
      </trkpt>
      <trkpt lat="48.792" lon="1.41812">
        <ele>142.600006</ele>
        <time>2017-04-18T13:50:53Z</time>
      </trkpt>
      <trkpt lat="48.7919" lon="1.41822">
        <ele>142.699997</ele>
        <time>2017-04-18T13:50:56Z</time>
      </trkpt>
      <trkpt lat="48.79182" lon="1.41829">
        <ele>142.699997</ele>
        <time>2017-04-18T13:50:58Z</time>
      </trkpt>
      <trkpt lat="48.79171" lon="1.41837">
        <ele>142.699997</ele>
        <time>2017-04-18T13:51:00Z</time>
      </trkpt>
      <trkpt lat="48.79161" lon="1.41843">
        <ele>142.699997</ele>
        <time>2017-04-18T13:51:02Z</time>
      </trkpt>
      <trkpt lat="48.79149" lon="1.41855">
        <ele>142.699997</ele>
        <time>2017-04-18T13:51:05Z</time>
      </trkpt>
      <trkpt lat="48.7914" lon="1.41861">
        <ele>142.800003</ele>
        <time>2017-04-18T13:51:07Z</time>
      </trkpt>
      <trkpt lat="48.79131" lon="1.41868">
        <ele>142.800003</ele>
        <time>2017-04-18T13:51:09Z</time>
      </trkpt>
      <trkpt lat="48.7912" lon="1.41875">
        <ele>142.800003</ele>
        <time>2017-04-18T13:51:11Z</time>
      </trkpt>
      <trkpt lat="48.79111" lon="1.4188">
        <ele>142.899994</ele>
        <time>2017-04-18T13:51:13Z</time>
      </trkpt>
      <trkpt lat="48.79101" lon="1.41887">
        <ele>142.899994</ele>
        <time>2017-04-18T13:51:15Z</time>
      </trkpt>
      <trkpt lat="48.79091" lon="1.41896">
        <ele>142.899994</ele>
        <time>2017-04-18T13:51:17Z</time>
      </trkpt>
      <trkpt lat="48.79081" lon="1.41906">
        <ele>143</ele>
        <time>2017-04-18T13:51:19Z</time>
      </trkpt>
      <trkpt lat="48.79069" lon="1.41914">
        <ele>143</ele>
        <time>2017-04-18T13:51:21Z</time>
      </trkpt>
      <trkpt lat="48.79059" lon="1.41924">
        <ele>143.100006</ele>
        <time>2017-04-18T13:51:23Z</time>
      </trkpt>
      <trkpt lat="48.7905" lon="1.41933">
        <ele>143.100006</ele>
        <time>2017-04-18T13:51:25Z</time>
      </trkpt>
      <trkpt lat="48.7904" lon="1.41943">
        <ele>143.199997</ele>
        <time>2017-04-18T13:51:27Z</time>
      </trkpt>
      <trkpt lat="48.7903" lon="1.41952">
        <ele>143.300003</ele>
        <time>2017-04-18T13:51:29Z</time>
      </trkpt>
      <trkpt lat="48.79021" lon="1.41962">
        <ele>143.300003</ele>
        <time>2017-04-18T13:51:31Z</time>
      </trkpt>
      <trkpt lat="48.79011" lon="1.41969">
        <ele>143.399994</ele>
        <time>2017-04-18T13:51:33Z</time>
      </trkpt>
      <trkpt lat="48.79002" lon="1.41976">
        <ele>143.5</ele>
        <time>2017-04-18T13:51:35Z</time>
      </trkpt>
      <trkpt lat="48.78991" lon="1.41985">
        <ele>143.5</ele>
        <time>2017-04-18T13:51:37Z</time>
      </trkpt>
      <trkpt lat="48.7898" lon="1.4199">
        <ele>143.600006</ele>
        <time>2017-04-18T13:51:39Z</time>
      </trkpt>
      <trkpt lat="48.7897" lon="1.41995">
        <ele>143.600006</ele>
        <time>2017-04-18T13:51:41Z</time>
      </trkpt>
      <trkpt lat="48.78959" lon="1.42005">
        <ele>143.600006</ele>
        <time>2017-04-18T13:51:43Z</time>
      </trkpt>
      <trkpt lat="48.78949" lon="1.42015">
        <ele>143.699997</ele>
        <time>2017-04-18T13:51:45Z</time>
      </trkpt>
      <trkpt lat="48.78939" lon="1.42024">
        <ele>143.699997</ele>
        <time>2017-04-18T13:51:47Z</time>
      </trkpt>
      <trkpt lat="48.78928" lon="1.42029">
        <ele>143.699997</ele>
        <time>2017-04-18T13:51:49Z</time>
      </trkpt>
      <trkpt lat="48.78918" lon="1.42035">
        <ele>143.699997</ele>
        <time>2017-04-18T13:51:51Z</time>
      </trkpt>
      <trkpt lat="48.78907" lon="1.42044">
        <ele>143.699997</ele>
        <time>2017-04-18T13:51:53Z</time>
      </trkpt>
      <trkpt lat="48.78896" lon="1.42053">
        <ele>143.699997</ele>
        <time>2017-04-18T13:51:55Z</time>
      </trkpt>
      <trkpt lat="48.78885" lon="1.42061">
        <ele>143.699997</ele>
        <time>2017-04-18T13:51:57Z</time>
      </trkpt>
      <trkpt lat="48.78874" lon="1.42069">
        <ele>143.699997</ele>
        <time>2017-04-18T13:51:59Z</time>
      </trkpt>
      <trkpt lat="48.78863" lon="1.42077">
        <ele>143.699997</ele>
        <time>2017-04-18T13:52:01Z</time>
      </trkpt>
      <trkpt lat="48.78853" lon="1.42085">
        <ele>143.699997</ele>
        <time>2017-04-18T13:52:03Z</time>
      </trkpt>
      <trkpt lat="48.78843" lon="1.42092">
        <ele>143.699997</ele>
        <time>2017-04-18T13:52:05Z</time>
      </trkpt>
      <trkpt lat="48.78833" lon="1.421">
        <ele>143.699997</ele>
        <time>2017-04-18T13:52:07Z</time>
      </trkpt>
      <trkpt lat="48.78823" lon="1.42108">
        <ele>143.699997</ele>
        <time>2017-04-18T13:52:09Z</time>
      </trkpt>
      <trkpt lat="48.78812" lon="1.42113">
        <ele>143.699997</ele>
        <time>2017-04-18T13:52:12Z</time>
      </trkpt>
      <trkpt lat="48.78803" lon="1.4212">
        <ele>143.699997</ele>
        <time>2017-04-18T13:52:15Z</time>
      </trkpt>
      <trkpt lat="48.78795" lon="1.42131">
        <ele>143.699997</ele>
        <time>2017-04-18T13:52:18Z</time>
      </trkpt>
      <trkpt lat="48.78785" lon="1.42139">
        <ele>143.699997</ele>
        <time>2017-04-18T13:52:20Z</time>
      </trkpt>
      <trkpt lat="48.78775" lon="1.42147">
        <ele>143.600006</ele>
        <time>2017-04-18T13:52:22Z</time>
      </trkpt>
      <trkpt lat="48.78765" lon="1.42153">
        <ele>143.5</ele>
        <time>2017-04-18T13:52:24Z</time>
      </trkpt>
      <trkpt lat="48.78755" lon="1.42162">
        <ele>143.5</ele>
        <time>2017-04-18T13:52:26Z</time>
      </trkpt>
      <trkpt lat="48.78746" lon="1.4217">
        <ele>143.5</ele>
        <time>2017-04-18T13:52:28Z</time>
      </trkpt>
      <trkpt lat="48.78736" lon="1.42178">
        <ele>143.5</ele>
        <time>2017-04-18T13:52:30Z</time>
      </trkpt>
      <trkpt lat="48.78727" lon="1.42186">
        <ele>143.600006</ele>
        <time>2017-04-18T13:52:32Z</time>
      </trkpt>
      <trkpt lat="48.78718" lon="1.42193">
        <ele>143.600006</ele>
        <time>2017-04-18T13:52:34Z</time>
      </trkpt>
      <trkpt lat="48.78709" lon="1.42199">
        <ele>143.600006</ele>
        <time>2017-04-18T13:52:36Z</time>
      </trkpt>
      <trkpt lat="48.78699" lon="1.42202">
        <ele>143.600006</ele>
        <time>2017-04-18T13:52:39Z</time>
      </trkpt>
      <trkpt lat="48.78688" lon="1.42211">
        <ele>143.600006</ele>
        <time>2017-04-18T13:52:42Z</time>
      </trkpt>
      <trkpt lat="48.78678" lon="1.42216">
        <ele>143.699997</ele>
        <time>2017-04-18T13:52:44Z</time>
      </trkpt>
      <trkpt lat="48.78668" lon="1.42228">
        <ele>143.300003</ele>
        <time>2017-04-18T13:52:47Z</time>
      </trkpt>
      <trkpt lat="48.7866" lon="1.42236">
        <ele>143.300003</ele>
        <time>2017-04-18T13:52:49Z</time>
      </trkpt>
      <trkpt lat="48.78649" lon="1.42245">
        <ele>143.300003</ele>
        <time>2017-04-18T13:52:52Z</time>
      </trkpt>
      <trkpt lat="48.78639" lon="1.42254">
        <ele>143.399994</ele>
        <time>2017-04-18T13:52:54Z</time>
      </trkpt>
      <trkpt lat="48.78629" lon="1.42262">
        <ele>143.5</ele>
        <time>2017-04-18T13:52:56Z</time>
      </trkpt>
      <trkpt lat="48.7862" lon="1.4227">
        <ele>143.5</ele>
        <time>2017-04-18T13:52:58Z</time>
      </trkpt>
      <trkpt lat="48.78611" lon="1.42278">
        <ele>143.600006</ele>
        <time>2017-04-18T13:53:00Z</time>
      </trkpt>
      <trkpt lat="48.78598" lon="1.42285">
        <ele>143.600006</ele>
        <time>2017-04-18T13:53:03Z</time>
      </trkpt>
      <trkpt lat="48.7859" lon="1.42292">
        <ele>143.699997</ele>
        <time>2017-04-18T13:53:05Z</time>
      </trkpt>
      <trkpt lat="48.78579" lon="1.42302">
        <ele>143.800003</ele>
        <time>2017-04-18T13:53:07Z</time>
      </trkpt>
      <trkpt lat="48.78569" lon="1.42306">
        <ele>143.800003</ele>
        <time>2017-04-18T13:53:09Z</time>
      </trkpt>
      <trkpt lat="48.78561" lon="1.42315">
        <ele>143.899994</ele>
        <time>2017-04-18T13:53:11Z</time>
      </trkpt>
      <trkpt lat="48.78548" lon="1.42327">
        <ele>143.899994</ele>
        <time>2017-04-18T13:53:14Z</time>
      </trkpt>
      <trkpt lat="48.78535" lon="1.42339">
        <ele>143.800003</ele>
        <time>2017-04-18T13:53:16Z</time>
      </trkpt>
      <trkpt lat="48.78523" lon="1.42348">
        <ele>143.699997</ele>
        <time>2017-04-18T13:53:18Z</time>
      </trkpt>
      <trkpt lat="48.78514" lon="1.42356">
        <ele>143.699997</ele>
        <time>2017-04-18T13:53:20Z</time>
      </trkpt>
      <trkpt lat="48.78504" lon="1.42364">
        <ele>143.600006</ele>
        <time>2017-04-18T13:53:22Z</time>
      </trkpt>
      <trkpt lat="48.78495" lon="1.42371">
        <ele>143.600006</ele>
        <time>2017-04-18T13:53:24Z</time>
      </trkpt>
      <trkpt lat="48.78487" lon="1.42379">
        <ele>143.5</ele>
        <time>2017-04-18T13:53:26Z</time>
      </trkpt>
      <trkpt lat="48.78478" lon="1.42386">
        <ele>143.5</ele>
        <time>2017-04-18T13:53:28Z</time>
      </trkpt>
      <trkpt lat="48.78468" lon="1.42394">
        <ele>143.399994</ele>
        <time>2017-04-18T13:53:30Z</time>
      </trkpt>
      <trkpt lat="48.78458" lon="1.42403">
        <ele>143.300003</ele>
        <time>2017-04-18T13:53:32Z</time>
      </trkpt>
      <trkpt lat="48.78449" lon="1.42411">
        <ele>143.199997</ele>
        <time>2017-04-18T13:53:34Z</time>
      </trkpt>
      <trkpt lat="48.78439" lon="1.42419">
        <ele>143.199997</ele>
        <time>2017-04-18T13:53:36Z</time>
      </trkpt>
      <trkpt lat="48.78428" lon="1.42429">
        <ele>143.100006</ele>
        <time>2017-04-18T13:53:38Z</time>
      </trkpt>
      <trkpt lat="48.78419" lon="1.42437">
        <ele>143.100006</ele>
        <time>2017-04-18T13:53:40Z</time>
      </trkpt>
      <trkpt lat="48.7841" lon="1.42448">
        <ele>143</ele>
        <time>2017-04-18T13:53:42Z</time>
      </trkpt>
      <trkpt lat="48.78403" lon="1.42461">
        <ele>143</ele>
        <time>2017-04-18T13:53:44Z</time>
      </trkpt>
      <trkpt lat="48.78396" lon="1.42476">
        <ele>143</ele>
        <time>2017-04-18T13:53:46Z</time>
      </trkpt>
      <trkpt lat="48.7839" lon="1.42488">
        <ele>143</ele>
        <time>2017-04-18T13:53:48Z</time>
      </trkpt>
      <trkpt lat="48.78385" lon="1.42503">
        <ele>143</ele>
        <time>2017-04-18T13:53:51Z</time>
      </trkpt>
      <trkpt lat="48.78378" lon="1.42518">
        <ele>143</ele>
        <time>2017-04-18T13:53:53Z</time>
      </trkpt>
      <trkpt lat="48.78371" lon="1.42532">
        <ele>143</ele>
        <time>2017-04-18T13:53:55Z</time>
      </trkpt>
      <trkpt lat="48.78365" lon="1.42543">
        <ele>143</ele>
        <time>2017-04-18T13:53:57Z</time>
      </trkpt>
      <trkpt lat="48.78358" lon="1.42555">
        <ele>142.899994</ele>
        <time>2017-04-18T13:53:59Z</time>
      </trkpt>
      <trkpt lat="48.78349" lon="1.42563">
        <ele>142.699997</ele>
        <time>2017-04-18T13:54:01Z</time>
      </trkpt>
      <trkpt lat="48.7834" lon="1.42577">
        <ele>142.5</ele>
        <time>2017-04-18T13:54:04Z</time>
      </trkpt>
      <trkpt lat="48.78335" lon="1.42589">
        <ele>142.5</ele>
        <time>2017-04-18T13:54:06Z</time>
      </trkpt>
      <trkpt lat="48.78329" lon="1.42602">
        <ele>142.399994</ele>
        <time>2017-04-18T13:54:08Z</time>
      </trkpt>
      <trkpt lat="48.78323" lon="1.42619">
        <ele>142.399994</ele>
        <time>2017-04-18T13:54:10Z</time>
      </trkpt>
      <trkpt lat="48.78316" lon="1.42633">
        <ele>142.300003</ele>
        <time>2017-04-18T13:54:13Z</time>
      </trkpt>
      <trkpt lat="48.78307" lon="1.42626">
        <ele>142.199997</ele>
        <time>2017-04-18T13:54:19Z</time>
      </trkpt>
      <trkpt lat="48.78302" lon="1.42612">
        <ele>142.199997</ele>
        <time>2017-04-18T13:54:26Z</time>
      </trkpt>
      <trkpt lat="48.78298" lon="1.42598">
        <ele>142.199997</ele>
        <time>2017-04-18T13:54:31Z</time>
      </trkpt>
      <trkpt lat="48.78294" lon="1.42585">
        <ele>142.100006</ele>
        <time>2017-04-18T13:54:34Z</time>
      </trkpt>
      <trkpt lat="48.78291" lon="1.42565">
        <ele>142.100006</ele>
        <time>2017-04-18T13:54:37Z</time>
      </trkpt>
      <trkpt lat="48.78288" lon="1.42551">
        <ele>142.100006</ele>
        <time>2017-04-18T13:54:39Z</time>
      </trkpt>
      <trkpt lat="48.78286" lon="1.42537">
        <ele>142.100006</ele>
        <time>2017-04-18T13:54:41Z</time>
      </trkpt>
      <trkpt lat="48.78284" lon="1.42519">
        <ele>142</ele>
        <time>2017-04-18T13:54:44Z</time>
      </trkpt>
      <trkpt lat="48.78281" lon="1.42503">
        <ele>141.899994</ele>
        <time>2017-04-18T13:54:47Z</time>
      </trkpt>
      <trkpt lat="48.78278" lon="1.42489">
        <ele>141.899994</ele>
        <time>2017-04-18T13:54:49Z</time>
      </trkpt>
      <trkpt lat="48.78273" lon="1.42475">
        <ele>141.800003</ele>
        <time>2017-04-18T13:54:51Z</time>
      </trkpt>
      <trkpt lat="48.7827" lon="1.4246">
        <ele>141.800003</ele>
        <time>2017-04-18T13:54:53Z</time>
      </trkpt>
      <trkpt lat="48.78268" lon="1.42447">
        <ele>141.800003</ele>
        <time>2017-04-18T13:54:55Z</time>
      </trkpt>
      <trkpt lat="48.78263" lon="1.42428">
        <ele>141.699997</ele>
        <time>2017-04-18T13:54:58Z</time>
      </trkpt>
      <trkpt lat="48.78257" lon="1.4241">
        <ele>141.600006</ele>
        <time>2017-04-18T13:55:00Z</time>
      </trkpt>
      <trkpt lat="48.78255" lon="1.42394">
        <ele>141.5</ele>
        <time>2017-04-18T13:55:02Z</time>
      </trkpt>
      <trkpt lat="48.78253" lon="1.42379">
        <ele>141.399994</ele>
        <time>2017-04-18T13:55:04Z</time>
      </trkpt>
      <trkpt lat="48.78251" lon="1.42365">
        <ele>141.300003</ele>
        <time>2017-04-18T13:55:06Z</time>
      </trkpt>
      <trkpt lat="48.78246" lon="1.42348">
        <ele>141.199997</ele>
        <time>2017-04-18T13:55:08Z</time>
      </trkpt>
      <trkpt lat="48.78241" lon="1.42332">
        <ele>141.199997</ele>
        <time>2017-04-18T13:55:10Z</time>
      </trkpt>
      <trkpt lat="48.78236" lon="1.42317">
        <ele>141.100006</ele>
        <time>2017-04-18T13:55:12Z</time>
      </trkpt>
      <trkpt lat="48.78234" lon="1.423">
        <ele>141</ele>
        <time>2017-04-18T13:55:15Z</time>
      </trkpt>
      <trkpt lat="48.78239" lon="1.42287">
        <ele>140.5</ele>
        <time>2017-04-18T13:55:22Z</time>
      </trkpt>
      <trkpt lat="48.78242" lon="1.42273">
        <ele>140.300003</ele>
        <time>2017-04-18T13:55:27Z</time>
      </trkpt>
      <trkpt lat="48.78239" lon="1.42259">
        <ele>140</ele>
        <time>2017-04-18T13:55:35Z</time>
      </trkpt>
      <trkpt lat="48.78233" lon="1.42249">
        <ele>139.699997</ele>
        <time>2017-04-18T13:55:48Z</time>
      </trkpt>
      <trkpt lat="48.78221" lon="1.4225">
        <ele>138.899994</ele>
        <time>2017-04-18T13:55:54Z</time>
      </trkpt>
      <trkpt lat="48.78212" lon="1.42248">
        <ele>138.199997</ele>
        <time>2017-04-18T13:55:58Z</time>
      </trkpt>
      <trkpt lat="48.78201" lon="1.42242">
        <ele>137.600006</ele>
        <time>2017-04-18T13:56:03Z</time>
      </trkpt>
      <trkpt lat="48.78193" lon="1.42238">
        <ele>137.300003</ele>
        <time>2017-04-18T13:56:06Z</time>
      </trkpt>
      <trkpt lat="48.78182" lon="1.42232">
        <ele>137.100006</ele>
        <time>2017-04-18T13:56:09Z</time>
      </trkpt>
      <trkpt lat="48.7817" lon="1.42234">
        <ele>136.800003</ele>
        <time>2017-04-18T13:56:12Z</time>
      </trkpt>
      <trkpt lat="48.78161" lon="1.42238">
        <ele>136.600006</ele>
        <time>2017-04-18T13:56:14Z</time>
      </trkpt>
      <trkpt lat="48.78148" lon="1.42243">
        <ele>136.199997</ele>
        <time>2017-04-18T13:56:16Z</time>
      </trkpt>
      <trkpt lat="48.78137" lon="1.42248">
        <ele>135.699997</ele>
        <time>2017-04-18T13:56:18Z</time>
      </trkpt>
      <trkpt lat="48.78128" lon="1.4225">
        <ele>135.100006</ele>
        <time>2017-04-18T13:56:20Z</time>
      </trkpt>
      <trkpt lat="48.78116" lon="1.42247">
        <ele>134.199997</ele>
        <time>2017-04-18T13:56:23Z</time>
      </trkpt>
      <trkpt lat="48.78105" lon="1.42247">
        <ele>133.5</ele>
        <time>2017-04-18T13:56:26Z</time>
      </trkpt>
      <trkpt lat="48.78094" lon="1.42245">
        <ele>132.899994</ele>
        <time>2017-04-18T13:56:29Z</time>
      </trkpt>
      <trkpt lat="48.78081" lon="1.42246">
        <ele>132.399994</ele>
        <time>2017-04-18T13:56:32Z</time>
      </trkpt>
      <trkpt lat="48.78074" lon="1.42238">
        <ele>132</ele>
        <time>2017-04-18T13:56:35Z</time>
      </trkpt>
      <trkpt lat="48.78068" lon="1.42224">
        <ele>131.399994</ele>
        <time>2017-04-18T13:56:40Z</time>
      </trkpt>
      <trkpt lat="48.7806" lon="1.42213">
        <ele>131.300003</ele>
        <time>2017-04-18T13:56:43Z</time>
      </trkpt>
      <trkpt lat="48.78054" lon="1.42196">
        <ele>131.300003</ele>
        <time>2017-04-18T13:56:46Z</time>
      </trkpt>
      <trkpt lat="48.78048" lon="1.42183">
        <ele>131.199997</ele>
        <time>2017-04-18T13:56:50Z</time>
      </trkpt>
      <trkpt lat="48.78037" lon="1.42177">
        <ele>130.800003</ele>
        <time>2017-04-18T13:56:54Z</time>
      </trkpt>
      <trkpt lat="48.78028" lon="1.4217">
        <ele>130</ele>
        <time>2017-04-18T13:56:59Z</time>
      </trkpt>
      <trkpt lat="48.78018" lon="1.4217">
        <ele>129.199997</ele>
        <time>2017-04-18T13:57:02Z</time>
      </trkpt>
      <trkpt lat="48.78005" lon="1.42177">
        <ele>128.100006</ele>
        <time>2017-04-18T13:57:05Z</time>
      </trkpt>
      <trkpt lat="48.77992" lon="1.42176">
        <ele>126.599998</ele>
        <time>2017-04-18T13:57:08Z</time>
      </trkpt>
      <trkpt lat="48.77981" lon="1.42163">
        <ele>124.900002</ele>
        <time>2017-04-18T13:57:11Z</time>
      </trkpt>
      <trkpt lat="48.77979" lon="1.42149">
        <ele>123.800003</ele>
        <time>2017-04-18T13:57:13Z</time>
      </trkpt>
      <trkpt lat="48.77976" lon="1.42134">
        <ele>122.800003</ele>
        <time>2017-04-18T13:57:15Z</time>
      </trkpt>
      <trkpt lat="48.77973" lon="1.4212">
        <ele>121.800003</ele>
        <time>2017-04-18T13:57:17Z</time>
      </trkpt>
      <trkpt lat="48.77969" lon="1.42104">
        <ele>120.900002</ele>
        <time>2017-04-18T13:57:19Z</time>
      </trkpt>
      <trkpt lat="48.77965" lon="1.42089">
        <ele>120.099998</ele>
        <time>2017-04-18T13:57:21Z</time>
      </trkpt>
      <trkpt lat="48.77962" lon="1.42073">
        <ele>119.5</ele>
        <time>2017-04-18T13:57:23Z</time>
      </trkpt>
      <trkpt lat="48.7796" lon="1.42055">
        <ele>118.599998</ele>
        <time>2017-04-18T13:57:26Z</time>
      </trkpt>
      <trkpt lat="48.77958" lon="1.42037">
        <ele>117.699997</ele>
        <time>2017-04-18T13:57:29Z</time>
      </trkpt>
      <trkpt lat="48.77954" lon="1.42016">
        <ele>117</ele>
        <time>2017-04-18T13:57:32Z</time>
      </trkpt>
      <trkpt lat="48.77949" lon="1.42002">
        <ele>116.5</ele>
        <time>2017-04-18T13:57:34Z</time>
      </trkpt>
      <trkpt lat="48.77944" lon="1.41988">
        <ele>116</ele>
        <time>2017-04-18T13:57:36Z</time>
      </trkpt>
      <trkpt lat="48.77937" lon="1.41973">
        <ele>115.599998</ele>
        <time>2017-04-18T13:57:38Z</time>
      </trkpt>
      <trkpt lat="48.77928" lon="1.41961">
        <ele>115.099998</ele>
        <time>2017-04-18T13:57:40Z</time>
      </trkpt>
      <trkpt lat="48.77918" lon="1.41952">
        <ele>114.699997</ele>
        <time>2017-04-18T13:57:42Z</time>
      </trkpt>
      <trkpt lat="48.77908" lon="1.41945">
        <ele>114.400002</ele>
        <time>2017-04-18T13:57:44Z</time>
      </trkpt>
      <trkpt lat="48.779" lon="1.41935">
        <ele>114.199997</ele>
        <time>2017-04-18T13:57:46Z</time>
      </trkpt>
      <trkpt lat="48.77888" lon="1.41925">
        <ele>113.800003</ele>
        <time>2017-04-18T13:57:49Z</time>
      </trkpt>
      <trkpt lat="48.77877" lon="1.41919">
        <ele>113.699997</ele>
        <time>2017-04-18T13:57:51Z</time>
      </trkpt>
      <trkpt lat="48.77867" lon="1.41914">
        <ele>113.5</ele>
        <time>2017-04-18T13:57:53Z</time>
      </trkpt>
      <trkpt lat="48.77857" lon="1.41911">
        <ele>113.199997</ele>
        <time>2017-04-18T13:57:55Z</time>
      </trkpt>
      <trkpt lat="48.77848" lon="1.41909">
        <ele>113.099998</ele>
        <time>2017-04-18T13:57:57Z</time>
      </trkpt>
      <trkpt lat="48.77838" lon="1.41905">
        <ele>112.900002</ele>
        <time>2017-04-18T13:57:59Z</time>
      </trkpt>
      <trkpt lat="48.77829" lon="1.419">
        <ele>112.699997</ele>
        <time>2017-04-18T13:58:01Z</time>
      </trkpt>
      <trkpt lat="48.7782" lon="1.41898">
        <ele>112.599998</ele>
        <time>2017-04-18T13:58:03Z</time>
      </trkpt>
      <trkpt lat="48.77809" lon="1.41898">
        <ele>112.5</ele>
        <time>2017-04-18T13:58:05Z</time>
      </trkpt>
      <trkpt lat="48.77799" lon="1.41895">
        <ele>112.300003</ele>
        <time>2017-04-18T13:58:07Z</time>
      </trkpt>
      <trkpt lat="48.77791" lon="1.41891">
        <ele>112.099998</ele>
        <time>2017-04-18T13:58:09Z</time>
      </trkpt>
      <trkpt lat="48.77782" lon="1.41886">
        <ele>112</ele>
        <time>2017-04-18T13:58:11Z</time>
      </trkpt>
      <trkpt lat="48.77773" lon="1.41881">
        <ele>111.699997</ele>
        <time>2017-04-18T13:58:15Z</time>
      </trkpt>
      <trkpt lat="48.77772" lon="1.41867">
        <ele>111.099998</ele>
        <time>2017-04-18T13:58:42Z</time>
      </trkpt>
      <trkpt lat="48.7778" lon="1.41858">
        <ele>111.699997</ele>
        <time>2017-04-18T13:58:49Z</time>
      </trkpt>
      <trkpt lat="48.77787" lon="1.4185">
        <ele>112.5</ele>
        <time>2017-04-18T13:58:54Z</time>
      </trkpt>
      <trkpt lat="48.77794" lon="1.4184">
        <ele>115.300003</ele>
        <time>2017-04-18T13:59:14Z</time>
      </trkpt>
      <trkpt lat="48.77801" lon="1.41831">
        <ele>116.400002</ele>
        <time>2017-04-18T13:59:26Z</time>
      </trkpt>
      <trkpt lat="48.77809" lon="1.41822">
        <ele>117.900002</ele>
        <time>2017-04-18T13:59:36Z</time>
      </trkpt>
      <trkpt lat="48.77817" lon="1.41814">
        <ele>119.099998</ele>
        <time>2017-04-18T13:59:43Z</time>
      </trkpt>
      <trkpt lat="48.77826" lon="1.41805">
        <ele>120.400002</ele>
        <time>2017-04-18T13:59:50Z</time>
      </trkpt>
      <trkpt lat="48.77835" lon="1.41797">
        <ele>122</ele>
        <time>2017-04-18T13:59:57Z</time>
      </trkpt>
      <trkpt lat="48.77843" lon="1.4179">
        <ele>123.5</ele>
        <time>2017-04-18T14:00:03Z</time>
      </trkpt>
      <trkpt lat="48.77851" lon="1.41782">
        <ele>124.900002</ele>
        <time>2017-04-18T14:00:09Z</time>
      </trkpt>
      <trkpt lat="48.77859" lon="1.41773">
        <ele>126.400002</ele>
        <time>2017-04-18T14:00:16Z</time>
      </trkpt>
      <trkpt lat="48.77866" lon="1.41764">
        <ele>127.900002</ele>
        <time>2017-04-18T14:00:23Z</time>
      </trkpt>
      <trkpt lat="48.77858" lon="1.41753">
        <ele>130.600006</ele>
        <time>2017-04-18T14:00:55Z</time>
      </trkpt>
      <trkpt lat="48.77853" lon="1.41741">
        <ele>130</ele>
        <time>2017-04-18T14:00:59Z</time>
      </trkpt>
      <trkpt lat="48.77852" lon="1.41727">
        <ele>129.199997</ele>
        <time>2017-04-18T14:01:02Z</time>
      </trkpt>
      <trkpt lat="48.77853" lon="1.41709">
        <ele>128.100006</ele>
        <time>2017-04-18T14:01:05Z</time>
      </trkpt>
      <trkpt lat="48.77858" lon="1.41692">
        <ele>127</ele>
        <time>2017-04-18T14:01:08Z</time>
      </trkpt>
      <trkpt lat="48.77859" lon="1.41676">
        <ele>125.900002</ele>
        <time>2017-04-18T14:01:11Z</time>
      </trkpt>
      <trkpt lat="48.77863" lon="1.41658">
        <ele>124.900002</ele>
        <time>2017-04-18T14:01:14Z</time>
      </trkpt>
      <trkpt lat="48.77866" lon="1.41637">
        <ele>123.800003</ele>
        <time>2017-04-18T14:01:17Z</time>
      </trkpt>
      <trkpt lat="48.77871" lon="1.41625">
        <ele>123.199997</ele>
        <time>2017-04-18T14:01:19Z</time>
      </trkpt>
      <trkpt lat="48.77877" lon="1.41614">
        <ele>122.400002</ele>
        <time>2017-04-18T14:01:22Z</time>
      </trkpt>
      <trkpt lat="48.77881" lon="1.416">
        <ele>121.5</ele>
        <time>2017-04-18T14:01:26Z</time>
      </trkpt>
      <trkpt lat="48.77886" lon="1.41583">
        <ele>120.800003</ele>
        <time>2017-04-18T14:01:30Z</time>
      </trkpt>
      <trkpt lat="48.77886" lon="1.41567">
        <ele>120.199997</ele>
        <time>2017-04-18T14:01:34Z</time>
      </trkpt>
      <trkpt lat="48.77885" lon="1.4155">
        <ele>119.599998</ele>
        <time>2017-04-18T14:01:37Z</time>
      </trkpt>
      <trkpt lat="48.7788" lon="1.4153">
        <ele>119</ele>
        <time>2017-04-18T14:01:40Z</time>
      </trkpt>
      <trkpt lat="48.77872" lon="1.41519">
        <ele>118.699997</ele>
        <time>2017-04-18T14:01:42Z</time>
      </trkpt>
      <trkpt lat="48.77865" lon="1.41508">
        <ele>118.300003</ele>
        <time>2017-04-18T14:01:45Z</time>
      </trkpt>
      <trkpt lat="48.77859" lon="1.41497">
        <ele>117.900002</ele>
        <time>2017-04-18T14:01:49Z</time>
      </trkpt>
      <trkpt lat="48.77851" lon="1.41501">
        <ele>117.800003</ele>
        <time>2017-04-18T14:01:53Z</time>
      </trkpt>
      <trkpt lat="48.77842" lon="1.41512">
        <ele>117.800003</ele>
        <time>2017-04-18T14:01:57Z</time>
      </trkpt>
      <trkpt lat="48.77836" lon="1.41526">
        <ele>117.900002</ele>
        <time>2017-04-18T14:02:00Z</time>
      </trkpt>
      <trkpt lat="48.77828" lon="1.41542">
        <ele>117.900002</ele>
        <time>2017-04-18T14:02:03Z</time>
      </trkpt>
      <trkpt lat="48.77823" lon="1.41556">
        <ele>117.900002</ele>
        <time>2017-04-18T14:02:05Z</time>
      </trkpt>
      <trkpt lat="48.77818" lon="1.41571">
        <ele>117.900002</ele>
        <time>2017-04-18T14:02:07Z</time>
      </trkpt>
      <trkpt lat="48.77812" lon="1.41587">
        <ele>117.800003</ele>
        <time>2017-04-18T14:02:09Z</time>
      </trkpt>
      <trkpt lat="48.77806" lon="1.41605">
        <ele>117.5</ele>
        <time>2017-04-18T14:02:11Z</time>
      </trkpt>
      <trkpt lat="48.77796" lon="1.41624">
        <ele>116.900002</ele>
        <time>2017-04-18T14:02:13Z</time>
      </trkpt>
      <trkpt lat="48.77788" lon="1.41646">
        <ele>116.099998</ele>
        <time>2017-04-18T14:02:15Z</time>
      </trkpt>
      <trkpt lat="48.77779" lon="1.41667">
        <ele>115.400002</ele>
        <time>2017-04-18T14:02:17Z</time>
      </trkpt>
      <trkpt lat="48.77771" lon="1.41688">
        <ele>114.800003</ele>
        <time>2017-04-18T14:02:19Z</time>
      </trkpt>
      <trkpt lat="48.77764" lon="1.41706">
        <ele>114.199997</ele>
        <time>2017-04-18T14:02:21Z</time>
      </trkpt>
      <trkpt lat="48.77758" lon="1.41721">
        <ele>113.800003</ele>
        <time>2017-04-18T14:02:24Z</time>
      </trkpt>
      <trkpt lat="48.77765" lon="1.41705">
        <ele>113.599998</ele>
        <time>2017-04-18T14:02:40Z</time>
      </trkpt>
      <trkpt lat="48.77761" lon="1.41693">
        <ele>113</ele>
        <time>2017-04-18T14:02:44Z</time>
      </trkpt>
      <trkpt lat="48.7775" lon="1.41689">
        <ele>112.300003</ele>
        <time>2017-04-18T14:02:47Z</time>
      </trkpt>
      <trkpt lat="48.77738" lon="1.41683">
        <ele>111.599998</ele>
        <time>2017-04-18T14:02:50Z</time>
      </trkpt>
      <trkpt lat="48.77727" lon="1.41675">
        <ele>110.800003</ele>
        <time>2017-04-18T14:02:53Z</time>
      </trkpt>
      <trkpt lat="48.77717" lon="1.41663">
        <ele>110.099998</ele>
        <time>2017-04-18T14:02:56Z</time>
      </trkpt>
      <trkpt lat="48.77712" lon="1.41647">
        <ele>109.400002</ele>
        <time>2017-04-18T14:02:59Z</time>
      </trkpt>
      <trkpt lat="48.77702" lon="1.41636">
        <ele>108.800003</ele>
        <time>2017-04-18T14:03:02Z</time>
      </trkpt>
      <trkpt lat="48.77692" lon="1.41624">
        <ele>108.400002</ele>
        <time>2017-04-18T14:03:04Z</time>
      </trkpt>
      <trkpt lat="48.77683" lon="1.41611">
        <ele>108</ele>
        <time>2017-04-18T14:03:06Z</time>
      </trkpt>
      <trkpt lat="48.77674" lon="1.41602">
        <ele>107.699997</ele>
        <time>2017-04-18T14:03:08Z</time>
      </trkpt>
      <trkpt lat="48.77666" lon="1.41595">
        <ele>107.5</ele>
        <time>2017-04-18T14:03:10Z</time>
      </trkpt>
      <trkpt lat="48.77658" lon="1.41587">
        <ele>107.300003</ele>
        <time>2017-04-18T14:03:12Z</time>
      </trkpt>
      <trkpt lat="48.7765" lon="1.4158">
        <ele>106.800003</ele>
        <time>2017-04-18T14:03:14Z</time>
      </trkpt>
      <trkpt lat="48.77638" lon="1.41573">
        <ele>106.599998</ele>
        <time>2017-04-18T14:03:16Z</time>
      </trkpt>
      <trkpt lat="48.77629" lon="1.41568">
        <ele>106.400002</ele>
        <time>2017-04-18T14:03:18Z</time>
      </trkpt>
      <trkpt lat="48.7762" lon="1.41564">
        <ele>106.300003</ele>
        <time>2017-04-18T14:03:20Z</time>
      </trkpt>
      <trkpt lat="48.77611" lon="1.41564">
        <ele>106.099998</ele>
        <time>2017-04-18T14:03:22Z</time>
      </trkpt>
      <trkpt lat="48.77599" lon="1.41561">
        <ele>106</ele>
        <time>2017-04-18T14:03:24Z</time>
      </trkpt>
      <trkpt lat="48.7759" lon="1.4156">
        <ele>105.900002</ele>
        <time>2017-04-18T14:03:26Z</time>
      </trkpt>
      <trkpt lat="48.77579" lon="1.41561">
        <ele>105.699997</ele>
        <time>2017-04-18T14:03:28Z</time>
      </trkpt>
      <trkpt lat="48.77569" lon="1.41563">
        <ele>105.5</ele>
        <time>2017-04-18T14:03:30Z</time>
      </trkpt>
      <trkpt lat="48.77558" lon="1.41565">
        <ele>105.300003</ele>
        <time>2017-04-18T14:03:32Z</time>
      </trkpt>
      <trkpt lat="48.77545" lon="1.41564">
        <ele>105</ele>
        <time>2017-04-18T14:03:35Z</time>
      </trkpt>
      <trkpt lat="48.77534" lon="1.41569">
        <ele>104.699997</ele>
        <time>2017-04-18T14:03:38Z</time>
      </trkpt>
      <trkpt lat="48.77521" lon="1.41572">
        <ele>104.400002</ele>
        <time>2017-04-18T14:03:42Z</time>
      </trkpt>
      <trkpt lat="48.7751" lon="1.41576">
        <ele>104.099998</ele>
        <time>2017-04-18T14:03:45Z</time>
      </trkpt>
      <trkpt lat="48.775" lon="1.41578">
        <ele>103.900002</ele>
        <time>2017-04-18T14:03:47Z</time>
      </trkpt>
      <trkpt lat="48.7749" lon="1.4158">
        <ele>103.800003</ele>
        <time>2017-04-18T14:03:49Z</time>
      </trkpt>
      <trkpt lat="48.7748" lon="1.41581">
        <ele>103.300003</ele>
        <time>2017-04-18T14:03:57Z</time>
      </trkpt>
      <trkpt lat="48.7747" lon="1.41578">
        <ele>102.900002</ele>
        <time>2017-04-18T14:04:05Z</time>
      </trkpt>
      <trkpt lat="48.77459" lon="1.41581">
        <ele>102.800003</ele>
        <time>2017-04-18T14:04:11Z</time>
      </trkpt>
      <trkpt lat="48.77447" lon="1.41581">
        <ele>102.699997</ele>
        <time>2017-04-18T14:04:15Z</time>
      </trkpt>
      <trkpt lat="48.77438" lon="1.41577">
        <ele>102.599998</ele>
        <time>2017-04-18T14:04:18Z</time>
      </trkpt>
      <trkpt lat="48.77431" lon="1.41567">
        <ele>102.5</ele>
        <time>2017-04-18T14:04:21Z</time>
      </trkpt>
      <trkpt lat="48.77422" lon="1.41565">
        <ele>102.5</ele>
        <time>2017-04-18T14:04:24Z</time>
      </trkpt>
      <trkpt lat="48.7741" lon="1.41559">
        <ele>102.400002</ele>
        <time>2017-04-18T14:04:27Z</time>
      </trkpt>
      <trkpt lat="48.77401" lon="1.41556">
        <ele>102.300003</ele>
        <time>2017-04-18T14:04:29Z</time>
      </trkpt>
      <trkpt lat="48.77393" lon="1.41549">
        <ele>102.199997</ele>
        <time>2017-04-18T14:04:31Z</time>
      </trkpt>
      <trkpt lat="48.77384" lon="1.41538">
        <ele>102</ele>
        <time>2017-04-18T14:04:34Z</time>
      </trkpt>
      <trkpt lat="48.77377" lon="1.41527">
        <ele>101.5</ele>
        <time>2017-04-18T14:04:45Z</time>
      </trkpt>
      <trkpt lat="48.77367" lon="1.4153">
        <ele>101.300003</ele>
        <time>2017-04-18T14:04:53Z</time>
      </trkpt>
      <trkpt lat="48.77359" lon="1.41523">
        <ele>101.099998</ele>
        <time>2017-04-18T14:05:01Z</time>
      </trkpt>
      <trkpt lat="48.77353" lon="1.41511">
        <ele>101.099998</ele>
        <time>2017-04-18T14:05:05Z</time>
      </trkpt>
      <trkpt lat="48.77348" lon="1.41497">
        <ele>101</ele>
        <time>2017-04-18T14:05:09Z</time>
      </trkpt>
      <trkpt lat="48.7734" lon="1.41491">
        <ele>100.800003</ele>
        <time>2017-04-18T14:05:20Z</time>
      </trkpt>
      <trkpt lat="48.77331" lon="1.41486">
        <ele>100.699997</ele>
        <time>2017-04-18T14:05:28Z</time>
      </trkpt>
      <trkpt lat="48.77322" lon="1.41479">
        <ele>100.699997</ele>
        <time>2017-04-18T14:05:33Z</time>
      </trkpt>
      <trkpt lat="48.77312" lon="1.41473">
        <ele>100.599998</ele>
        <time>2017-04-18T14:05:36Z</time>
      </trkpt>
      <trkpt lat="48.77302" lon="1.41463">
        <ele>100.599998</ele>
        <time>2017-04-18T14:05:39Z</time>
      </trkpt>
      <trkpt lat="48.77291" lon="1.41455">
        <ele>100.5</ele>
        <time>2017-04-18T14:05:42Z</time>
      </trkpt>
      <trkpt lat="48.77284" lon="1.41444">
        <ele>100.400002</ele>
        <time>2017-04-18T14:05:44Z</time>
      </trkpt>
      <trkpt lat="48.77276" lon="1.41431">
        <ele>100.199997</ele>
        <time>2017-04-18T14:05:47Z</time>
      </trkpt>
      <trkpt lat="48.7727" lon="1.4142">
        <ele>100</ele>
        <time>2017-04-18T14:05:50Z</time>
      </trkpt>
      <trkpt lat="48.77265" lon="1.41407">
        <ele>99.699997</ele>
        <time>2017-04-18T14:05:55Z</time>
      </trkpt>
      <trkpt lat="48.77258" lon="1.41391">
        <ele>99.599998</ele>
        <time>2017-04-18T14:05:58Z</time>
      </trkpt>
      <trkpt lat="48.77255" lon="1.41376">
        <ele>99.5</ele>
        <time>2017-04-18T14:06:02Z</time>
      </trkpt>
      <trkpt lat="48.77261" lon="1.41366">
        <ele>99.400002</ele>
        <time>2017-04-18T14:06:05Z</time>
      </trkpt>
      <trkpt lat="48.77264" lon="1.41352">
        <ele>99.5</ele>
        <time>2017-04-18T14:06:10Z</time>
      </trkpt>
      <trkpt lat="48.77265" lon="1.41338">
        <ele>100.099998</ele>
        <time>2017-04-18T14:06:17Z</time>
      </trkpt>
      <trkpt lat="48.77267" lon="1.41325">
        <ele>101.199997</ele>
        <time>2017-04-18T14:06:24Z</time>
      </trkpt>
      <trkpt lat="48.77267" lon="1.4131">
        <ele>102.099998</ele>
        <time>2017-04-18T14:06:31Z</time>
      </trkpt>
      <trkpt lat="48.77264" lon="1.41297">
        <ele>103.099998</ele>
        <time>2017-04-18T14:06:38Z</time>
      </trkpt>
      <trkpt lat="48.77263" lon="1.41283">
        <ele>104.199997</ele>
        <time>2017-04-18T14:06:45Z</time>
      </trkpt>
      <trkpt lat="48.77267" lon="1.4127">
        <ele>106</ele>
        <time>2017-04-18T14:06:54Z</time>
      </trkpt>
      <trkpt lat="48.77274" lon="1.4126">
        <ele>108.5</ele>
        <time>2017-04-18T14:07:06Z</time>
      </trkpt>
      <trkpt lat="48.77282" lon="1.41254">
        <ele>110.800003</ele>
        <time>2017-04-18T14:07:17Z</time>
      </trkpt>
      <trkpt lat="48.7729" lon="1.41246">
        <ele>113.099998</ele>
        <time>2017-04-18T14:07:28Z</time>
      </trkpt>
      <trkpt lat="48.77296" lon="1.41236">
        <ele>115.099998</ele>
        <time>2017-04-18T14:07:38Z</time>
      </trkpt>
      <trkpt lat="48.77303" lon="1.41225">
        <ele>117.099998</ele>
        <time>2017-04-18T14:07:48Z</time>
      </trkpt>
      <trkpt lat="48.77308" lon="1.41214">
        <ele>119</ele>
        <time>2017-04-18T14:07:58Z</time>
      </trkpt>
      <trkpt lat="48.77316" lon="1.41205">
        <ele>120.900002</ele>
        <time>2017-04-18T14:08:08Z</time>
      </trkpt>
      <trkpt lat="48.77323" lon="1.41195">
        <ele>122.300003</ele>
        <time>2017-04-18T14:08:16Z</time>
      </trkpt>
      <trkpt lat="48.77329" lon="1.41183">
        <ele>123.599998</ele>
        <time>2017-04-18T14:08:24Z</time>
      </trkpt>
      <trkpt lat="48.77336" lon="1.41172">
        <ele>125.199997</ele>
        <time>2017-04-18T14:08:34Z</time>
      </trkpt>
      <trkpt lat="48.77341" lon="1.4116">
        <ele>125.800003</ele>
        <time>2017-04-18T14:08:39Z</time>
      </trkpt>
      <trkpt lat="48.77338" lon="1.41146">
        <ele>126.699997</ele>
        <time>2017-04-18T14:08:45Z</time>
      </trkpt>
      <trkpt lat="48.77341" lon="1.41133">
        <ele>127.800003</ele>
        <time>2017-04-18T14:08:51Z</time>
      </trkpt>
      <trkpt lat="48.77345" lon="1.41119">
        <ele>128.699997</ele>
        <time>2017-04-18T14:08:56Z</time>
      </trkpt>
      <trkpt lat="48.77352" lon="1.41108">
        <ele>129.600006</ele>
        <time>2017-04-18T14:09:01Z</time>
      </trkpt>
      <trkpt lat="48.77358" lon="1.41094">
        <ele>131</ele>
        <time>2017-04-18T14:09:07Z</time>
      </trkpt>
      <trkpt lat="48.77363" lon="1.41081">
        <ele>132</ele>
        <time>2017-04-18T14:09:12Z</time>
      </trkpt>
      <trkpt lat="48.7737" lon="1.41067">
        <ele>132.699997</ele>
        <time>2017-04-18T14:09:16Z</time>
      </trkpt>
      <trkpt lat="48.77374" lon="1.41053">
        <ele>133.5</ele>
        <time>2017-04-18T14:09:20Z</time>
      </trkpt>
      <trkpt lat="48.7738" lon="1.4104">
        <ele>134.199997</ele>
        <time>2017-04-18T14:09:24Z</time>
      </trkpt>
      <trkpt lat="48.77385" lon="1.41028">
        <ele>134.600006</ele>
        <time>2017-04-18T14:09:27Z</time>
      </trkpt>
      <trkpt lat="48.77392" lon="1.41016">
        <ele>135.100006</ele>
        <time>2017-04-18T14:09:30Z</time>
      </trkpt>
      <trkpt lat="48.77399" lon="1.41004">
        <ele>135.600006</ele>
        <time>2017-04-18T14:09:34Z</time>
      </trkpt>
      <trkpt lat="48.77406" lon="1.4099">
        <ele>136.199997</ele>
        <time>2017-04-18T14:09:38Z</time>
      </trkpt>
      <trkpt lat="48.77404" lon="1.40975">
        <ele>136.600006</ele>
        <time>2017-04-18T14:09:41Z</time>
      </trkpt>
      <trkpt lat="48.77401" lon="1.4096">
        <ele>137.100006</ele>
        <time>2017-04-18T14:09:44Z</time>
      </trkpt>
      <trkpt lat="48.77399" lon="1.40941">
        <ele>137.5</ele>
        <time>2017-04-18T14:09:47Z</time>
      </trkpt>
      <trkpt lat="48.77399" lon="1.40922">
        <ele>137.899994</ele>
        <time>2017-04-18T14:09:50Z</time>
      </trkpt>
      <trkpt lat="48.77402" lon="1.40906">
        <ele>138.300003</ele>
        <time>2017-04-18T14:09:53Z</time>
      </trkpt>
      <trkpt lat="48.77406" lon="1.40888">
        <ele>138.699997</ele>
        <time>2017-04-18T14:09:56Z</time>
      </trkpt>
      <trkpt lat="48.7741" lon="1.4087">
        <ele>139.100006</ele>
        <time>2017-04-18T14:09:59Z</time>
      </trkpt>
      <trkpt lat="48.77413" lon="1.40857">
        <ele>139.300003</ele>
        <time>2017-04-18T14:10:01Z</time>
      </trkpt>
      <trkpt lat="48.77413" lon="1.40843">
        <ele>139.5</ele>
        <time>2017-04-18T14:10:03Z</time>
      </trkpt>
      <trkpt lat="48.77409" lon="1.40824">
        <ele>139.800003</ele>
        <time>2017-04-18T14:10:06Z</time>
      </trkpt>
      <trkpt lat="48.77402" lon="1.40808">
        <ele>140</ele>
        <time>2017-04-18T14:10:09Z</time>
      </trkpt>
      <trkpt lat="48.77395" lon="1.40793">
        <ele>140.300003</ele>
        <time>2017-04-18T14:10:12Z</time>
      </trkpt>
      <trkpt lat="48.77391" lon="1.40777">
        <ele>140.600006</ele>
        <time>2017-04-18T14:10:15Z</time>
      </trkpt>
      <trkpt lat="48.77382" lon="1.40763">
        <ele>140.899994</ele>
        <time>2017-04-18T14:10:18Z</time>
      </trkpt>
      <trkpt lat="48.77375" lon="1.40746">
        <ele>141.100006</ele>
        <time>2017-04-18T14:10:21Z</time>
      </trkpt>
      <trkpt lat="48.77369" lon="1.40731">
        <ele>141.199997</ele>
        <time>2017-04-18T14:10:24Z</time>
      </trkpt>
      <trkpt lat="48.7736" lon="1.40723">
        <ele>141.300003</ele>
        <time>2017-04-18T14:10:26Z</time>
      </trkpt>
      <trkpt lat="48.77355" lon="1.40711">
        <ele>141.399994</ele>
        <time>2017-04-18T14:10:28Z</time>
      </trkpt>
      <trkpt lat="48.77349" lon="1.40699">
        <ele>141.5</ele>
        <time>2017-04-18T14:10:30Z</time>
      </trkpt>
      <trkpt lat="48.77342" lon="1.40681">
        <ele>141.600006</ele>
        <time>2017-04-18T14:10:33Z</time>
      </trkpt>
      <trkpt lat="48.77337" lon="1.40668">
        <ele>141.600006</ele>
        <time>2017-04-18T14:10:35Z</time>
      </trkpt>
      <trkpt lat="48.77332" lon="1.40657">
        <ele>141.699997</ele>
        <time>2017-04-18T14:10:37Z</time>
      </trkpt>
      <trkpt lat="48.77325" lon="1.40639">
        <ele>141.699997</ele>
        <time>2017-04-18T14:10:40Z</time>
      </trkpt>
      <trkpt lat="48.77317" lon="1.40626">
        <ele>141.800003</ele>
        <time>2017-04-18T14:10:42Z</time>
      </trkpt>
      <trkpt lat="48.77309" lon="1.40617">
        <ele>141.800003</ele>
        <time>2017-04-18T14:10:44Z</time>
      </trkpt>
      <trkpt lat="48.77302" lon="1.40608">
        <ele>141.800003</ele>
        <time>2017-04-18T14:10:46Z</time>
      </trkpt>
      <trkpt lat="48.77295" lon="1.40594">
        <ele>141.800003</ele>
        <time>2017-04-18T14:10:48Z</time>
      </trkpt>
      <trkpt lat="48.77288" lon="1.40576">
        <ele>141.899994</ele>
        <time>2017-04-18T14:10:51Z</time>
      </trkpt>
      <trkpt lat="48.77281" lon="1.4056">
        <ele>141.899994</ele>
        <time>2017-04-18T14:10:54Z</time>
      </trkpt>
      <trkpt lat="48.77273" lon="1.40552">
        <ele>141.899994</ele>
        <time>2017-04-18T14:10:56Z</time>
      </trkpt>
      <trkpt lat="48.77266" lon="1.40543">
        <ele>141.899994</ele>
        <time>2017-04-18T14:10:59Z</time>
      </trkpt>
      <trkpt lat="48.77262" lon="1.40526">
        <ele>142</ele>
        <time>2017-04-18T14:11:02Z</time>
      </trkpt>
      <trkpt lat="48.77258" lon="1.40514">
        <ele>142</ele>
        <time>2017-04-18T14:11:04Z</time>
      </trkpt>
      <trkpt lat="48.77253" lon="1.40498">
        <ele>142</ele>
        <time>2017-04-18T14:11:07Z</time>
      </trkpt>
      <trkpt lat="48.77254" lon="1.40477">
        <ele>142</ele>
        <time>2017-04-18T14:11:10Z</time>
      </trkpt>
      <trkpt lat="48.7725" lon="1.40464">
        <ele>142.100006</ele>
        <time>2017-04-18T14:11:12Z</time>
      </trkpt>
      <trkpt lat="48.77242" lon="1.40454">
        <ele>142.100006</ele>
        <time>2017-04-18T14:11:14Z</time>
      </trkpt>
      <trkpt lat="48.77232" lon="1.40439">
        <ele>142.100006</ele>
        <time>2017-04-18T14:11:17Z</time>
      </trkpt>
      <trkpt lat="48.77227" lon="1.40428">
        <ele>142.100006</ele>
        <time>2017-04-18T14:11:19Z</time>
      </trkpt>
      <trkpt lat="48.77219" lon="1.40413">
        <ele>142.100006</ele>
        <time>2017-04-18T14:11:22Z</time>
      </trkpt>
      <trkpt lat="48.77213" lon="1.40396">
        <ele>142.100006</ele>
        <time>2017-04-18T14:11:25Z</time>
      </trkpt>
      <trkpt lat="48.77213" lon="1.40382">
        <ele>142</ele>
        <time>2017-04-18T14:11:27Z</time>
      </trkpt>
      <trkpt lat="48.7721" lon="1.40361">
        <ele>142</ele>
        <time>2017-04-18T14:11:30Z</time>
      </trkpt>
      <trkpt lat="48.77214" lon="1.40343">
        <ele>141.899994</ele>
        <time>2017-04-18T14:11:33Z</time>
      </trkpt>
      <trkpt lat="48.77218" lon="1.4033">
        <ele>141.800003</ele>
        <time>2017-04-18T14:11:36Z</time>
      </trkpt>
      <trkpt lat="48.77223" lon="1.40319">
        <ele>141.699997</ele>
        <time>2017-04-18T14:11:38Z</time>
      </trkpt>
      <trkpt lat="48.77233" lon="1.40305">
        <ele>141.600006</ele>
        <time>2017-04-18T14:11:41Z</time>
      </trkpt>
      <trkpt lat="48.7724" lon="1.40289">
        <ele>141.5</ele>
        <time>2017-04-18T14:11:44Z</time>
      </trkpt>
      <trkpt lat="48.7725" lon="1.40277">
        <ele>141.300003</ele>
        <time>2017-04-18T14:11:47Z</time>
      </trkpt>
      <trkpt lat="48.7726" lon="1.4027">
        <ele>141.199997</ele>
        <time>2017-04-18T14:11:50Z</time>
      </trkpt>
      <trkpt lat="48.77271" lon="1.40261">
        <ele>141.100006</ele>
        <time>2017-04-18T14:11:55Z</time>
      </trkpt>
      <trkpt lat="48.7728" lon="1.4025">
        <ele>141</ele>
        <time>2017-04-18T14:11:58Z</time>
      </trkpt>
      <trkpt lat="48.77289" lon="1.40243">
        <ele>140.899994</ele>
        <time>2017-04-18T14:12:00Z</time>
      </trkpt>
      <trkpt lat="48.77297" lon="1.40237">
        <ele>140.899994</ele>
        <time>2017-04-18T14:12:02Z</time>
      </trkpt>
      <trkpt lat="48.77303" lon="1.40226">
        <ele>140.899994</ele>
        <time>2017-04-18T14:12:06Z</time>
      </trkpt>
      <trkpt lat="48.77301" lon="1.4021">
        <ele>140.800003</ele>
        <time>2017-04-18T14:12:11Z</time>
      </trkpt>
      <trkpt lat="48.77291" lon="1.40205">
        <ele>140.800003</ele>
        <time>2017-04-18T14:12:15Z</time>
      </trkpt>
      <trkpt lat="48.77281" lon="1.40209">
        <ele>140.800003</ele>
        <time>2017-04-18T14:12:18Z</time>
      </trkpt>
      <trkpt lat="48.77278" lon="1.40195">
        <ele>140.699997</ele>
        <time>2017-04-18T14:12:23Z</time>
      </trkpt>
      <trkpt lat="48.77273" lon="1.40178">
        <ele>140.699997</ele>
        <time>2017-04-18T14:12:28Z</time>
      </trkpt>
      <trkpt lat="48.77268" lon="1.40167">
        <ele>140.699997</ele>
        <time>2017-04-18T14:12:30Z</time>
      </trkpt>
      <trkpt lat="48.77265" lon="1.40152">
        <ele>140.600006</ele>
        <time>2017-04-18T14:12:33Z</time>
      </trkpt>
      <trkpt lat="48.77261" lon="1.40138">
        <ele>140.5</ele>
        <time>2017-04-18T14:12:36Z</time>
      </trkpt>
      <trkpt lat="48.77259" lon="1.40123">
        <ele>140.5</ele>
        <time>2017-04-18T14:12:39Z</time>
      </trkpt>
      <trkpt lat="48.77256" lon="1.4011">
        <ele>140.5</ele>
        <time>2017-04-18T14:12:42Z</time>
      </trkpt>
      <trkpt lat="48.77261" lon="1.40091">
        <ele>140.5</ele>
        <time>2017-04-18T14:12:45Z</time>
      </trkpt>
      <trkpt lat="48.77264" lon="1.40076">
        <ele>140.5</ele>
        <time>2017-04-18T14:12:48Z</time>
      </trkpt>
      <trkpt lat="48.77267" lon="1.40062">
        <ele>140.600006</ele>
        <time>2017-04-18T14:12:50Z</time>
      </trkpt>
      <trkpt lat="48.7727" lon="1.40044">
        <ele>140.699997</ele>
        <time>2017-04-18T14:12:53Z</time>
      </trkpt>
      <trkpt lat="48.77275" lon="1.40028">
        <ele>140.899994</ele>
        <time>2017-04-18T14:12:56Z</time>
      </trkpt>
      <trkpt lat="48.77282" lon="1.40012">
        <ele>141</ele>
        <time>2017-04-18T14:12:59Z</time>
      </trkpt>
      <trkpt lat="48.77288" lon="1.40001">
        <ele>141.100006</ele>
        <time>2017-04-18T14:13:01Z</time>
      </trkpt>
      <trkpt lat="48.77292" lon="1.39989">
        <ele>141.199997</ele>
        <time>2017-04-18T14:13:03Z</time>
      </trkpt>
      <trkpt lat="48.77296" lon="1.39975">
        <ele>141.300003</ele>
        <time>2017-04-18T14:13:05Z</time>
      </trkpt>
      <trkpt lat="48.773" lon="1.39961">
        <ele>141.399994</ele>
        <time>2017-04-18T14:13:07Z</time>
      </trkpt>
      <trkpt lat="48.77303" lon="1.39946">
        <ele>141.5</ele>
        <time>2017-04-18T14:13:09Z</time>
      </trkpt>
      <trkpt lat="48.77305" lon="1.39933">
        <ele>141.600006</ele>
        <time>2017-04-18T14:13:11Z</time>
      </trkpt>
      <trkpt lat="48.7731" lon="1.39919">
        <ele>141.699997</ele>
        <time>2017-04-18T14:13:13Z</time>
      </trkpt>
      <trkpt lat="48.77312" lon="1.39902">
        <ele>141.899994</ele>
        <time>2017-04-18T14:13:16Z</time>
      </trkpt>
      <trkpt lat="48.77317" lon="1.39887">
        <ele>141.899994</ele>
        <time>2017-04-18T14:13:18Z</time>
      </trkpt>
      <trkpt lat="48.77319" lon="1.39871">
        <ele>142</ele>
        <time>2017-04-18T14:13:20Z</time>
      </trkpt>
      <trkpt lat="48.77321" lon="1.39856">
        <ele>142.100006</ele>
        <time>2017-04-18T14:13:22Z</time>
      </trkpt>
      <trkpt lat="48.77324" lon="1.39841">
        <ele>142.100006</ele>
        <time>2017-04-18T14:13:24Z</time>
      </trkpt>
      <trkpt lat="48.77328" lon="1.39819">
        <ele>142.199997</ele>
        <time>2017-04-18T14:13:27Z</time>
      </trkpt>
      <trkpt lat="48.7733" lon="1.39805">
        <ele>142.199997</ele>
        <time>2017-04-18T14:13:29Z</time>
      </trkpt>
      <trkpt lat="48.77332" lon="1.39789">
        <ele>142.199997</ele>
        <time>2017-04-18T14:13:31Z</time>
      </trkpt>
      <trkpt lat="48.77335" lon="1.39773">
        <ele>142.300003</ele>
        <time>2017-04-18T14:13:33Z</time>
      </trkpt>
      <trkpt lat="48.77338" lon="1.39756">
        <ele>142.300003</ele>
        <time>2017-04-18T14:13:35Z</time>
      </trkpt>
      <trkpt lat="48.77341" lon="1.3974">
        <ele>142.399994</ele>
        <time>2017-04-18T14:13:37Z</time>
      </trkpt>
      <trkpt lat="48.77341" lon="1.39726">
        <ele>142.5</ele>
        <time>2017-04-18T14:13:39Z</time>
      </trkpt>
      <trkpt lat="48.77345" lon="1.39692">
        <ele>142.5</ele>
        <time>2017-04-18T14:13:43Z</time>
      </trkpt>
      <trkpt lat="48.77348" lon="1.39677">
        <ele>142.5</ele>
        <time>2017-04-18T14:13:45Z</time>
      </trkpt>
      <trkpt lat="48.77349" lon="1.39661">
        <ele>142.5</ele>
        <time>2017-04-18T14:13:47Z</time>
      </trkpt>
      <trkpt lat="48.77355" lon="1.39646">
        <ele>142.5</ele>
        <time>2017-04-18T14:13:49Z</time>
      </trkpt>
      <trkpt lat="48.77358" lon="1.3963">
        <ele>142.5</ele>
        <time>2017-04-18T14:13:51Z</time>
      </trkpt>
      <trkpt lat="48.77363" lon="1.39616">
        <ele>142.5</ele>
        <time>2017-04-18T14:13:53Z</time>
      </trkpt>
      <trkpt lat="48.77367" lon="1.39599">
        <ele>142.600006</ele>
        <time>2017-04-18T14:13:55Z</time>
      </trkpt>
      <trkpt lat="48.77372" lon="1.39584">
        <ele>142.600006</ele>
        <time>2017-04-18T14:13:57Z</time>
      </trkpt>
      <trkpt lat="48.77372" lon="1.39567">
        <ele>142.699997</ele>
        <time>2017-04-18T14:13:59Z</time>
      </trkpt>
      <trkpt lat="48.77375" lon="1.39552">
        <ele>142.800003</ele>
        <time>2017-04-18T14:14:01Z</time>
      </trkpt>
      <trkpt lat="48.77379" lon="1.39535">
        <ele>142.800003</ele>
        <time>2017-04-18T14:14:03Z</time>
      </trkpt>
      <trkpt lat="48.77382" lon="1.3952">
        <ele>142.800003</ele>
        <time>2017-04-18T14:14:05Z</time>
      </trkpt>
      <trkpt lat="48.77389" lon="1.39507">
        <ele>142.800003</ele>
        <time>2017-04-18T14:14:07Z</time>
      </trkpt>
      <trkpt lat="48.77395" lon="1.39493">
        <ele>142.800003</ele>
        <time>2017-04-18T14:14:09Z</time>
      </trkpt>
      <trkpt lat="48.77399" lon="1.39478">
        <ele>142.699997</ele>
        <time>2017-04-18T14:14:11Z</time>
      </trkpt>
      <trkpt lat="48.77405" lon="1.39468">
        <ele>142.699997</ele>
        <time>2017-04-18T14:14:12Z</time>
      </trkpt>
      <trkpt lat="48.77411" lon="1.3945">
        <ele>142.5</ele>
        <time>2017-04-18T14:14:14Z</time>
      </trkpt>
      <trkpt lat="48.77416" lon="1.39434">
        <ele>142</ele>
        <time>2017-04-18T14:14:16Z</time>
      </trkpt>
      <trkpt lat="48.7742" lon="1.39418">
        <ele>141.600006</ele>
        <time>2017-04-18T14:14:18Z</time>
      </trkpt>
      <trkpt lat="48.77425" lon="1.39401">
        <ele>141.100006</ele>
        <time>2017-04-18T14:14:20Z</time>
      </trkpt>
      <trkpt lat="48.77429" lon="1.39382">
        <ele>140.5</ele>
        <time>2017-04-18T14:14:22Z</time>
      </trkpt>
      <trkpt lat="48.77437" lon="1.39364">
        <ele>140</ele>
        <time>2017-04-18T14:14:24Z</time>
      </trkpt>
      <trkpt lat="48.77439" lon="1.39344">
        <ele>139.699997</ele>
        <time>2017-04-18T14:14:26Z</time>
      </trkpt>
      <trkpt lat="48.77442" lon="1.39327">
        <ele>139.600006</ele>
        <time>2017-04-18T14:14:28Z</time>
      </trkpt>
      <trkpt lat="48.77445" lon="1.39315">
        <ele>139.5</ele>
        <time>2017-04-18T14:14:30Z</time>
      </trkpt>
      <trkpt lat="48.77447" lon="1.39301">
        <ele>139.399994</ele>
        <time>2017-04-18T14:14:32Z</time>
      </trkpt>
      <trkpt lat="48.77447" lon="1.39287">
        <ele>139.399994</ele>
        <time>2017-04-18T14:14:34Z</time>
      </trkpt>
      <trkpt lat="48.77447" lon="1.39267">
        <ele>139.399994</ele>
        <time>2017-04-18T14:14:36Z</time>
      </trkpt>
      <trkpt lat="48.77448" lon="1.39248">
        <ele>139.399994</ele>
        <time>2017-04-18T14:14:38Z</time>
      </trkpt>
      <trkpt lat="48.77451" lon="1.39232">
        <ele>139.399994</ele>
        <time>2017-04-18T14:14:40Z</time>
      </trkpt>
      <trkpt lat="48.77453" lon="1.39212">
        <ele>139.399994</ele>
        <time>2017-04-18T14:14:42Z</time>
      </trkpt>
      <trkpt lat="48.77457" lon="1.39195">
        <ele>139.399994</ele>
        <time>2017-04-18T14:14:44Z</time>
      </trkpt>
      <trkpt lat="48.77458" lon="1.39178">
        <ele>139.399994</ele>
        <time>2017-04-18T14:14:46Z</time>
      </trkpt>
      <trkpt lat="48.77455" lon="1.39161">
        <ele>139.399994</ele>
        <time>2017-04-18T14:14:48Z</time>
      </trkpt>
      <trkpt lat="48.77454" lon="1.39146">
        <ele>139.399994</ele>
        <time>2017-04-18T14:14:50Z</time>
      </trkpt>
      <trkpt lat="48.77456" lon="1.3913">
        <ele>139.399994</ele>
        <time>2017-04-18T14:14:52Z</time>
      </trkpt>
      <trkpt lat="48.77457" lon="1.39112">
        <ele>139.5</ele>
        <time>2017-04-18T14:14:54Z</time>
      </trkpt>
      <trkpt lat="48.77462" lon="1.39095">
        <ele>139.5</ele>
        <time>2017-04-18T14:14:56Z</time>
      </trkpt>
      <trkpt lat="48.77465" lon="1.3908">
        <ele>139.600006</ele>
        <time>2017-04-18T14:14:58Z</time>
      </trkpt>
      <trkpt lat="48.77464" lon="1.39063">
        <ele>139.699997</ele>
        <time>2017-04-18T14:15:00Z</time>
      </trkpt>
      <trkpt lat="48.77467" lon="1.39047">
        <ele>139.699997</ele>
        <time>2017-04-18T14:15:02Z</time>
      </trkpt>
      <trkpt lat="48.77469" lon="1.3903">
        <ele>139.800003</ele>
        <time>2017-04-18T14:15:04Z</time>
      </trkpt>
      <trkpt lat="48.7747" lon="1.39013">
        <ele>139.899994</ele>
        <time>2017-04-18T14:15:06Z</time>
      </trkpt>
      <trkpt lat="48.77471" lon="1.38997">
        <ele>139.899994</ele>
        <time>2017-04-18T14:15:08Z</time>
      </trkpt>
      <trkpt lat="48.77473" lon="1.38982">
        <ele>140</ele>
        <time>2017-04-18T14:15:10Z</time>
      </trkpt>
      <trkpt lat="48.77475" lon="1.38965">
        <ele>140.100006</ele>
        <time>2017-04-18T14:15:12Z</time>
      </trkpt>
      <trkpt lat="48.77478" lon="1.3895">
        <ele>140.199997</ele>
        <time>2017-04-18T14:15:14Z</time>
      </trkpt>
      <trkpt lat="48.77481" lon="1.38935">
        <ele>140.300003</ele>
        <time>2017-04-18T14:15:16Z</time>
      </trkpt>
      <trkpt lat="48.77485" lon="1.3892">
        <ele>140.399994</ele>
        <time>2017-04-18T14:15:18Z</time>
      </trkpt>
      <trkpt lat="48.77487" lon="1.38905">
        <ele>140.5</ele>
        <time>2017-04-18T14:15:20Z</time>
      </trkpt>
      <trkpt lat="48.7749" lon="1.38889">
        <ele>140.699997</ele>
        <time>2017-04-18T14:15:22Z</time>
      </trkpt>
      <trkpt lat="48.77493" lon="1.38873">
        <ele>140.800003</ele>
        <time>2017-04-18T14:15:24Z</time>
      </trkpt>
      <trkpt lat="48.77497" lon="1.38859">
        <ele>140.899994</ele>
        <time>2017-04-18T14:15:26Z</time>
      </trkpt>
      <trkpt lat="48.77502" lon="1.38845">
        <ele>141</ele>
        <time>2017-04-18T14:15:28Z</time>
      </trkpt>
      <trkpt lat="48.77505" lon="1.3883">
        <ele>141.100006</ele>
        <time>2017-04-18T14:15:30Z</time>
      </trkpt>
      <trkpt lat="48.77512" lon="1.38819">
        <ele>141.199997</ele>
        <time>2017-04-18T14:15:32Z</time>
      </trkpt>
      <trkpt lat="48.77518" lon="1.38808">
        <ele>141.300003</ele>
        <time>2017-04-18T14:15:34Z</time>
      </trkpt>
      <trkpt lat="48.77521" lon="1.38791">
        <ele>141.5</ele>
        <time>2017-04-18T14:15:37Z</time>
      </trkpt>
      <trkpt lat="48.77525" lon="1.38774">
        <ele>141.699997</ele>
        <time>2017-04-18T14:15:40Z</time>
      </trkpt>
      <trkpt lat="48.77532" lon="1.38757">
        <ele>141.800003</ele>
        <time>2017-04-18T14:15:43Z</time>
      </trkpt>
      <trkpt lat="48.77538" lon="1.38744">
        <ele>141.899994</ele>
        <time>2017-04-18T14:15:45Z</time>
      </trkpt>
      <trkpt lat="48.77543" lon="1.38731">
        <ele>141.899994</ele>
        <time>2017-04-18T14:15:47Z</time>
      </trkpt>
      <trkpt lat="48.7755" lon="1.38714">
        <ele>142</ele>
        <time>2017-04-18T14:15:50Z</time>
      </trkpt>
      <trkpt lat="48.77555" lon="1.38701">
        <ele>142</ele>
        <time>2017-04-18T14:15:52Z</time>
      </trkpt>
      <trkpt lat="48.77559" lon="1.38688">
        <ele>142</ele>
        <time>2017-04-18T14:15:54Z</time>
      </trkpt>
      <trkpt lat="48.77563" lon="1.38675">
        <ele>141.899994</ele>
        <time>2017-04-18T14:15:56Z</time>
      </trkpt>
      <trkpt lat="48.77569" lon="1.38659">
        <ele>141.899994</ele>
        <time>2017-04-18T14:15:58Z</time>
      </trkpt>
      <trkpt lat="48.77574" lon="1.38643">
        <ele>141.899994</ele>
        <time>2017-04-18T14:16:00Z</time>
      </trkpt>
      <trkpt lat="48.77579" lon="1.38626">
        <ele>141.800003</ele>
        <time>2017-04-18T14:16:02Z</time>
      </trkpt>
      <trkpt lat="48.77584" lon="1.38611">
        <ele>141.399994</ele>
        <time>2017-04-18T14:16:04Z</time>
      </trkpt>
      <trkpt lat="48.77588" lon="1.38599">
        <ele>141</ele>
        <time>2017-04-18T14:16:06Z</time>
      </trkpt>
      <trkpt lat="48.77594" lon="1.38581">
        <ele>140.699997</ele>
        <time>2017-04-18T14:16:08Z</time>
      </trkpt>
      <trkpt lat="48.77601" lon="1.38564">
        <ele>140.5</ele>
        <time>2017-04-18T14:16:10Z</time>
      </trkpt>
      <trkpt lat="48.77607" lon="1.38548">
        <ele>140.300003</ele>
        <time>2017-04-18T14:16:12Z</time>
      </trkpt>
      <trkpt lat="48.77613" lon="1.38535">
        <ele>140.199997</ele>
        <time>2017-04-18T14:16:14Z</time>
      </trkpt>
      <trkpt lat="48.7762" lon="1.38524">
        <ele>140.100006</ele>
        <time>2017-04-18T14:16:16Z</time>
      </trkpt>
      <trkpt lat="48.77628" lon="1.38511">
        <ele>140.100006</ele>
        <time>2017-04-18T14:16:18Z</time>
      </trkpt>
      <trkpt lat="48.77635" lon="1.38498">
        <ele>140.100006</ele>
        <time>2017-04-18T14:16:20Z</time>
      </trkpt>
      <trkpt lat="48.77643" lon="1.38483">
        <ele>140.100006</ele>
        <time>2017-04-18T14:16:22Z</time>
      </trkpt>
      <trkpt lat="48.77649" lon="1.3847">
        <ele>140.199997</ele>
        <time>2017-04-18T14:16:24Z</time>
      </trkpt>
      <trkpt lat="48.77652" lon="1.38454">
        <ele>140.300003</ele>
        <time>2017-04-18T14:16:26Z</time>
      </trkpt>
      <trkpt lat="48.7766" lon="1.3844">
        <ele>140.300003</ele>
        <time>2017-04-18T14:16:28Z</time>
      </trkpt>
      <trkpt lat="48.77667" lon="1.38426">
        <ele>140.399994</ele>
        <time>2017-04-18T14:16:30Z</time>
      </trkpt>
      <trkpt lat="48.77674" lon="1.38412">
        <ele>140.5</ele>
        <time>2017-04-18T14:16:32Z</time>
      </trkpt>
      <trkpt lat="48.77679" lon="1.38401">
        <ele>140.5</ele>
        <time>2017-04-18T14:16:34Z</time>
      </trkpt>
      <trkpt lat="48.77688" lon="1.38388">
        <ele>140.600006</ele>
        <time>2017-04-18T14:16:36Z</time>
      </trkpt>
      <trkpt lat="48.77696" lon="1.38375">
        <ele>140.600006</ele>
        <time>2017-04-18T14:16:38Z</time>
      </trkpt>
      <trkpt lat="48.77703" lon="1.38361">
        <ele>140.699997</ele>
        <time>2017-04-18T14:16:40Z</time>
      </trkpt>
      <trkpt lat="48.77711" lon="1.38347">
        <ele>140.800003</ele>
        <time>2017-04-18T14:16:42Z</time>
      </trkpt>
      <trkpt lat="48.77719" lon="1.38334">
        <ele>140.800003</ele>
        <time>2017-04-18T14:16:44Z</time>
      </trkpt>
      <trkpt lat="48.77727" lon="1.3832">
        <ele>140.899994</ele>
        <time>2017-04-18T14:16:46Z</time>
      </trkpt>
      <trkpt lat="48.77734" lon="1.38308">
        <ele>140.899994</ele>
        <time>2017-04-18T14:16:48Z</time>
      </trkpt>
      <trkpt lat="48.77744" lon="1.38296">
        <ele>140.899994</ele>
        <time>2017-04-18T14:16:50Z</time>
      </trkpt>
      <trkpt lat="48.77754" lon="1.38286">
        <ele>140.899994</ele>
        <time>2017-04-18T14:16:52Z</time>
      </trkpt>
      <trkpt lat="48.77764" lon="1.38274">
        <ele>140.899994</ele>
        <time>2017-04-18T14:16:54Z</time>
      </trkpt>
      <trkpt lat="48.77773" lon="1.38262">
        <ele>140.800003</ele>
        <time>2017-04-18T14:16:56Z</time>
      </trkpt>
      <trkpt lat="48.77783" lon="1.3825">
        <ele>140.800003</ele>
        <time>2017-04-18T14:16:58Z</time>
      </trkpt>
      <trkpt lat="48.77791" lon="1.38241">
        <ele>140.699997</ele>
        <time>2017-04-18T14:17:00Z</time>
      </trkpt>
      <trkpt lat="48.77801" lon="1.38228">
        <ele>140.600006</ele>
        <time>2017-04-18T14:17:02Z</time>
      </trkpt>
      <trkpt lat="48.77812" lon="1.38216">
        <ele>140.600006</ele>
        <time>2017-04-18T14:17:04Z</time>
      </trkpt>
      <trkpt lat="48.77824" lon="1.38204">
        <ele>140.5</ele>
        <time>2017-04-18T14:17:06Z</time>
      </trkpt>
      <trkpt lat="48.77834" lon="1.38192">
        <ele>140.399994</ele>
        <time>2017-04-18T14:17:08Z</time>
      </trkpt>
      <trkpt lat="48.77846" lon="1.3818">
        <ele>140.300003</ele>
        <time>2017-04-18T14:17:10Z</time>
      </trkpt>
      <trkpt lat="48.77855" lon="1.38166">
        <ele>140.199997</ele>
        <time>2017-04-18T14:17:12Z</time>
      </trkpt>
      <trkpt lat="48.77864" lon="1.38152">
        <ele>140</ele>
        <time>2017-04-18T14:17:14Z</time>
      </trkpt>
      <trkpt lat="48.77875" lon="1.38138">
        <ele>139.899994</ele>
        <time>2017-04-18T14:17:16Z</time>
      </trkpt>
      <trkpt lat="48.77886" lon="1.38124">
        <ele>139.800003</ele>
        <time>2017-04-18T14:17:18Z</time>
      </trkpt>
      <trkpt lat="48.77896" lon="1.3811">
        <ele>139.600006</ele>
        <time>2017-04-18T14:17:20Z</time>
      </trkpt>
      <trkpt lat="48.77906" lon="1.38098">
        <ele>139.399994</ele>
        <time>2017-04-18T14:17:22Z</time>
      </trkpt>
      <trkpt lat="48.77913" lon="1.38088">
        <ele>139.100006</ele>
        <time>2017-04-18T14:17:24Z</time>
      </trkpt>
      <trkpt lat="48.7792" lon="1.38075">
        <ele>138.800003</ele>
        <time>2017-04-18T14:17:26Z</time>
      </trkpt>
      <trkpt lat="48.77931" lon="1.38063">
        <ele>138.600006</ele>
        <time>2017-04-18T14:17:28Z</time>
      </trkpt>
      <trkpt lat="48.77937" lon="1.38053">
        <ele>138.399994</ele>
        <time>2017-04-18T14:17:29Z</time>
      </trkpt>
      <trkpt lat="48.77947" lon="1.38036">
        <ele>137.699997</ele>
        <time>2017-04-18T14:17:31Z</time>
      </trkpt>
      <trkpt lat="48.77961" lon="1.38027">
        <ele>136.899994</ele>
        <time>2017-04-18T14:17:33Z</time>
      </trkpt>
      <trkpt lat="48.77973" lon="1.38019">
        <ele>136.100006</ele>
        <time>2017-04-18T14:17:35Z</time>
      </trkpt>
      <trkpt lat="48.7799" lon="1.38012">
        <ele>135.100006</ele>
        <time>2017-04-18T14:17:37Z</time>
      </trkpt>
      <trkpt lat="48.78004" lon="1.38007">
        <ele>134</ele>
        <time>2017-04-18T14:17:39Z</time>
      </trkpt>
      <trkpt lat="48.7802" lon="1.38007">
        <ele>132.899994</ele>
        <time>2017-04-18T14:17:41Z</time>
      </trkpt>
      <trkpt lat="48.78034" lon="1.38009">
        <ele>132.100006</ele>
        <time>2017-04-18T14:17:43Z</time>
      </trkpt>
      <trkpt lat="48.78044" lon="1.38008">
        <ele>131.5</ele>
        <time>2017-04-18T14:17:45Z</time>
      </trkpt>
      <trkpt lat="48.78057" lon="1.38006">
        <ele>131</ele>
        <time>2017-04-18T14:17:48Z</time>
      </trkpt>
      <trkpt lat="48.78068" lon="1.38005">
        <ele>130.699997</ele>
        <time>2017-04-18T14:17:51Z</time>
      </trkpt>
      <trkpt lat="48.78079" lon="1.38005">
        <ele>130.699997</ele>
        <time>2017-04-18T14:17:55Z</time>
      </trkpt>
      <trkpt lat="48.7809" lon="1.38008">
        <ele>130.899994</ele>
        <time>2017-04-18T14:17:59Z</time>
      </trkpt>
      <trkpt lat="48.781" lon="1.3801">
        <ele>131.199997</ele>
        <time>2017-04-18T14:18:02Z</time>
      </trkpt>
      <trkpt lat="48.7811" lon="1.38011">
        <ele>131.5</ele>
        <time>2017-04-18T14:18:05Z</time>
      </trkpt>
      <trkpt lat="48.78121" lon="1.38014">
        <ele>131.899994</ele>
        <time>2017-04-18T14:18:08Z</time>
      </trkpt>
      <trkpt lat="48.78132" lon="1.38018">
        <ele>132.399994</ele>
        <time>2017-04-18T14:18:12Z</time>
      </trkpt>
      <trkpt lat="48.78143" lon="1.38018">
        <ele>133.199997</ele>
        <time>2017-04-18T14:18:16Z</time>
      </trkpt>
      <trkpt lat="48.78153" lon="1.38017">
        <ele>133.699997</ele>
        <time>2017-04-18T14:18:19Z</time>
      </trkpt>
      <trkpt lat="48.78162" lon="1.38016">
        <ele>134.199997</ele>
        <time>2017-04-18T14:18:22Z</time>
      </trkpt>
      <trkpt lat="48.78171" lon="1.38016">
        <ele>134.800003</ele>
        <time>2017-04-18T14:18:25Z</time>
      </trkpt>
      <trkpt lat="48.78182" lon="1.38016">
        <ele>135.5</ele>
        <time>2017-04-18T14:18:29Z</time>
      </trkpt>
      <trkpt lat="48.78195" lon="1.38013">
        <ele>136.199997</ele>
        <time>2017-04-18T14:18:33Z</time>
      </trkpt>
      <trkpt lat="48.78207" lon="1.38011">
        <ele>136.699997</ele>
        <time>2017-04-18T14:18:36Z</time>
      </trkpt>
      <trkpt lat="48.78218" lon="1.38011">
        <ele>137.100006</ele>
        <time>2017-04-18T14:18:39Z</time>
      </trkpt>
      <trkpt lat="48.7823" lon="1.38011">
        <ele>137.399994</ele>
        <time>2017-04-18T14:18:42Z</time>
      </trkpt>
      <trkpt lat="48.78242" lon="1.38013">
        <ele>137.600006</ele>
        <time>2017-04-18T14:18:45Z</time>
      </trkpt>
      <trkpt lat="48.78251" lon="1.38015">
        <ele>137.800003</ele>
        <time>2017-04-18T14:18:47Z</time>
      </trkpt>
      <trkpt lat="48.78264" lon="1.38017">
        <ele>137.800003</ele>
        <time>2017-04-18T14:18:49Z</time>
      </trkpt>
      <trkpt lat="48.78276" lon="1.38018">
        <ele>137.600006</ele>
        <time>2017-04-18T14:18:51Z</time>
      </trkpt>
      <trkpt lat="48.78289" lon="1.38017">
        <ele>137.399994</ele>
        <time>2017-04-18T14:18:53Z</time>
      </trkpt>
      <trkpt lat="48.78304" lon="1.38014">
        <ele>137.199997</ele>
        <time>2017-04-18T14:18:55Z</time>
      </trkpt>
      <trkpt lat="48.78316" lon="1.38013">
        <ele>137.100006</ele>
        <time>2017-04-18T14:18:57Z</time>
      </trkpt>
      <trkpt lat="48.78325" lon="1.38013">
        <ele>136.899994</ele>
        <time>2017-04-18T14:18:59Z</time>
      </trkpt>
      <trkpt lat="48.78338" lon="1.38012">
        <ele>136.800003</ele>
        <time>2017-04-18T14:19:01Z</time>
      </trkpt>
      <trkpt lat="48.78348" lon="1.38012">
        <ele>136.800003</ele>
        <time>2017-04-18T14:19:03Z</time>
      </trkpt>
      <trkpt lat="48.78358" lon="1.38012">
        <ele>136.899994</ele>
        <time>2017-04-18T14:19:05Z</time>
      </trkpt>
      <trkpt lat="48.78371" lon="1.38013">
        <ele>136.899994</ele>
        <time>2017-04-18T14:19:08Z</time>
      </trkpt>
      <trkpt lat="48.78381" lon="1.38014">
        <ele>136.800003</ele>
        <time>2017-04-18T14:19:10Z</time>
      </trkpt>
      <trkpt lat="48.78393" lon="1.38016">
        <ele>136.5</ele>
        <time>2017-04-18T14:19:12Z</time>
      </trkpt>
      <trkpt lat="48.78402" lon="1.38013">
        <ele>135.899994</ele>
        <time>2017-04-18T14:19:16Z</time>
      </trkpt>
      <trkpt lat="48.78411" lon="1.38011">
        <ele>135.100006</ele>
        <time>2017-04-18T14:19:23Z</time>
      </trkpt>
      <trkpt lat="48.78423" lon="1.38008">
        <ele>134.699997</ele>
        <time>2017-04-18T14:19:31Z</time>
      </trkpt>
      <trkpt lat="48.78433" lon="1.38008">
        <ele>134.5</ele>
        <time>2017-04-18T14:19:34Z</time>
      </trkpt>
      <trkpt lat="48.78442" lon="1.38006">
        <ele>134.600006</ele>
        <time>2017-04-18T14:19:39Z</time>
      </trkpt>
      <trkpt lat="48.78453" lon="1.38005">
        <ele>135</ele>
        <time>2017-04-18T14:19:45Z</time>
      </trkpt>
      <trkpt lat="48.78462" lon="1.38004">
        <ele>135.800003</ele>
        <time>2017-04-18T14:19:52Z</time>
      </trkpt>
      <trkpt lat="48.78472" lon="1.38002">
        <ele>137.5</ele>
        <time>2017-04-18T14:20:12Z</time>
      </trkpt>
      <trkpt lat="48.78481" lon="1.38002">
        <ele>138.300003</ele>
        <time>2017-04-18T14:20:23Z</time>
      </trkpt>
      <trkpt lat="48.78491" lon="1.38001">
        <ele>138.899994</ele>
        <time>2017-04-18T14:20:31Z</time>
      </trkpt>
      <trkpt lat="48.785" lon="1.38001">
        <ele>139.5</ele>
        <time>2017-04-18T14:20:40Z</time>
      </trkpt>
      <trkpt lat="48.7851" lon="1.38004">
        <ele>139.899994</ele>
        <time>2017-04-18T14:20:46Z</time>
      </trkpt>
      <trkpt lat="48.78521" lon="1.38004">
        <ele>140.199997</ele>
        <time>2017-04-18T14:20:51Z</time>
      </trkpt>
      <trkpt lat="48.78532" lon="1.38005">
        <ele>140.600006</ele>
        <time>2017-04-18T14:20:57Z</time>
      </trkpt>
      <trkpt lat="48.78546" lon="1.38005">
        <ele>140.699997</ele>
        <time>2017-04-18T14:21:00Z</time>
      </trkpt>
      <trkpt lat="48.78556" lon="1.38005">
        <ele>140.899994</ele>
        <time>2017-04-18T14:21:03Z</time>
      </trkpt>
      <trkpt lat="48.78568" lon="1.38006">
        <ele>141</ele>
        <time>2017-04-18T14:21:06Z</time>
      </trkpt>
      <trkpt lat="48.78583" lon="1.38008">
        <ele>141</ele>
        <time>2017-04-18T14:21:09Z</time>
      </trkpt>
      <trkpt lat="48.78593" lon="1.38012">
        <ele>141.100006</ele>
        <time>2017-04-18T14:21:11Z</time>
      </trkpt>
      <trkpt lat="48.78602" lon="1.38015">
        <ele>141.100006</ele>
        <time>2017-04-18T14:21:13Z</time>
      </trkpt>
      <trkpt lat="48.78613" lon="1.38019">
        <ele>141.100006</ele>
        <time>2017-04-18T14:21:16Z</time>
      </trkpt>
      <trkpt lat="48.78623" lon="1.38021">
        <ele>141.100006</ele>
        <time>2017-04-18T14:21:18Z</time>
      </trkpt>
      <trkpt lat="48.78633" lon="1.38024">
        <ele>141</ele>
        <time>2017-04-18T14:21:20Z</time>
      </trkpt>
      <trkpt lat="48.78643" lon="1.38027">
        <ele>140.899994</ele>
        <time>2017-04-18T14:21:22Z</time>
      </trkpt>
      <trkpt lat="48.78654" lon="1.38032">
        <ele>140.5</ele>
        <time>2017-04-18T14:21:24Z</time>
      </trkpt>
      <trkpt lat="48.78667" lon="1.38037">
        <ele>140</ele>
        <time>2017-04-18T14:21:26Z</time>
      </trkpt>
      <trkpt lat="48.78682" lon="1.38038">
        <ele>139.5</ele>
        <time>2017-04-18T14:21:28Z</time>
      </trkpt>
      <trkpt lat="48.78697" lon="1.38041">
        <ele>139.300003</ele>
        <time>2017-04-18T14:21:30Z</time>
      </trkpt>
      <trkpt lat="48.78706" lon="1.38041">
        <ele>139.199997</ele>
        <time>2017-04-18T14:21:31Z</time>
      </trkpt>
      <trkpt lat="48.78718" lon="1.38042">
        <ele>139.199997</ele>
        <time>2017-04-18T14:21:33Z</time>
      </trkpt>
      <trkpt lat="48.7873" lon="1.38043">
        <ele>139.100006</ele>
        <time>2017-04-18T14:21:35Z</time>
      </trkpt>
      <trkpt lat="48.78743" lon="1.38043">
        <ele>139.100006</ele>
        <time>2017-04-18T14:21:37Z</time>
      </trkpt>
      <trkpt lat="48.78758" lon="1.38043">
        <ele>139.100006</ele>
        <time>2017-04-18T14:21:39Z</time>
      </trkpt>
      <trkpt lat="48.78769" lon="1.38045">
        <ele>139.100006</ele>
        <time>2017-04-18T14:21:41Z</time>
      </trkpt>
      <trkpt lat="48.78785" lon="1.38046">
        <ele>139.100006</ele>
        <time>2017-04-18T14:21:43Z</time>
      </trkpt>
      <trkpt lat="48.78797" lon="1.38047">
        <ele>139</ele>
        <time>2017-04-18T14:21:45Z</time>
      </trkpt>
      <trkpt lat="48.7881" lon="1.38048">
        <ele>139.100006</ele>
        <time>2017-04-18T14:21:47Z</time>
      </trkpt>
      <trkpt lat="48.78821" lon="1.38047">
        <ele>139.100006</ele>
        <time>2017-04-18T14:21:48Z</time>
      </trkpt>
      <trkpt lat="48.78832" lon="1.38047">
        <ele>139.199997</ele>
        <time>2017-04-18T14:21:50Z</time>
      </trkpt>
      <trkpt lat="48.78841" lon="1.38048">
        <ele>139.300003</ele>
        <time>2017-04-18T14:21:52Z</time>
      </trkpt>
      <trkpt lat="48.78853" lon="1.38047">
        <ele>139.399994</ele>
        <time>2017-04-18T14:21:54Z</time>
      </trkpt>
      <trkpt lat="48.78864" lon="1.38045">
        <ele>139.5</ele>
        <time>2017-04-18T14:21:56Z</time>
      </trkpt>
      <trkpt lat="48.78874" lon="1.38043">
        <ele>139.600006</ele>
        <time>2017-04-18T14:21:58Z</time>
      </trkpt>
      <trkpt lat="48.78888" lon="1.38038">
        <ele>139.800003</ele>
        <time>2017-04-18T14:22:01Z</time>
      </trkpt>
      <trkpt lat="48.789" lon="1.38033">
        <ele>139.899994</ele>
        <time>2017-04-18T14:22:04Z</time>
      </trkpt>
      <trkpt lat="48.78909" lon="1.38031">
        <ele>139.899994</ele>
        <time>2017-04-18T14:22:07Z</time>
      </trkpt>
      <trkpt lat="48.78922" lon="1.38026">
        <ele>139.699997</ele>
        <time>2017-04-18T14:22:10Z</time>
      </trkpt>
      <trkpt lat="48.78936" lon="1.38024">
        <ele>139.600006</ele>
        <time>2017-04-18T14:22:12Z</time>
      </trkpt>
      <trkpt lat="48.78945" lon="1.38024">
        <ele>139.399994</ele>
        <time>2017-04-18T14:22:14Z</time>
      </trkpt>
      <trkpt lat="48.78955" lon="1.38023">
        <ele>139.300003</ele>
        <time>2017-04-18T14:22:16Z</time>
      </trkpt>
      <trkpt lat="48.78967" lon="1.38025">
        <ele>139.100006</ele>
        <time>2017-04-18T14:22:18Z</time>
      </trkpt>
      <trkpt lat="48.78978" lon="1.38028">
        <ele>139</ele>
        <time>2017-04-18T14:22:20Z</time>
      </trkpt>
      <trkpt lat="48.78989" lon="1.3803">
        <ele>138.800003</ele>
        <time>2017-04-18T14:22:22Z</time>
      </trkpt>
      <trkpt lat="48.79001" lon="1.38034">
        <ele>138.600006</ele>
        <time>2017-04-18T14:22:24Z</time>
      </trkpt>
      <trkpt lat="48.79011" lon="1.38043">
        <ele>138.399994</ele>
        <time>2017-04-18T14:22:26Z</time>
      </trkpt>
      <trkpt lat="48.79014" lon="1.38058">
        <ele>138.199997</ele>
        <time>2017-04-18T14:22:29Z</time>
      </trkpt>
      <trkpt lat="48.79016" lon="1.38073">
        <ele>138.199997</ele>
        <time>2017-04-18T14:22:32Z</time>
      </trkpt>
      <trkpt lat="48.79018" lon="1.38088">
        <ele>138.100006</ele>
        <time>2017-04-18T14:22:35Z</time>
      </trkpt>
      <trkpt lat="48.7902" lon="1.38106">
        <ele>138.199997</ele>
        <time>2017-04-18T14:22:38Z</time>
      </trkpt>
      <trkpt lat="48.79021" lon="1.38124">
        <ele>138.399994</ele>
        <time>2017-04-18T14:22:41Z</time>
      </trkpt>
      <trkpt lat="48.79022" lon="1.38138">
        <ele>138.600006</ele>
        <time>2017-04-18T14:22:44Z</time>
      </trkpt>
      <trkpt lat="48.79021" lon="1.38152">
        <ele>138.699997</ele>
        <time>2017-04-18T14:22:46Z</time>
      </trkpt>
      <trkpt lat="48.7902" lon="1.38172">
        <ele>138.899994</ele>
        <time>2017-04-18T14:22:49Z</time>
      </trkpt>
      <trkpt lat="48.7902" lon="1.38187">
        <ele>139</ele>
        <time>2017-04-18T14:22:51Z</time>
      </trkpt>
      <trkpt lat="48.79019" lon="1.38201">
        <ele>139.100006</ele>
        <time>2017-04-18T14:22:53Z</time>
      </trkpt>
      <trkpt lat="48.79018" lon="1.38216">
        <ele>139.199997</ele>
        <time>2017-04-18T14:22:55Z</time>
      </trkpt>
      <trkpt lat="48.79017" lon="1.38231">
        <ele>139.300003</ele>
        <time>2017-04-18T14:22:57Z</time>
      </trkpt>
      <trkpt lat="48.79017" lon="1.38247">
        <ele>139.399994</ele>
        <time>2017-04-18T14:22:59Z</time>
      </trkpt>
      <trkpt lat="48.79016" lon="1.38264">
        <ele>139.399994</ele>
        <time>2017-04-18T14:23:01Z</time>
      </trkpt>
      <trkpt lat="48.79014" lon="1.3828">
        <ele>139.5</ele>
        <time>2017-04-18T14:23:03Z</time>
      </trkpt>
      <trkpt lat="48.79012" lon="1.38297">
        <ele>139.5</ele>
        <time>2017-04-18T14:23:05Z</time>
      </trkpt>
      <trkpt lat="48.7901" lon="1.38315">
        <ele>139.600006</ele>
        <time>2017-04-18T14:23:07Z</time>
      </trkpt>
      <trkpt lat="48.79009" lon="1.38333">
        <ele>139.600006</ele>
        <time>2017-04-18T14:23:09Z</time>
      </trkpt>
      <trkpt lat="48.79007" lon="1.3835">
        <ele>139.600006</ele>
        <time>2017-04-18T14:23:11Z</time>
      </trkpt>
      <trkpt lat="48.79005" lon="1.38367">
        <ele>139.600006</ele>
        <time>2017-04-18T14:23:13Z</time>
      </trkpt>
      <trkpt lat="48.79002" lon="1.38385">
        <ele>139.5</ele>
        <time>2017-04-18T14:23:15Z</time>
      </trkpt>
      <trkpt lat="48.78998" lon="1.38401">
        <ele>139.399994</ele>
        <time>2017-04-18T14:23:17Z</time>
      </trkpt>
      <trkpt lat="48.78996" lon="1.38415">
        <ele>139.399994</ele>
        <time>2017-04-18T14:23:19Z</time>
      </trkpt>
      <trkpt lat="48.78994" lon="1.3843">
        <ele>139.100006</ele>
        <time>2017-04-18T14:23:21Z</time>
      </trkpt>
      <trkpt lat="48.78991" lon="1.38447">
        <ele>138.800003</ele>
        <time>2017-04-18T14:23:23Z</time>
      </trkpt>
      <trkpt lat="48.78987" lon="1.38462">
        <ele>138.199997</ele>
        <time>2017-04-18T14:23:25Z</time>
      </trkpt>
      <trkpt lat="48.78981" lon="1.38475">
        <ele>137.300003</ele>
        <time>2017-04-18T14:23:27Z</time>
      </trkpt>
      <trkpt lat="48.78982" lon="1.3849">
        <ele>135.199997</ele>
        <time>2017-04-18T14:23:31Z</time>
      </trkpt>
      <trkpt lat="48.78991" lon="1.38504">
        <ele>133.399994</ele>
        <time>2017-04-18T14:23:34Z</time>
      </trkpt>
      <trkpt lat="48.78997" lon="1.38515">
        <ele>132.100006</ele>
        <time>2017-04-18T14:23:36Z</time>
      </trkpt>
      <trkpt lat="48.79004" lon="1.38528">
        <ele>130.5</ele>
        <time>2017-04-18T14:23:38Z</time>
      </trkpt>
      <trkpt lat="48.79011" lon="1.38542">
        <ele>128.600006</ele>
        <time>2017-04-18T14:23:40Z</time>
      </trkpt>
      <trkpt lat="48.79018" lon="1.38556">
        <ele>126.800003</ele>
        <time>2017-04-18T14:23:42Z</time>
      </trkpt>
      <trkpt lat="48.79024" lon="1.38567">
        <ele>124.300003</ele>
        <time>2017-04-18T14:23:45Z</time>
      </trkpt>
      <trkpt lat="48.79032" lon="1.38575">
        <ele>121.400002</ele>
        <time>2017-04-18T14:23:49Z</time>
      </trkpt>
      <trkpt lat="48.79038" lon="1.38585">
        <ele>119.699997</ele>
        <time>2017-04-18T14:23:52Z</time>
      </trkpt>
      <trkpt lat="48.79045" lon="1.38598">
        <ele>117.900002</ele>
        <time>2017-04-18T14:23:55Z</time>
      </trkpt>
      <trkpt lat="48.79053" lon="1.38608">
        <ele>116.900002</ele>
        <time>2017-04-18T14:23:57Z</time>
      </trkpt>
      <trkpt lat="48.79059" lon="1.38621">
        <ele>114.800003</ele>
        <time>2017-04-18T14:24:02Z</time>
      </trkpt>
      <trkpt lat="48.79066" lon="1.38632">
        <ele>113.5</ele>
        <time>2017-04-18T14:24:06Z</time>
      </trkpt>
      <trkpt lat="48.79071" lon="1.38644">
        <ele>112</ele>
        <time>2017-04-18T14:24:14Z</time>
      </trkpt>
      <trkpt lat="48.79078" lon="1.38654">
        <ele>112</ele>
        <time>2017-04-18T14:24:24Z</time>
      </trkpt>
      <trkpt lat="48.79085" lon="1.38664">
        <ele>113.800003</ele>
        <time>2017-04-18T14:24:53Z</time>
      </trkpt>
      <trkpt lat="48.79093" lon="1.38672">
        <ele>116.199997</ele>
        <time>2017-04-18T14:25:08Z</time>
      </trkpt>
      <trkpt lat="48.791" lon="1.3868">
        <ele>119.400002</ele>
        <time>2017-04-18T14:25:25Z</time>
      </trkpt>
      <trkpt lat="48.79108" lon="1.38688">
        <ele>122.400002</ele>
        <time>2017-04-18T14:25:41Z</time>
      </trkpt>
      <trkpt lat="48.79117" lon="1.38688">
        <ele>125.099998</ele>
        <time>2017-04-18T14:26:03Z</time>
      </trkpt>
      <trkpt lat="48.79127" lon="1.38683">
        <ele>125.5</ele>
        <time>2017-04-18T14:26:10Z</time>
      </trkpt>
      <trkpt lat="48.79137" lon="1.38677">
        <ele>125.699997</ele>
        <time>2017-04-18T14:26:16Z</time>
      </trkpt>
      <trkpt lat="48.79147" lon="1.38672">
        <ele>125.900002</ele>
        <time>2017-04-18T14:26:21Z</time>
      </trkpt>
      <trkpt lat="48.79156" lon="1.38667">
        <ele>126.199997</ele>
        <time>2017-04-18T14:26:25Z</time>
      </trkpt>
      <trkpt lat="48.79166" lon="1.38663">
        <ele>126.400002</ele>
        <time>2017-04-18T14:26:28Z</time>
      </trkpt>
      <trkpt lat="48.79174" lon="1.38658">
        <ele>126.900002</ele>
        <time>2017-04-18T14:26:31Z</time>
      </trkpt>
      <trkpt lat="48.79183" lon="1.38653">
        <ele>127.599998</ele>
        <time>2017-04-18T14:26:35Z</time>
      </trkpt>
      <trkpt lat="48.79193" lon="1.38647">
        <ele>128.699997</ele>
        <time>2017-04-18T14:26:40Z</time>
      </trkpt>
      <trkpt lat="48.79203" lon="1.38642">
        <ele>129.800003</ele>
        <time>2017-04-18T14:26:46Z</time>
      </trkpt>
      <trkpt lat="48.79212" lon="1.38638">
        <ele>130.899994</ele>
        <time>2017-04-18T14:26:51Z</time>
      </trkpt>
      <trkpt lat="48.79221" lon="1.38633">
        <ele>131.899994</ele>
        <time>2017-04-18T14:26:56Z</time>
      </trkpt>
      <trkpt lat="48.7923" lon="1.38627">
        <ele>133.199997</ele>
        <time>2017-04-18T14:27:01Z</time>
      </trkpt>
      <trkpt lat="48.79239" lon="1.38623">
        <ele>134.699997</ele>
        <time>2017-04-18T14:27:06Z</time>
      </trkpt>
      <trkpt lat="48.79248" lon="1.38617">
        <ele>136.399994</ele>
        <time>2017-04-18T14:27:12Z</time>
      </trkpt>
      <trkpt lat="48.79258" lon="1.38611">
        <ele>138.100006</ele>
        <time>2017-04-18T14:27:19Z</time>
      </trkpt>
      <trkpt lat="48.79266" lon="1.38606">
        <ele>138.899994</ele>
        <time>2017-04-18T14:27:23Z</time>
      </trkpt>
      <trkpt lat="48.79275" lon="1.38597">
        <ele>139.600006</ele>
        <time>2017-04-18T14:27:28Z</time>
      </trkpt>
      <trkpt lat="48.79281" lon="1.38584">
        <ele>140.100006</ele>
        <time>2017-04-18T14:27:32Z</time>
      </trkpt>
      <trkpt lat="48.79288" lon="1.38573">
        <ele>140.5</ele>
        <time>2017-04-18T14:27:35Z</time>
      </trkpt>
      <trkpt lat="48.79295" lon="1.38561">
        <ele>140.800003</ele>
        <time>2017-04-18T14:27:38Z</time>
      </trkpt>
      <trkpt lat="48.79304" lon="1.38549">
        <ele>141</ele>
        <time>2017-04-18T14:27:41Z</time>
      </trkpt>
      <trkpt lat="48.79315" lon="1.38537">
        <ele>141.199997</ele>
        <time>2017-04-18T14:27:44Z</time>
      </trkpt>
      <trkpt lat="48.79324" lon="1.38526">
        <ele>141.399994</ele>
        <time>2017-04-18T14:27:47Z</time>
      </trkpt>
      <trkpt lat="48.79327" lon="1.38512">
        <ele>141.5</ele>
        <time>2017-04-18T14:27:49Z</time>
      </trkpt>
      <trkpt lat="48.79329" lon="1.38496">
        <ele>141.600006</ele>
        <time>2017-04-18T14:27:51Z</time>
      </trkpt>
      <trkpt lat="48.79331" lon="1.38479">
        <ele>141.5</ele>
        <time>2017-04-18T14:27:53Z</time>
      </trkpt>
      <trkpt lat="48.79337" lon="1.38464">
        <ele>141.399994</ele>
        <time>2017-04-18T14:27:55Z</time>
      </trkpt>
      <trkpt lat="48.79344" lon="1.38453">
        <ele>141.199997</ele>
        <time>2017-04-18T14:27:57Z</time>
      </trkpt>
      <trkpt lat="48.79354" lon="1.38441">
        <ele>141.100006</ele>
        <time>2017-04-18T14:28:00Z</time>
      </trkpt>
      <trkpt lat="48.79361" lon="1.38432">
        <ele>141</ele>
        <time>2017-04-18T14:28:02Z</time>
      </trkpt>
      <trkpt lat="48.79372" lon="1.38421">
        <ele>141.100006</ele>
        <time>2017-04-18T14:28:05Z</time>
      </trkpt>
      <trkpt lat="48.7938" lon="1.38408">
        <ele>141.300003</ele>
        <time>2017-04-18T14:28:08Z</time>
      </trkpt>
      <trkpt lat="48.79382" lon="1.38393">
        <ele>141.300003</ele>
        <time>2017-04-18T14:28:10Z</time>
      </trkpt>
      <trkpt lat="48.79381" lon="1.38378">
        <ele>141.300003</ele>
        <time>2017-04-18T14:28:12Z</time>
      </trkpt>
      <trkpt lat="48.79383" lon="1.38364">
        <ele>141.300003</ele>
        <time>2017-04-18T14:28:14Z</time>
      </trkpt>
      <trkpt lat="48.79384" lon="1.38345">
        <ele>141.300003</ele>
        <time>2017-04-18T14:28:16Z</time>
      </trkpt>
      <trkpt lat="48.79385" lon="1.38326">
        <ele>141.199997</ele>
        <time>2017-04-18T14:28:18Z</time>
      </trkpt>
      <trkpt lat="48.79386" lon="1.38308">
        <ele>141</ele>
        <time>2017-04-18T14:28:20Z</time>
      </trkpt>
      <trkpt lat="48.79387" lon="1.38287">
        <ele>140.800003</ele>
        <time>2017-04-18T14:28:22Z</time>
      </trkpt>
      <trkpt lat="48.79389" lon="1.38268">
        <ele>140.600006</ele>
        <time>2017-04-18T14:28:24Z</time>
      </trkpt>
      <trkpt lat="48.7939" lon="1.38247">
        <ele>140.399994</ele>
        <time>2017-04-18T14:28:26Z</time>
      </trkpt>
      <trkpt lat="48.7939" lon="1.38224">
        <ele>140.199997</ele>
        <time>2017-04-18T14:28:28Z</time>
      </trkpt>
      <trkpt lat="48.79391" lon="1.38201">
        <ele>139.699997</ele>
        <time>2017-04-18T14:28:30Z</time>
      </trkpt>
      <trkpt lat="48.79392" lon="1.38177">
        <ele>139.300003</ele>
        <time>2017-04-18T14:28:32Z</time>
      </trkpt>
      <trkpt lat="48.79392" lon="1.38152">
        <ele>138.899994</ele>
        <time>2017-04-18T14:28:34Z</time>
      </trkpt>
      <trkpt lat="48.79392" lon="1.38129">
        <ele>138.600006</ele>
        <time>2017-04-18T14:28:36Z</time>
      </trkpt>
      <trkpt lat="48.79392" lon="1.38108">
        <ele>138.300003</ele>
        <time>2017-04-18T14:28:38Z</time>
      </trkpt>
      <trkpt lat="48.79392" lon="1.38086">
        <ele>138</ele>
        <time>2017-04-18T14:28:40Z</time>
      </trkpt>
      <trkpt lat="48.79392" lon="1.38064">
        <ele>137.800003</ele>
        <time>2017-04-18T14:28:42Z</time>
      </trkpt>
      <trkpt lat="48.79393" lon="1.38046">
        <ele>137.600006</ele>
        <time>2017-04-18T14:28:44Z</time>
      </trkpt>
      <trkpt lat="48.79394" lon="1.38026">
        <ele>137.399994</ele>
        <time>2017-04-18T14:28:46Z</time>
      </trkpt>
      <trkpt lat="48.79394" lon="1.38002">
        <ele>137.199997</ele>
        <time>2017-04-18T14:28:48Z</time>
      </trkpt>
      <trkpt lat="48.79398" lon="1.37984">
        <ele>136.899994</ele>
        <time>2017-04-18T14:28:50Z</time>
      </trkpt>
      <trkpt lat="48.79403" lon="1.37969">
        <ele>136.699997</ele>
        <time>2017-04-18T14:28:52Z</time>
      </trkpt>
      <trkpt lat="48.79408" lon="1.37955">
        <ele>136.600006</ele>
        <time>2017-04-18T14:28:54Z</time>
      </trkpt>
      <trkpt lat="48.79411" lon="1.37942">
        <ele>136.5</ele>
        <time>2017-04-18T14:28:56Z</time>
      </trkpt>
      <trkpt lat="48.79418" lon="1.37923">
        <ele>136.5</ele>
        <time>2017-04-18T14:28:59Z</time>
      </trkpt>
      <trkpt lat="48.79424" lon="1.37908">
        <ele>136.399994</ele>
        <time>2017-04-18T14:29:01Z</time>
      </trkpt>
      <trkpt lat="48.79432" lon="1.37896">
        <ele>136.399994</ele>
        <time>2017-04-18T14:29:03Z</time>
      </trkpt>
      <trkpt lat="48.7944" lon="1.37887">
        <ele>136.399994</ele>
        <time>2017-04-18T14:29:05Z</time>
      </trkpt>
      <trkpt lat="48.79449" lon="1.37874">
        <ele>136.300003</ele>
        <time>2017-04-18T14:29:08Z</time>
      </trkpt>
      <trkpt lat="48.7946" lon="1.37865">
        <ele>136.199997</ele>
        <time>2017-04-18T14:29:11Z</time>
      </trkpt>
      <trkpt lat="48.79471" lon="1.3785">
        <ele>136.100006</ele>
        <time>2017-04-18T14:29:14Z</time>
      </trkpt>
      <trkpt lat="48.79479" lon="1.37842">
        <ele>136</ele>
        <time>2017-04-18T14:29:16Z</time>
      </trkpt>
      <trkpt lat="48.79488" lon="1.37836">
        <ele>136</ele>
        <time>2017-04-18T14:29:18Z</time>
      </trkpt>
      <trkpt lat="48.79502" lon="1.37824">
        <ele>136</ele>
        <time>2017-04-18T14:29:21Z</time>
      </trkpt>
      <trkpt lat="48.79513" lon="1.37812">
        <ele>136.100006</ele>
        <time>2017-04-18T14:29:24Z</time>
      </trkpt>
      <trkpt lat="48.79523" lon="1.37804">
        <ele>136.100006</ele>
        <time>2017-04-18T14:29:26Z</time>
      </trkpt>
      <trkpt lat="48.79535" lon="1.37794">
        <ele>136.100006</ele>
        <time>2017-04-18T14:29:28Z</time>
      </trkpt>
      <trkpt lat="48.79544" lon="1.3779">
        <ele>136.100006</ele>
        <time>2017-04-18T14:29:30Z</time>
      </trkpt>
      <trkpt lat="48.79555" lon="1.37791">
        <ele>136.100006</ele>
        <time>2017-04-18T14:29:32Z</time>
      </trkpt>
      <trkpt lat="48.79571" lon="1.37795">
        <ele>135.899994</ele>
        <time>2017-04-18T14:29:34Z</time>
      </trkpt>
      <trkpt lat="48.79581" lon="1.37797">
        <ele>135.899994</ele>
        <time>2017-04-18T14:29:35Z</time>
      </trkpt>
      <trkpt lat="48.79594" lon="1.37799">
        <ele>135.800003</ele>
        <time>2017-04-18T14:29:37Z</time>
      </trkpt>
      <trkpt lat="48.79611" lon="1.37802">
        <ele>135.600006</ele>
        <time>2017-04-18T14:29:39Z</time>
      </trkpt>
      <trkpt lat="48.79622" lon="1.378">
        <ele>135.399994</ele>
        <time>2017-04-18T14:29:41Z</time>
      </trkpt>
      <trkpt lat="48.79633" lon="1.37796">
        <ele>135.100006</ele>
        <time>2017-04-18T14:29:43Z</time>
      </trkpt>
      <trkpt lat="48.79646" lon="1.37789">
        <ele>134.699997</ele>
        <time>2017-04-18T14:29:46Z</time>
      </trkpt>
      <trkpt lat="48.79656" lon="1.37786">
        <ele>134.399994</ele>
        <time>2017-04-18T14:29:48Z</time>
      </trkpt>
      <trkpt lat="48.79667" lon="1.37784">
        <ele>134.100006</ele>
        <time>2017-04-18T14:29:50Z</time>
      </trkpt>
      <trkpt lat="48.79679" lon="1.37781">
        <ele>133.600006</ele>
        <time>2017-04-18T14:29:52Z</time>
      </trkpt>
      <trkpt lat="48.79691" lon="1.37777">
        <ele>133</ele>
        <time>2017-04-18T14:29:54Z</time>
      </trkpt>
      <trkpt lat="48.79703" lon="1.37768">
        <ele>132.199997</ele>
        <time>2017-04-18T14:29:56Z</time>
      </trkpt>
      <trkpt lat="48.79713" lon="1.37754">
        <ele>131.600006</ele>
        <time>2017-04-18T14:29:58Z</time>
      </trkpt>
      <trkpt lat="48.79718" lon="1.37741">
        <ele>130.899994</ele>
        <time>2017-04-18T14:30:00Z</time>
      </trkpt>
      <trkpt lat="48.79724" lon="1.37727">
        <ele>130.100006</ele>
        <time>2017-04-18T14:30:02Z</time>
      </trkpt>
      <trkpt lat="48.79729" lon="1.37716">
        <ele>129.300003</ele>
        <time>2017-04-18T14:30:04Z</time>
      </trkpt>
      <trkpt lat="48.79739" lon="1.37708">
        <ele>128.300003</ele>
        <time>2017-04-18T14:30:06Z</time>
      </trkpt>
      <trkpt lat="48.79749" lon="1.37698">
        <ele>127.199997</ele>
        <time>2017-04-18T14:30:08Z</time>
      </trkpt>
      <trkpt lat="48.79757" lon="1.37688">
        <ele>126</ele>
        <time>2017-04-18T14:30:10Z</time>
      </trkpt>
      <trkpt lat="48.79767" lon="1.37681">
        <ele>123.400002</ele>
        <time>2017-04-18T14:30:14Z</time>
      </trkpt>
      <trkpt lat="48.79776" lon="1.37687">
        <ele>120.599998</ele>
        <time>2017-04-18T14:30:19Z</time>
      </trkpt>
      <trkpt lat="48.79785" lon="1.37689">
        <ele>117.599998</ele>
        <time>2017-04-18T14:30:27Z</time>
      </trkpt>
      <trkpt lat="48.79792" lon="1.37699">
        <ele>116</ele>
        <time>2017-04-18T14:30:37Z</time>
      </trkpt>
      <trkpt lat="48.79798" lon="1.37711">
        <ele>115.699997</ele>
        <time>2017-04-18T14:30:46Z</time>
      </trkpt>
      <trkpt lat="48.79803" lon="1.37723">
        <ele>116.900002</ele>
        <time>2017-04-18T14:31:14Z</time>
      </trkpt>
      <trkpt lat="48.79805" lon="1.37736">
        <ele>117.400002</ele>
        <time>2017-04-18T14:31:21Z</time>
      </trkpt>
      <trkpt lat="48.79809" lon="1.37749">
        <ele>118.199997</ele>
        <time>2017-04-18T14:31:28Z</time>
      </trkpt>
      <trkpt lat="48.79814" lon="1.37762">
        <ele>119.699997</ele>
        <time>2017-04-18T14:31:36Z</time>
      </trkpt>
      <trkpt lat="48.7982" lon="1.37772">
        <ele>121</ele>
        <time>2017-04-18T14:31:43Z</time>
      </trkpt>
      <trkpt lat="48.79824" lon="1.37785">
        <ele>122.599998</ele>
        <time>2017-04-18T14:31:51Z</time>
      </trkpt>
      <trkpt lat="48.79828" lon="1.37797">
        <ele>123.599998</ele>
        <time>2017-04-18T14:31:57Z</time>
      </trkpt>
      <trkpt lat="48.79833" lon="1.37809">
        <ele>124.599998</ele>
        <time>2017-04-18T14:32:03Z</time>
      </trkpt>
      <trkpt lat="48.79838" lon="1.37821">
        <ele>125.699997</ele>
        <time>2017-04-18T14:32:09Z</time>
      </trkpt>
      <trkpt lat="48.7984" lon="1.37806">
        <ele>127.199997</ele>
        <time>2017-04-18T14:32:18Z</time>
      </trkpt>
      <trkpt lat="48.79833" lon="1.37792">
        <ele>127.800003</ele>
        <time>2017-04-18T14:32:22Z</time>
      </trkpt>
      <trkpt lat="48.7983" lon="1.37779">
        <ele>128</ele>
        <time>2017-04-18T14:32:24Z</time>
      </trkpt>
      <trkpt lat="48.79827" lon="1.3776">
        <ele>128.199997</ele>
        <time>2017-04-18T14:32:27Z</time>
      </trkpt>
      <trkpt lat="48.79829" lon="1.37745">
        <ele>128.399994</ele>
        <time>2017-04-18T14:32:30Z</time>
      </trkpt>
      <trkpt lat="48.79833" lon="1.37732">
        <ele>128.600006</ele>
        <time>2017-04-18T14:32:33Z</time>
      </trkpt>
      <trkpt lat="48.79838" lon="1.37717">
        <ele>128.699997</ele>
        <time>2017-04-18T14:32:36Z</time>
      </trkpt>
      <trkpt lat="48.79846" lon="1.37702">
        <ele>128.800003</ele>
        <time>2017-04-18T14:32:39Z</time>
      </trkpt>
      <trkpt lat="48.79856" lon="1.37688">
        <ele>128.899994</ele>
        <time>2017-04-18T14:32:42Z</time>
      </trkpt>
      <trkpt lat="48.79861" lon="1.37677">
        <ele>129</ele>
        <time>2017-04-18T14:32:44Z</time>
      </trkpt>
      <trkpt lat="48.79867" lon="1.37667">
        <ele>129</ele>
        <time>2017-04-18T14:32:46Z</time>
      </trkpt>
      <trkpt lat="48.79875" lon="1.37652">
        <ele>129.100006</ele>
        <time>2017-04-18T14:32:49Z</time>
      </trkpt>
      <trkpt lat="48.79884" lon="1.37638">
        <ele>129.100006</ele>
        <time>2017-04-18T14:32:52Z</time>
      </trkpt>
      <trkpt lat="48.7989" lon="1.37626">
        <ele>129.199997</ele>
        <time>2017-04-18T14:32:54Z</time>
      </trkpt>
      <trkpt lat="48.79894" lon="1.37614">
        <ele>129.300003</ele>
        <time>2017-04-18T14:32:56Z</time>
      </trkpt>
      <trkpt lat="48.79901" lon="1.37596">
        <ele>129.399994</ele>
        <time>2017-04-18T14:32:59Z</time>
      </trkpt>
      <trkpt lat="48.79906" lon="1.37584">
        <ele>129.5</ele>
        <time>2017-04-18T14:33:01Z</time>
      </trkpt>
      <trkpt lat="48.79912" lon="1.37567">
        <ele>129.699997</ele>
        <time>2017-04-18T14:33:04Z</time>
      </trkpt>
      <trkpt lat="48.79918" lon="1.37551">
        <ele>130</ele>
        <time>2017-04-18T14:33:07Z</time>
      </trkpt>
      <trkpt lat="48.79924" lon="1.37536">
        <ele>130.300003</ele>
        <time>2017-04-18T14:33:10Z</time>
      </trkpt>
      <trkpt lat="48.79931" lon="1.37519">
        <ele>130.600006</ele>
        <time>2017-04-18T14:33:13Z</time>
      </trkpt>
      <trkpt lat="48.79936" lon="1.37507">
        <ele>130.699997</ele>
        <time>2017-04-18T14:33:15Z</time>
      </trkpt>
      <trkpt lat="48.79941" lon="1.37495">
        <ele>130.899994</ele>
        <time>2017-04-18T14:33:17Z</time>
      </trkpt>
      <trkpt lat="48.79946" lon="1.37482">
        <ele>131</ele>
        <time>2017-04-18T14:33:19Z</time>
      </trkpt>
      <trkpt lat="48.79951" lon="1.37463">
        <ele>131.199997</ele>
        <time>2017-04-18T14:33:22Z</time>
      </trkpt>
      <trkpt lat="48.79957" lon="1.3745">
        <ele>131.300003</ele>
        <time>2017-04-18T14:33:24Z</time>
      </trkpt>
      <trkpt lat="48.79965" lon="1.37439">
        <ele>131.199997</ele>
        <time>2017-04-18T14:33:26Z</time>
      </trkpt>
      <trkpt lat="48.79976" lon="1.37429">
        <ele>130.899994</ele>
        <time>2017-04-18T14:33:28Z</time>
      </trkpt>
      <trkpt lat="48.79985" lon="1.3742">
        <ele>130.5</ele>
        <time>2017-04-18T14:33:30Z</time>
      </trkpt>
      <trkpt lat="48.79995" lon="1.37411">
        <ele>130.199997</ele>
        <time>2017-04-18T14:33:32Z</time>
      </trkpt>
      <trkpt lat="48.80007" lon="1.37401">
        <ele>129.600006</ele>
        <time>2017-04-18T14:33:34Z</time>
      </trkpt>
      <trkpt lat="48.80017" lon="1.37391">
        <ele>129</ele>
        <time>2017-04-18T14:33:36Z</time>
      </trkpt>
      <trkpt lat="48.80028" lon="1.37379">
        <ele>128.5</ele>
        <time>2017-04-18T14:33:38Z</time>
      </trkpt>
      <trkpt lat="48.80035" lon="1.37369">
        <ele>128.100006</ele>
        <time>2017-04-18T14:33:40Z</time>
      </trkpt>
      <trkpt lat="48.80044" lon="1.37362">
        <ele>127.699997</ele>
        <time>2017-04-18T14:33:42Z</time>
      </trkpt>
      <trkpt lat="48.80053" lon="1.37355">
        <ele>127.400002</ele>
        <time>2017-04-18T14:33:44Z</time>
      </trkpt>
      <trkpt lat="48.80062" lon="1.37348">
        <ele>127.099998</ele>
        <time>2017-04-18T14:33:46Z</time>
      </trkpt>
      <trkpt lat="48.8007" lon="1.37341">
        <ele>126.900002</ele>
        <time>2017-04-18T14:33:48Z</time>
      </trkpt>
      <trkpt lat="48.80078" lon="1.37335">
        <ele>126.699997</ele>
        <time>2017-04-18T14:33:50Z</time>
      </trkpt>
      <trkpt lat="48.80088" lon="1.37329">
        <ele>126.5</ele>
        <time>2017-04-18T14:33:52Z</time>
      </trkpt>
      <trkpt lat="48.80097" lon="1.3732">
        <ele>126.300003</ele>
        <time>2017-04-18T14:33:54Z</time>
      </trkpt>
      <trkpt lat="48.80109" lon="1.37309">
        <ele>126.099998</ele>
        <time>2017-04-18T14:33:57Z</time>
      </trkpt>
      <trkpt lat="48.8012" lon="1.37296">
        <ele>126.199997</ele>
        <time>2017-04-18T14:34:00Z</time>
      </trkpt>
      <trkpt lat="48.80129" lon="1.37288">
        <ele>126.300003</ele>
        <time>2017-04-18T14:34:02Z</time>
      </trkpt>
      <trkpt lat="48.80138" lon="1.37281">
        <ele>126.400002</ele>
        <time>2017-04-18T14:34:04Z</time>
      </trkpt>
      <trkpt lat="48.80149" lon="1.37278">
        <ele>126.400002</ele>
        <time>2017-04-18T14:34:06Z</time>
      </trkpt>
      <trkpt lat="48.80161" lon="1.37279">
        <ele>126.5</ele>
        <time>2017-04-18T14:34:09Z</time>
      </trkpt>
      <trkpt lat="48.80174" lon="1.37281">
        <ele>126.599998</ele>
        <time>2017-04-18T14:34:12Z</time>
      </trkpt>
      <trkpt lat="48.80187" lon="1.37283">
        <ele>126.599998</ele>
        <time>2017-04-18T14:34:15Z</time>
      </trkpt>
      <trkpt lat="48.80201" lon="1.37288">
        <ele>126.400002</ele>
        <time>2017-04-18T14:34:18Z</time>
      </trkpt>
      <trkpt lat="48.80213" lon="1.37288">
        <ele>125.800003</ele>
        <time>2017-04-18T14:34:20Z</time>
      </trkpt>
      <trkpt lat="48.80226" lon="1.37283">
        <ele>125.300003</ele>
        <time>2017-04-18T14:34:22Z</time>
      </trkpt>
      <trkpt lat="48.80236" lon="1.37279">
        <ele>125</ele>
        <time>2017-04-18T14:34:24Z</time>
      </trkpt>
      <trkpt lat="48.80247" lon="1.37274">
        <ele>125.099998</ele>
        <time>2017-04-18T14:34:28Z</time>
      </trkpt>
      <trkpt lat="48.80256" lon="1.37269">
        <ele>125.400002</ele>
        <time>2017-04-18T14:34:32Z</time>
      </trkpt>
      <trkpt lat="48.80265" lon="1.37263">
        <ele>125.599998</ele>
        <time>2017-04-18T14:34:35Z</time>
      </trkpt>
      <trkpt lat="48.80275" lon="1.37258">
        <ele>126.199997</ele>
        <time>2017-04-18T14:34:39Z</time>
      </trkpt>
      <trkpt lat="48.80286" lon="1.37256">
        <ele>126.699997</ele>
        <time>2017-04-18T14:34:43Z</time>
      </trkpt>
      <trkpt lat="48.80295" lon="1.37253">
        <ele>127.5</ele>
        <time>2017-04-18T14:34:47Z</time>
      </trkpt>
      <trkpt lat="48.80306" lon="1.3725">
        <ele>128.5</ele>
        <time>2017-04-18T14:34:52Z</time>
      </trkpt>
      <trkpt lat="48.80316" lon="1.37246">
        <ele>129.399994</ele>
        <time>2017-04-18T14:34:57Z</time>
      </trkpt>
      <trkpt lat="48.80329" lon="1.37242">
        <ele>130</ele>
        <time>2017-04-18T14:35:01Z</time>
      </trkpt>
      <trkpt lat="48.80338" lon="1.37239">
        <ele>130.5</ele>
        <time>2017-04-18T14:35:04Z</time>
      </trkpt>
      <trkpt lat="48.80348" lon="1.37235">
        <ele>131.199997</ele>
        <time>2017-04-18T14:35:08Z</time>
      </trkpt>
      <trkpt lat="48.80361" lon="1.37234">
        <ele>131.800003</ele>
        <time>2017-04-18T14:35:12Z</time>
      </trkpt>
      <trkpt lat="48.80372" lon="1.37231">
        <ele>132.100006</ele>
        <time>2017-04-18T14:35:15Z</time>
      </trkpt>
      <trkpt lat="48.80383" lon="1.37229">
        <ele>132.399994</ele>
        <time>2017-04-18T14:35:18Z</time>
      </trkpt>
      <trkpt lat="48.80392" lon="1.37226">
        <ele>132.699997</ele>
        <time>2017-04-18T14:35:20Z</time>
      </trkpt>
      <trkpt lat="48.80403" lon="1.37226">
        <ele>132.899994</ele>
        <time>2017-04-18T14:35:23Z</time>
      </trkpt>
      <trkpt lat="48.80413" lon="1.37228">
        <ele>133.100006</ele>
        <time>2017-04-18T14:35:25Z</time>
      </trkpt>
      <trkpt lat="48.80422" lon="1.37232">
        <ele>133.300003</ele>
        <time>2017-04-18T14:35:27Z</time>
      </trkpt>
      <trkpt lat="48.80434" lon="1.37239">
        <ele>133.5</ele>
        <time>2017-04-18T14:35:30Z</time>
      </trkpt>
      <trkpt lat="48.80443" lon="1.37242">
        <ele>133.699997</ele>
        <time>2017-04-18T14:35:34Z</time>
      </trkpt>
      <trkpt lat="48.80453" lon="1.37242">
        <ele>133.899994</ele>
        <time>2017-04-18T14:35:41Z</time>
      </trkpt>
      <trkpt lat="48.80444" lon="1.37233">
        <ele>134.100006</ele>
        <time>2017-04-18T14:36:02Z</time>
      </trkpt>
      <trkpt lat="48.80438" lon="1.37219">
        <ele>134.100006</ele>
        <time>2017-04-18T14:36:07Z</time>
      </trkpt>
      <trkpt lat="48.80441" lon="1.37205">
        <ele>134.100006</ele>
        <time>2017-04-18T14:36:10Z</time>
      </trkpt>
      <trkpt lat="48.80444" lon="1.37187">
        <ele>134.100006</ele>
        <time>2017-04-18T14:36:13Z</time>
      </trkpt>
      <trkpt lat="48.80447" lon="1.37173">
        <ele>134.100006</ele>
        <time>2017-04-18T14:36:15Z</time>
      </trkpt>
      <trkpt lat="48.80451" lon="1.37154">
        <ele>134.100006</ele>
        <time>2017-04-18T14:36:18Z</time>
      </trkpt>
      <trkpt lat="48.80454" lon="1.3714">
        <ele>134</ele>
        <time>2017-04-18T14:36:20Z</time>
      </trkpt>
      <trkpt lat="48.80458" lon="1.37121">
        <ele>133.899994</ele>
        <time>2017-04-18T14:36:23Z</time>
      </trkpt>
      <trkpt lat="48.80462" lon="1.37103">
        <ele>133.699997</ele>
        <time>2017-04-18T14:36:25Z</time>
      </trkpt>
      <trkpt lat="48.80465" lon="1.37088">
        <ele>133.600006</ele>
        <time>2017-04-18T14:36:27Z</time>
      </trkpt>
      <trkpt lat="48.80467" lon="1.37074">
        <ele>133.5</ele>
        <time>2017-04-18T14:36:29Z</time>
      </trkpt>
      <trkpt lat="48.8047" lon="1.37059">
        <ele>133.399994</ele>
        <time>2017-04-18T14:36:31Z</time>
      </trkpt>
      <trkpt lat="48.80474" lon="1.37045">
        <ele>133.199997</ele>
        <time>2017-04-18T14:36:33Z</time>
      </trkpt>
      <trkpt lat="48.80477" lon="1.37029">
        <ele>133</ele>
        <time>2017-04-18T14:36:35Z</time>
      </trkpt>
      <trkpt lat="48.80479" lon="1.37012">
        <ele>132.899994</ele>
        <time>2017-04-18T14:36:37Z</time>
      </trkpt>
      <trkpt lat="48.80482" lon="1.36996">
        <ele>132.5</ele>
        <time>2017-04-18T14:36:39Z</time>
      </trkpt>
      <trkpt lat="48.80485" lon="1.3698">
        <ele>132.199997</ele>
        <time>2017-04-18T14:36:41Z</time>
      </trkpt>
      <trkpt lat="48.80487" lon="1.36965">
        <ele>132</ele>
        <time>2017-04-18T14:36:43Z</time>
      </trkpt>
      <trkpt lat="48.8049" lon="1.36948">
        <ele>131.800003</ele>
        <time>2017-04-18T14:36:45Z</time>
      </trkpt>
      <trkpt lat="48.80492" lon="1.36931">
        <ele>131.699997</ele>
        <time>2017-04-18T14:36:47Z</time>
      </trkpt>
      <trkpt lat="48.80495" lon="1.36915">
        <ele>131.5</ele>
        <time>2017-04-18T14:36:49Z</time>
      </trkpt>
      <trkpt lat="48.805" lon="1.36899">
        <ele>131.100006</ele>
        <time>2017-04-18T14:36:51Z</time>
      </trkpt>
      <trkpt lat="48.80505" lon="1.36883">
        <ele>130.699997</ele>
        <time>2017-04-18T14:36:53Z</time>
      </trkpt>
      <trkpt lat="48.80513" lon="1.36875">
        <ele>130.399994</ele>
        <time>2017-04-18T14:36:55Z</time>
      </trkpt>
      <trkpt lat="48.80522" lon="1.36864">
        <ele>130</ele>
        <time>2017-04-18T14:36:57Z</time>
      </trkpt>
      <trkpt lat="48.80531" lon="1.36851">
        <ele>129.699997</ele>
        <time>2017-04-18T14:36:59Z</time>
      </trkpt>
      <trkpt lat="48.8054" lon="1.36836">
        <ele>129.199997</ele>
        <time>2017-04-18T14:37:01Z</time>
      </trkpt>
      <trkpt lat="48.80549" lon="1.36819">
        <ele>128.699997</ele>
        <time>2017-04-18T14:37:03Z</time>
      </trkpt>
      <trkpt lat="48.80557" lon="1.36803">
        <ele>128.199997</ele>
        <time>2017-04-18T14:37:05Z</time>
      </trkpt>
      <trkpt lat="48.80566" lon="1.3679">
        <ele>127.599998</ele>
        <time>2017-04-18T14:37:07Z</time>
      </trkpt>
      <trkpt lat="48.80575" lon="1.36779">
        <ele>127.099998</ele>
        <time>2017-04-18T14:37:09Z</time>
      </trkpt>
      <trkpt lat="48.80583" lon="1.3677">
        <ele>126.599998</ele>
        <time>2017-04-18T14:37:11Z</time>
      </trkpt>
      <trkpt lat="48.80596" lon="1.36773">
        <ele>126</ele>
        <time>2017-04-18T14:37:14Z</time>
      </trkpt>
      <trkpt lat="48.80601" lon="1.36785">
        <ele>125.599998</ele>
        <time>2017-04-18T14:37:16Z</time>
      </trkpt>
      <trkpt lat="48.80604" lon="1.36799">
        <ele>125.099998</ele>
        <time>2017-04-18T14:37:18Z</time>
      </trkpt>
      <trkpt lat="48.8061" lon="1.36813">
        <ele>124.699997</ele>
        <time>2017-04-18T14:37:20Z</time>
      </trkpt>
      <trkpt lat="48.80614" lon="1.36829">
        <ele>124.199997</ele>
        <time>2017-04-18T14:37:22Z</time>
      </trkpt>
      <trkpt lat="48.80617" lon="1.36845">
        <ele>123.800003</ele>
        <time>2017-04-18T14:37:24Z</time>
      </trkpt>
      <trkpt lat="48.80622" lon="1.36862">
        <ele>123.199997</ele>
        <time>2017-04-18T14:37:27Z</time>
      </trkpt>
      <trkpt lat="48.80628" lon="1.36873">
        <ele>122.900002</ele>
        <time>2017-04-18T14:37:30Z</time>
      </trkpt>
      <trkpt lat="48.80636" lon="1.36884">
        <ele>122.699997</ele>
        <time>2017-04-18T14:37:34Z</time>
      </trkpt>
      <trkpt lat="48.80646" lon="1.36895">
        <ele>122.599998</ele>
        <time>2017-04-18T14:37:37Z</time>
      </trkpt>
      <trkpt lat="48.80658" lon="1.36911">
        <ele>122.199997</ele>
        <time>2017-04-18T14:37:40Z</time>
      </trkpt>
      <trkpt lat="48.80663" lon="1.36924">
        <ele>121.400002</ele>
        <time>2017-04-18T14:37:42Z</time>
      </trkpt>
      <trkpt lat="48.80671" lon="1.36941">
        <ele>120.5</ele>
        <time>2017-04-18T14:37:44Z</time>
      </trkpt>
      <trkpt lat="48.8068" lon="1.36956">
        <ele>119.5</ele>
        <time>2017-04-18T14:37:46Z</time>
      </trkpt>
      <trkpt lat="48.8069" lon="1.36976">
        <ele>118.300003</ele>
        <time>2017-04-18T14:37:48Z</time>
      </trkpt>
      <trkpt lat="48.80701" lon="1.36994">
        <ele>117.099998</ele>
        <time>2017-04-18T14:37:50Z</time>
      </trkpt>
      <trkpt lat="48.80712" lon="1.37007">
        <ele>116</ele>
        <time>2017-04-18T14:37:52Z</time>
      </trkpt>
      <trkpt lat="48.80721" lon="1.3702">
        <ele>115.199997</ele>
        <time>2017-04-18T14:37:54Z</time>
      </trkpt>
      <trkpt lat="48.80728" lon="1.37028">
        <ele>114.5</ele>
        <time>2017-04-18T14:37:56Z</time>
      </trkpt>
      <trkpt lat="48.80737" lon="1.37033">
        <ele>113.599998</ele>
        <time>2017-04-18T14:37:59Z</time>
      </trkpt>
      <trkpt lat="48.80749" lon="1.37026">
        <ele>112.699997</ele>
        <time>2017-04-18T14:38:02Z</time>
      </trkpt>
      <trkpt lat="48.80758" lon="1.37015">
        <ele>112</ele>
        <time>2017-04-18T14:38:04Z</time>
      </trkpt>
      <trkpt lat="48.80768" lon="1.37005">
        <ele>111.199997</ele>
        <time>2017-04-18T14:38:06Z</time>
      </trkpt>
      <trkpt lat="48.80776" lon="1.36998">
        <ele>110.599998</ele>
        <time>2017-04-18T14:38:08Z</time>
      </trkpt>
      <trkpt lat="48.80786" lon="1.3699">
        <ele>109.800003</ele>
        <time>2017-04-18T14:38:11Z</time>
      </trkpt>
      <trkpt lat="48.80796" lon="1.36987">
        <ele>109.5</ele>
        <time>2017-04-18T14:38:14Z</time>
      </trkpt>
      <trkpt lat="48.80807" lon="1.36986">
        <ele>109.5</ele>
        <time>2017-04-18T14:38:19Z</time>
      </trkpt>
      <trkpt lat="48.80818" lon="1.36986">
        <ele>110</ele>
        <time>2017-04-18T14:38:25Z</time>
      </trkpt>
      <trkpt lat="48.80827" lon="1.36985">
        <ele>110.800003</ele>
        <time>2017-04-18T14:38:29Z</time>
      </trkpt>
      <trkpt lat="48.80836" lon="1.36978">
        <ele>111.5</ele>
        <time>2017-04-18T14:38:33Z</time>
      </trkpt>
      <trkpt lat="48.80841" lon="1.36965">
        <ele>112.199997</ele>
        <time>2017-04-18T14:38:37Z</time>
      </trkpt>
      <trkpt lat="48.80845" lon="1.36952">
        <ele>112.900002</ele>
        <time>2017-04-18T14:38:41Z</time>
      </trkpt>
      <trkpt lat="48.80848" lon="1.36936">
        <ele>114</ele>
        <time>2017-04-18T14:38:46Z</time>
      </trkpt>
      <trkpt lat="48.80851" lon="1.36922">
        <ele>115</ele>
        <time>2017-04-18T14:38:51Z</time>
      </trkpt>
      <trkpt lat="48.80855" lon="1.3691">
        <ele>116.199997</ele>
        <time>2017-04-18T14:38:56Z</time>
      </trkpt>
      <trkpt lat="48.80861" lon="1.36899">
        <ele>117.400002</ele>
        <time>2017-04-18T14:39:01Z</time>
      </trkpt>
      <trkpt lat="48.80866" lon="1.36886">
        <ele>118.5</ele>
        <time>2017-04-18T14:39:06Z</time>
      </trkpt>
      <trkpt lat="48.80872" lon="1.36875">
        <ele>119.400002</ele>
        <time>2017-04-18T14:39:10Z</time>
      </trkpt>
      <trkpt lat="48.80878" lon="1.36863">
        <ele>120.199997</ele>
        <time>2017-04-18T14:39:14Z</time>
      </trkpt>
      <trkpt lat="48.80887" lon="1.36851">
        <ele>121</ele>
        <time>2017-04-18T14:39:18Z</time>
      </trkpt>
      <trkpt lat="48.80893" lon="1.36842">
        <ele>121.5</ele>
        <time>2017-04-18T14:39:21Z</time>
      </trkpt>
      <trkpt lat="48.80898" lon="1.36827">
        <ele>122.099998</ele>
        <time>2017-04-18T14:39:25Z</time>
      </trkpt>
      <trkpt lat="48.80894" lon="1.36811">
        <ele>122.900002</ele>
        <time>2017-04-18T14:39:29Z</time>
      </trkpt>
      <trkpt lat="48.80893" lon="1.36796">
        <ele>123.699997</ele>
        <time>2017-04-18T14:39:33Z</time>
      </trkpt>
      <trkpt lat="48.80895" lon="1.36779">
        <ele>124.699997</ele>
        <time>2017-04-18T14:39:37Z</time>
      </trkpt>
      <trkpt lat="48.80898" lon="1.36766">
        <ele>125.199997</ele>
        <time>2017-04-18T14:39:40Z</time>
      </trkpt>
      <trkpt lat="48.80904" lon="1.36755">
        <ele>125.800003</ele>
        <time>2017-04-18T14:39:43Z</time>
      </trkpt>
      <trkpt lat="48.80912" lon="1.36743">
        <ele>126.300003</ele>
        <time>2017-04-18T14:39:46Z</time>
      </trkpt>
      <trkpt lat="48.80918" lon="1.36728">
        <ele>126.800003</ele>
        <time>2017-04-18T14:39:49Z</time>
      </trkpt>
      <trkpt lat="48.80925" lon="1.36717">
        <ele>127.199997</ele>
        <time>2017-04-18T14:39:52Z</time>
      </trkpt>
      <trkpt lat="48.80931" lon="1.36703">
        <ele>127.699997</ele>
        <time>2017-04-18T14:39:55Z</time>
      </trkpt>
      <trkpt lat="48.80938" lon="1.36688">
        <ele>128.100006</ele>
        <time>2017-04-18T14:39:58Z</time>
      </trkpt>
      <trkpt lat="48.80946" lon="1.36672">
        <ele>128.399994</ele>
        <time>2017-04-18T14:40:01Z</time>
      </trkpt>
      <trkpt lat="48.80953" lon="1.36662">
        <ele>128.600006</ele>
        <time>2017-04-18T14:40:03Z</time>
      </trkpt>
      <trkpt lat="48.80962" lon="1.36651">
        <ele>129</ele>
        <time>2017-04-18T14:40:06Z</time>
      </trkpt>
      <trkpt lat="48.80968" lon="1.36638">
        <ele>129.199997</ele>
        <time>2017-04-18T14:40:09Z</time>
      </trkpt>
      <trkpt lat="48.80968" lon="1.36623">
        <ele>129.5</ele>
        <time>2017-04-18T14:40:12Z</time>
      </trkpt>
      <trkpt lat="48.80969" lon="1.3661">
        <ele>129.5</ele>
        <time>2017-04-18T14:40:14Z</time>
      </trkpt>
      <trkpt lat="48.80967" lon="1.36596">
        <ele>129.5</ele>
        <time>2017-04-18T14:40:16Z</time>
      </trkpt>
      <trkpt lat="48.80969" lon="1.36578">
        <ele>129.399994</ele>
        <time>2017-04-18T14:40:19Z</time>
      </trkpt>
      <trkpt lat="48.80971" lon="1.36562">
        <ele>129.5</ele>
        <time>2017-04-18T14:40:24Z</time>
      </trkpt>
      <trkpt lat="48.80974" lon="1.36547">
        <ele>129.899994</ele>
        <time>2017-04-18T14:40:28Z</time>
      </trkpt>
      <trkpt lat="48.80977" lon="1.36528">
        <ele>130.300003</ele>
        <time>2017-04-18T14:40:32Z</time>
      </trkpt>
      <trkpt lat="48.80983" lon="1.36517">
        <ele>130.800003</ele>
        <time>2017-04-18T14:40:35Z</time>
      </trkpt>
      <trkpt lat="48.80991" lon="1.3651">
        <ele>131.199997</ele>
        <time>2017-04-18T14:40:38Z</time>
      </trkpt>
      <trkpt lat="48.81001" lon="1.36503">
        <ele>131.800003</ele>
        <time>2017-04-18T14:40:42Z</time>
      </trkpt>
      <trkpt lat="48.81012" lon="1.36493">
        <ele>132.300003</ele>
        <time>2017-04-18T14:40:46Z</time>
      </trkpt>
      <trkpt lat="48.8102" lon="1.36485">
        <ele>132.600006</ele>
        <time>2017-04-18T14:40:49Z</time>
      </trkpt>
      <trkpt lat="48.81031" lon="1.36477">
        <ele>132.899994</ele>
        <time>2017-04-18T14:40:52Z</time>
      </trkpt>
      <trkpt lat="48.81042" lon="1.36469">
        <ele>133.100006</ele>
        <time>2017-04-18T14:40:55Z</time>
      </trkpt>
      <trkpt lat="48.81054" lon="1.36461">
        <ele>133.399994</ele>
        <time>2017-04-18T14:40:58Z</time>
      </trkpt>
      <trkpt lat="48.81065" lon="1.36455">
        <ele>133.699997</ele>
        <time>2017-04-18T14:41:01Z</time>
      </trkpt>
      <trkpt lat="48.81076" lon="1.36445">
        <ele>134</ele>
        <time>2017-04-18T14:41:04Z</time>
      </trkpt>
      <trkpt lat="48.81083" lon="1.36437">
        <ele>134.199997</ele>
        <time>2017-04-18T14:41:06Z</time>
      </trkpt>
      <trkpt lat="48.81095" lon="1.36432">
        <ele>134.5</ele>
        <time>2017-04-18T14:41:09Z</time>
      </trkpt>
      <trkpt lat="48.81106" lon="1.36436">
        <ele>134.800003</ele>
        <time>2017-04-18T14:41:12Z</time>
      </trkpt>
      <trkpt lat="48.81118" lon="1.36432">
        <ele>135</ele>
        <time>2017-04-18T14:41:15Z</time>
      </trkpt>
      <trkpt lat="48.81126" lon="1.36426">
        <ele>135</ele>
        <time>2017-04-18T14:41:17Z</time>
      </trkpt>
      <trkpt lat="48.81133" lon="1.36415">
        <ele>135</ele>
        <time>2017-04-18T14:41:19Z</time>
      </trkpt>
      <trkpt lat="48.81142" lon="1.36406">
        <ele>135</ele>
        <time>2017-04-18T14:41:21Z</time>
      </trkpt>
      <trkpt lat="48.81149" lon="1.36396">
        <ele>135.100006</ele>
        <time>2017-04-18T14:41:23Z</time>
      </trkpt>
      <trkpt lat="48.81158" lon="1.36391">
        <ele>135.100006</ele>
        <time>2017-04-18T14:41:25Z</time>
      </trkpt>
      <trkpt lat="48.81171" lon="1.36386">
        <ele>135.100006</ele>
        <time>2017-04-18T14:41:28Z</time>
      </trkpt>
      <trkpt lat="48.81182" lon="1.36379">
        <ele>135.300003</ele>
        <time>2017-04-18T14:41:31Z</time>
      </trkpt>
      <trkpt lat="48.81194" lon="1.36375">
        <ele>135.5</ele>
        <time>2017-04-18T14:41:34Z</time>
      </trkpt>
      <trkpt lat="48.81207" lon="1.36372">
        <ele>135.699997</ele>
        <time>2017-04-18T14:41:37Z</time>
      </trkpt>
      <trkpt lat="48.81221" lon="1.36365">
        <ele>135.899994</ele>
        <time>2017-04-18T14:41:40Z</time>
      </trkpt>
      <trkpt lat="48.81228" lon="1.36357">
        <ele>136</ele>
        <time>2017-04-18T14:41:42Z</time>
      </trkpt>
      <trkpt lat="48.81236" lon="1.3635">
        <ele>136.199997</ele>
        <time>2017-04-18T14:41:44Z</time>
      </trkpt>
      <trkpt lat="48.81247" lon="1.36345">
        <ele>136.399994</ele>
        <time>2017-04-18T14:41:47Z</time>
      </trkpt>
      <trkpt lat="48.81256" lon="1.36339">
        <ele>136.5</ele>
        <time>2017-04-18T14:41:49Z</time>
      </trkpt>
      <trkpt lat="48.81265" lon="1.36332">
        <ele>136.600006</ele>
        <time>2017-04-18T14:41:51Z</time>
      </trkpt>
      <trkpt lat="48.81274" lon="1.36325">
        <ele>136.600006</ele>
        <time>2017-04-18T14:41:53Z</time>
      </trkpt>
      <trkpt lat="48.81284" lon="1.36317">
        <ele>136.800003</ele>
        <time>2017-04-18T14:41:56Z</time>
      </trkpt>
      <trkpt lat="48.81293" lon="1.36315">
        <ele>136.800003</ele>
        <time>2017-04-18T14:41:58Z</time>
      </trkpt>
      <trkpt lat="48.81303" lon="1.36319">
        <ele>136.899994</ele>
        <time>2017-04-18T14:42:01Z</time>
      </trkpt>
      <trkpt lat="48.81313" lon="1.36324">
        <ele>137.199997</ele>
        <time>2017-04-18T14:42:04Z</time>
      </trkpt>
      <trkpt lat="48.81324" lon="1.36323">
        <ele>137.399994</ele>
        <time>2017-04-18T14:42:07Z</time>
      </trkpt>
      <trkpt lat="48.81334" lon="1.36324">
        <ele>137.699997</ele>
        <time>2017-04-18T14:42:10Z</time>
      </trkpt>
      <trkpt lat="48.81345" lon="1.36323">
        <ele>138.100006</ele>
        <time>2017-04-18T14:42:13Z</time>
      </trkpt>
      <trkpt lat="48.81355" lon="1.36327">
        <ele>138.300003</ele>
        <time>2017-04-18T14:42:16Z</time>
      </trkpt>
      <trkpt lat="48.81368" lon="1.36328">
        <ele>138.600006</ele>
        <time>2017-04-18T14:42:19Z</time>
      </trkpt>
      <trkpt lat="48.81379" lon="1.3632">
        <ele>138.800003</ele>
        <time>2017-04-18T14:42:22Z</time>
      </trkpt>
      <trkpt lat="48.81393" lon="1.36319">
        <ele>138.899994</ele>
        <time>2017-04-18T14:42:25Z</time>
      </trkpt>
      <trkpt lat="48.81404" lon="1.36319">
        <ele>139.100006</ele>
        <time>2017-04-18T14:42:28Z</time>
      </trkpt>
      <trkpt lat="48.81415" lon="1.36311">
        <ele>139.100006</ele>
        <time>2017-04-18T14:42:32Z</time>
      </trkpt>
      <trkpt lat="48.81423" lon="1.36303">
        <ele>139.100006</ele>
        <time>2017-04-18T14:42:34Z</time>
      </trkpt>
      <trkpt lat="48.81431" lon="1.36295">
        <ele>139</ele>
        <time>2017-04-18T14:42:36Z</time>
      </trkpt>
      <trkpt lat="48.81438" lon="1.36285">
        <ele>139</ele>
        <time>2017-04-18T14:42:38Z</time>
      </trkpt>
      <trkpt lat="48.81447" lon="1.36277">
        <ele>139</ele>
        <time>2017-04-18T14:42:40Z</time>
      </trkpt>
      <trkpt lat="48.81456" lon="1.3627">
        <ele>138.899994</ele>
        <time>2017-04-18T14:42:42Z</time>
      </trkpt>
      <trkpt lat="48.81469" lon="1.36267">
        <ele>138.399994</ele>
        <time>2017-04-18T14:42:45Z</time>
      </trkpt>
      <trkpt lat="48.81482" lon="1.36265">
        <ele>138</ele>
        <time>2017-04-18T14:42:47Z</time>
      </trkpt>
      <trkpt lat="48.81494" lon="1.36263">
        <ele>137.699997</ele>
        <time>2017-04-18T14:42:49Z</time>
      </trkpt>
      <trkpt lat="48.81505" lon="1.36261">
        <ele>137.399994</ele>
        <time>2017-04-18T14:42:51Z</time>
      </trkpt>
      <trkpt lat="48.81515" lon="1.36265">
        <ele>137.199997</ele>
        <time>2017-04-18T14:42:53Z</time>
      </trkpt>
      <trkpt lat="48.81526" lon="1.36269">
        <ele>137</ele>
        <time>2017-04-18T14:42:55Z</time>
      </trkpt>
      <trkpt lat="48.81535" lon="1.36279">
        <ele>136.899994</ele>
        <time>2017-04-18T14:42:58Z</time>
      </trkpt>
      <trkpt lat="48.81545" lon="1.36277">
        <ele>136.899994</ele>
        <time>2017-04-18T14:43:00Z</time>
      </trkpt>
      <trkpt lat="48.81558" lon="1.36275">
        <ele>137</ele>
        <time>2017-04-18T14:43:03Z</time>
      </trkpt>
      <trkpt lat="48.81573" lon="1.3627">
        <ele>136.899994</ele>
        <time>2017-04-18T14:43:06Z</time>
      </trkpt>
      <trkpt lat="48.81585" lon="1.3627">
        <ele>136.899994</ele>
        <time>2017-04-18T14:43:08Z</time>
      </trkpt>
      <trkpt lat="48.81594" lon="1.36275">
        <ele>136.699997</ele>
        <time>2017-04-18T14:43:10Z</time>
      </trkpt>
      <trkpt lat="48.81604" lon="1.36279">
        <ele>136.600006</ele>
        <time>2017-04-18T14:43:12Z</time>
      </trkpt>
      <trkpt lat="48.81617" lon="1.36281">
        <ele>136.5</ele>
        <time>2017-04-18T14:43:14Z</time>
      </trkpt>
      <trkpt lat="48.81627" lon="1.36288">
        <ele>136.399994</ele>
        <time>2017-04-18T14:43:16Z</time>
      </trkpt>
      <trkpt lat="48.81634" lon="1.36299">
        <ele>136.199997</ele>
        <time>2017-04-18T14:43:18Z</time>
      </trkpt>
      <trkpt lat="48.8164" lon="1.36312">
        <ele>136.100006</ele>
        <time>2017-04-18T14:43:20Z</time>
      </trkpt>
      <trkpt lat="48.81644" lon="1.36326">
        <ele>136.100006</ele>
        <time>2017-04-18T14:43:22Z</time>
      </trkpt>
      <trkpt lat="48.81653" lon="1.36332">
        <ele>136</ele>
        <time>2017-04-18T14:43:24Z</time>
      </trkpt>
      <trkpt lat="48.81663" lon="1.36336">
        <ele>135.899994</ele>
        <time>2017-04-18T14:43:26Z</time>
      </trkpt>
      <trkpt lat="48.81673" lon="1.3635">
        <ele>135.800003</ele>
        <time>2017-04-18T14:43:29Z</time>
      </trkpt>
      <trkpt lat="48.81683" lon="1.36364">
        <ele>135.800003</ele>
        <time>2017-04-18T14:43:32Z</time>
      </trkpt>
      <trkpt lat="48.81692" lon="1.36369">
        <ele>135.699997</ele>
        <time>2017-04-18T14:43:34Z</time>
      </trkpt>
      <trkpt lat="48.81707" lon="1.36371">
        <ele>135.699997</ele>
        <time>2017-04-18T14:43:37Z</time>
      </trkpt>
      <trkpt lat="48.81717" lon="1.36373">
        <ele>135.600006</ele>
        <time>2017-04-18T14:43:39Z</time>
      </trkpt>
      <trkpt lat="48.81726" lon="1.36378">
        <ele>135.600006</ele>
        <time>2017-04-18T14:43:41Z</time>
      </trkpt>
      <trkpt lat="48.81736" lon="1.36381">
        <ele>135.600006</ele>
        <time>2017-04-18T14:43:43Z</time>
      </trkpt>
      <trkpt lat="48.81747" lon="1.36382">
        <ele>135.600006</ele>
        <time>2017-04-18T14:43:45Z</time>
      </trkpt>
      <trkpt lat="48.81757" lon="1.36379">
        <ele>135.600006</ele>
        <time>2017-04-18T14:43:47Z</time>
      </trkpt>
      <trkpt lat="48.81766" lon="1.36378">
        <ele>135.5</ele>
        <time>2017-04-18T14:43:49Z</time>
      </trkpt>
      <trkpt lat="48.81776" lon="1.36383">
        <ele>135.300003</ele>
        <time>2017-04-18T14:43:51Z</time>
      </trkpt>
      <trkpt lat="48.81795" lon="1.36401">
        <ele>136.800003</ele>
        <time>2017-04-18T14:46:08Z</time>
      </trkpt>
      <trkpt lat="48.81791" lon="1.36384">
        <ele>136.600006</ele>
        <time>2017-04-18T14:46:10Z</time>
      </trkpt>
      <trkpt lat="48.81789" lon="1.3637">
        <ele>136.399994</ele>
        <time>2017-04-18T14:46:12Z</time>
      </trkpt>
      <trkpt lat="48.81789" lon="1.36355">
        <ele>136.300003</ele>
        <time>2017-04-18T14:46:14Z</time>
      </trkpt>
      <trkpt lat="48.81789" lon="1.36341">
        <ele>136.100006</ele>
        <time>2017-04-18T14:46:16Z</time>
      </trkpt>
      <trkpt lat="48.81789" lon="1.36321">
        <ele>135.899994</ele>
        <time>2017-04-18T14:46:19Z</time>
      </trkpt>
      <trkpt lat="48.81788" lon="1.36307">
        <ele>135.800003</ele>
        <time>2017-04-18T14:46:21Z</time>
      </trkpt>
      <trkpt lat="48.81787" lon="1.36292">
        <ele>135.699997</ele>
        <time>2017-04-18T14:46:23Z</time>
      </trkpt>
      <trkpt lat="48.81786" lon="1.36273">
        <ele>135.600006</ele>
        <time>2017-04-18T14:46:25Z</time>
      </trkpt>
      <trkpt lat="48.81786" lon="1.36256">
        <ele>135.300003</ele>
        <time>2017-04-18T14:46:27Z</time>
      </trkpt>
      <trkpt lat="48.81783" lon="1.3624">
        <ele>134.399994</ele>
        <time>2017-04-18T14:46:29Z</time>
      </trkpt>
      <trkpt lat="48.81788" lon="1.36226">
        <ele>133.399994</ele>
        <time>2017-04-18T14:46:33Z</time>
      </trkpt>
      <trkpt lat="48.81798" lon="1.36222">
        <ele>132.5</ele>
        <time>2017-04-18T14:46:36Z</time>
      </trkpt>
      <trkpt lat="48.81809" lon="1.36228">
        <ele>131.300003</ele>
        <time>2017-04-18T14:46:39Z</time>
      </trkpt>
      <trkpt lat="48.81819" lon="1.36233">
        <ele>130.300003</ele>
        <time>2017-04-18T14:46:41Z</time>
      </trkpt>
      <trkpt lat="48.8183" lon="1.36238">
        <ele>128.600006</ele>
        <time>2017-04-18T14:46:44Z</time>
      </trkpt>
      <trkpt lat="48.8184" lon="1.36242">
        <ele>126.5</ele>
        <time>2017-04-18T14:46:47Z</time>
      </trkpt>
      <trkpt lat="48.8185" lon="1.36245">
        <ele>124.400002</ele>
        <time>2017-04-18T14:46:50Z</time>
      </trkpt>
      <trkpt lat="48.8186" lon="1.36248">
        <ele>121.599998</ele>
        <time>2017-04-18T14:46:54Z</time>
      </trkpt>
      <trkpt lat="48.81869" lon="1.36237">
        <ele>118.900002</ele>
        <time>2017-04-18T14:46:58Z</time>
      </trkpt>
      <trkpt lat="48.81869" lon="1.36221">
        <ele>116.099998</ele>
        <time>2017-04-18T14:47:02Z</time>
      </trkpt>
      <trkpt lat="48.81872" lon="1.36206">
        <ele>114.300003</ele>
        <time>2017-04-18T14:47:05Z</time>
      </trkpt>
      <trkpt lat="48.81875" lon="1.36193">
        <ele>112.599998</ele>
        <time>2017-04-18T14:47:08Z</time>
      </trkpt>
      <trkpt lat="48.81873" lon="1.36176">
        <ele>111</ele>
        <time>2017-04-18T14:47:11Z</time>
      </trkpt>
      <trkpt lat="48.81875" lon="1.36156">
        <ele>109.400002</ele>
        <time>2017-04-18T14:47:14Z</time>
      </trkpt>
      <trkpt lat="48.81881" lon="1.36142">
        <ele>108.199997</ele>
        <time>2017-04-18T14:47:16Z</time>
      </trkpt>
      <trkpt lat="48.81888" lon="1.36131">
        <ele>107</ele>
        <time>2017-04-18T14:47:18Z</time>
      </trkpt>
      <trkpt lat="48.81895" lon="1.36116">
        <ele>105.599998</ele>
        <time>2017-04-18T14:47:20Z</time>
      </trkpt>
      <trkpt lat="48.81903" lon="1.36102">
        <ele>103.800003</ele>
        <time>2017-04-18T14:47:22Z</time>
      </trkpt>
      <trkpt lat="48.81913" lon="1.36091">
        <ele>101.900002</ele>
        <time>2017-04-18T14:47:24Z</time>
      </trkpt>
      <trkpt lat="48.81923" lon="1.36083">
        <ele>100.199997</ele>
        <time>2017-04-18T14:47:26Z</time>
      </trkpt>
      <trkpt lat="48.81935" lon="1.36073">
        <ele>98.199997</ele>
        <time>2017-04-18T14:47:28Z</time>
      </trkpt>
      <trkpt lat="48.81946" lon="1.36064">
        <ele>96.400002</ele>
        <time>2017-04-18T14:47:30Z</time>
      </trkpt>
      <trkpt lat="48.81954" lon="1.36052">
        <ele>94.699997</ele>
        <time>2017-04-18T14:47:32Z</time>
      </trkpt>
      <trkpt lat="48.81961" lon="1.36039">
        <ele>92.5</ele>
        <time>2017-04-18T14:47:35Z</time>
      </trkpt>
      <trkpt lat="48.81969" lon="1.36024">
        <ele>90.599998</ele>
        <time>2017-04-18T14:47:38Z</time>
      </trkpt>
      <trkpt lat="48.81978" lon="1.3602">
        <ele>89.400002</ele>
        <time>2017-04-18T14:47:40Z</time>
      </trkpt>
      <trkpt lat="48.81988" lon="1.36019">
        <ele>88.400002</ele>
        <time>2017-04-18T14:47:42Z</time>
      </trkpt>
      <trkpt lat="48.81997" lon="1.36015">
        <ele>86.699997</ele>
        <time>2017-04-18T14:47:46Z</time>
      </trkpt>
      <trkpt lat="48.82005" lon="1.35999">
        <ele>85.199997</ele>
        <time>2017-04-18T14:47:50Z</time>
      </trkpt>
      <trkpt lat="48.82008" lon="1.35984">
        <ele>84.599998</ele>
        <time>2017-04-18T14:47:52Z</time>
      </trkpt>
      <trkpt lat="48.82011" lon="1.35969">
        <ele>84</ele>
        <time>2017-04-18T14:47:54Z</time>
      </trkpt>
      <trkpt lat="48.82015" lon="1.35952">
        <ele>83.5</ele>
        <time>2017-04-18T14:47:56Z</time>
      </trkpt>
      <trkpt lat="48.82019" lon="1.35935">
        <ele>83</ele>
        <time>2017-04-18T14:47:58Z</time>
      </trkpt>
      <trkpt lat="48.82022" lon="1.35919">
        <ele>82.599998</ele>
        <time>2017-04-18T14:48:00Z</time>
      </trkpt>
      <trkpt lat="48.82025" lon="1.35902">
        <ele>82.199997</ele>
        <time>2017-04-18T14:48:02Z</time>
      </trkpt>
      <trkpt lat="48.8203" lon="1.35884">
        <ele>81.900002</ele>
        <time>2017-04-18T14:48:04Z</time>
      </trkpt>
      <trkpt lat="48.82035" lon="1.35865">
        <ele>81.5</ele>
        <time>2017-04-18T14:48:06Z</time>
      </trkpt>
      <trkpt lat="48.8204" lon="1.35847">
        <ele>81.199997</ele>
        <time>2017-04-18T14:48:08Z</time>
      </trkpt>
      <trkpt lat="48.82046" lon="1.35828">
        <ele>80.800003</ele>
        <time>2017-04-18T14:48:10Z</time>
      </trkpt>
      <trkpt lat="48.82053" lon="1.3581">
        <ele>80.5</ele>
        <time>2017-04-18T14:48:12Z</time>
      </trkpt>
      <trkpt lat="48.82059" lon="1.35791">
        <ele>80.099998</ele>
        <time>2017-04-18T14:48:14Z</time>
      </trkpt>
      <trkpt lat="48.82064" lon="1.35772">
        <ele>79.699997</ele>
        <time>2017-04-18T14:48:16Z</time>
      </trkpt>
      <trkpt lat="48.8207" lon="1.35754">
        <ele>79.400002</ele>
        <time>2017-04-18T14:48:18Z</time>
      </trkpt>
      <trkpt lat="48.82076" lon="1.35736">
        <ele>79.099998</ele>
        <time>2017-04-18T14:48:20Z</time>
      </trkpt>
      <trkpt lat="48.82081" lon="1.35719">
        <ele>78.900002</ele>
        <time>2017-04-18T14:48:22Z</time>
      </trkpt>
      <trkpt lat="48.82086" lon="1.35703">
        <ele>78.699997</ele>
        <time>2017-04-18T14:48:24Z</time>
      </trkpt>
      <trkpt lat="48.82092" lon="1.35687">
        <ele>78.400002</ele>
        <time>2017-04-18T14:48:26Z</time>
      </trkpt>
      <trkpt lat="48.82097" lon="1.3567">
        <ele>78.300003</ele>
        <time>2017-04-18T14:48:28Z</time>
      </trkpt>
      <trkpt lat="48.82102" lon="1.35653">
        <ele>78.099998</ele>
        <time>2017-04-18T14:48:30Z</time>
      </trkpt>
      <trkpt lat="48.82107" lon="1.35636">
        <ele>78</ele>
        <time>2017-04-18T14:48:32Z</time>
      </trkpt>
      <trkpt lat="48.82113" lon="1.3562">
        <ele>77.800003</ele>
        <time>2017-04-18T14:48:34Z</time>
      </trkpt>
      <trkpt lat="48.82119" lon="1.35603">
        <ele>77.699997</ele>
        <time>2017-04-18T14:48:36Z</time>
      </trkpt>
      <trkpt lat="48.82124" lon="1.35587">
        <ele>77.599998</ele>
        <time>2017-04-18T14:48:38Z</time>
      </trkpt>
      <trkpt lat="48.82129" lon="1.3557">
        <ele>77.5</ele>
        <time>2017-04-18T14:48:40Z</time>
      </trkpt>
      <trkpt lat="48.82134" lon="1.35554">
        <ele>77.400002</ele>
        <time>2017-04-18T14:48:42Z</time>
      </trkpt>
      <trkpt lat="48.82139" lon="1.35538">
        <ele>77.300003</ele>
        <time>2017-04-18T14:48:44Z</time>
      </trkpt>
      <trkpt lat="48.82145" lon="1.35522">
        <ele>77.199997</ele>
        <time>2017-04-18T14:48:46Z</time>
      </trkpt>
      <trkpt lat="48.8215" lon="1.35506">
        <ele>77.199997</ele>
        <time>2017-04-18T14:48:48Z</time>
      </trkpt>
      <trkpt lat="48.82155" lon="1.3549">
        <ele>77.099998</ele>
        <time>2017-04-18T14:48:50Z</time>
      </trkpt>
      <trkpt lat="48.8216" lon="1.35472">
        <ele>77</ele>
        <time>2017-04-18T14:48:52Z</time>
      </trkpt>
      <trkpt lat="48.82165" lon="1.35454">
        <ele>77</ele>
        <time>2017-04-18T14:48:54Z</time>
      </trkpt>
      <trkpt lat="48.82171" lon="1.35438">
        <ele>76.900002</ele>
        <time>2017-04-18T14:48:56Z</time>
      </trkpt>
      <trkpt lat="48.82176" lon="1.35422">
        <ele>76.900002</ele>
        <time>2017-04-18T14:48:58Z</time>
      </trkpt>
      <trkpt lat="48.82181" lon="1.35405">
        <ele>76.800003</ele>
        <time>2017-04-18T14:49:00Z</time>
      </trkpt>
      <trkpt lat="48.82187" lon="1.35388">
        <ele>76.800003</ele>
        <time>2017-04-18T14:49:02Z</time>
      </trkpt>
      <trkpt lat="48.82192" lon="1.35371">
        <ele>76.699997</ele>
        <time>2017-04-18T14:49:04Z</time>
      </trkpt>
      <trkpt lat="48.82197" lon="1.35354">
        <ele>76.699997</ele>
        <time>2017-04-18T14:49:06Z</time>
      </trkpt>
      <trkpt lat="48.82203" lon="1.35337">
        <ele>76.599998</ele>
        <time>2017-04-18T14:49:08Z</time>
      </trkpt>
      <trkpt lat="48.82208" lon="1.3532">
        <ele>76.5</ele>
        <time>2017-04-18T14:49:10Z</time>
      </trkpt>
      <trkpt lat="48.82214" lon="1.35303">
        <ele>76.5</ele>
        <time>2017-04-18T14:49:12Z</time>
      </trkpt>
      <trkpt lat="48.82219" lon="1.35286">
        <ele>76.400002</ele>
        <time>2017-04-18T14:49:14Z</time>
      </trkpt>
      <trkpt lat="48.82224" lon="1.3527">
        <ele>76.300003</ele>
        <time>2017-04-18T14:49:16Z</time>
      </trkpt>
      <trkpt lat="48.8223" lon="1.35253">
        <ele>76.300003</ele>
        <time>2017-04-18T14:49:18Z</time>
      </trkpt>
      <trkpt lat="48.82235" lon="1.35236">
        <ele>76.199997</ele>
        <time>2017-04-18T14:49:20Z</time>
      </trkpt>
      <trkpt lat="48.82241" lon="1.35219">
        <ele>76.199997</ele>
        <time>2017-04-18T14:49:22Z</time>
      </trkpt>
      <trkpt lat="48.82246" lon="1.35201">
        <ele>76.199997</ele>
        <time>2017-04-18T14:49:24Z</time>
      </trkpt>
      <trkpt lat="48.82251" lon="1.35183">
        <ele>76.099998</ele>
        <time>2017-04-18T14:49:26Z</time>
      </trkpt>
      <trkpt lat="48.82256" lon="1.35165">
        <ele>76.099998</ele>
        <time>2017-04-18T14:49:28Z</time>
      </trkpt>
      <trkpt lat="48.8226" lon="1.35147">
        <ele>76.099998</ele>
        <time>2017-04-18T14:49:30Z</time>
      </trkpt>
      <trkpt lat="48.82264" lon="1.35129">
        <ele>76.099998</ele>
        <time>2017-04-18T14:49:32Z</time>
      </trkpt>
      <trkpt lat="48.82269" lon="1.3511">
        <ele>76.099998</ele>
        <time>2017-04-18T14:49:34Z</time>
      </trkpt>
      <trkpt lat="48.82274" lon="1.35092">
        <ele>76</ele>
        <time>2017-04-18T14:49:36Z</time>
      </trkpt>
      <trkpt lat="48.82279" lon="1.35074">
        <ele>76</ele>
        <time>2017-04-18T14:49:38Z</time>
      </trkpt>
      <trkpt lat="48.82284" lon="1.35056">
        <ele>76</ele>
        <time>2017-04-18T14:49:40Z</time>
      </trkpt>
      <trkpt lat="48.82289" lon="1.35039">
        <ele>76</ele>
        <time>2017-04-18T14:49:42Z</time>
      </trkpt>
      <trkpt lat="48.82295" lon="1.35022">
        <ele>76</ele>
        <time>2017-04-18T14:49:44Z</time>
      </trkpt>
      <trkpt lat="48.82303" lon="1.35007">
        <ele>76</ele>
        <time>2017-04-18T14:49:46Z</time>
      </trkpt>
      <trkpt lat="48.82312" lon="1.34994">
        <ele>76</ele>
        <time>2017-04-18T14:49:48Z</time>
      </trkpt>
      <trkpt lat="48.82321" lon="1.34982">
        <ele>76</ele>
        <time>2017-04-18T14:49:50Z</time>
      </trkpt>
      <trkpt lat="48.8233" lon="1.34969">
        <ele>76</ele>
        <time>2017-04-18T14:49:52Z</time>
      </trkpt>
      <trkpt lat="48.82339" lon="1.34956">
        <ele>76</ele>
        <time>2017-04-18T14:49:54Z</time>
      </trkpt>
      <trkpt lat="48.82348" lon="1.34942">
        <ele>76</ele>
        <time>2017-04-18T14:49:56Z</time>
      </trkpt>
      <trkpt lat="48.82356" lon="1.34929">
        <ele>76</ele>
        <time>2017-04-18T14:49:58Z</time>
      </trkpt>
      <trkpt lat="48.82364" lon="1.34914">
        <ele>76</ele>
        <time>2017-04-18T14:50:00Z</time>
      </trkpt>
      <trkpt lat="48.82372" lon="1.349">
        <ele>75.900002</ele>
        <time>2017-04-18T14:50:02Z</time>
      </trkpt>
      <trkpt lat="48.82381" lon="1.34887">
        <ele>75.900002</ele>
        <time>2017-04-18T14:50:04Z</time>
      </trkpt>
      <trkpt lat="48.82389" lon="1.34874">
        <ele>75.900002</ele>
        <time>2017-04-18T14:50:06Z</time>
      </trkpt>
      <trkpt lat="48.82398" lon="1.34862">
        <ele>75.900002</ele>
        <time>2017-04-18T14:50:08Z</time>
      </trkpt>
      <trkpt lat="48.82407" lon="1.34851">
        <ele>75.900002</ele>
        <time>2017-04-18T14:50:10Z</time>
      </trkpt>
      <trkpt lat="48.82417" lon="1.34841">
        <ele>75.900002</ele>
        <time>2017-04-18T14:50:12Z</time>
      </trkpt>
      <trkpt lat="48.82426" lon="1.34831">
        <ele>75.900002</ele>
        <time>2017-04-18T14:50:14Z</time>
      </trkpt>
      <trkpt lat="48.82435" lon="1.34822">
        <ele>76</ele>
        <time>2017-04-18T14:50:16Z</time>
      </trkpt>
      <trkpt lat="48.82445" lon="1.34812">
        <ele>76</ele>
        <time>2017-04-18T14:50:18Z</time>
      </trkpt>
      <trkpt lat="48.82454" lon="1.34803">
        <ele>76</ele>
        <time>2017-04-18T14:50:20Z</time>
      </trkpt>
      <trkpt lat="48.82463" lon="1.34794">
        <ele>76</ele>
        <time>2017-04-18T14:50:22Z</time>
      </trkpt>
      <trkpt lat="48.82473" lon="1.34785">
        <ele>76</ele>
        <time>2017-04-18T14:50:24Z</time>
      </trkpt>
      <trkpt lat="48.82482" lon="1.34776">
        <ele>76.099998</ele>
        <time>2017-04-18T14:50:26Z</time>
      </trkpt>
      <trkpt lat="48.82493" lon="1.34768">
        <ele>76.099998</ele>
        <time>2017-04-18T14:50:28Z</time>
      </trkpt>
      <trkpt lat="48.82503" lon="1.34761">
        <ele>76.199997</ele>
        <time>2017-04-18T14:50:30Z</time>
      </trkpt>
      <trkpt lat="48.82513" lon="1.34753">
        <ele>76.199997</ele>
        <time>2017-04-18T14:50:32Z</time>
      </trkpt>
      <trkpt lat="48.82522" lon="1.34747">
        <ele>76.300003</ele>
        <time>2017-04-18T14:50:34Z</time>
      </trkpt>
      <trkpt lat="48.82531" lon="1.3474">
        <ele>76.300003</ele>
        <time>2017-04-18T14:50:36Z</time>
      </trkpt>
      <trkpt lat="48.82543" lon="1.34732">
        <ele>76.300003</ele>
        <time>2017-04-18T14:50:39Z</time>
      </trkpt>
      <trkpt lat="48.82555" lon="1.34723">
        <ele>76.400002</ele>
        <time>2017-04-18T14:50:42Z</time>
      </trkpt>
      <trkpt lat="48.8256" lon="1.34704">
        <ele>76.400002</ele>
        <time>2017-04-18T14:50:45Z</time>
      </trkpt>
      <trkpt lat="48.8256" lon="1.34689">
        <ele>76.400002</ele>
        <time>2017-04-18T14:50:47Z</time>
      </trkpt>
      <trkpt lat="48.82559" lon="1.34673">
        <ele>76.5</ele>
        <time>2017-04-18T14:50:49Z</time>
      </trkpt>
      <trkpt lat="48.82558" lon="1.34658">
        <ele>76.5</ele>
        <time>2017-04-18T14:50:51Z</time>
      </trkpt>
      <trkpt lat="48.82556" lon="1.34644">
        <ele>76.5</ele>
        <time>2017-04-18T14:50:53Z</time>
      </trkpt>
      <trkpt lat="48.82558" lon="1.34626">
        <ele>76.5</ele>
        <time>2017-04-18T14:50:56Z</time>
      </trkpt>
      <trkpt lat="48.82566" lon="1.34613">
        <ele>76.599998</ele>
        <time>2017-04-18T14:51:00Z</time>
      </trkpt>
      <trkpt lat="48.82571" lon="1.34601">
        <ele>76.699997</ele>
        <time>2017-04-18T14:51:03Z</time>
      </trkpt>
      <trkpt lat="48.82576" lon="1.34587">
        <ele>76.900002</ele>
        <time>2017-04-18T14:51:06Z</time>
      </trkpt>
      <trkpt lat="48.82579" lon="1.34573">
        <ele>77.099998</ele>
        <time>2017-04-18T14:51:09Z</time>
      </trkpt>
      <trkpt lat="48.82583" lon="1.34558">
        <ele>77.300003</ele>
        <time>2017-04-18T14:51:12Z</time>
      </trkpt>
      <trkpt lat="48.82595" lon="1.34556">
        <ele>77.5</ele>
        <time>2017-04-18T14:51:15Z</time>
      </trkpt>
      <trkpt lat="48.82608" lon="1.34558">
        <ele>77.699997</ele>
        <time>2017-04-18T14:51:18Z</time>
      </trkpt>
      <trkpt lat="48.82621" lon="1.3456">
        <ele>77.900002</ele>
        <time>2017-04-18T14:51:21Z</time>
      </trkpt>
      <trkpt lat="48.8263" lon="1.34562">
        <ele>78</ele>
        <time>2017-04-18T14:51:23Z</time>
      </trkpt>
      <trkpt lat="48.82639" lon="1.34566">
        <ele>78.099998</ele>
        <time>2017-04-18T14:51:25Z</time>
      </trkpt>
      <trkpt lat="48.82649" lon="1.34571">
        <ele>78.199997</ele>
        <time>2017-04-18T14:51:27Z</time>
      </trkpt>
      <trkpt lat="48.82659" lon="1.34572">
        <ele>78.300003</ele>
        <time>2017-04-18T14:51:29Z</time>
      </trkpt>
      <trkpt lat="48.82669" lon="1.34574">
        <ele>78.300003</ele>
        <time>2017-04-18T14:51:31Z</time>
      </trkpt>
      <trkpt lat="48.82679" lon="1.34576">
        <ele>78.400002</ele>
        <time>2017-04-18T14:51:33Z</time>
      </trkpt>
      <trkpt lat="48.82689" lon="1.34577">
        <ele>78.400002</ele>
        <time>2017-04-18T14:51:35Z</time>
      </trkpt>
      <trkpt lat="48.827" lon="1.3458">
        <ele>78.5</ele>
        <time>2017-04-18T14:51:37Z</time>
      </trkpt>
      <trkpt lat="48.82713" lon="1.34585">
        <ele>78.599998</ele>
        <time>2017-04-18T14:51:40Z</time>
      </trkpt>
      <trkpt lat="48.82721" lon="1.3459">
        <ele>78.599998</ele>
        <time>2017-04-18T14:51:42Z</time>
      </trkpt>
      <trkpt lat="48.82733" lon="1.34593">
        <ele>78.699997</ele>
        <time>2017-04-18T14:51:45Z</time>
      </trkpt>
      <trkpt lat="48.82744" lon="1.34595">
        <ele>78.800003</ele>
        <time>2017-04-18T14:51:48Z</time>
      </trkpt>
      <trkpt lat="48.82753" lon="1.34598">
        <ele>78.800003</ele>
        <time>2017-04-18T14:51:51Z</time>
      </trkpt>
      <trkpt lat="48.82755" lon="1.34613">
        <ele>78.900002</ele>
        <time>2017-04-18T14:51:56Z</time>
      </trkpt>
      <trkpt lat="48.82758" lon="1.34613">
        <ele>79</ele>
        <time>2017-04-18T14:52:08Z</time>
      </trkpt>
    </trkseg>
  </trk>
</gpx>